<?xml version="1.0" encoding="UTF-8" standalone="no" ?>
<gpx xmlns="http://www.topografix.com/GPX/1/1" xmlns:xsi="http://www.w3.org/2001/XMLSchema-instance" xsi:schemaLocation="http://www.topografix.com/GPX/1/1 http://www.topografix.com/GPX/1/1/gpx.xsd" version="1.1" creator="VisuGPX - https://www.visugpx.com">
  <metadata>
    <name>Yerres et Sénart Boucle 19 km</name>
    <desc><![CDATA[Sortie effectuée fin Janvier 2018 avec le Rando Club Yerrois
Tracée et menée par Pierre

Forêt super boueuse à cette époque de l'année
relive[url]https://youtu.be/ZEzwA6mbXb8[/url]]]></desc>
  </metadata>
  <trk>
    <name><![CDATA[Yerres et Sénart Boucle 19 km_1]]></name>
    <trkseg>
      <trkpt lat="48.71477" lon="2.479">
        <ele>38</ele>
        <time>2018-01-31T09:00:54Z</time>
      </trkpt>
      <trkpt lat="48.71473" lon="2.479">
        <ele>38</ele>
        <time>2018-01-31T09:00:54Z</time>
      </trkpt>
      <trkpt lat="48.71469" lon="2.47898">
        <ele>38</ele>
        <time>2018-01-31T09:00:54Z</time>
      </trkpt>
      <trkpt lat="48.71468" lon="2.47896">
        <ele>38</ele>
        <time>2018-01-31T09:00:54Z</time>
      </trkpt>
      <trkpt lat="48.71464" lon="2.47894">
        <ele>38</ele>
        <time>2018-01-31T09:00:54Z</time>
      </trkpt>
      <trkpt lat="48.71461" lon="2.47893">
        <ele>38</ele>
        <time>2018-01-31T09:01:10Z</time>
      </trkpt>
      <trkpt lat="48.71456" lon="2.47888">
        <ele>39</ele>
        <time>2018-01-31T09:01:10Z</time>
      </trkpt>
      <trkpt lat="48.7145" lon="2.47891">
        <ele>39</ele>
        <time>2018-01-31T09:01:10Z</time>
      </trkpt>
      <trkpt lat="48.71447" lon="2.47892">
        <ele>39</ele>
        <time>2018-01-31T09:01:10Z</time>
      </trkpt>
      <trkpt lat="48.71446" lon="2.47892">
        <ele>39</ele>
        <time>2018-01-31T09:01:26Z</time>
      </trkpt>
      <trkpt lat="48.7144" lon="2.47891">
        <ele>39</ele>
        <time>2018-01-31T09:01:26Z</time>
      </trkpt>
      <trkpt lat="48.71438" lon="2.47889">
        <ele>39</ele>
        <time>2018-01-31T09:01:26Z</time>
      </trkpt>
      <trkpt lat="48.71433" lon="2.47889">
        <ele>39</ele>
        <time>2018-01-31T09:01:26Z</time>
      </trkpt>
      <trkpt lat="48.71414" lon="2.47899">
        <ele>39</ele>
        <time>2018-01-31T09:01:58Z</time>
      </trkpt>
      <trkpt lat="48.71411" lon="2.47899">
        <ele>39</ele>
        <time>2018-01-31T09:01:58Z</time>
      </trkpt>
      <trkpt lat="48.71405" lon="2.47899">
        <ele>39</ele>
        <time>2018-01-31T09:01:58Z</time>
      </trkpt>
      <trkpt lat="48.714" lon="2.47901">
        <ele>39</ele>
        <time>2018-01-31T09:01:58Z</time>
      </trkpt>
      <trkpt lat="48.71394" lon="2.47903">
        <ele>39</ele>
        <time>2018-01-31T09:01:58Z</time>
      </trkpt>
      <trkpt lat="48.71389" lon="2.47905">
        <ele>39</ele>
        <time>2018-01-31T09:02:14Z</time>
      </trkpt>
      <trkpt lat="48.71384" lon="2.47908">
        <ele>39</ele>
        <time>2018-01-31T09:02:14Z</time>
      </trkpt>
      <trkpt lat="48.71378" lon="2.4791">
        <ele>39</ele>
        <time>2018-01-31T09:02:14Z</time>
      </trkpt>
      <trkpt lat="48.71376" lon="2.47911">
        <ele>39</ele>
        <time>2018-01-31T09:02:14Z</time>
      </trkpt>
      <trkpt lat="48.71376" lon="2.47912">
        <ele>39</ele>
        <time>2018-01-31T09:02:30Z</time>
      </trkpt>
      <trkpt lat="48.71369" lon="2.47914">
        <ele>39</ele>
        <time>2018-01-31T09:02:30Z</time>
      </trkpt>
      <trkpt lat="48.71366" lon="2.47916">
        <ele>39</ele>
        <time>2018-01-31T09:02:30Z</time>
      </trkpt>
      <trkpt lat="48.71357" lon="2.47914">
        <ele>39</ele>
        <time>2018-01-31T09:02:30Z</time>
      </trkpt>
      <trkpt lat="48.71349" lon="2.47915">
        <ele>39</ele>
        <time>2018-01-31T09:02:46Z</time>
      </trkpt>
      <trkpt lat="48.71347" lon="2.47914">
        <ele>39</ele>
        <time>2018-01-31T09:02:46Z</time>
      </trkpt>
      <trkpt lat="48.71343" lon="2.47918">
        <ele>39</ele>
        <time>2018-01-31T09:02:46Z</time>
      </trkpt>
      <trkpt lat="48.71338" lon="2.47923">
        <ele>39</ele>
        <time>2018-01-31T09:02:46Z</time>
      </trkpt>
      <trkpt lat="48.71334" lon="2.47921">
        <ele>39</ele>
        <time>2018-01-31T09:03:02Z</time>
      </trkpt>
      <trkpt lat="48.71327" lon="2.47921">
        <ele>39</ele>
        <time>2018-01-31T09:03:02Z</time>
      </trkpt>
      <trkpt lat="48.71322" lon="2.47925">
        <ele>39</ele>
        <time>2018-01-31T09:03:02Z</time>
      </trkpt>
      <trkpt lat="48.71316" lon="2.47925">
        <ele>39</ele>
        <time>2018-01-31T09:03:02Z</time>
      </trkpt>
      <trkpt lat="48.7131" lon="2.47929">
        <ele>39</ele>
        <time>2018-01-31T09:03:18Z</time>
      </trkpt>
      <trkpt lat="48.71307" lon="2.47931">
        <ele>39</ele>
        <time>2018-01-31T09:03:18Z</time>
      </trkpt>
      <trkpt lat="48.71299" lon="2.47934">
        <ele>39</ele>
        <time>2018-01-31T09:03:18Z</time>
      </trkpt>
      <trkpt lat="48.71296" lon="2.47938">
        <ele>39</ele>
        <time>2018-01-31T09:03:18Z</time>
      </trkpt>
      <trkpt lat="48.71292" lon="2.47942">
        <ele>39</ele>
        <time>2018-01-31T09:03:34Z</time>
      </trkpt>
      <trkpt lat="48.71286" lon="2.47945">
        <ele>41</ele>
        <time>2018-01-31T09:03:34Z</time>
      </trkpt>
      <trkpt lat="48.71278" lon="2.47948">
        <ele>41</ele>
        <time>2018-01-31T09:03:34Z</time>
      </trkpt>
      <trkpt lat="48.71272" lon="2.4795">
        <ele>41</ele>
        <time>2018-01-31T09:03:34Z</time>
      </trkpt>
      <trkpt lat="48.71262" lon="2.47949">
        <ele>41</ele>
        <time>2018-01-31T09:04:02Z</time>
      </trkpt>
      <trkpt lat="48.71262" lon="2.47949">
        <ele>41</ele>
        <time>2018-01-31T09:04:02Z</time>
      </trkpt>
      <trkpt lat="48.71262" lon="2.47949">
        <ele>41</ele>
        <time>2018-01-31T09:04:02Z</time>
      </trkpt>
      <trkpt lat="48.7126" lon="2.47945">
        <ele>41</ele>
        <time>2018-01-31T09:04:02Z</time>
      </trkpt>
      <trkpt lat="48.71256" lon="2.47942">
        <ele>41</ele>
        <time>2018-01-31T09:04:02Z</time>
      </trkpt>
      <trkpt lat="48.71249" lon="2.47937">
        <ele>41</ele>
        <time>2018-01-31T09:04:18Z</time>
      </trkpt>
      <trkpt lat="48.71243" lon="2.47934">
        <ele>41</ele>
        <time>2018-01-31T09:04:18Z</time>
      </trkpt>
      <trkpt lat="48.71238" lon="2.47934">
        <ele>41</ele>
        <time>2018-01-31T09:04:18Z</time>
      </trkpt>
      <trkpt lat="48.71231" lon="2.47936">
        <ele>41</ele>
        <time>2018-01-31T09:04:18Z</time>
      </trkpt>
      <trkpt lat="48.71224" lon="2.47938">
        <ele>41</ele>
        <time>2018-01-31T09:04:38Z</time>
      </trkpt>
      <trkpt lat="48.71221" lon="2.47941">
        <ele>41</ele>
        <time>2018-01-31T09:04:38Z</time>
      </trkpt>
      <trkpt lat="48.7122" lon="2.47942">
        <ele>41</ele>
        <time>2018-01-31T09:04:38Z</time>
      </trkpt>
      <trkpt lat="48.71217" lon="2.47947">
        <ele>41</ele>
        <time>2018-01-31T09:04:38Z</time>
      </trkpt>
      <trkpt lat="48.71213" lon="2.47948">
        <ele>41</ele>
        <time>2018-01-31T09:04:38Z</time>
      </trkpt>
      <trkpt lat="48.71206" lon="2.4795">
        <ele>38</ele>
        <time>2018-01-31T09:04:54Z</time>
      </trkpt>
      <trkpt lat="48.71203" lon="2.47952">
        <ele>38</ele>
        <time>2018-01-31T09:04:54Z</time>
      </trkpt>
      <trkpt lat="48.71199" lon="2.47951">
        <ele>38</ele>
        <time>2018-01-31T09:04:54Z</time>
      </trkpt>
      <trkpt lat="48.71187" lon="2.47955">
        <ele>38</ele>
        <time>2018-01-31T09:04:54Z</time>
      </trkpt>
      <trkpt lat="48.71183" lon="2.47956">
        <ele>38</ele>
        <time>2018-01-31T09:05:10Z</time>
      </trkpt>
      <trkpt lat="48.71181" lon="2.47958">
        <ele>38</ele>
        <time>2018-01-31T09:05:10Z</time>
      </trkpt>
      <trkpt lat="48.71176" lon="2.47961">
        <ele>39</ele>
        <time>2018-01-31T09:05:10Z</time>
      </trkpt>
      <trkpt lat="48.71171" lon="2.47961">
        <ele>39</ele>
        <time>2018-01-31T09:05:10Z</time>
      </trkpt>
      <trkpt lat="48.71164" lon="2.4796">
        <ele>39</ele>
        <time>2018-01-31T09:05:26Z</time>
      </trkpt>
      <trkpt lat="48.7116" lon="2.47961">
        <ele>39</ele>
        <time>2018-01-31T09:05:26Z</time>
      </trkpt>
      <trkpt lat="48.71158" lon="2.47964">
        <ele>39</ele>
        <time>2018-01-31T09:05:26Z</time>
      </trkpt>
      <trkpt lat="48.71154" lon="2.47964">
        <ele>39</ele>
        <time>2018-01-31T09:05:26Z</time>
      </trkpt>
      <trkpt lat="48.71149" lon="2.47968">
        <ele>39</ele>
        <time>2018-01-31T09:05:42Z</time>
      </trkpt>
      <trkpt lat="48.71142" lon="2.47971">
        <ele>39</ele>
        <time>2018-01-31T09:05:42Z</time>
      </trkpt>
      <trkpt lat="48.71137" lon="2.47972">
        <ele>39</ele>
        <time>2018-01-31T09:05:42Z</time>
      </trkpt>
      <trkpt lat="48.71129" lon="2.47977">
        <ele>39</ele>
        <time>2018-01-31T09:05:42Z</time>
      </trkpt>
      <trkpt lat="48.71121" lon="2.4798">
        <ele>36</ele>
        <time>2018-01-31T09:05:58Z</time>
      </trkpt>
      <trkpt lat="48.71119" lon="2.47982">
        <ele>36</ele>
        <time>2018-01-31T09:05:58Z</time>
      </trkpt>
      <trkpt lat="48.71115" lon="2.47983">
        <ele>36</ele>
        <time>2018-01-31T09:05:58Z</time>
      </trkpt>
      <trkpt lat="48.71112" lon="2.47982">
        <ele>36</ele>
        <time>2018-01-31T09:05:58Z</time>
      </trkpt>
      <trkpt lat="48.71111" lon="2.47977">
        <ele>36</ele>
        <time>2018-01-31T09:06:14Z</time>
      </trkpt>
      <trkpt lat="48.71111" lon="2.47966">
        <ele>36</ele>
        <time>2018-01-31T09:06:14Z</time>
      </trkpt>
      <trkpt lat="48.71112" lon="2.47957">
        <ele>36</ele>
        <time>2018-01-31T09:06:14Z</time>
      </trkpt>
      <trkpt lat="48.7111" lon="2.47949">
        <ele>36</ele>
        <time>2018-01-31T09:06:14Z</time>
      </trkpt>
      <trkpt lat="48.71109" lon="2.47939">
        <ele>36</ele>
        <time>2018-01-31T09:06:30Z</time>
      </trkpt>
      <trkpt lat="48.7111" lon="2.47931">
        <ele>36</ele>
        <time>2018-01-31T09:06:30Z</time>
      </trkpt>
      <trkpt lat="48.7111" lon="2.4792">
        <ele>36</ele>
        <time>2018-01-31T09:06:30Z</time>
      </trkpt>
      <trkpt lat="48.7111" lon="2.47913">
        <ele>36</ele>
        <time>2018-01-31T09:06:30Z</time>
      </trkpt>
      <trkpt lat="48.71109" lon="2.47908">
        <ele>36</ele>
        <time>2018-01-31T09:06:46Z</time>
      </trkpt>
      <trkpt lat="48.71107" lon="2.479">
        <ele>36</ele>
        <time>2018-01-31T09:06:46Z</time>
      </trkpt>
      <trkpt lat="48.7111" lon="2.47894">
        <ele>36</ele>
        <time>2018-01-31T09:06:46Z</time>
      </trkpt>
      <trkpt lat="48.71109" lon="2.47885">
        <ele>36</ele>
        <time>2018-01-31T09:06:46Z</time>
      </trkpt>
      <trkpt lat="48.71104" lon="2.47875">
        <ele>36</ele>
        <time>2018-01-31T09:07:02Z</time>
      </trkpt>
      <trkpt lat="48.71099" lon="2.47863">
        <ele>36</ele>
        <time>2018-01-31T09:07:02Z</time>
      </trkpt>
      <trkpt lat="48.71099" lon="2.47855">
        <ele>36</ele>
        <time>2018-01-31T09:07:02Z</time>
      </trkpt>
      <trkpt lat="48.71098" lon="2.47848">
        <ele>36</ele>
        <time>2018-01-31T09:07:02Z</time>
      </trkpt>
      <trkpt lat="48.71097" lon="2.47838">
        <ele>36</ele>
        <time>2018-01-31T09:07:18Z</time>
      </trkpt>
      <trkpt lat="48.71096" lon="2.47832">
        <ele>36</ele>
        <time>2018-01-31T09:07:18Z</time>
      </trkpt>
      <trkpt lat="48.71095" lon="2.47825">
        <ele>36</ele>
        <time>2018-01-31T09:07:18Z</time>
      </trkpt>
      <trkpt lat="48.71095" lon="2.47821">
        <ele>36</ele>
        <time>2018-01-31T09:07:18Z</time>
      </trkpt>
      <trkpt lat="48.71094" lon="2.4781">
        <ele>36</ele>
        <time>2018-01-31T09:07:34Z</time>
      </trkpt>
      <trkpt lat="48.71092" lon="2.47803">
        <ele>36</ele>
        <time>2018-01-31T09:07:34Z</time>
      </trkpt>
      <trkpt lat="48.71089" lon="2.47795">
        <ele>36</ele>
        <time>2018-01-31T09:07:34Z</time>
      </trkpt>
      <trkpt lat="48.71084" lon="2.47787">
        <ele>38</ele>
        <time>2018-01-31T09:07:34Z</time>
      </trkpt>
      <trkpt lat="48.71079" lon="2.47783">
        <ele>38</ele>
        <time>2018-01-31T09:07:50Z</time>
      </trkpt>
      <trkpt lat="48.71073" lon="2.47785">
        <ele>38</ele>
        <time>2018-01-31T09:07:50Z</time>
      </trkpt>
      <trkpt lat="48.71068" lon="2.47786">
        <ele>38</ele>
        <time>2018-01-31T09:07:50Z</time>
      </trkpt>
      <trkpt lat="48.71063" lon="2.47787">
        <ele>38</ele>
        <time>2018-01-31T09:07:50Z</time>
      </trkpt>
      <trkpt lat="48.71058" lon="2.47789">
        <ele>38</ele>
        <time>2018-01-31T09:08:06Z</time>
      </trkpt>
      <trkpt lat="48.71052" lon="2.47792">
        <ele>36</ele>
        <time>2018-01-31T09:08:06Z</time>
      </trkpt>
      <trkpt lat="48.71051" lon="2.47793">
        <ele>36</ele>
        <time>2018-01-31T09:08:06Z</time>
      </trkpt>
      <trkpt lat="48.71047" lon="2.47795">
        <ele>36</ele>
        <time>2018-01-31T09:08:06Z</time>
      </trkpt>
      <trkpt lat="48.71039" lon="2.47789">
        <ele>35</ele>
        <time>2018-01-31T09:08:22Z</time>
      </trkpt>
      <trkpt lat="48.71037" lon="2.47779">
        <ele>35</ele>
        <time>2018-01-31T09:08:22Z</time>
      </trkpt>
      <trkpt lat="48.71033" lon="2.47772">
        <ele>35</ele>
        <time>2018-01-31T09:08:22Z</time>
      </trkpt>
      <trkpt lat="48.71025" lon="2.47768">
        <ele>35</ele>
        <time>2018-01-31T09:08:22Z</time>
      </trkpt>
      <trkpt lat="48.71021" lon="2.47769">
        <ele>35</ele>
        <time>2018-01-31T09:08:38Z</time>
      </trkpt>
      <trkpt lat="48.71019" lon="2.47772">
        <ele>35</ele>
        <time>2018-01-31T09:08:38Z</time>
      </trkpt>
      <trkpt lat="48.71013" lon="2.47769">
        <ele>35</ele>
        <time>2018-01-31T09:08:38Z</time>
      </trkpt>
      <trkpt lat="48.71006" lon="2.47773">
        <ele>35</ele>
        <time>2018-01-31T09:08:38Z</time>
      </trkpt>
      <trkpt lat="48.70995" lon="2.47772">
        <ele>35</ele>
        <time>2018-01-31T09:09:06Z</time>
      </trkpt>
      <trkpt lat="48.70983" lon="2.4777">
        <ele>35</ele>
        <time>2018-01-31T09:09:06Z</time>
      </trkpt>
      <trkpt lat="48.70976" lon="2.47771">
        <ele>35</ele>
        <time>2018-01-31T09:09:06Z</time>
      </trkpt>
      <trkpt lat="48.70974" lon="2.47769">
        <ele>35</ele>
        <time>2018-01-31T09:09:06Z</time>
      </trkpt>
      <trkpt lat="48.70969" lon="2.4777">
        <ele>35</ele>
        <time>2018-01-31T09:09:06Z</time>
      </trkpt>
      <trkpt lat="48.70962" lon="2.47769">
        <ele>35</ele>
        <time>2018-01-31T09:09:22Z</time>
      </trkpt>
      <trkpt lat="48.70958" lon="2.47768">
        <ele>33</ele>
        <time>2018-01-31T09:09:22Z</time>
      </trkpt>
      <trkpt lat="48.70956" lon="2.47768">
        <ele>33</ele>
        <time>2018-01-31T09:09:22Z</time>
      </trkpt>
      <trkpt lat="48.7095" lon="2.47767">
        <ele>33</ele>
        <time>2018-01-31T09:09:22Z</time>
      </trkpt>
      <trkpt lat="48.70944" lon="2.47766">
        <ele>33</ele>
        <time>2018-01-31T09:09:38Z</time>
      </trkpt>
      <trkpt lat="48.70939" lon="2.47766">
        <ele>33</ele>
        <time>2018-01-31T09:09:38Z</time>
      </trkpt>
      <trkpt lat="48.70934" lon="2.47765">
        <ele>33</ele>
        <time>2018-01-31T09:09:38Z</time>
      </trkpt>
      <trkpt lat="48.7093" lon="2.47767">
        <ele>33</ele>
        <time>2018-01-31T09:09:38Z</time>
      </trkpt>
      <trkpt lat="48.70929" lon="2.47765">
        <ele>33</ele>
        <time>2018-01-31T09:09:54Z</time>
      </trkpt>
      <trkpt lat="48.70923" lon="2.47766">
        <ele>33</ele>
        <time>2018-01-31T09:09:54Z</time>
      </trkpt>
      <trkpt lat="48.70916" lon="2.47765">
        <ele>33</ele>
        <time>2018-01-31T09:09:54Z</time>
      </trkpt>
      <trkpt lat="48.70906" lon="2.47763">
        <ele>33</ele>
        <time>2018-01-31T09:09:54Z</time>
      </trkpt>
      <trkpt lat="48.70902" lon="2.47763">
        <ele>33</ele>
        <time>2018-01-31T09:10:10Z</time>
      </trkpt>
      <trkpt lat="48.70894" lon="2.47764">
        <ele>33</ele>
        <time>2018-01-31T09:10:10Z</time>
      </trkpt>
      <trkpt lat="48.70893" lon="2.47763">
        <ele>33</ele>
        <time>2018-01-31T09:10:10Z</time>
      </trkpt>
      <trkpt lat="48.70887" lon="2.47762">
        <ele>33</ele>
        <time>2018-01-31T09:10:10Z</time>
      </trkpt>
      <trkpt lat="48.7088" lon="2.47763">
        <ele>33</ele>
        <time>2018-01-31T09:10:26Z</time>
      </trkpt>
      <trkpt lat="48.70875" lon="2.47764">
        <ele>33</ele>
        <time>2018-01-31T09:10:26Z</time>
      </trkpt>
      <trkpt lat="48.70871" lon="2.47762">
        <ele>35</ele>
        <time>2018-01-31T09:10:26Z</time>
      </trkpt>
      <trkpt lat="48.70864" lon="2.47759">
        <ele>35</ele>
        <time>2018-01-31T09:10:26Z</time>
      </trkpt>
      <trkpt lat="48.70862" lon="2.47756">
        <ele>35</ele>
        <time>2018-01-31T09:10:42Z</time>
      </trkpt>
      <trkpt lat="48.70854" lon="2.47756">
        <ele>35</ele>
        <time>2018-01-31T09:10:42Z</time>
      </trkpt>
      <trkpt lat="48.70849" lon="2.47754">
        <ele>35</ele>
        <time>2018-01-31T09:10:42Z</time>
      </trkpt>
      <trkpt lat="48.70841" lon="2.47751">
        <ele>35</ele>
        <time>2018-01-31T09:10:42Z</time>
      </trkpt>
      <trkpt lat="48.70837" lon="2.47746">
        <ele>35</ele>
        <time>2018-01-31T09:10:58Z</time>
      </trkpt>
      <trkpt lat="48.70834" lon="2.47743">
        <ele>35</ele>
        <time>2018-01-31T09:10:58Z</time>
      </trkpt>
      <trkpt lat="48.70832" lon="2.47739">
        <ele>35</ele>
        <time>2018-01-31T09:10:58Z</time>
      </trkpt>
      <trkpt lat="48.70826" lon="2.47731">
        <ele>35</ele>
        <time>2018-01-31T09:10:58Z</time>
      </trkpt>
      <trkpt lat="48.70821" lon="2.47725">
        <ele>35</ele>
        <time>2018-01-31T09:11:14Z</time>
      </trkpt>
      <trkpt lat="48.70818" lon="2.47723">
        <ele>35</ele>
        <time>2018-01-31T09:11:14Z</time>
      </trkpt>
      <trkpt lat="48.70812" lon="2.47719">
        <ele>35</ele>
        <time>2018-01-31T09:11:14Z</time>
      </trkpt>
      <trkpt lat="48.70807" lon="2.47714">
        <ele>35</ele>
        <time>2018-01-31T09:11:14Z</time>
      </trkpt>
      <trkpt lat="48.70801" lon="2.47706">
        <ele>34</ele>
        <time>2018-01-31T09:11:30Z</time>
      </trkpt>
      <trkpt lat="48.70799" lon="2.47703">
        <ele>34</ele>
        <time>2018-01-31T09:11:30Z</time>
      </trkpt>
      <trkpt lat="48.70795" lon="2.47699">
        <ele>34</ele>
        <time>2018-01-31T09:11:30Z</time>
      </trkpt>
      <trkpt lat="48.70791" lon="2.47691">
        <ele>37</ele>
        <time>2018-01-31T09:11:30Z</time>
      </trkpt>
      <trkpt lat="48.70786" lon="2.47683">
        <ele>37</ele>
        <time>2018-01-31T09:11:50Z</time>
      </trkpt>
      <trkpt lat="48.70784" lon="2.47678">
        <ele>37</ele>
        <time>2018-01-31T09:11:50Z</time>
      </trkpt>
      <trkpt lat="48.70783" lon="2.47675">
        <ele>37</ele>
        <time>2018-01-31T09:11:50Z</time>
      </trkpt>
      <trkpt lat="48.70782" lon="2.47672">
        <ele>37</ele>
        <time>2018-01-31T09:11:50Z</time>
      </trkpt>
      <trkpt lat="48.70779" lon="2.47668">
        <ele>37</ele>
        <time>2018-01-31T09:11:50Z</time>
      </trkpt>
      <trkpt lat="48.70773" lon="2.47664">
        <ele>37</ele>
        <time>2018-01-31T09:12:06Z</time>
      </trkpt>
      <trkpt lat="48.70768" lon="2.47655">
        <ele>37</ele>
        <time>2018-01-31T09:12:06Z</time>
      </trkpt>
      <trkpt lat="48.70769" lon="2.47647">
        <ele>37</ele>
        <time>2018-01-31T09:12:06Z</time>
      </trkpt>
      <trkpt lat="48.70772" lon="2.47634">
        <ele>37</ele>
        <time>2018-01-31T09:12:06Z</time>
      </trkpt>
      <trkpt lat="48.70772" lon="2.47628">
        <ele>37</ele>
        <time>2018-01-31T09:12:22Z</time>
      </trkpt>
      <trkpt lat="48.70773" lon="2.4762">
        <ele>35</ele>
        <time>2018-01-31T09:12:22Z</time>
      </trkpt>
      <trkpt lat="48.70774" lon="2.4761">
        <ele>35</ele>
        <time>2018-01-31T09:12:22Z</time>
      </trkpt>
      <trkpt lat="48.70775" lon="2.47603">
        <ele>35</ele>
        <time>2018-01-31T09:12:22Z</time>
      </trkpt>
      <trkpt lat="48.70777" lon="2.47595">
        <ele>35</ele>
        <time>2018-01-31T09:12:38Z</time>
      </trkpt>
      <trkpt lat="48.70778" lon="2.47589">
        <ele>35</ele>
        <time>2018-01-31T09:12:38Z</time>
      </trkpt>
      <trkpt lat="48.7078" lon="2.47581">
        <ele>35</ele>
        <time>2018-01-31T09:12:38Z</time>
      </trkpt>
      <trkpt lat="48.7078" lon="2.4757">
        <ele>35</ele>
        <time>2018-01-31T09:12:38Z</time>
      </trkpt>
      <trkpt lat="48.70778" lon="2.47566">
        <ele>35</ele>
        <time>2018-01-31T09:12:54Z</time>
      </trkpt>
      <trkpt lat="48.7078" lon="2.47557">
        <ele>35</ele>
        <time>2018-01-31T09:12:54Z</time>
      </trkpt>
      <trkpt lat="48.7078" lon="2.4755">
        <ele>35</ele>
        <time>2018-01-31T09:12:54Z</time>
      </trkpt>
      <trkpt lat="48.7078" lon="2.47544">
        <ele>35</ele>
        <time>2018-01-31T09:12:54Z</time>
      </trkpt>
      <trkpt lat="48.7078" lon="2.47538">
        <ele>34</ele>
        <time>2018-01-31T09:13:10Z</time>
      </trkpt>
      <trkpt lat="48.70781" lon="2.47527">
        <ele>34</ele>
        <time>2018-01-31T09:13:10Z</time>
      </trkpt>
      <trkpt lat="48.70781" lon="2.47518">
        <ele>34</ele>
        <time>2018-01-31T09:13:10Z</time>
      </trkpt>
      <trkpt lat="48.7078" lon="2.47504">
        <ele>34</ele>
        <time>2018-01-31T09:13:10Z</time>
      </trkpt>
      <trkpt lat="48.70778" lon="2.47496">
        <ele>34</ele>
        <time>2018-01-31T09:13:26Z</time>
      </trkpt>
      <trkpt lat="48.70772" lon="2.47494">
        <ele>34</ele>
        <time>2018-01-31T09:13:26Z</time>
      </trkpt>
      <trkpt lat="48.70767" lon="2.47493">
        <ele>34</ele>
        <time>2018-01-31T09:13:26Z</time>
      </trkpt>
      <trkpt lat="48.70759" lon="2.47489">
        <ele>34</ele>
        <time>2018-01-31T09:13:26Z</time>
      </trkpt>
      <trkpt lat="48.70754" lon="2.4749">
        <ele>34</ele>
        <time>2018-01-31T09:13:42Z</time>
      </trkpt>
      <trkpt lat="48.70749" lon="2.47488">
        <ele>34</ele>
        <time>2018-01-31T09:13:42Z</time>
      </trkpt>
      <trkpt lat="48.70744" lon="2.47485">
        <ele>34</ele>
        <time>2018-01-31T09:13:42Z</time>
      </trkpt>
      <trkpt lat="48.70738" lon="2.47484">
        <ele>34</ele>
        <time>2018-01-31T09:13:42Z</time>
      </trkpt>
      <trkpt lat="48.70734" lon="2.47483">
        <ele>34</ele>
        <time>2018-01-31T09:13:58Z</time>
      </trkpt>
      <trkpt lat="48.70729" lon="2.47483">
        <ele>34</ele>
        <time>2018-01-31T09:13:58Z</time>
      </trkpt>
      <trkpt lat="48.70722" lon="2.47481">
        <ele>34</ele>
        <time>2018-01-31T09:13:58Z</time>
      </trkpt>
      <trkpt lat="48.70718" lon="2.47481">
        <ele>34</ele>
        <time>2018-01-31T09:13:58Z</time>
      </trkpt>
      <trkpt lat="48.70711" lon="2.47488">
        <ele>34</ele>
        <time>2018-01-31T09:15:22Z</time>
      </trkpt>
      <trkpt lat="48.70708" lon="2.4749">
        <ele>34</ele>
        <time>2018-01-31T09:15:22Z</time>
      </trkpt>
      <trkpt lat="48.70702" lon="2.47493">
        <ele>37</ele>
        <time>2018-01-31T09:15:22Z</time>
      </trkpt>
      <trkpt lat="48.70701" lon="2.47496">
        <ele>37</ele>
        <time>2018-01-31T09:15:22Z</time>
      </trkpt>
      <trkpt lat="48.70692" lon="2.47501">
        <ele>37</ele>
        <time>2018-01-31T09:15:22Z</time>
      </trkpt>
      <trkpt lat="48.70688" lon="2.47497">
        <ele>37</ele>
        <time>2018-01-31T09:15:38Z</time>
      </trkpt>
      <trkpt lat="48.70682" lon="2.47495">
        <ele>37</ele>
        <time>2018-01-31T09:15:38Z</time>
      </trkpt>
      <trkpt lat="48.70679" lon="2.47493">
        <ele>37</ele>
        <time>2018-01-31T09:15:38Z</time>
      </trkpt>
      <trkpt lat="48.70672" lon="2.47491">
        <ele>37</ele>
        <time>2018-01-31T09:15:38Z</time>
      </trkpt>
      <trkpt lat="48.70671" lon="2.47488">
        <ele>37</ele>
        <time>2018-01-31T09:15:54Z</time>
      </trkpt>
      <trkpt lat="48.70665" lon="2.47488">
        <ele>37</ele>
        <time>2018-01-31T09:15:54Z</time>
      </trkpt>
      <trkpt lat="48.70661" lon="2.47487">
        <ele>37</ele>
        <time>2018-01-31T09:15:54Z</time>
      </trkpt>
      <trkpt lat="48.70658" lon="2.47488">
        <ele>37</ele>
        <time>2018-01-31T09:15:54Z</time>
      </trkpt>
      <trkpt lat="48.70653" lon="2.47485">
        <ele>37</ele>
        <time>2018-01-31T09:16:10Z</time>
      </trkpt>
      <trkpt lat="48.70649" lon="2.47483">
        <ele>37</ele>
        <time>2018-01-31T09:16:10Z</time>
      </trkpt>
      <trkpt lat="48.70645" lon="2.47481">
        <ele>37</ele>
        <time>2018-01-31T09:16:10Z</time>
      </trkpt>
      <trkpt lat="48.70641" lon="2.47479">
        <ele>37</ele>
        <time>2018-01-31T09:16:10Z</time>
      </trkpt>
      <trkpt lat="48.70636" lon="2.47478">
        <ele>37</ele>
        <time>2018-01-31T09:16:26Z</time>
      </trkpt>
      <trkpt lat="48.70634" lon="2.47477">
        <ele>37</ele>
        <time>2018-01-31T09:16:26Z</time>
      </trkpt>
      <trkpt lat="48.70622" lon="2.47474">
        <ele>42</ele>
        <time>2018-01-31T09:16:26Z</time>
      </trkpt>
      <trkpt lat="48.70617" lon="2.47474">
        <ele>42</ele>
        <time>2018-01-31T09:16:26Z</time>
      </trkpt>
      <trkpt lat="48.70613" lon="2.47476">
        <ele>42</ele>
        <time>2018-01-31T09:16:42Z</time>
      </trkpt>
      <trkpt lat="48.70607" lon="2.47473">
        <ele>42</ele>
        <time>2018-01-31T09:16:42Z</time>
      </trkpt>
      <trkpt lat="48.70602" lon="2.47469">
        <ele>42</ele>
        <time>2018-01-31T09:16:42Z</time>
      </trkpt>
      <trkpt lat="48.70601" lon="2.4747">
        <ele>42</ele>
        <time>2018-01-31T09:16:42Z</time>
      </trkpt>
      <trkpt lat="48.70601" lon="2.4747">
        <ele>42</ele>
        <time>2018-01-31T09:17:02Z</time>
      </trkpt>
      <trkpt lat="48.70598" lon="2.47472">
        <ele>42</ele>
        <time>2018-01-31T09:17:02Z</time>
      </trkpt>
      <trkpt lat="48.70596" lon="2.47475">
        <ele>42</ele>
        <time>2018-01-31T09:17:02Z</time>
      </trkpt>
      <trkpt lat="48.70594" lon="2.47475">
        <ele>42</ele>
        <time>2018-01-31T09:17:02Z</time>
      </trkpt>
      <trkpt lat="48.70589" lon="2.47478">
        <ele>42</ele>
        <time>2018-01-31T09:17:02Z</time>
      </trkpt>
      <trkpt lat="48.70584" lon="2.47481">
        <ele>42</ele>
        <time>2018-01-31T09:17:26Z</time>
      </trkpt>
      <trkpt lat="48.70582" lon="2.47479">
        <ele>42</ele>
        <time>2018-01-31T09:17:26Z</time>
      </trkpt>
      <trkpt lat="48.70582" lon="2.47478">
        <ele>42</ele>
        <time>2018-01-31T09:17:26Z</time>
      </trkpt>
      <trkpt lat="48.70581" lon="2.47478">
        <ele>42</ele>
        <time>2018-01-31T09:17:26Z</time>
      </trkpt>
      <trkpt lat="48.70572" lon="2.47479">
        <ele>42</ele>
        <time>2018-01-31T09:17:26Z</time>
      </trkpt>
      <trkpt lat="48.70559" lon="2.4748">
        <ele>42</ele>
        <time>2018-01-31T09:17:50Z</time>
      </trkpt>
      <trkpt lat="48.70557" lon="2.47479">
        <ele>42</ele>
        <time>2018-01-31T09:17:50Z</time>
      </trkpt>
      <trkpt lat="48.70557" lon="2.47479">
        <ele>42</ele>
        <time>2018-01-31T09:17:50Z</time>
      </trkpt>
      <trkpt lat="48.70556" lon="2.47479">
        <ele>42</ele>
        <time>2018-01-31T09:17:50Z</time>
      </trkpt>
      <trkpt lat="48.70554" lon="2.47478">
        <ele>42</ele>
        <time>2018-01-31T09:17:50Z</time>
      </trkpt>
      <trkpt lat="48.7055" lon="2.47474">
        <ele>42</ele>
        <time>2018-01-31T09:18:06Z</time>
      </trkpt>
      <trkpt lat="48.70547" lon="2.47471">
        <ele>42</ele>
        <time>2018-01-31T09:18:06Z</time>
      </trkpt>
      <trkpt lat="48.70542" lon="2.47468">
        <ele>42</ele>
        <time>2018-01-31T09:18:06Z</time>
      </trkpt>
      <trkpt lat="48.70537" lon="2.47466">
        <ele>46</ele>
        <time>2018-01-31T09:18:06Z</time>
      </trkpt>
      <trkpt lat="48.70533" lon="2.47464">
        <ele>46</ele>
        <time>2018-01-31T09:18:22Z</time>
      </trkpt>
      <trkpt lat="48.70527" lon="2.47459">
        <ele>46</ele>
        <time>2018-01-31T09:18:22Z</time>
      </trkpt>
      <trkpt lat="48.70521" lon="2.47453">
        <ele>48</ele>
        <time>2018-01-31T09:18:22Z</time>
      </trkpt>
      <trkpt lat="48.70516" lon="2.47449">
        <ele>48</ele>
        <time>2018-01-31T09:18:22Z</time>
      </trkpt>
      <trkpt lat="48.7051" lon="2.47445">
        <ele>48</ele>
        <time>2018-01-31T09:18:38Z</time>
      </trkpt>
      <trkpt lat="48.70506" lon="2.47442">
        <ele>48</ele>
        <time>2018-01-31T09:18:38Z</time>
      </trkpt>
      <trkpt lat="48.705" lon="2.47438">
        <ele>48</ele>
        <time>2018-01-31T09:18:38Z</time>
      </trkpt>
      <trkpt lat="48.70494" lon="2.47434">
        <ele>48</ele>
        <time>2018-01-31T09:18:38Z</time>
      </trkpt>
      <trkpt lat="48.70489" lon="2.47429">
        <ele>48</ele>
        <time>2018-01-31T09:18:54Z</time>
      </trkpt>
      <trkpt lat="48.70482" lon="2.47424">
        <ele>48</ele>
        <time>2018-01-31T09:18:54Z</time>
      </trkpt>
      <trkpt lat="48.70478" lon="2.47419">
        <ele>48</ele>
        <time>2018-01-31T09:18:54Z</time>
      </trkpt>
      <trkpt lat="48.70474" lon="2.47415">
        <ele>48</ele>
        <time>2018-01-31T09:18:54Z</time>
      </trkpt>
      <trkpt lat="48.70471" lon="2.47412">
        <ele>48</ele>
        <time>2018-01-31T09:19:10Z</time>
      </trkpt>
      <trkpt lat="48.70468" lon="2.47409">
        <ele>48</ele>
        <time>2018-01-31T09:19:10Z</time>
      </trkpt>
      <trkpt lat="48.70464" lon="2.47406">
        <ele>48</ele>
        <time>2018-01-31T09:19:10Z</time>
      </trkpt>
      <trkpt lat="48.70461" lon="2.47403">
        <ele>48</ele>
        <time>2018-01-31T09:19:10Z</time>
      </trkpt>
      <trkpt lat="48.70458" lon="2.47398">
        <ele>54</ele>
        <time>2018-01-31T09:19:26Z</time>
      </trkpt>
      <trkpt lat="48.70455" lon="2.47393">
        <ele>54</ele>
        <time>2018-01-31T09:19:26Z</time>
      </trkpt>
      <trkpt lat="48.70449" lon="2.47383">
        <ele>54</ele>
        <time>2018-01-31T09:19:26Z</time>
      </trkpt>
      <trkpt lat="48.70445" lon="2.4738">
        <ele>54</ele>
        <time>2018-01-31T09:19:26Z</time>
      </trkpt>
      <trkpt lat="48.70442" lon="2.47378">
        <ele>54</ele>
        <time>2018-01-31T09:19:50Z</time>
      </trkpt>
      <trkpt lat="48.70441" lon="2.47375">
        <ele>54</ele>
        <time>2018-01-31T09:19:50Z</time>
      </trkpt>
      <trkpt lat="48.70439" lon="2.47372">
        <ele>57</ele>
        <time>2018-01-31T09:19:50Z</time>
      </trkpt>
      <trkpt lat="48.70436" lon="2.47371">
        <ele>57</ele>
        <time>2018-01-31T09:19:50Z</time>
      </trkpt>
      <trkpt lat="48.70434" lon="2.47371">
        <ele>57</ele>
        <time>2018-01-31T09:19:50Z</time>
      </trkpt>
      <trkpt lat="48.70433" lon="2.4737">
        <ele>57</ele>
        <time>2018-01-31T09:20:10Z</time>
      </trkpt>
      <trkpt lat="48.70432" lon="2.47369">
        <ele>57</ele>
        <time>2018-01-31T09:20:10Z</time>
      </trkpt>
      <trkpt lat="48.70431" lon="2.47368">
        <ele>57</ele>
        <time>2018-01-31T09:20:10Z</time>
      </trkpt>
      <trkpt lat="48.70427" lon="2.47363">
        <ele>57</ele>
        <time>2018-01-31T09:20:10Z</time>
      </trkpt>
      <trkpt lat="48.70424" lon="2.47358">
        <ele>57</ele>
        <time>2018-01-31T09:20:10Z</time>
      </trkpt>
      <trkpt lat="48.70417" lon="2.4735">
        <ele>57</ele>
        <time>2018-01-31T09:20:26Z</time>
      </trkpt>
      <trkpt lat="48.70409" lon="2.47342">
        <ele>57</ele>
        <time>2018-01-31T09:20:26Z</time>
      </trkpt>
      <trkpt lat="48.70407" lon="2.47341">
        <ele>57</ele>
        <time>2018-01-31T09:20:26Z</time>
      </trkpt>
      <trkpt lat="48.70402" lon="2.47335">
        <ele>57</ele>
        <time>2018-01-31T09:20:26Z</time>
      </trkpt>
      <trkpt lat="48.70396" lon="2.47332">
        <ele>57</ele>
        <time>2018-01-31T09:20:42Z</time>
      </trkpt>
      <trkpt lat="48.70391" lon="2.47327">
        <ele>57</ele>
        <time>2018-01-31T09:20:42Z</time>
      </trkpt>
      <trkpt lat="48.7039" lon="2.47325">
        <ele>57</ele>
        <time>2018-01-31T09:20:42Z</time>
      </trkpt>
      <trkpt lat="48.70389" lon="2.47323">
        <ele>57</ele>
        <time>2018-01-31T09:20:42Z</time>
      </trkpt>
      <trkpt lat="48.70382" lon="2.47317">
        <ele>57</ele>
        <time>2018-01-31T09:20:58Z</time>
      </trkpt>
      <trkpt lat="48.70375" lon="2.47314">
        <ele>57</ele>
        <time>2018-01-31T09:20:58Z</time>
      </trkpt>
      <trkpt lat="48.70371" lon="2.47312">
        <ele>59</ele>
        <time>2018-01-31T09:20:58Z</time>
      </trkpt>
      <trkpt lat="48.70368" lon="2.47311">
        <ele>59</ele>
        <time>2018-01-31T09:20:58Z</time>
      </trkpt>
      <trkpt lat="48.70363" lon="2.47308">
        <ele>59</ele>
        <time>2018-01-31T09:21:14Z</time>
      </trkpt>
      <trkpt lat="48.7036" lon="2.47308">
        <ele>59</ele>
        <time>2018-01-31T09:21:14Z</time>
      </trkpt>
      <trkpt lat="48.70356" lon="2.473">
        <ele>59</ele>
        <time>2018-01-31T09:21:14Z</time>
      </trkpt>
      <trkpt lat="48.70352" lon="2.47298">
        <ele>59</ele>
        <time>2018-01-31T09:21:14Z</time>
      </trkpt>
      <trkpt lat="48.70349" lon="2.47295">
        <ele>59</ele>
        <time>2018-01-31T09:21:30Z</time>
      </trkpt>
      <trkpt lat="48.70347" lon="2.47293">
        <ele>59</ele>
        <time>2018-01-31T09:21:30Z</time>
      </trkpt>
      <trkpt lat="48.70342" lon="2.47291">
        <ele>63</ele>
        <time>2018-01-31T09:21:30Z</time>
      </trkpt>
      <trkpt lat="48.70338" lon="2.47289">
        <ele>63</ele>
        <time>2018-01-31T09:21:30Z</time>
      </trkpt>
      <trkpt lat="48.70334" lon="2.47284">
        <ele>63</ele>
        <time>2018-01-31T09:21:46Z</time>
      </trkpt>
      <trkpt lat="48.70331" lon="2.47279">
        <ele>63</ele>
        <time>2018-01-31T09:21:46Z</time>
      </trkpt>
      <trkpt lat="48.70325" lon="2.47274">
        <ele>63</ele>
        <time>2018-01-31T09:21:46Z</time>
      </trkpt>
      <trkpt lat="48.70323" lon="2.47271">
        <ele>63</ele>
        <time>2018-01-31T09:21:46Z</time>
      </trkpt>
      <trkpt lat="48.70316" lon="2.47267">
        <ele>63</ele>
        <time>2018-01-31T09:22:02Z</time>
      </trkpt>
      <trkpt lat="48.70313" lon="2.47263">
        <ele>63</ele>
        <time>2018-01-31T09:22:02Z</time>
      </trkpt>
      <trkpt lat="48.70308" lon="2.47258">
        <ele>63</ele>
        <time>2018-01-31T09:22:02Z</time>
      </trkpt>
      <trkpt lat="48.70303" lon="2.47254">
        <ele>63</ele>
        <time>2018-01-31T09:22:02Z</time>
      </trkpt>
      <trkpt lat="48.70299" lon="2.47251">
        <ele>63</ele>
        <time>2018-01-31T09:22:18Z</time>
      </trkpt>
      <trkpt lat="48.70295" lon="2.47248">
        <ele>63</ele>
        <time>2018-01-31T09:22:18Z</time>
      </trkpt>
      <trkpt lat="48.70291" lon="2.47244">
        <ele>65</ele>
        <time>2018-01-31T09:22:18Z</time>
      </trkpt>
      <trkpt lat="48.70289" lon="2.47239">
        <ele>65</ele>
        <time>2018-01-31T09:22:18Z</time>
      </trkpt>
      <trkpt lat="48.70287" lon="2.47239">
        <ele>65</ele>
        <time>2018-01-31T09:22:34Z</time>
      </trkpt>
      <trkpt lat="48.70285" lon="2.47235">
        <ele>65</ele>
        <time>2018-01-31T09:22:34Z</time>
      </trkpt>
      <trkpt lat="48.70284" lon="2.47232">
        <ele>65</ele>
        <time>2018-01-31T09:22:34Z</time>
      </trkpt>
      <trkpt lat="48.70285" lon="2.4722">
        <ele>65</ele>
        <time>2018-01-31T09:22:34Z</time>
      </trkpt>
      <trkpt lat="48.70285" lon="2.47217">
        <ele>65</ele>
        <time>2018-01-31T09:22:50Z</time>
      </trkpt>
      <trkpt lat="48.70284" lon="2.47209">
        <ele>65</ele>
        <time>2018-01-31T09:22:50Z</time>
      </trkpt>
      <trkpt lat="48.70283" lon="2.47207">
        <ele>69</ele>
        <time>2018-01-31T09:22:50Z</time>
      </trkpt>
      <trkpt lat="48.70282" lon="2.47205">
        <ele>69</ele>
        <time>2018-01-31T09:22:50Z</time>
      </trkpt>
      <trkpt lat="48.70277" lon="2.47201">
        <ele>69</ele>
        <time>2018-01-31T09:23:06Z</time>
      </trkpt>
      <trkpt lat="48.7027" lon="2.47196">
        <ele>69</ele>
        <time>2018-01-31T09:23:06Z</time>
      </trkpt>
      <trkpt lat="48.70268" lon="2.47197">
        <ele>69</ele>
        <time>2018-01-31T09:23:06Z</time>
      </trkpt>
      <trkpt lat="48.70264" lon="2.47197">
        <ele>69</ele>
        <time>2018-01-31T09:23:06Z</time>
      </trkpt>
      <trkpt lat="48.70257" lon="2.47197">
        <ele>69</ele>
        <time>2018-01-31T09:23:22Z</time>
      </trkpt>
      <trkpt lat="48.70252" lon="2.47198">
        <ele>69</ele>
        <time>2018-01-31T09:23:22Z</time>
      </trkpt>
      <trkpt lat="48.7025" lon="2.47203">
        <ele>69</ele>
        <time>2018-01-31T09:23:22Z</time>
      </trkpt>
      <trkpt lat="48.70245" lon="2.47202">
        <ele>69</ele>
        <time>2018-01-31T09:23:22Z</time>
      </trkpt>
      <trkpt lat="48.7024" lon="2.47199">
        <ele>69</ele>
        <time>2018-01-31T09:23:38Z</time>
      </trkpt>
      <trkpt lat="48.70235" lon="2.47198">
        <ele>69</ele>
        <time>2018-01-31T09:23:38Z</time>
      </trkpt>
      <trkpt lat="48.7023" lon="2.47197">
        <ele>69</ele>
        <time>2018-01-31T09:23:38Z</time>
      </trkpt>
      <trkpt lat="48.70226" lon="2.47192">
        <ele>69</ele>
        <time>2018-01-31T09:23:38Z</time>
      </trkpt>
      <trkpt lat="48.70222" lon="2.47192">
        <ele>69</ele>
        <time>2018-01-31T09:23:54Z</time>
      </trkpt>
      <trkpt lat="48.70217" lon="2.47187">
        <ele>69</ele>
        <time>2018-01-31T09:23:54Z</time>
      </trkpt>
      <trkpt lat="48.70213" lon="2.47186">
        <ele>69</ele>
        <time>2018-01-31T09:23:54Z</time>
      </trkpt>
      <trkpt lat="48.7021" lon="2.47181">
        <ele>69</ele>
        <time>2018-01-31T09:23:54Z</time>
      </trkpt>
      <trkpt lat="48.70203" lon="2.47179">
        <ele>70</ele>
        <time>2018-01-31T09:24:10Z</time>
      </trkpt>
      <trkpt lat="48.70198" lon="2.47178">
        <ele>70</ele>
        <time>2018-01-31T09:24:10Z</time>
      </trkpt>
      <trkpt lat="48.70192" lon="2.47176">
        <ele>70</ele>
        <time>2018-01-31T09:24:10Z</time>
      </trkpt>
      <trkpt lat="48.70192" lon="2.47177">
        <ele>70</ele>
        <time>2018-01-31T09:24:10Z</time>
      </trkpt>
      <trkpt lat="48.70179" lon="2.4717">
        <ele>70</ele>
        <time>2018-01-31T09:24:42Z</time>
      </trkpt>
      <trkpt lat="48.70179" lon="2.47168">
        <ele>70</ele>
        <time>2018-01-31T09:24:42Z</time>
      </trkpt>
      <trkpt lat="48.70177" lon="2.47164">
        <ele>70</ele>
        <time>2018-01-31T09:24:42Z</time>
      </trkpt>
      <trkpt lat="48.70174" lon="2.47157">
        <ele>70</ele>
        <time>2018-01-31T09:24:42Z</time>
      </trkpt>
      <trkpt lat="48.70169" lon="2.47154">
        <ele>70</ele>
        <time>2018-01-31T09:24:42Z</time>
      </trkpt>
      <trkpt lat="48.7016" lon="2.47149">
        <ele>70</ele>
        <time>2018-01-31T09:24:58Z</time>
      </trkpt>
      <trkpt lat="48.70153" lon="2.47146">
        <ele>70</ele>
        <time>2018-01-31T09:24:58Z</time>
      </trkpt>
      <trkpt lat="48.70148" lon="2.47144">
        <ele>70</ele>
        <time>2018-01-31T09:24:58Z</time>
      </trkpt>
      <trkpt lat="48.70142" lon="2.47143">
        <ele>70</ele>
        <time>2018-01-31T09:24:58Z</time>
      </trkpt>
      <trkpt lat="48.70135" lon="2.47143">
        <ele>70</ele>
        <time>2018-01-31T09:25:14Z</time>
      </trkpt>
      <trkpt lat="48.70132" lon="2.47141">
        <ele>70</ele>
        <time>2018-01-31T09:25:14Z</time>
      </trkpt>
      <trkpt lat="48.70126" lon="2.47136">
        <ele>70</ele>
        <time>2018-01-31T09:25:14Z</time>
      </trkpt>
      <trkpt lat="48.70122" lon="2.47132">
        <ele>71</ele>
        <time>2018-01-31T09:25:14Z</time>
      </trkpt>
      <trkpt lat="48.70115" lon="2.47131">
        <ele>71</ele>
        <time>2018-01-31T09:25:30Z</time>
      </trkpt>
      <trkpt lat="48.7011" lon="2.47129">
        <ele>71</ele>
        <time>2018-01-31T09:25:30Z</time>
      </trkpt>
      <trkpt lat="48.70104" lon="2.47124">
        <ele>73</ele>
        <time>2018-01-31T09:25:30Z</time>
      </trkpt>
      <trkpt lat="48.70099" lon="2.4712">
        <ele>73</ele>
        <time>2018-01-31T09:25:30Z</time>
      </trkpt>
      <trkpt lat="48.70092" lon="2.47113">
        <ele>73</ele>
        <time>2018-01-31T09:26:02Z</time>
      </trkpt>
      <trkpt lat="48.70092" lon="2.47108">
        <ele>73</ele>
        <time>2018-01-31T09:26:02Z</time>
      </trkpt>
      <trkpt lat="48.70094" lon="2.47099">
        <ele>73</ele>
        <time>2018-01-31T09:26:02Z</time>
      </trkpt>
      <trkpt lat="48.70095" lon="2.47092">
        <ele>73</ele>
        <time>2018-01-31T09:26:02Z</time>
      </trkpt>
      <trkpt lat="48.70098" lon="2.47081">
        <ele>73</ele>
        <time>2018-01-31T09:26:02Z</time>
      </trkpt>
      <trkpt lat="48.70101" lon="2.47076">
        <ele>73</ele>
        <time>2018-01-31T09:26:18Z</time>
      </trkpt>
      <trkpt lat="48.70105" lon="2.47067">
        <ele>73</ele>
        <time>2018-01-31T09:26:18Z</time>
      </trkpt>
      <trkpt lat="48.70109" lon="2.4706">
        <ele>73</ele>
        <time>2018-01-31T09:26:18Z</time>
      </trkpt>
      <trkpt lat="48.70112" lon="2.47052">
        <ele>73</ele>
        <time>2018-01-31T09:26:18Z</time>
      </trkpt>
      <trkpt lat="48.70114" lon="2.47046">
        <ele>73</ele>
        <time>2018-01-31T09:26:34Z</time>
      </trkpt>
      <trkpt lat="48.70117" lon="2.4704">
        <ele>77</ele>
        <time>2018-01-31T09:26:34Z</time>
      </trkpt>
      <trkpt lat="48.70119" lon="2.47034">
        <ele>77</ele>
        <time>2018-01-31T09:26:34Z</time>
      </trkpt>
      <trkpt lat="48.70122" lon="2.47024">
        <ele>77</ele>
        <time>2018-01-31T09:26:34Z</time>
      </trkpt>
      <trkpt lat="48.70125" lon="2.47019">
        <ele>77</ele>
        <time>2018-01-31T09:26:50Z</time>
      </trkpt>
      <trkpt lat="48.70127" lon="2.47011">
        <ele>75</ele>
        <time>2018-01-31T09:26:50Z</time>
      </trkpt>
      <trkpt lat="48.70129" lon="2.47007">
        <ele>75</ele>
        <time>2018-01-31T09:26:50Z</time>
      </trkpt>
      <trkpt lat="48.70131" lon="2.47001">
        <ele>75</ele>
        <time>2018-01-31T09:26:50Z</time>
      </trkpt>
      <trkpt lat="48.70132" lon="2.46996">
        <ele>75</ele>
        <time>2018-01-31T09:27:06Z</time>
      </trkpt>
      <trkpt lat="48.70133" lon="2.46991">
        <ele>75</ele>
        <time>2018-01-31T09:27:06Z</time>
      </trkpt>
      <trkpt lat="48.70134" lon="2.46987">
        <ele>75</ele>
        <time>2018-01-31T09:27:06Z</time>
      </trkpt>
      <trkpt lat="48.70136" lon="2.46983">
        <ele>75</ele>
        <time>2018-01-31T09:27:06Z</time>
      </trkpt>
      <trkpt lat="48.70137" lon="2.46979">
        <ele>75</ele>
        <time>2018-01-31T09:27:22Z</time>
      </trkpt>
      <trkpt lat="48.70139" lon="2.46972">
        <ele>75</ele>
        <time>2018-01-31T09:27:22Z</time>
      </trkpt>
      <trkpt lat="48.7014" lon="2.46963">
        <ele>75</ele>
        <time>2018-01-31T09:27:22Z</time>
      </trkpt>
      <trkpt lat="48.70143" lon="2.46953">
        <ele>78</ele>
        <time>2018-01-31T09:27:22Z</time>
      </trkpt>
      <trkpt lat="48.70144" lon="2.46946">
        <ele>78</ele>
        <time>2018-01-31T09:27:38Z</time>
      </trkpt>
      <trkpt lat="48.70145" lon="2.4694">
        <ele>78</ele>
        <time>2018-01-31T09:27:38Z</time>
      </trkpt>
      <trkpt lat="48.70148" lon="2.46931">
        <ele>78</ele>
        <time>2018-01-31T09:27:38Z</time>
      </trkpt>
      <trkpt lat="48.7015" lon="2.46925">
        <ele>78</ele>
        <time>2018-01-31T09:27:38Z</time>
      </trkpt>
      <trkpt lat="48.70153" lon="2.46917">
        <ele>78</ele>
        <time>2018-01-31T09:27:54Z</time>
      </trkpt>
      <trkpt lat="48.70154" lon="2.46912">
        <ele>78</ele>
        <time>2018-01-31T09:27:54Z</time>
      </trkpt>
      <trkpt lat="48.70158" lon="2.46904">
        <ele>78</ele>
        <time>2018-01-31T09:27:54Z</time>
      </trkpt>
      <trkpt lat="48.7016" lon="2.46896">
        <ele>78</ele>
        <time>2018-01-31T09:27:54Z</time>
      </trkpt>
      <trkpt lat="48.70161" lon="2.46892">
        <ele>78</ele>
        <time>2018-01-31T09:28:10Z</time>
      </trkpt>
      <trkpt lat="48.70162" lon="2.46888">
        <ele>78</ele>
        <time>2018-01-31T09:28:10Z</time>
      </trkpt>
      <trkpt lat="48.70164" lon="2.4688">
        <ele>78</ele>
        <time>2018-01-31T09:28:10Z</time>
      </trkpt>
      <trkpt lat="48.70166" lon="2.46878">
        <ele>78</ele>
        <time>2018-01-31T09:28:10Z</time>
      </trkpt>
      <trkpt lat="48.70167" lon="2.46872">
        <ele>78</ele>
        <time>2018-01-31T09:28:26Z</time>
      </trkpt>
      <trkpt lat="48.70168" lon="2.46865">
        <ele>78</ele>
        <time>2018-01-31T09:28:26Z</time>
      </trkpt>
      <trkpt lat="48.7017" lon="2.46858">
        <ele>78</ele>
        <time>2018-01-31T09:28:26Z</time>
      </trkpt>
      <trkpt lat="48.70172" lon="2.46849">
        <ele>78</ele>
        <time>2018-01-31T09:28:26Z</time>
      </trkpt>
      <trkpt lat="48.70174" lon="2.46844">
        <ele>78</ele>
        <time>2018-01-31T09:28:42Z</time>
      </trkpt>
      <trkpt lat="48.70177" lon="2.46836">
        <ele>78</ele>
        <time>2018-01-31T09:28:42Z</time>
      </trkpt>
      <trkpt lat="48.7018" lon="2.46827">
        <ele>78</ele>
        <time>2018-01-31T09:28:42Z</time>
      </trkpt>
      <trkpt lat="48.70184" lon="2.46819">
        <ele>78</ele>
        <time>2018-01-31T09:28:42Z</time>
      </trkpt>
      <trkpt lat="48.70191" lon="2.46806">
        <ele>78</ele>
        <time>2018-01-31T09:29:18Z</time>
      </trkpt>
      <trkpt lat="48.70192" lon="2.46807">
        <ele>78</ele>
        <time>2018-01-31T09:29:18Z</time>
      </trkpt>
      <trkpt lat="48.70194" lon="2.46809">
        <ele>78</ele>
        <time>2018-01-31T09:29:18Z</time>
      </trkpt>
      <trkpt lat="48.70196" lon="2.4681">
        <ele>78</ele>
        <time>2018-01-31T09:29:18Z</time>
      </trkpt>
      <trkpt lat="48.70197" lon="2.46812">
        <ele>78</ele>
        <time>2018-01-31T09:29:18Z</time>
      </trkpt>
      <trkpt lat="48.70198" lon="2.46814">
        <ele>78</ele>
        <time>2018-01-31T09:29:34Z</time>
      </trkpt>
      <trkpt lat="48.702" lon="2.46815">
        <ele>78</ele>
        <time>2018-01-31T09:29:34Z</time>
      </trkpt>
      <trkpt lat="48.70202" lon="2.46817">
        <ele>78</ele>
        <time>2018-01-31T09:29:34Z</time>
      </trkpt>
      <trkpt lat="48.70208" lon="2.46819">
        <ele>75</ele>
        <time>2018-01-31T09:29:34Z</time>
      </trkpt>
      <trkpt lat="48.70214" lon="2.46821">
        <ele>75</ele>
        <time>2018-01-31T09:29:50Z</time>
      </trkpt>
      <trkpt lat="48.70224" lon="2.46822">
        <ele>75</ele>
        <time>2018-01-31T09:29:50Z</time>
      </trkpt>
      <trkpt lat="48.7023" lon="2.46825">
        <ele>75</ele>
        <time>2018-01-31T09:29:50Z</time>
      </trkpt>
      <trkpt lat="48.70233" lon="2.46829">
        <ele>75</ele>
        <time>2018-01-31T09:29:50Z</time>
      </trkpt>
      <trkpt lat="48.70238" lon="2.46827">
        <ele>75</ele>
        <time>2018-01-31T09:30:06Z</time>
      </trkpt>
      <trkpt lat="48.70244" lon="2.46825">
        <ele>75</ele>
        <time>2018-01-31T09:30:06Z</time>
      </trkpt>
      <trkpt lat="48.70247" lon="2.46823">
        <ele>75</ele>
        <time>2018-01-31T09:30:06Z</time>
      </trkpt>
      <trkpt lat="48.70251" lon="2.46819">
        <ele>75</ele>
        <time>2018-01-31T09:30:06Z</time>
      </trkpt>
      <trkpt lat="48.70257" lon="2.46814">
        <ele>75</ele>
        <time>2018-01-31T09:30:22Z</time>
      </trkpt>
      <trkpt lat="48.70261" lon="2.46807">
        <ele>75</ele>
        <time>2018-01-31T09:30:22Z</time>
      </trkpt>
      <trkpt lat="48.70265" lon="2.46802">
        <ele>75</ele>
        <time>2018-01-31T09:30:22Z</time>
      </trkpt>
      <trkpt lat="48.70268" lon="2.46796">
        <ele>75</ele>
        <time>2018-01-31T09:30:22Z</time>
      </trkpt>
      <trkpt lat="48.70272" lon="2.46789">
        <ele>79</ele>
        <time>2018-01-31T09:30:38Z</time>
      </trkpt>
      <trkpt lat="48.70276" lon="2.46783">
        <ele>79</ele>
        <time>2018-01-31T09:30:38Z</time>
      </trkpt>
      <trkpt lat="48.70279" lon="2.46778">
        <ele>79</ele>
        <time>2018-01-31T09:30:38Z</time>
      </trkpt>
      <trkpt lat="48.70282" lon="2.46772">
        <ele>79</ele>
        <time>2018-01-31T09:30:38Z</time>
      </trkpt>
      <trkpt lat="48.70287" lon="2.46765">
        <ele>79</ele>
        <time>2018-01-31T09:30:54Z</time>
      </trkpt>
      <trkpt lat="48.7029" lon="2.46759">
        <ele>79</ele>
        <time>2018-01-31T09:30:54Z</time>
      </trkpt>
      <trkpt lat="48.70292" lon="2.46754">
        <ele>77</ele>
        <time>2018-01-31T09:30:54Z</time>
      </trkpt>
      <trkpt lat="48.70295" lon="2.46747">
        <ele>77</ele>
        <time>2018-01-31T09:30:54Z</time>
      </trkpt>
      <trkpt lat="48.70297" lon="2.46741">
        <ele>77</ele>
        <time>2018-01-31T09:31:10Z</time>
      </trkpt>
      <trkpt lat="48.703" lon="2.46733">
        <ele>77</ele>
        <time>2018-01-31T09:31:10Z</time>
      </trkpt>
      <trkpt lat="48.70302" lon="2.46727">
        <ele>77</ele>
        <time>2018-01-31T09:31:10Z</time>
      </trkpt>
      <trkpt lat="48.70305" lon="2.46721">
        <ele>77</ele>
        <time>2018-01-31T09:31:10Z</time>
      </trkpt>
      <trkpt lat="48.70306" lon="2.46718">
        <ele>77</ele>
        <time>2018-01-31T09:31:26Z</time>
      </trkpt>
      <trkpt lat="48.70308" lon="2.46711">
        <ele>77</ele>
        <time>2018-01-31T09:31:26Z</time>
      </trkpt>
      <trkpt lat="48.7031" lon="2.46706">
        <ele>77</ele>
        <time>2018-01-31T09:31:26Z</time>
      </trkpt>
      <trkpt lat="48.70311" lon="2.467">
        <ele>77</ele>
        <time>2018-01-31T09:31:26Z</time>
      </trkpt>
      <trkpt lat="48.70312" lon="2.46691">
        <ele>77</ele>
        <time>2018-01-31T09:31:50Z</time>
      </trkpt>
      <trkpt lat="48.70312" lon="2.46691">
        <ele>77</ele>
        <time>2018-01-31T09:31:50Z</time>
      </trkpt>
      <trkpt lat="48.70313" lon="2.4669">
        <ele>77</ele>
        <time>2018-01-31T09:31:50Z</time>
      </trkpt>
      <trkpt lat="48.70316" lon="2.46685">
        <ele>77</ele>
        <time>2018-01-31T09:31:50Z</time>
      </trkpt>
      <trkpt lat="48.70317" lon="2.46683">
        <ele>77</ele>
        <time>2018-01-31T09:31:50Z</time>
      </trkpt>
      <trkpt lat="48.70319" lon="2.46684">
        <ele>77</ele>
        <time>2018-01-31T09:32:06Z</time>
      </trkpt>
      <trkpt lat="48.70328" lon="2.46681">
        <ele>77</ele>
        <time>2018-01-31T09:32:06Z</time>
      </trkpt>
      <trkpt lat="48.70334" lon="2.4668">
        <ele>77</ele>
        <time>2018-01-31T09:32:06Z</time>
      </trkpt>
      <trkpt lat="48.70342" lon="2.46679">
        <ele>77</ele>
        <time>2018-01-31T09:32:06Z</time>
      </trkpt>
      <trkpt lat="48.70345" lon="2.46681">
        <ele>77</ele>
        <time>2018-01-31T09:32:22Z</time>
      </trkpt>
      <trkpt lat="48.7035" lon="2.4668">
        <ele>77</ele>
        <time>2018-01-31T09:32:22Z</time>
      </trkpt>
      <trkpt lat="48.70351" lon="2.46683">
        <ele>77</ele>
        <time>2018-01-31T09:32:22Z</time>
      </trkpt>
      <trkpt lat="48.70354" lon="2.46674">
        <ele>77</ele>
        <time>2018-01-31T09:32:22Z</time>
      </trkpt>
      <trkpt lat="48.70356" lon="2.46667">
        <ele>77</ele>
        <time>2018-01-31T09:32:38Z</time>
      </trkpt>
      <trkpt lat="48.70356" lon="2.46659">
        <ele>77</ele>
        <time>2018-01-31T09:32:38Z</time>
      </trkpt>
      <trkpt lat="48.70356" lon="2.46655">
        <ele>77</ele>
        <time>2018-01-31T09:32:38Z</time>
      </trkpt>
      <trkpt lat="48.70356" lon="2.4665">
        <ele>77</ele>
        <time>2018-01-31T09:32:38Z</time>
      </trkpt>
      <trkpt lat="48.70358" lon="2.46645">
        <ele>77</ele>
        <time>2018-01-31T09:32:54Z</time>
      </trkpt>
      <trkpt lat="48.70364" lon="2.46635">
        <ele>77</ele>
        <time>2018-01-31T09:32:54Z</time>
      </trkpt>
      <trkpt lat="48.70366" lon="2.46628">
        <ele>77</ele>
        <time>2018-01-31T09:32:54Z</time>
      </trkpt>
      <trkpt lat="48.70368" lon="2.46624">
        <ele>78</ele>
        <time>2018-01-31T09:32:54Z</time>
      </trkpt>
      <trkpt lat="48.70368" lon="2.46617">
        <ele>78</ele>
        <time>2018-01-31T09:33:10Z</time>
      </trkpt>
      <trkpt lat="48.70368" lon="2.46611">
        <ele>78</ele>
        <time>2018-01-31T09:33:10Z</time>
      </trkpt>
      <trkpt lat="48.7037" lon="2.46601">
        <ele>78</ele>
        <time>2018-01-31T09:33:10Z</time>
      </trkpt>
      <trkpt lat="48.7037" lon="2.46592">
        <ele>78</ele>
        <time>2018-01-31T09:33:10Z</time>
      </trkpt>
      <trkpt lat="48.7037" lon="2.46586">
        <ele>78</ele>
        <time>2018-01-31T09:33:26Z</time>
      </trkpt>
      <trkpt lat="48.7037" lon="2.46579">
        <ele>78</ele>
        <time>2018-01-31T09:33:26Z</time>
      </trkpt>
      <trkpt lat="48.70371" lon="2.46573">
        <ele>78</ele>
        <time>2018-01-31T09:33:26Z</time>
      </trkpt>
      <trkpt lat="48.70372" lon="2.46569">
        <ele>78</ele>
        <time>2018-01-31T09:33:26Z</time>
      </trkpt>
      <trkpt lat="48.70373" lon="2.4656">
        <ele>78</ele>
        <time>2018-01-31T09:33:42Z</time>
      </trkpt>
      <trkpt lat="48.70373" lon="2.46548">
        <ele>78</ele>
        <time>2018-01-31T09:33:42Z</time>
      </trkpt>
      <trkpt lat="48.70374" lon="2.46543">
        <ele>78</ele>
        <time>2018-01-31T09:33:42Z</time>
      </trkpt>
      <trkpt lat="48.70374" lon="2.46538">
        <ele>79</ele>
        <time>2018-01-31T09:33:42Z</time>
      </trkpt>
      <trkpt lat="48.70376" lon="2.46528">
        <ele>74</ele>
        <time>2018-01-31T09:34:10Z</time>
      </trkpt>
      <trkpt lat="48.70378" lon="2.46526">
        <ele>74</ele>
        <time>2018-01-31T09:34:10Z</time>
      </trkpt>
      <trkpt lat="48.70381" lon="2.46524">
        <ele>74</ele>
        <time>2018-01-31T09:34:10Z</time>
      </trkpt>
      <trkpt lat="48.70382" lon="2.46524">
        <ele>74</ele>
        <time>2018-01-31T09:34:10Z</time>
      </trkpt>
      <trkpt lat="48.70385" lon="2.46514">
        <ele>74</ele>
        <time>2018-01-31T09:34:10Z</time>
      </trkpt>
      <trkpt lat="48.70385" lon="2.46511">
        <ele>74</ele>
        <time>2018-01-31T09:34:26Z</time>
      </trkpt>
      <trkpt lat="48.70386" lon="2.46501">
        <ele>74</ele>
        <time>2018-01-31T09:34:26Z</time>
      </trkpt>
      <trkpt lat="48.70389" lon="2.46492">
        <ele>74</ele>
        <time>2018-01-31T09:34:26Z</time>
      </trkpt>
      <trkpt lat="48.70388" lon="2.46482">
        <ele>74</ele>
        <time>2018-01-31T09:34:26Z</time>
      </trkpt>
      <trkpt lat="48.70387" lon="2.46473">
        <ele>74</ele>
        <time>2018-01-31T09:34:42Z</time>
      </trkpt>
      <trkpt lat="48.70387" lon="2.46467">
        <ele>74</ele>
        <time>2018-01-31T09:34:42Z</time>
      </trkpt>
      <trkpt lat="48.70386" lon="2.46458">
        <ele>74</ele>
        <time>2018-01-31T09:34:42Z</time>
      </trkpt>
      <trkpt lat="48.70388" lon="2.46452">
        <ele>74</ele>
        <time>2018-01-31T09:34:42Z</time>
      </trkpt>
      <trkpt lat="48.7039" lon="2.46449">
        <ele>74</ele>
        <time>2018-01-31T09:34:58Z</time>
      </trkpt>
      <trkpt lat="48.70392" lon="2.4644">
        <ele>74</ele>
        <time>2018-01-31T09:34:58Z</time>
      </trkpt>
      <trkpt lat="48.70393" lon="2.4643">
        <ele>74</ele>
        <time>2018-01-31T09:34:58Z</time>
      </trkpt>
      <trkpt lat="48.70394" lon="2.46424">
        <ele>74</ele>
        <time>2018-01-31T09:34:58Z</time>
      </trkpt>
      <trkpt lat="48.70394" lon="2.46417">
        <ele>74</ele>
        <time>2018-01-31T09:35:14Z</time>
      </trkpt>
      <trkpt lat="48.70395" lon="2.46407">
        <ele>74</ele>
        <time>2018-01-31T09:35:14Z</time>
      </trkpt>
      <trkpt lat="48.70399" lon="2.46398">
        <ele>74</ele>
        <time>2018-01-31T09:35:14Z</time>
      </trkpt>
      <trkpt lat="48.70401" lon="2.46399">
        <ele>74</ele>
        <time>2018-01-31T09:35:14Z</time>
      </trkpt>
      <trkpt lat="48.70406" lon="2.46402">
        <ele>74</ele>
        <time>2018-01-31T09:35:30Z</time>
      </trkpt>
      <trkpt lat="48.7041" lon="2.46406">
        <ele>74</ele>
        <time>2018-01-31T09:35:30Z</time>
      </trkpt>
      <trkpt lat="48.70415" lon="2.46408">
        <ele>74</ele>
        <time>2018-01-31T09:35:30Z</time>
      </trkpt>
      <trkpt lat="48.70424" lon="2.4641">
        <ele>74</ele>
        <time>2018-01-31T09:35:30Z</time>
      </trkpt>
      <trkpt lat="48.7043" lon="2.46411">
        <ele>74</ele>
        <time>2018-01-31T09:35:46Z</time>
      </trkpt>
      <trkpt lat="48.70436" lon="2.46413">
        <ele>74</ele>
        <time>2018-01-31T09:35:46Z</time>
      </trkpt>
      <trkpt lat="48.7044" lon="2.46413">
        <ele>74</ele>
        <time>2018-01-31T09:35:46Z</time>
      </trkpt>
      <trkpt lat="48.70447" lon="2.46415">
        <ele>74</ele>
        <time>2018-01-31T09:35:46Z</time>
      </trkpt>
      <trkpt lat="48.70452" lon="2.46415">
        <ele>74</ele>
        <time>2018-01-31T09:36:02Z</time>
      </trkpt>
      <trkpt lat="48.70454" lon="2.46417">
        <ele>74</ele>
        <time>2018-01-31T09:36:02Z</time>
      </trkpt>
      <trkpt lat="48.70459" lon="2.46425">
        <ele>71</ele>
        <time>2018-01-31T09:36:02Z</time>
      </trkpt>
      <trkpt lat="48.70461" lon="2.46429">
        <ele>71</ele>
        <time>2018-01-31T09:36:02Z</time>
      </trkpt>
      <trkpt lat="48.7046" lon="2.46434">
        <ele>71</ele>
        <time>2018-01-31T09:36:18Z</time>
      </trkpt>
      <trkpt lat="48.70457" lon="2.46438">
        <ele>74</ele>
        <time>2018-01-31T09:36:18Z</time>
      </trkpt>
      <trkpt lat="48.70456" lon="2.46442">
        <ele>74</ele>
        <time>2018-01-31T09:36:18Z</time>
      </trkpt>
      <trkpt lat="48.70454" lon="2.46449">
        <ele>74</ele>
        <time>2018-01-31T09:36:18Z</time>
      </trkpt>
      <trkpt lat="48.70453" lon="2.46456">
        <ele>74</ele>
        <time>2018-01-31T09:36:34Z</time>
      </trkpt>
      <trkpt lat="48.70451" lon="2.46462">
        <ele>74</ele>
        <time>2018-01-31T09:36:34Z</time>
      </trkpt>
      <trkpt lat="48.70449" lon="2.46469">
        <ele>74</ele>
        <time>2018-01-31T09:36:34Z</time>
      </trkpt>
      <trkpt lat="48.70447" lon="2.46475">
        <ele>74</ele>
        <time>2018-01-31T09:36:34Z</time>
      </trkpt>
      <trkpt lat="48.70443" lon="2.46495">
        <ele>74</ele>
        <time>2018-01-31T09:37:02Z</time>
      </trkpt>
      <trkpt lat="48.70444" lon="2.46502">
        <ele>74</ele>
        <time>2018-01-31T09:37:02Z</time>
      </trkpt>
      <trkpt lat="48.70447" lon="2.4651">
        <ele>74</ele>
        <time>2018-01-31T09:37:02Z</time>
      </trkpt>
      <trkpt lat="48.70453" lon="2.46516">
        <ele>74</ele>
        <time>2018-01-31T09:37:02Z</time>
      </trkpt>
      <trkpt lat="48.70459" lon="2.46512">
        <ele>71</ele>
        <time>2018-01-31T09:37:02Z</time>
      </trkpt>
      <trkpt lat="48.70465" lon="2.46513">
        <ele>71</ele>
        <time>2018-01-31T09:37:18Z</time>
      </trkpt>
      <trkpt lat="48.70471" lon="2.46513">
        <ele>71</ele>
        <time>2018-01-31T09:37:18Z</time>
      </trkpt>
      <trkpt lat="48.70474" lon="2.46513">
        <ele>71</ele>
        <time>2018-01-31T09:37:18Z</time>
      </trkpt>
      <trkpt lat="48.70477" lon="2.46514">
        <ele>71</ele>
        <time>2018-01-31T09:37:18Z</time>
      </trkpt>
      <trkpt lat="48.70485" lon="2.46517">
        <ele>71</ele>
        <time>2018-01-31T09:37:34Z</time>
      </trkpt>
      <trkpt lat="48.70491" lon="2.46521">
        <ele>71</ele>
        <time>2018-01-31T09:37:34Z</time>
      </trkpt>
      <trkpt lat="48.70497" lon="2.46522">
        <ele>71</ele>
        <time>2018-01-31T09:37:34Z</time>
      </trkpt>
      <trkpt lat="48.70499" lon="2.4652">
        <ele>71</ele>
        <time>2018-01-31T09:37:34Z</time>
      </trkpt>
      <trkpt lat="48.70507" lon="2.46516">
        <ele>71</ele>
        <time>2018-01-31T09:37:50Z</time>
      </trkpt>
      <trkpt lat="48.70511" lon="2.46511">
        <ele>71</ele>
        <time>2018-01-31T09:37:50Z</time>
      </trkpt>
      <trkpt lat="48.70511" lon="2.46502">
        <ele>71</ele>
        <time>2018-01-31T09:37:50Z</time>
      </trkpt>
      <trkpt lat="48.70511" lon="2.46497">
        <ele>71</ele>
        <time>2018-01-31T09:37:50Z</time>
      </trkpt>
      <trkpt lat="48.70515" lon="2.46489">
        <ele>71</ele>
        <time>2018-01-31T09:38:06Z</time>
      </trkpt>
      <trkpt lat="48.70519" lon="2.46482">
        <ele>71</ele>
        <time>2018-01-31T09:38:06Z</time>
      </trkpt>
      <trkpt lat="48.70522" lon="2.46476">
        <ele>71</ele>
        <time>2018-01-31T09:38:06Z</time>
      </trkpt>
      <trkpt lat="48.70523" lon="2.4647">
        <ele>71</ele>
        <time>2018-01-31T09:38:06Z</time>
      </trkpt>
      <trkpt lat="48.70525" lon="2.46462">
        <ele>71</ele>
        <time>2018-01-31T09:38:22Z</time>
      </trkpt>
      <trkpt lat="48.70527" lon="2.46454">
        <ele>71</ele>
        <time>2018-01-31T09:38:22Z</time>
      </trkpt>
      <trkpt lat="48.70529" lon="2.46444">
        <ele>71</ele>
        <time>2018-01-31T09:38:22Z</time>
      </trkpt>
      <trkpt lat="48.70528" lon="2.46437">
        <ele>71</ele>
        <time>2018-01-31T09:38:22Z</time>
      </trkpt>
      <trkpt lat="48.70529" lon="2.46427">
        <ele>71</ele>
        <time>2018-01-31T09:38:38Z</time>
      </trkpt>
      <trkpt lat="48.70532" lon="2.46419">
        <ele>71</ele>
        <time>2018-01-31T09:38:38Z</time>
      </trkpt>
      <trkpt lat="48.70535" lon="2.46412">
        <ele>71</ele>
        <time>2018-01-31T09:38:38Z</time>
      </trkpt>
      <trkpt lat="48.70538" lon="2.46405">
        <ele>71</ele>
        <time>2018-01-31T09:38:38Z</time>
      </trkpt>
      <trkpt lat="48.70541" lon="2.46399">
        <ele>71</ele>
        <time>2018-01-31T09:38:54Z</time>
      </trkpt>
      <trkpt lat="48.70543" lon="2.46389">
        <ele>63</ele>
        <time>2018-01-31T09:38:54Z</time>
      </trkpt>
      <trkpt lat="48.70545" lon="2.4638">
        <ele>63</ele>
        <time>2018-01-31T09:38:54Z</time>
      </trkpt>
      <trkpt lat="48.70545" lon="2.46374">
        <ele>65</ele>
        <time>2018-01-31T09:38:54Z</time>
      </trkpt>
      <trkpt lat="48.70546" lon="2.46368">
        <ele>65</ele>
        <time>2018-01-31T09:39:10Z</time>
      </trkpt>
      <trkpt lat="48.70546" lon="2.46357">
        <ele>65</ele>
        <time>2018-01-31T09:39:10Z</time>
      </trkpt>
      <trkpt lat="48.70548" lon="2.46352">
        <ele>65</ele>
        <time>2018-01-31T09:39:10Z</time>
      </trkpt>
      <trkpt lat="48.70551" lon="2.46345">
        <ele>65</ele>
        <time>2018-01-31T09:39:10Z</time>
      </trkpt>
      <trkpt lat="48.70553" lon="2.46335">
        <ele>65</ele>
        <time>2018-01-31T09:39:26Z</time>
      </trkpt>
      <trkpt lat="48.70555" lon="2.46326">
        <ele>65</ele>
        <time>2018-01-31T09:39:26Z</time>
      </trkpt>
      <trkpt lat="48.70557" lon="2.4632">
        <ele>65</ele>
        <time>2018-01-31T09:39:26Z</time>
      </trkpt>
      <trkpt lat="48.70559" lon="2.46311">
        <ele>65</ele>
        <time>2018-01-31T09:39:26Z</time>
      </trkpt>
      <trkpt lat="48.70561" lon="2.46312">
        <ele>65</ele>
        <time>2018-01-31T09:39:42Z</time>
      </trkpt>
      <trkpt lat="48.70563" lon="2.46311">
        <ele>65</ele>
        <time>2018-01-31T09:39:42Z</time>
      </trkpt>
      <trkpt lat="48.70564" lon="2.46306">
        <ele>65</ele>
        <time>2018-01-31T09:39:42Z</time>
      </trkpt>
      <trkpt lat="48.70572" lon="2.46308">
        <ele>65</ele>
        <time>2018-01-31T09:39:42Z</time>
      </trkpt>
      <trkpt lat="48.70575" lon="2.46309">
        <ele>65</ele>
        <time>2018-01-31T09:39:58Z</time>
      </trkpt>
      <trkpt lat="48.70578" lon="2.46311">
        <ele>65</ele>
        <time>2018-01-31T09:39:58Z</time>
      </trkpt>
      <trkpt lat="48.70587" lon="2.46316">
        <ele>65</ele>
        <time>2018-01-31T09:39:58Z</time>
      </trkpt>
      <trkpt lat="48.70591" lon="2.4632">
        <ele>65</ele>
        <time>2018-01-31T09:39:58Z</time>
      </trkpt>
      <trkpt lat="48.70596" lon="2.46322">
        <ele>65</ele>
        <time>2018-01-31T09:40:14Z</time>
      </trkpt>
      <trkpt lat="48.706" lon="2.46326">
        <ele>65</ele>
        <time>2018-01-31T09:40:14Z</time>
      </trkpt>
      <trkpt lat="48.70605" lon="2.46329">
        <ele>65</ele>
        <time>2018-01-31T09:40:14Z</time>
      </trkpt>
      <trkpt lat="48.7061" lon="2.46332">
        <ele>65</ele>
        <time>2018-01-31T09:40:14Z</time>
      </trkpt>
      <trkpt lat="48.70615" lon="2.46334">
        <ele>65</ele>
        <time>2018-01-31T09:40:30Z</time>
      </trkpt>
      <trkpt lat="48.7062" lon="2.46337">
        <ele>65</ele>
        <time>2018-01-31T09:40:30Z</time>
      </trkpt>
      <trkpt lat="48.70625" lon="2.46339">
        <ele>65</ele>
        <time>2018-01-31T09:40:30Z</time>
      </trkpt>
      <trkpt lat="48.70628" lon="2.46341">
        <ele>55</ele>
        <time>2018-01-31T09:40:30Z</time>
      </trkpt>
      <trkpt lat="48.70633" lon="2.46343">
        <ele>55</ele>
        <time>2018-01-31T09:40:46Z</time>
      </trkpt>
      <trkpt lat="48.70636" lon="2.46342">
        <ele>55</ele>
        <time>2018-01-31T09:40:46Z</time>
      </trkpt>
      <trkpt lat="48.70641" lon="2.46343">
        <ele>55</ele>
        <time>2018-01-31T09:40:46Z</time>
      </trkpt>
      <trkpt lat="48.70646" lon="2.46346">
        <ele>55</ele>
        <time>2018-01-31T09:40:46Z</time>
      </trkpt>
      <trkpt lat="48.7065" lon="2.46348">
        <ele>55</ele>
        <time>2018-01-31T09:41:02Z</time>
      </trkpt>
      <trkpt lat="48.70655" lon="2.46349">
        <ele>55</ele>
        <time>2018-01-31T09:41:02Z</time>
      </trkpt>
      <trkpt lat="48.70658" lon="2.46351">
        <ele>55</ele>
        <time>2018-01-31T09:41:02Z</time>
      </trkpt>
      <trkpt lat="48.70663" lon="2.46353">
        <ele>55</ele>
        <time>2018-01-31T09:41:02Z</time>
      </trkpt>
      <trkpt lat="48.70668" lon="2.46354">
        <ele>55</ele>
        <time>2018-01-31T09:41:18Z</time>
      </trkpt>
      <trkpt lat="48.70675" lon="2.46352">
        <ele>55</ele>
        <time>2018-01-31T09:41:18Z</time>
      </trkpt>
      <trkpt lat="48.70682" lon="2.46349">
        <ele>55</ele>
        <time>2018-01-31T09:41:18Z</time>
      </trkpt>
      <trkpt lat="48.70688" lon="2.46342">
        <ele>55</ele>
        <time>2018-01-31T09:41:18Z</time>
      </trkpt>
      <trkpt lat="48.70691" lon="2.46337">
        <ele>55</ele>
        <time>2018-01-31T09:41:34Z</time>
      </trkpt>
      <trkpt lat="48.70696" lon="2.4633">
        <ele>55</ele>
        <time>2018-01-31T09:41:34Z</time>
      </trkpt>
      <trkpt lat="48.707" lon="2.46323">
        <ele>55</ele>
        <time>2018-01-31T09:41:34Z</time>
      </trkpt>
      <trkpt lat="48.70704" lon="2.46314">
        <ele>55</ele>
        <time>2018-01-31T09:41:34Z</time>
      </trkpt>
      <trkpt lat="48.70706" lon="2.46309">
        <ele>55</ele>
        <time>2018-01-31T09:41:50Z</time>
      </trkpt>
      <trkpt lat="48.70709" lon="2.46302">
        <ele>45</ele>
        <time>2018-01-31T09:41:50Z</time>
      </trkpt>
      <trkpt lat="48.70711" lon="2.46296">
        <ele>45</ele>
        <time>2018-01-31T09:41:50Z</time>
      </trkpt>
      <trkpt lat="48.70713" lon="2.46289">
        <ele>46</ele>
        <time>2018-01-31T09:41:50Z</time>
      </trkpt>
      <trkpt lat="48.70714" lon="2.46282">
        <ele>46</ele>
        <time>2018-01-31T09:42:06Z</time>
      </trkpt>
      <trkpt lat="48.70715" lon="2.46276">
        <ele>46</ele>
        <time>2018-01-31T09:42:06Z</time>
      </trkpt>
      <trkpt lat="48.70717" lon="2.46268">
        <ele>46</ele>
        <time>2018-01-31T09:42:06Z</time>
      </trkpt>
      <trkpt lat="48.70717" lon="2.46263">
        <ele>46</ele>
        <time>2018-01-31T09:42:06Z</time>
      </trkpt>
      <trkpt lat="48.70715" lon="2.46261">
        <ele>46</ele>
        <time>2018-01-31T09:43:02Z</time>
      </trkpt>
      <trkpt lat="48.70715" lon="2.4626">
        <ele>46</ele>
        <time>2018-01-31T09:43:02Z</time>
      </trkpt>
      <trkpt lat="48.70714" lon="2.46249">
        <ele>46</ele>
        <time>2018-01-31T09:43:02Z</time>
      </trkpt>
      <trkpt lat="48.70712" lon="2.46243">
        <ele>46</ele>
        <time>2018-01-31T09:43:02Z</time>
      </trkpt>
      <trkpt lat="48.70709" lon="2.4624">
        <ele>46</ele>
        <time>2018-01-31T09:43:02Z</time>
      </trkpt>
      <trkpt lat="48.70704" lon="2.4624">
        <ele>55</ele>
        <time>2018-01-31T09:43:18Z</time>
      </trkpt>
      <trkpt lat="48.70699" lon="2.46235">
        <ele>55</ele>
        <time>2018-01-31T09:43:18Z</time>
      </trkpt>
      <trkpt lat="48.70693" lon="2.46227">
        <ele>55</ele>
        <time>2018-01-31T09:43:18Z</time>
      </trkpt>
      <trkpt lat="48.70686" lon="2.4622">
        <ele>55</ele>
        <time>2018-01-31T09:43:18Z</time>
      </trkpt>
      <trkpt lat="48.70677" lon="2.46216">
        <ele>55</ele>
        <time>2018-01-31T09:43:42Z</time>
      </trkpt>
      <trkpt lat="48.70676" lon="2.46216">
        <ele>55</ele>
        <time>2018-01-31T09:43:42Z</time>
      </trkpt>
      <trkpt lat="48.70676" lon="2.4621">
        <ele>55</ele>
        <time>2018-01-31T09:43:42Z</time>
      </trkpt>
      <trkpt lat="48.70678" lon="2.46203">
        <ele>57</ele>
        <time>2018-01-31T09:43:42Z</time>
      </trkpt>
      <trkpt lat="48.7068" lon="2.46196">
        <ele>57</ele>
        <time>2018-01-31T09:43:42Z</time>
      </trkpt>
      <trkpt lat="48.70683" lon="2.46187">
        <ele>57</ele>
        <time>2018-01-31T09:43:58Z</time>
      </trkpt>
      <trkpt lat="48.70685" lon="2.4618">
        <ele>57</ele>
        <time>2018-01-31T09:43:58Z</time>
      </trkpt>
      <trkpt lat="48.70688" lon="2.46173">
        <ele>57</ele>
        <time>2018-01-31T09:43:58Z</time>
      </trkpt>
      <trkpt lat="48.70692" lon="2.46165">
        <ele>57</ele>
        <time>2018-01-31T09:43:58Z</time>
      </trkpt>
      <trkpt lat="48.70694" lon="2.4616">
        <ele>57</ele>
        <time>2018-01-31T09:44:14Z</time>
      </trkpt>
      <trkpt lat="48.70697" lon="2.46156">
        <ele>57</ele>
        <time>2018-01-31T09:44:14Z</time>
      </trkpt>
      <trkpt lat="48.707" lon="2.4615">
        <ele>57</ele>
        <time>2018-01-31T09:44:14Z</time>
      </trkpt>
      <trkpt lat="48.70703" lon="2.46146">
        <ele>57</ele>
        <time>2018-01-31T09:44:14Z</time>
      </trkpt>
      <trkpt lat="48.70707" lon="2.4614">
        <ele>57</ele>
        <time>2018-01-31T09:44:30Z</time>
      </trkpt>
      <trkpt lat="48.7071" lon="2.46132">
        <ele>51</ele>
        <time>2018-01-31T09:44:30Z</time>
      </trkpt>
      <trkpt lat="48.70713" lon="2.46129">
        <ele>51</ele>
        <time>2018-01-31T09:44:30Z</time>
      </trkpt>
      <trkpt lat="48.70714" lon="2.46127">
        <ele>51</ele>
        <time>2018-01-31T09:44:30Z</time>
      </trkpt>
      <trkpt lat="48.70716" lon="2.46121">
        <ele>58</ele>
        <time>2018-01-31T09:44:46Z</time>
      </trkpt>
      <trkpt lat="48.70719" lon="2.4611">
        <ele>58</ele>
        <time>2018-01-31T09:44:46Z</time>
      </trkpt>
      <trkpt lat="48.70721" lon="2.46103">
        <ele>58</ele>
        <time>2018-01-31T09:44:46Z</time>
      </trkpt>
      <trkpt lat="48.70724" lon="2.46099">
        <ele>58</ele>
        <time>2018-01-31T09:44:46Z</time>
      </trkpt>
      <trkpt lat="48.70726" lon="2.46093">
        <ele>58</ele>
        <time>2018-01-31T09:45:02Z</time>
      </trkpt>
      <trkpt lat="48.70728" lon="2.46091">
        <ele>58</ele>
        <time>2018-01-31T09:45:02Z</time>
      </trkpt>
      <trkpt lat="48.70732" lon="2.46084">
        <ele>58</ele>
        <time>2018-01-31T09:45:02Z</time>
      </trkpt>
      <trkpt lat="48.70736" lon="2.46076">
        <ele>58</ele>
        <time>2018-01-31T09:45:02Z</time>
      </trkpt>
      <trkpt lat="48.70739" lon="2.46072">
        <ele>58</ele>
        <time>2018-01-31T09:45:18Z</time>
      </trkpt>
      <trkpt lat="48.70741" lon="2.4607">
        <ele>58</ele>
        <time>2018-01-31T09:45:18Z</time>
      </trkpt>
      <trkpt lat="48.70744" lon="2.46064">
        <ele>58</ele>
        <time>2018-01-31T09:45:18Z</time>
      </trkpt>
      <trkpt lat="48.70748" lon="2.46058">
        <ele>58</ele>
        <time>2018-01-31T09:45:18Z</time>
      </trkpt>
      <trkpt lat="48.70751" lon="2.46049">
        <ele>58</ele>
        <time>2018-01-31T09:45:34Z</time>
      </trkpt>
      <trkpt lat="48.70752" lon="2.46044">
        <ele>58</ele>
        <time>2018-01-31T09:45:34Z</time>
      </trkpt>
      <trkpt lat="48.70755" lon="2.46036">
        <ele>63</ele>
        <time>2018-01-31T09:45:34Z</time>
      </trkpt>
      <trkpt lat="48.70757" lon="2.46031">
        <ele>63</ele>
        <time>2018-01-31T09:45:34Z</time>
      </trkpt>
      <trkpt lat="48.70761" lon="2.46024">
        <ele>63</ele>
        <time>2018-01-31T09:45:50Z</time>
      </trkpt>
      <trkpt lat="48.70763" lon="2.46018">
        <ele>63</ele>
        <time>2018-01-31T09:45:50Z</time>
      </trkpt>
      <trkpt lat="48.70766" lon="2.46013">
        <ele>63</ele>
        <time>2018-01-31T09:45:50Z</time>
      </trkpt>
      <trkpt lat="48.70767" lon="2.4601">
        <ele>63</ele>
        <time>2018-01-31T09:45:50Z</time>
      </trkpt>
      <trkpt lat="48.70769" lon="2.46007">
        <ele>63</ele>
        <time>2018-01-31T09:46:06Z</time>
      </trkpt>
      <trkpt lat="48.70773" lon="2.46001">
        <ele>63</ele>
        <time>2018-01-31T09:46:06Z</time>
      </trkpt>
      <trkpt lat="48.70776" lon="2.45995">
        <ele>63</ele>
        <time>2018-01-31T09:46:06Z</time>
      </trkpt>
      <trkpt lat="48.70779" lon="2.45988">
        <ele>63</ele>
        <time>2018-01-31T09:46:06Z</time>
      </trkpt>
      <trkpt lat="48.70782" lon="2.45978">
        <ele>63</ele>
        <time>2018-01-31T09:46:22Z</time>
      </trkpt>
      <trkpt lat="48.70784" lon="2.45973">
        <ele>63</ele>
        <time>2018-01-31T09:46:22Z</time>
      </trkpt>
      <trkpt lat="48.70785" lon="2.45969">
        <ele>63</ele>
        <time>2018-01-31T09:46:22Z</time>
      </trkpt>
      <trkpt lat="48.70789" lon="2.45961">
        <ele>63</ele>
        <time>2018-01-31T09:46:22Z</time>
      </trkpt>
      <trkpt lat="48.7079" lon="2.45952">
        <ele>66</ele>
        <time>2018-01-31T09:46:38Z</time>
      </trkpt>
      <trkpt lat="48.70791" lon="2.45949">
        <ele>66</ele>
        <time>2018-01-31T09:46:38Z</time>
      </trkpt>
      <trkpt lat="48.70794" lon="2.45944">
        <ele>57</ele>
        <time>2018-01-31T09:46:38Z</time>
      </trkpt>
      <trkpt lat="48.70797" lon="2.45936">
        <ele>57</ele>
        <time>2018-01-31T09:46:38Z</time>
      </trkpt>
      <trkpt lat="48.70801" lon="2.45927">
        <ele>57</ele>
        <time>2018-01-31T09:46:54Z</time>
      </trkpt>
      <trkpt lat="48.70803" lon="2.45921">
        <ele>57</ele>
        <time>2018-01-31T09:46:54Z</time>
      </trkpt>
      <trkpt lat="48.70805" lon="2.45916">
        <ele>57</ele>
        <time>2018-01-31T09:46:54Z</time>
      </trkpt>
      <trkpt lat="48.70808" lon="2.45907">
        <ele>57</ele>
        <time>2018-01-31T09:46:54Z</time>
      </trkpt>
      <trkpt lat="48.7081" lon="2.45902">
        <ele>57</ele>
        <time>2018-01-31T09:47:10Z</time>
      </trkpt>
      <trkpt lat="48.70812" lon="2.45896">
        <ele>57</ele>
        <time>2018-01-31T09:47:10Z</time>
      </trkpt>
      <trkpt lat="48.70814" lon="2.45892">
        <ele>57</ele>
        <time>2018-01-31T09:47:10Z</time>
      </trkpt>
      <trkpt lat="48.70815" lon="2.45889">
        <ele>57</ele>
        <time>2018-01-31T09:47:10Z</time>
      </trkpt>
      <trkpt lat="48.70818" lon="2.45884">
        <ele>57</ele>
        <time>2018-01-31T09:47:26Z</time>
      </trkpt>
      <trkpt lat="48.70821" lon="2.45878">
        <ele>57</ele>
        <time>2018-01-31T09:47:26Z</time>
      </trkpt>
      <trkpt lat="48.70824" lon="2.45872">
        <ele>64</ele>
        <time>2018-01-31T09:47:26Z</time>
      </trkpt>
      <trkpt lat="48.70826" lon="2.45866">
        <ele>64</ele>
        <time>2018-01-31T09:47:26Z</time>
      </trkpt>
      <trkpt lat="48.70827" lon="2.45865">
        <ele>64</ele>
        <time>2018-01-31T09:47:42Z</time>
      </trkpt>
      <trkpt lat="48.70831" lon="2.45865">
        <ele>64</ele>
        <time>2018-01-31T09:47:42Z</time>
      </trkpt>
      <trkpt lat="48.70837" lon="2.45868">
        <ele>64</ele>
        <time>2018-01-31T09:47:42Z</time>
      </trkpt>
      <trkpt lat="48.70841" lon="2.45872">
        <ele>64</ele>
        <time>2018-01-31T09:47:42Z</time>
      </trkpt>
      <trkpt lat="48.70845" lon="2.45875">
        <ele>64</ele>
        <time>2018-01-31T09:47:58Z</time>
      </trkpt>
      <trkpt lat="48.7085" lon="2.45881">
        <ele>57</ele>
        <time>2018-01-31T09:47:58Z</time>
      </trkpt>
      <trkpt lat="48.70854" lon="2.45887">
        <ele>57</ele>
        <time>2018-01-31T09:47:58Z</time>
      </trkpt>
      <trkpt lat="48.70858" lon="2.45893">
        <ele>57</ele>
        <time>2018-01-31T09:47:58Z</time>
      </trkpt>
      <trkpt lat="48.70862" lon="2.45901">
        <ele>57</ele>
        <time>2018-01-31T09:48:14Z</time>
      </trkpt>
      <trkpt lat="48.70866" lon="2.45905">
        <ele>57</ele>
        <time>2018-01-31T09:48:14Z</time>
      </trkpt>
      <trkpt lat="48.70869" lon="2.45911">
        <ele>57</ele>
        <time>2018-01-31T09:48:14Z</time>
      </trkpt>
      <trkpt lat="48.70873" lon="2.45916">
        <ele>57</ele>
        <time>2018-01-31T09:48:14Z</time>
      </trkpt>
      <trkpt lat="48.70876" lon="2.45921">
        <ele>50</ele>
        <time>2018-01-31T09:48:30Z</time>
      </trkpt>
      <trkpt lat="48.7088" lon="2.45929">
        <ele>50</ele>
        <time>2018-01-31T09:48:30Z</time>
      </trkpt>
      <trkpt lat="48.70883" lon="2.45934">
        <ele>50</ele>
        <time>2018-01-31T09:48:30Z</time>
      </trkpt>
      <trkpt lat="48.70887" lon="2.45942">
        <ele>50</ele>
        <time>2018-01-31T09:48:30Z</time>
      </trkpt>
      <trkpt lat="48.70891" lon="2.45949">
        <ele>50</ele>
        <time>2018-01-31T09:48:46Z</time>
      </trkpt>
      <trkpt lat="48.70895" lon="2.45956">
        <ele>50</ele>
        <time>2018-01-31T09:48:46Z</time>
      </trkpt>
      <trkpt lat="48.70899" lon="2.45962">
        <ele>43</ele>
        <time>2018-01-31T09:48:46Z</time>
      </trkpt>
      <trkpt lat="48.70903" lon="2.45968">
        <ele>43</ele>
        <time>2018-01-31T09:48:46Z</time>
      </trkpt>
      <trkpt lat="48.70906" lon="2.45975">
        <ele>43</ele>
        <time>2018-01-31T09:49:02Z</time>
      </trkpt>
      <trkpt lat="48.70909" lon="2.4598">
        <ele>43</ele>
        <time>2018-01-31T09:49:02Z</time>
      </trkpt>
      <trkpt lat="48.7091" lon="2.45987">
        <ele>43</ele>
        <time>2018-01-31T09:49:02Z</time>
      </trkpt>
      <trkpt lat="48.70911" lon="2.45993">
        <ele>43</ele>
        <time>2018-01-31T09:49:02Z</time>
      </trkpt>
      <trkpt lat="48.70915" lon="2.45991">
        <ele>43</ele>
        <time>2018-01-31T09:49:30Z</time>
      </trkpt>
      <trkpt lat="48.70916" lon="2.4599">
        <ele>43</ele>
        <time>2018-01-31T09:49:30Z</time>
      </trkpt>
      <trkpt lat="48.70917" lon="2.45988">
        <ele>43</ele>
        <time>2018-01-31T09:49:30Z</time>
      </trkpt>
      <trkpt lat="48.7092" lon="2.45987">
        <ele>43</ele>
        <time>2018-01-31T09:49:30Z</time>
      </trkpt>
      <trkpt lat="48.70926" lon="2.45982">
        <ele>43</ele>
        <time>2018-01-31T09:49:30Z</time>
      </trkpt>
      <trkpt lat="48.70929" lon="2.45976">
        <ele>43</ele>
        <time>2018-01-31T09:49:46Z</time>
      </trkpt>
      <trkpt lat="48.70933" lon="2.45969">
        <ele>43</ele>
        <time>2018-01-31T09:49:46Z</time>
      </trkpt>
      <trkpt lat="48.70938" lon="2.45963">
        <ele>43</ele>
        <time>2018-01-31T09:49:46Z</time>
      </trkpt>
      <trkpt lat="48.70941" lon="2.45957">
        <ele>50</ele>
        <time>2018-01-31T09:49:46Z</time>
      </trkpt>
      <trkpt lat="48.70942" lon="2.45954">
        <ele>50</ele>
        <time>2018-01-31T09:50:02Z</time>
      </trkpt>
      <trkpt lat="48.70944" lon="2.4595">
        <ele>50</ele>
        <time>2018-01-31T09:50:02Z</time>
      </trkpt>
      <trkpt lat="48.70946" lon="2.45945">
        <ele>50</ele>
        <time>2018-01-31T09:50:02Z</time>
      </trkpt>
      <trkpt lat="48.7095" lon="2.45938">
        <ele>50</ele>
        <time>2018-01-31T09:50:02Z</time>
      </trkpt>
      <trkpt lat="48.70953" lon="2.45929">
        <ele>50</ele>
        <time>2018-01-31T09:50:18Z</time>
      </trkpt>
      <trkpt lat="48.70957" lon="2.45922">
        <ele>50</ele>
        <time>2018-01-31T09:50:18Z</time>
      </trkpt>
      <trkpt lat="48.70959" lon="2.45919">
        <ele>40</ele>
        <time>2018-01-31T09:50:18Z</time>
      </trkpt>
      <trkpt lat="48.70962" lon="2.45912">
        <ele>40</ele>
        <time>2018-01-31T09:50:18Z</time>
      </trkpt>
      <trkpt lat="48.70965" lon="2.45905">
        <ele>40</ele>
        <time>2018-01-31T09:50:34Z</time>
      </trkpt>
      <trkpt lat="48.70968" lon="2.45901">
        <ele>40</ele>
        <time>2018-01-31T09:50:34Z</time>
      </trkpt>
      <trkpt lat="48.7097" lon="2.45897">
        <ele>40</ele>
        <time>2018-01-31T09:50:34Z</time>
      </trkpt>
      <trkpt lat="48.70972" lon="2.45892">
        <ele>40</ele>
        <time>2018-01-31T09:50:34Z</time>
      </trkpt>
      <trkpt lat="48.70975" lon="2.45885">
        <ele>40</ele>
        <time>2018-01-31T09:50:50Z</time>
      </trkpt>
      <trkpt lat="48.70977" lon="2.4588">
        <ele>40</ele>
        <time>2018-01-31T09:50:50Z</time>
      </trkpt>
      <trkpt lat="48.70979" lon="2.45876">
        <ele>40</ele>
        <time>2018-01-31T09:50:50Z</time>
      </trkpt>
      <trkpt lat="48.70981" lon="2.45869">
        <ele>46</ele>
        <time>2018-01-31T09:50:50Z</time>
      </trkpt>
      <trkpt lat="48.70984" lon="2.45866">
        <ele>46</ele>
        <time>2018-01-31T09:51:06Z</time>
      </trkpt>
      <trkpt lat="48.70985" lon="2.4586">
        <ele>46</ele>
        <time>2018-01-31T09:51:06Z</time>
      </trkpt>
      <trkpt lat="48.70989" lon="2.45853">
        <ele>46</ele>
        <time>2018-01-31T09:51:06Z</time>
      </trkpt>
      <trkpt lat="48.70991" lon="2.45848">
        <ele>46</ele>
        <time>2018-01-31T09:51:06Z</time>
      </trkpt>
      <trkpt lat="48.70996" lon="2.45835">
        <ele>46</ele>
        <time>2018-01-31T09:51:38Z</time>
      </trkpt>
      <trkpt lat="48.70997" lon="2.45832">
        <ele>46</ele>
        <time>2018-01-31T09:51:38Z</time>
      </trkpt>
      <trkpt lat="48.70997" lon="2.45831">
        <ele>46</ele>
        <time>2018-01-31T09:51:38Z</time>
      </trkpt>
      <trkpt lat="48.70999" lon="2.45828">
        <ele>46</ele>
        <time>2018-01-31T09:51:38Z</time>
      </trkpt>
      <trkpt lat="48.70999" lon="2.45826">
        <ele>46</ele>
        <time>2018-01-31T09:51:38Z</time>
      </trkpt>
      <trkpt lat="48.71" lon="2.45822">
        <ele>46</ele>
        <time>2018-01-31T09:51:58Z</time>
      </trkpt>
      <trkpt lat="48.71002" lon="2.45816">
        <ele>46</ele>
        <time>2018-01-31T09:51:58Z</time>
      </trkpt>
      <trkpt lat="48.71001" lon="2.45815">
        <ele>46</ele>
        <time>2018-01-31T09:51:58Z</time>
      </trkpt>
      <trkpt lat="48.71002" lon="2.4581">
        <ele>46</ele>
        <time>2018-01-31T09:51:58Z</time>
      </trkpt>
      <trkpt lat="48.71002" lon="2.45802">
        <ele>46</ele>
        <time>2018-01-31T09:51:58Z</time>
      </trkpt>
      <trkpt lat="48.71002" lon="2.45792">
        <ele>46</ele>
        <time>2018-01-31T09:52:14Z</time>
      </trkpt>
      <trkpt lat="48.71002" lon="2.45785">
        <ele>53</ele>
        <time>2018-01-31T09:52:14Z</time>
      </trkpt>
      <trkpt lat="48.71" lon="2.45778">
        <ele>53</ele>
        <time>2018-01-31T09:52:14Z</time>
      </trkpt>
      <trkpt lat="48.70998" lon="2.45774">
        <ele>53</ele>
        <time>2018-01-31T09:52:14Z</time>
      </trkpt>
      <trkpt lat="48.70992" lon="2.45774">
        <ele>53</ele>
        <time>2018-01-31T09:52:30Z</time>
      </trkpt>
      <trkpt lat="48.70988" lon="2.45771">
        <ele>53</ele>
        <time>2018-01-31T09:52:30Z</time>
      </trkpt>
      <trkpt lat="48.70985" lon="2.45763">
        <ele>53</ele>
        <time>2018-01-31T09:52:30Z</time>
      </trkpt>
      <trkpt lat="48.7098" lon="2.45755">
        <ele>53</ele>
        <time>2018-01-31T09:52:30Z</time>
      </trkpt>
      <trkpt lat="48.70978" lon="2.45753">
        <ele>53</ele>
        <time>2018-01-31T09:52:46Z</time>
      </trkpt>
      <trkpt lat="48.70976" lon="2.45751">
        <ele>53</ele>
        <time>2018-01-31T09:52:46Z</time>
      </trkpt>
      <trkpt lat="48.70972" lon="2.45744">
        <ele>53</ele>
        <time>2018-01-31T09:52:46Z</time>
      </trkpt>
      <trkpt lat="48.70968" lon="2.45739">
        <ele>53</ele>
        <time>2018-01-31T09:52:46Z</time>
      </trkpt>
      <trkpt lat="48.70965" lon="2.45742">
        <ele>53</ele>
        <time>2018-01-31T09:53:02Z</time>
      </trkpt>
      <trkpt lat="48.70959" lon="2.45737">
        <ele>53</ele>
        <time>2018-01-31T09:53:02Z</time>
      </trkpt>
      <trkpt lat="48.70956" lon="2.45733">
        <ele>61</ele>
        <time>2018-01-31T09:53:02Z</time>
      </trkpt>
      <trkpt lat="48.70952" lon="2.45729">
        <ele>61</ele>
        <time>2018-01-31T09:53:02Z</time>
      </trkpt>
      <trkpt lat="48.70948" lon="2.45726">
        <ele>61</ele>
        <time>2018-01-31T09:53:18Z</time>
      </trkpt>
      <trkpt lat="48.70948" lon="2.45723">
        <ele>61</ele>
        <time>2018-01-31T09:53:18Z</time>
      </trkpt>
      <trkpt lat="48.70945" lon="2.45718">
        <ele>61</ele>
        <time>2018-01-31T09:53:18Z</time>
      </trkpt>
      <trkpt lat="48.70943" lon="2.45712">
        <ele>61</ele>
        <time>2018-01-31T09:53:18Z</time>
      </trkpt>
      <trkpt lat="48.70942" lon="2.45707">
        <ele>64</ele>
        <time>2018-01-31T09:53:34Z</time>
      </trkpt>
      <trkpt lat="48.70941" lon="2.45702">
        <ele>64</ele>
        <time>2018-01-31T09:53:34Z</time>
      </trkpt>
      <trkpt lat="48.70939" lon="2.45694">
        <ele>64</ele>
        <time>2018-01-31T09:53:34Z</time>
      </trkpt>
      <trkpt lat="48.70935" lon="2.45686">
        <ele>64</ele>
        <time>2018-01-31T09:53:34Z</time>
      </trkpt>
      <trkpt lat="48.70931" lon="2.4568">
        <ele>64</ele>
        <time>2018-01-31T09:53:50Z</time>
      </trkpt>
      <trkpt lat="48.70928" lon="2.45673">
        <ele>64</ele>
        <time>2018-01-31T09:53:50Z</time>
      </trkpt>
      <trkpt lat="48.70924" lon="2.45667">
        <ele>64</ele>
        <time>2018-01-31T09:53:50Z</time>
      </trkpt>
      <trkpt lat="48.7092" lon="2.45661">
        <ele>64</ele>
        <time>2018-01-31T09:53:50Z</time>
      </trkpt>
      <trkpt lat="48.70916" lon="2.45656">
        <ele>64</ele>
        <time>2018-01-31T09:54:10Z</time>
      </trkpt>
      <trkpt lat="48.70914" lon="2.45656">
        <ele>64</ele>
        <time>2018-01-31T09:54:10Z</time>
      </trkpt>
      <trkpt lat="48.70911" lon="2.45655">
        <ele>64</ele>
        <time>2018-01-31T09:54:10Z</time>
      </trkpt>
      <trkpt lat="48.7091" lon="2.45655">
        <ele>64</ele>
        <time>2018-01-31T09:54:10Z</time>
      </trkpt>
      <trkpt lat="48.70905" lon="2.4565">
        <ele>64</ele>
        <time>2018-01-31T09:54:10Z</time>
      </trkpt>
      <trkpt lat="48.709" lon="2.45646">
        <ele>64</ele>
        <time>2018-01-31T09:54:26Z</time>
      </trkpt>
      <trkpt lat="48.70895" lon="2.45641">
        <ele>64</ele>
        <time>2018-01-31T09:54:26Z</time>
      </trkpt>
      <trkpt lat="48.70891" lon="2.45637">
        <ele>64</ele>
        <time>2018-01-31T09:54:26Z</time>
      </trkpt>
      <trkpt lat="48.70889" lon="2.45634">
        <ele>64</ele>
        <time>2018-01-31T09:54:26Z</time>
      </trkpt>
      <trkpt lat="48.70886" lon="2.4563">
        <ele>64</ele>
        <time>2018-01-31T09:54:42Z</time>
      </trkpt>
      <trkpt lat="48.70882" lon="2.45625">
        <ele>64</ele>
        <time>2018-01-31T09:54:42Z</time>
      </trkpt>
      <trkpt lat="48.70877" lon="2.4562">
        <ele>64</ele>
        <time>2018-01-31T09:54:42Z</time>
      </trkpt>
      <trkpt lat="48.70873" lon="2.45616">
        <ele>68</ele>
        <time>2018-01-31T09:54:42Z</time>
      </trkpt>
      <trkpt lat="48.7087" lon="2.45612">
        <ele>68</ele>
        <time>2018-01-31T09:54:58Z</time>
      </trkpt>
      <trkpt lat="48.70864" lon="2.45607">
        <ele>68</ele>
        <time>2018-01-31T09:54:58Z</time>
      </trkpt>
      <trkpt lat="48.70859" lon="2.45604">
        <ele>68</ele>
        <time>2018-01-31T09:54:58Z</time>
      </trkpt>
      <trkpt lat="48.70854" lon="2.45599">
        <ele>68</ele>
        <time>2018-01-31T09:54:58Z</time>
      </trkpt>
      <trkpt lat="48.7085" lon="2.45593">
        <ele>68</ele>
        <time>2018-01-31T09:55:14Z</time>
      </trkpt>
      <trkpt lat="48.70846" lon="2.45589">
        <ele>68</ele>
        <time>2018-01-31T09:55:14Z</time>
      </trkpt>
      <trkpt lat="48.7084" lon="2.45583">
        <ele>68</ele>
        <time>2018-01-31T09:55:14Z</time>
      </trkpt>
      <trkpt lat="48.70835" lon="2.45577">
        <ele>68</ele>
        <time>2018-01-31T09:55:14Z</time>
      </trkpt>
      <trkpt lat="48.70832" lon="2.45572">
        <ele>68</ele>
        <time>2018-01-31T09:55:30Z</time>
      </trkpt>
      <trkpt lat="48.70828" lon="2.45567">
        <ele>68</ele>
        <time>2018-01-31T09:55:30Z</time>
      </trkpt>
      <trkpt lat="48.70826" lon="2.45563">
        <ele>68</ele>
        <time>2018-01-31T09:55:30Z</time>
      </trkpt>
      <trkpt lat="48.70822" lon="2.45557">
        <ele>68</ele>
        <time>2018-01-31T09:55:30Z</time>
      </trkpt>
      <trkpt lat="48.7082" lon="2.45558">
        <ele>68</ele>
        <time>2018-01-31T09:55:46Z</time>
      </trkpt>
      <trkpt lat="48.70817" lon="2.45555">
        <ele>68</ele>
        <time>2018-01-31T09:55:46Z</time>
      </trkpt>
      <trkpt lat="48.70814" lon="2.45549">
        <ele>68</ele>
        <time>2018-01-31T09:55:46Z</time>
      </trkpt>
      <trkpt lat="48.70811" lon="2.45544">
        <ele>68</ele>
        <time>2018-01-31T09:55:46Z</time>
      </trkpt>
      <trkpt lat="48.70809" lon="2.45541">
        <ele>68</ele>
        <time>2018-01-31T09:56:02Z</time>
      </trkpt>
      <trkpt lat="48.70806" lon="2.45538">
        <ele>68</ele>
        <time>2018-01-31T09:56:02Z</time>
      </trkpt>
      <trkpt lat="48.70803" lon="2.45537">
        <ele>68</ele>
        <time>2018-01-31T09:56:02Z</time>
      </trkpt>
      <trkpt lat="48.70801" lon="2.45532">
        <ele>68</ele>
        <time>2018-01-31T09:56:02Z</time>
      </trkpt>
      <trkpt lat="48.70801" lon="2.45521">
        <ele>68</ele>
        <time>2018-01-31T09:59:42Z</time>
      </trkpt>
      <trkpt lat="48.70802" lon="2.45517">
        <ele>68</ele>
        <time>2018-01-31T09:59:42Z</time>
      </trkpt>
      <trkpt lat="48.70803" lon="2.45509">
        <ele>68</ele>
        <time>2018-01-31T09:59:42Z</time>
      </trkpt>
      <trkpt lat="48.70805" lon="2.45501">
        <ele>68</ele>
        <time>2018-01-31T09:59:42Z</time>
      </trkpt>
      <trkpt lat="48.70807" lon="2.45494">
        <ele>68</ele>
        <time>2018-01-31T09:59:42Z</time>
      </trkpt>
      <trkpt lat="48.7081" lon="2.45488">
        <ele>68</ele>
        <time>2018-01-31T09:59:58Z</time>
      </trkpt>
      <trkpt lat="48.70815" lon="2.45483">
        <ele>68</ele>
        <time>2018-01-31T09:59:58Z</time>
      </trkpt>
      <trkpt lat="48.70817" lon="2.45478">
        <ele>68</ele>
        <time>2018-01-31T09:59:58Z</time>
      </trkpt>
      <trkpt lat="48.7082" lon="2.45473">
        <ele>68</ele>
        <time>2018-01-31T09:59:58Z</time>
      </trkpt>
      <trkpt lat="48.70824" lon="2.45466">
        <ele>68</ele>
        <time>2018-01-31T10:00:18Z</time>
      </trkpt>
      <trkpt lat="48.70826" lon="2.45462">
        <ele>68</ele>
        <time>2018-01-31T10:00:18Z</time>
      </trkpt>
      <trkpt lat="48.70827" lon="2.45461">
        <ele>68</ele>
        <time>2018-01-31T10:00:18Z</time>
      </trkpt>
      <trkpt lat="48.70827" lon="2.45457">
        <ele>69</ele>
        <time>2018-01-31T10:00:18Z</time>
      </trkpt>
      <trkpt lat="48.70825" lon="2.45452">
        <ele>69</ele>
        <time>2018-01-31T10:00:18Z</time>
      </trkpt>
      <trkpt lat="48.70822" lon="2.45447">
        <ele>69</ele>
        <time>2018-01-31T10:00:34Z</time>
      </trkpt>
      <trkpt lat="48.70817" lon="2.45441">
        <ele>69</ele>
        <time>2018-01-31T10:00:34Z</time>
      </trkpt>
      <trkpt lat="48.70813" lon="2.45438">
        <ele>69</ele>
        <time>2018-01-31T10:00:34Z</time>
      </trkpt>
      <trkpt lat="48.70812" lon="2.45437">
        <ele>69</ele>
        <time>2018-01-31T10:00:34Z</time>
      </trkpt>
      <trkpt lat="48.7081" lon="2.45435">
        <ele>69</ele>
        <time>2018-01-31T10:00:50Z</time>
      </trkpt>
      <trkpt lat="48.70803" lon="2.45427">
        <ele>69</ele>
        <time>2018-01-31T10:00:50Z</time>
      </trkpt>
      <trkpt lat="48.70797" lon="2.4542">
        <ele>69</ele>
        <time>2018-01-31T10:00:50Z</time>
      </trkpt>
      <trkpt lat="48.70789" lon="2.45416">
        <ele>71</ele>
        <time>2018-01-31T10:00:50Z</time>
      </trkpt>
      <trkpt lat="48.70784" lon="2.45414">
        <ele>71</ele>
        <time>2018-01-31T10:01:10Z</time>
      </trkpt>
      <trkpt lat="48.70781" lon="2.45414">
        <ele>71</ele>
        <time>2018-01-31T10:01:10Z</time>
      </trkpt>
      <trkpt lat="48.70779" lon="2.45413">
        <ele>71</ele>
        <time>2018-01-31T10:01:10Z</time>
      </trkpt>
      <trkpt lat="48.70778" lon="2.45408">
        <ele>71</ele>
        <time>2018-01-31T10:01:10Z</time>
      </trkpt>
      <trkpt lat="48.70777" lon="2.45405">
        <ele>71</ele>
        <time>2018-01-31T10:01:10Z</time>
      </trkpt>
      <trkpt lat="48.70776" lon="2.45404">
        <ele>71</ele>
        <time>2018-01-31T10:01:30Z</time>
      </trkpt>
      <trkpt lat="48.70778" lon="2.45407">
        <ele>71</ele>
        <time>2018-01-31T10:01:30Z</time>
      </trkpt>
      <trkpt lat="48.7078" lon="2.45412">
        <ele>71</ele>
        <time>2018-01-31T10:01:30Z</time>
      </trkpt>
      <trkpt lat="48.70781" lon="2.45415">
        <ele>71</ele>
        <time>2018-01-31T10:01:30Z</time>
      </trkpt>
      <trkpt lat="48.70782" lon="2.4542">
        <ele>71</ele>
        <time>2018-01-31T10:01:30Z</time>
      </trkpt>
      <trkpt lat="48.70782" lon="2.45425">
        <ele>71</ele>
        <time>2018-01-31T10:01:46Z</time>
      </trkpt>
      <trkpt lat="48.70781" lon="2.45424">
        <ele>71</ele>
        <time>2018-01-31T10:01:46Z</time>
      </trkpt>
      <trkpt lat="48.70774" lon="2.45417">
        <ele>71</ele>
        <time>2018-01-31T10:01:46Z</time>
      </trkpt>
      <trkpt lat="48.70762" lon="2.45416">
        <ele>71</ele>
        <time>2018-01-31T10:01:46Z</time>
      </trkpt>
      <trkpt lat="48.70754" lon="2.45411">
        <ele>71</ele>
        <time>2018-01-31T10:02:02Z</time>
      </trkpt>
      <trkpt lat="48.70747" lon="2.45405">
        <ele>71</ele>
        <time>2018-01-31T10:02:02Z</time>
      </trkpt>
      <trkpt lat="48.70741" lon="2.45402">
        <ele>71</ele>
        <time>2018-01-31T10:02:02Z</time>
      </trkpt>
      <trkpt lat="48.70736" lon="2.45399">
        <ele>71</ele>
        <time>2018-01-31T10:02:02Z</time>
      </trkpt>
      <trkpt lat="48.70731" lon="2.45394">
        <ele>71</ele>
        <time>2018-01-31T10:02:18Z</time>
      </trkpt>
      <trkpt lat="48.70727" lon="2.45389">
        <ele>71</ele>
        <time>2018-01-31T10:02:18Z</time>
      </trkpt>
      <trkpt lat="48.70723" lon="2.45384">
        <ele>71</ele>
        <time>2018-01-31T10:02:18Z</time>
      </trkpt>
      <trkpt lat="48.7072" lon="2.4538">
        <ele>71</ele>
        <time>2018-01-31T10:02:18Z</time>
      </trkpt>
      <trkpt lat="48.70716" lon="2.45375">
        <ele>71</ele>
        <time>2018-01-31T10:02:34Z</time>
      </trkpt>
      <trkpt lat="48.70713" lon="2.45371">
        <ele>70</ele>
        <time>2018-01-31T10:02:34Z</time>
      </trkpt>
      <trkpt lat="48.70709" lon="2.45366">
        <ele>70</ele>
        <time>2018-01-31T10:02:34Z</time>
      </trkpt>
      <trkpt lat="48.70702" lon="2.45364">
        <ele>75</ele>
        <time>2018-01-31T10:02:34Z</time>
      </trkpt>
      <trkpt lat="48.70697" lon="2.45363">
        <ele>75</ele>
        <time>2018-01-31T10:02:50Z</time>
      </trkpt>
      <trkpt lat="48.70693" lon="2.45364">
        <ele>75</ele>
        <time>2018-01-31T10:02:50Z</time>
      </trkpt>
      <trkpt lat="48.70687" lon="2.45364">
        <ele>75</ele>
        <time>2018-01-31T10:02:50Z</time>
      </trkpt>
      <trkpt lat="48.70685" lon="2.4537">
        <ele>75</ele>
        <time>2018-01-31T10:02:50Z</time>
      </trkpt>
      <trkpt lat="48.70682" lon="2.45384">
        <ele>76</ele>
        <time>2018-01-31T10:03:06Z</time>
      </trkpt>
      <trkpt lat="48.70682" lon="2.45395">
        <ele>76</ele>
        <time>2018-01-31T10:03:06Z</time>
      </trkpt>
      <trkpt lat="48.70683" lon="2.45406">
        <ele>76</ele>
        <time>2018-01-31T10:03:06Z</time>
      </trkpt>
      <trkpt lat="48.70684" lon="2.45416">
        <ele>76</ele>
        <time>2018-01-31T10:03:06Z</time>
      </trkpt>
      <trkpt lat="48.70685" lon="2.45425">
        <ele>76</ele>
        <time>2018-01-31T10:03:22Z</time>
      </trkpt>
      <trkpt lat="48.70686" lon="2.45433">
        <ele>76</ele>
        <time>2018-01-31T10:03:22Z</time>
      </trkpt>
      <trkpt lat="48.70687" lon="2.4544">
        <ele>76</ele>
        <time>2018-01-31T10:03:22Z</time>
      </trkpt>
      <trkpt lat="48.70689" lon="2.45448">
        <ele>76</ele>
        <time>2018-01-31T10:03:22Z</time>
      </trkpt>
      <trkpt lat="48.70691" lon="2.45454">
        <ele>76</ele>
        <time>2018-01-31T10:03:38Z</time>
      </trkpt>
      <trkpt lat="48.70692" lon="2.4546">
        <ele>74</ele>
        <time>2018-01-31T10:03:38Z</time>
      </trkpt>
      <trkpt lat="48.70695" lon="2.45464">
        <ele>74</ele>
        <time>2018-01-31T10:03:38Z</time>
      </trkpt>
      <trkpt lat="48.70699" lon="2.45472">
        <ele>74</ele>
        <time>2018-01-31T10:03:38Z</time>
      </trkpt>
      <trkpt lat="48.70702" lon="2.45476">
        <ele>74</ele>
        <time>2018-01-31T10:03:54Z</time>
      </trkpt>
      <trkpt lat="48.70704" lon="2.45481">
        <ele>74</ele>
        <time>2018-01-31T10:03:54Z</time>
      </trkpt>
      <trkpt lat="48.70706" lon="2.45483">
        <ele>74</ele>
        <time>2018-01-31T10:03:54Z</time>
      </trkpt>
      <trkpt lat="48.70708" lon="2.45487">
        <ele>74</ele>
        <time>2018-01-31T10:03:54Z</time>
      </trkpt>
      <trkpt lat="48.70709" lon="2.45489">
        <ele>72</ele>
        <time>2018-01-31T10:04:10Z</time>
      </trkpt>
      <trkpt lat="48.70711" lon="2.45493">
        <ele>72</ele>
        <time>2018-01-31T10:04:10Z</time>
      </trkpt>
      <trkpt lat="48.70712" lon="2.45499">
        <ele>72</ele>
        <time>2018-01-31T10:04:10Z</time>
      </trkpt>
      <trkpt lat="48.70712" lon="2.45505">
        <ele>72</ele>
        <time>2018-01-31T10:04:10Z</time>
      </trkpt>
      <trkpt lat="48.70711" lon="2.45512">
        <ele>72</ele>
        <time>2018-01-31T10:04:26Z</time>
      </trkpt>
      <trkpt lat="48.70708" lon="2.45521">
        <ele>74</ele>
        <time>2018-01-31T10:04:26Z</time>
      </trkpt>
      <trkpt lat="48.70705" lon="2.45526">
        <ele>74</ele>
        <time>2018-01-31T10:04:26Z</time>
      </trkpt>
      <trkpt lat="48.70703" lon="2.45531">
        <ele>74</ele>
        <time>2018-01-31T10:04:26Z</time>
      </trkpt>
      <trkpt lat="48.707" lon="2.45535">
        <ele>74</ele>
        <time>2018-01-31T10:04:42Z</time>
      </trkpt>
      <trkpt lat="48.70697" lon="2.4554">
        <ele>74</ele>
        <time>2018-01-31T10:04:42Z</time>
      </trkpt>
      <trkpt lat="48.70694" lon="2.45547">
        <ele>74</ele>
        <time>2018-01-31T10:04:42Z</time>
      </trkpt>
      <trkpt lat="48.70689" lon="2.45555">
        <ele>74</ele>
        <time>2018-01-31T10:04:42Z</time>
      </trkpt>
      <trkpt lat="48.70687" lon="2.45559">
        <ele>74</ele>
        <time>2018-01-31T10:04:58Z</time>
      </trkpt>
      <trkpt lat="48.70683" lon="2.45567">
        <ele>74</ele>
        <time>2018-01-31T10:04:58Z</time>
      </trkpt>
      <trkpt lat="48.70682" lon="2.4557">
        <ele>74</ele>
        <time>2018-01-31T10:04:58Z</time>
      </trkpt>
      <trkpt lat="48.70681" lon="2.45576">
        <ele>74</ele>
        <time>2018-01-31T10:04:58Z</time>
      </trkpt>
      <trkpt lat="48.70679" lon="2.45581">
        <ele>74</ele>
        <time>2018-01-31T10:05:18Z</time>
      </trkpt>
      <trkpt lat="48.70679" lon="2.45583">
        <ele>74</ele>
        <time>2018-01-31T10:05:18Z</time>
      </trkpt>
      <trkpt lat="48.70679" lon="2.45584">
        <ele>74</ele>
        <time>2018-01-31T10:05:18Z</time>
      </trkpt>
      <trkpt lat="48.70678" lon="2.45589">
        <ele>74</ele>
        <time>2018-01-31T10:05:18Z</time>
      </trkpt>
      <trkpt lat="48.70676" lon="2.45595">
        <ele>74</ele>
        <time>2018-01-31T10:05:18Z</time>
      </trkpt>
      <trkpt lat="48.70676" lon="2.45597">
        <ele>74</ele>
        <time>2018-01-31T10:05:34Z</time>
      </trkpt>
      <trkpt lat="48.70674" lon="2.45602">
        <ele>74</ele>
        <time>2018-01-31T10:05:34Z</time>
      </trkpt>
      <trkpt lat="48.70672" lon="2.45607">
        <ele>74</ele>
        <time>2018-01-31T10:05:34Z</time>
      </trkpt>
      <trkpt lat="48.70669" lon="2.4561">
        <ele>74</ele>
        <time>2018-01-31T10:05:34Z</time>
      </trkpt>
      <trkpt lat="48.70664" lon="2.45617">
        <ele>74</ele>
        <time>2018-01-31T10:05:50Z</time>
      </trkpt>
      <trkpt lat="48.70654" lon="2.45625">
        <ele>74</ele>
        <time>2018-01-31T10:05:50Z</time>
      </trkpt>
      <trkpt lat="48.70646" lon="2.45631">
        <ele>74</ele>
        <time>2018-01-31T10:05:50Z</time>
      </trkpt>
      <trkpt lat="48.70639" lon="2.4564">
        <ele>74</ele>
        <time>2018-01-31T10:05:50Z</time>
      </trkpt>
      <trkpt lat="48.70634" lon="2.45649">
        <ele>74</ele>
        <time>2018-01-31T10:06:06Z</time>
      </trkpt>
      <trkpt lat="48.7063" lon="2.45655">
        <ele>74</ele>
        <time>2018-01-31T10:06:06Z</time>
      </trkpt>
      <trkpt lat="48.70628" lon="2.45659">
        <ele>74</ele>
        <time>2018-01-31T10:06:06Z</time>
      </trkpt>
      <trkpt lat="48.70626" lon="2.45665">
        <ele>74</ele>
        <time>2018-01-31T10:06:06Z</time>
      </trkpt>
      <trkpt lat="48.70627" lon="2.45672">
        <ele>74</ele>
        <time>2018-01-31T10:06:38Z</time>
      </trkpt>
      <trkpt lat="48.70626" lon="2.45675">
        <ele>74</ele>
        <time>2018-01-31T10:06:38Z</time>
      </trkpt>
      <trkpt lat="48.70626" lon="2.45676">
        <ele>74</ele>
        <time>2018-01-31T10:06:38Z</time>
      </trkpt>
      <trkpt lat="48.70624" lon="2.45682">
        <ele>77</ele>
        <time>2018-01-31T10:06:38Z</time>
      </trkpt>
      <trkpt lat="48.70623" lon="2.45687">
        <ele>77</ele>
        <time>2018-01-31T10:06:38Z</time>
      </trkpt>
      <trkpt lat="48.7062" lon="2.45693">
        <ele>77</ele>
        <time>2018-01-31T10:06:58Z</time>
      </trkpt>
      <trkpt lat="48.70617" lon="2.45699">
        <ele>77</ele>
        <time>2018-01-31T10:06:58Z</time>
      </trkpt>
      <trkpt lat="48.70617" lon="2.457">
        <ele>77</ele>
        <time>2018-01-31T10:06:58Z</time>
      </trkpt>
      <trkpt lat="48.70615" lon="2.457">
        <ele>77</ele>
        <time>2018-01-31T10:06:58Z</time>
      </trkpt>
      <trkpt lat="48.70608" lon="2.45703">
        <ele>77</ele>
        <time>2018-01-31T10:06:58Z</time>
      </trkpt>
      <trkpt lat="48.70596" lon="2.45706">
        <ele>77</ele>
        <time>2018-01-31T10:07:14Z</time>
      </trkpt>
      <trkpt lat="48.70587" lon="2.45706">
        <ele>77</ele>
        <time>2018-01-31T10:07:14Z</time>
      </trkpt>
      <trkpt lat="48.70582" lon="2.45703">
        <ele>77</ele>
        <time>2018-01-31T10:07:14Z</time>
      </trkpt>
      <trkpt lat="48.7058" lon="2.45707">
        <ele>77</ele>
        <time>2018-01-31T10:07:14Z</time>
      </trkpt>
      <trkpt lat="48.70578" lon="2.45702">
        <ele>77</ele>
        <time>2018-01-31T10:07:30Z</time>
      </trkpt>
      <trkpt lat="48.70573" lon="2.45695">
        <ele>77</ele>
        <time>2018-01-31T10:07:30Z</time>
      </trkpt>
      <trkpt lat="48.70568" lon="2.4569">
        <ele>77</ele>
        <time>2018-01-31T10:07:30Z</time>
      </trkpt>
      <trkpt lat="48.70565" lon="2.45686">
        <ele>77</ele>
        <time>2018-01-31T10:07:30Z</time>
      </trkpt>
      <trkpt lat="48.7056" lon="2.45678">
        <ele>77</ele>
        <time>2018-01-31T10:07:46Z</time>
      </trkpt>
      <trkpt lat="48.70556" lon="2.45673">
        <ele>77</ele>
        <time>2018-01-31T10:07:46Z</time>
      </trkpt>
      <trkpt lat="48.70551" lon="2.45666">
        <ele>77</ele>
        <time>2018-01-31T10:07:46Z</time>
      </trkpt>
      <trkpt lat="48.70545" lon="2.45657">
        <ele>77</ele>
        <time>2018-01-31T10:07:46Z</time>
      </trkpt>
      <trkpt lat="48.70538" lon="2.45652">
        <ele>77</ele>
        <time>2018-01-31T10:08:02Z</time>
      </trkpt>
      <trkpt lat="48.70534" lon="2.45649">
        <ele>77</ele>
        <time>2018-01-31T10:08:02Z</time>
      </trkpt>
      <trkpt lat="48.70532" lon="2.45648">
        <ele>77</ele>
        <time>2018-01-31T10:08:02Z</time>
      </trkpt>
      <trkpt lat="48.70529" lon="2.45647">
        <ele>77</ele>
        <time>2018-01-31T10:08:02Z</time>
      </trkpt>
      <trkpt lat="48.70526" lon="2.45645">
        <ele>77</ele>
        <time>2018-01-31T10:08:18Z</time>
      </trkpt>
      <trkpt lat="48.7052" lon="2.4564">
        <ele>77</ele>
        <time>2018-01-31T10:08:18Z</time>
      </trkpt>
      <trkpt lat="48.70516" lon="2.45637">
        <ele>77</ele>
        <time>2018-01-31T10:08:18Z</time>
      </trkpt>
      <trkpt lat="48.70512" lon="2.45634">
        <ele>77</ele>
        <time>2018-01-31T10:08:18Z</time>
      </trkpt>
      <trkpt lat="48.70508" lon="2.4563">
        <ele>77</ele>
        <time>2018-01-31T10:08:34Z</time>
      </trkpt>
      <trkpt lat="48.70505" lon="2.45628">
        <ele>77</ele>
        <time>2018-01-31T10:08:34Z</time>
      </trkpt>
      <trkpt lat="48.70501" lon="2.45621">
        <ele>77</ele>
        <time>2018-01-31T10:08:34Z</time>
      </trkpt>
      <trkpt lat="48.70494" lon="2.45615">
        <ele>77</ele>
        <time>2018-01-31T10:08:34Z</time>
      </trkpt>
      <trkpt lat="48.70489" lon="2.45609">
        <ele>77</ele>
        <time>2018-01-31T10:08:50Z</time>
      </trkpt>
      <trkpt lat="48.70484" lon="2.45604">
        <ele>77</ele>
        <time>2018-01-31T10:08:50Z</time>
      </trkpt>
      <trkpt lat="48.70484" lon="2.45601">
        <ele>77</ele>
        <time>2018-01-31T10:08:50Z</time>
      </trkpt>
      <trkpt lat="48.70479" lon="2.45597">
        <ele>77</ele>
        <time>2018-01-31T10:08:50Z</time>
      </trkpt>
      <trkpt lat="48.70477" lon="2.45594">
        <ele>77</ele>
        <time>2018-01-31T10:09:06Z</time>
      </trkpt>
      <trkpt lat="48.70473" lon="2.45589">
        <ele>77</ele>
        <time>2018-01-31T10:09:06Z</time>
      </trkpt>
      <trkpt lat="48.70469" lon="2.45586">
        <ele>77</ele>
        <time>2018-01-31T10:09:06Z</time>
      </trkpt>
      <trkpt lat="48.70469" lon="2.45586">
        <ele>77</ele>
        <time>2018-01-31T10:09:06Z</time>
      </trkpt>
      <trkpt lat="48.70466" lon="2.45583">
        <ele>77</ele>
        <time>2018-01-31T10:09:22Z</time>
      </trkpt>
      <trkpt lat="48.70465" lon="2.45583">
        <ele>77</ele>
        <time>2018-01-31T10:09:22Z</time>
      </trkpt>
      <trkpt lat="48.70462" lon="2.45581">
        <ele>77</ele>
        <time>2018-01-31T10:09:22Z</time>
      </trkpt>
      <trkpt lat="48.70458" lon="2.45572">
        <ele>78</ele>
        <time>2018-01-31T10:09:22Z</time>
      </trkpt>
      <trkpt lat="48.70454" lon="2.45563">
        <ele>78</ele>
        <time>2018-01-31T10:09:38Z</time>
      </trkpt>
      <trkpt lat="48.70452" lon="2.45559">
        <ele>78</ele>
        <time>2018-01-31T10:09:38Z</time>
      </trkpt>
      <trkpt lat="48.70447" lon="2.45554">
        <ele>78</ele>
        <time>2018-01-31T10:09:38Z</time>
      </trkpt>
      <trkpt lat="48.70445" lon="2.45551">
        <ele>78</ele>
        <time>2018-01-31T10:09:38Z</time>
      </trkpt>
      <trkpt lat="48.7044" lon="2.45545">
        <ele>78</ele>
        <time>2018-01-31T10:09:54Z</time>
      </trkpt>
      <trkpt lat="48.70436" lon="2.45541">
        <ele>80</ele>
        <time>2018-01-31T10:09:54Z</time>
      </trkpt>
      <trkpt lat="48.70434" lon="2.45538">
        <ele>80</ele>
        <time>2018-01-31T10:09:54Z</time>
      </trkpt>
      <trkpt lat="48.70432" lon="2.45534">
        <ele>80</ele>
        <time>2018-01-31T10:09:54Z</time>
      </trkpt>
      <trkpt lat="48.70428" lon="2.45529">
        <ele>80</ele>
        <time>2018-01-31T10:10:10Z</time>
      </trkpt>
      <trkpt lat="48.70423" lon="2.45524">
        <ele>80</ele>
        <time>2018-01-31T10:10:10Z</time>
      </trkpt>
      <trkpt lat="48.70417" lon="2.45517">
        <ele>80</ele>
        <time>2018-01-31T10:10:10Z</time>
      </trkpt>
      <trkpt lat="48.70411" lon="2.45511">
        <ele>80</ele>
        <time>2018-01-31T10:10:10Z</time>
      </trkpt>
      <trkpt lat="48.70404" lon="2.45503">
        <ele>80</ele>
        <time>2018-01-31T10:11:14Z</time>
      </trkpt>
      <trkpt lat="48.70404" lon="2.45503">
        <ele>80</ele>
        <time>2018-01-31T10:11:14Z</time>
      </trkpt>
      <trkpt lat="48.70404" lon="2.45502">
        <ele>80</ele>
        <time>2018-01-31T10:11:14Z</time>
      </trkpt>
      <trkpt lat="48.70398" lon="2.45498">
        <ele>80</ele>
        <time>2018-01-31T10:11:14Z</time>
      </trkpt>
      <trkpt lat="48.70394" lon="2.45496">
        <ele>80</ele>
        <time>2018-01-31T10:11:14Z</time>
      </trkpt>
      <trkpt lat="48.70388" lon="2.45497">
        <ele>80</ele>
        <time>2018-01-31T10:11:30Z</time>
      </trkpt>
      <trkpt lat="48.70385" lon="2.45499">
        <ele>80</ele>
        <time>2018-01-31T10:11:30Z</time>
      </trkpt>
      <trkpt lat="48.70381" lon="2.45505">
        <ele>80</ele>
        <time>2018-01-31T10:11:30Z</time>
      </trkpt>
      <trkpt lat="48.70376" lon="2.45509">
        <ele>80</ele>
        <time>2018-01-31T10:11:30Z</time>
      </trkpt>
      <trkpt lat="48.70373" lon="2.45511">
        <ele>82</ele>
        <time>2018-01-31T10:11:46Z</time>
      </trkpt>
      <trkpt lat="48.70368" lon="2.45516">
        <ele>82</ele>
        <time>2018-01-31T10:11:46Z</time>
      </trkpt>
      <trkpt lat="48.70362" lon="2.4552">
        <ele>82</ele>
        <time>2018-01-31T10:11:46Z</time>
      </trkpt>
      <trkpt lat="48.70357" lon="2.45523">
        <ele>82</ele>
        <time>2018-01-31T10:11:46Z</time>
      </trkpt>
      <trkpt lat="48.70353" lon="2.45526">
        <ele>82</ele>
        <time>2018-01-31T10:12:02Z</time>
      </trkpt>
      <trkpt lat="48.70347" lon="2.45529">
        <ele>82</ele>
        <time>2018-01-31T10:12:02Z</time>
      </trkpt>
      <trkpt lat="48.70344" lon="2.45531">
        <ele>82</ele>
        <time>2018-01-31T10:12:02Z</time>
      </trkpt>
      <trkpt lat="48.70338" lon="2.45538">
        <ele>82</ele>
        <time>2018-01-31T10:12:02Z</time>
      </trkpt>
      <trkpt lat="48.70333" lon="2.45543">
        <ele>81</ele>
        <time>2018-01-31T10:12:18Z</time>
      </trkpt>
      <trkpt lat="48.70327" lon="2.45548">
        <ele>81</ele>
        <time>2018-01-31T10:12:18Z</time>
      </trkpt>
      <trkpt lat="48.70323" lon="2.45552">
        <ele>81</ele>
        <time>2018-01-31T10:12:18Z</time>
      </trkpt>
      <trkpt lat="48.70318" lon="2.45556">
        <ele>81</ele>
        <time>2018-01-31T10:12:18Z</time>
      </trkpt>
      <trkpt lat="48.70315" lon="2.45559">
        <ele>81</ele>
        <time>2018-01-31T10:12:34Z</time>
      </trkpt>
      <trkpt lat="48.70314" lon="2.45561">
        <ele>81</ele>
        <time>2018-01-31T10:12:34Z</time>
      </trkpt>
      <trkpt lat="48.7031" lon="2.45566">
        <ele>81</ele>
        <time>2018-01-31T10:12:34Z</time>
      </trkpt>
      <trkpt lat="48.70305" lon="2.45572">
        <ele>81</ele>
        <time>2018-01-31T10:12:34Z</time>
      </trkpt>
      <trkpt lat="48.70299" lon="2.4558">
        <ele>81</ele>
        <time>2018-01-31T10:12:50Z</time>
      </trkpt>
      <trkpt lat="48.70293" lon="2.45587">
        <ele>81</ele>
        <time>2018-01-31T10:12:50Z</time>
      </trkpt>
      <trkpt lat="48.70288" lon="2.45593">
        <ele>83</ele>
        <time>2018-01-31T10:12:50Z</time>
      </trkpt>
      <trkpt lat="48.70285" lon="2.45597">
        <ele>83</ele>
        <time>2018-01-31T10:12:50Z</time>
      </trkpt>
      <trkpt lat="48.70283" lon="2.45598">
        <ele>83</ele>
        <time>2018-01-31T10:13:06Z</time>
      </trkpt>
      <trkpt lat="48.70278" lon="2.45602">
        <ele>83</ele>
        <time>2018-01-31T10:13:06Z</time>
      </trkpt>
      <trkpt lat="48.70274" lon="2.45606">
        <ele>83</ele>
        <time>2018-01-31T10:13:06Z</time>
      </trkpt>
      <trkpt lat="48.7027" lon="2.45611">
        <ele>83</ele>
        <time>2018-01-31T10:13:06Z</time>
      </trkpt>
      <trkpt lat="48.70268" lon="2.45614">
        <ele>83</ele>
        <time>2018-01-31T10:13:22Z</time>
      </trkpt>
      <trkpt lat="48.70264" lon="2.4562">
        <ele>83</ele>
        <time>2018-01-31T10:13:22Z</time>
      </trkpt>
      <trkpt lat="48.7026" lon="2.45624">
        <ele>83</ele>
        <time>2018-01-31T10:13:22Z</time>
      </trkpt>
      <trkpt lat="48.70256" lon="2.45628">
        <ele>82</ele>
        <time>2018-01-31T10:13:22Z</time>
      </trkpt>
      <trkpt lat="48.70251" lon="2.45635">
        <ele>82</ele>
        <time>2018-01-31T10:13:38Z</time>
      </trkpt>
      <trkpt lat="48.70248" lon="2.45638">
        <ele>82</ele>
        <time>2018-01-31T10:13:38Z</time>
      </trkpt>
      <trkpt lat="48.70242" lon="2.45642">
        <ele>82</ele>
        <time>2018-01-31T10:13:38Z</time>
      </trkpt>
      <trkpt lat="48.70235" lon="2.45649">
        <ele>82</ele>
        <time>2018-01-31T10:13:38Z</time>
      </trkpt>
      <trkpt lat="48.70232" lon="2.45653">
        <ele>82</ele>
        <time>2018-01-31T10:13:54Z</time>
      </trkpt>
      <trkpt lat="48.70228" lon="2.45655">
        <ele>82</ele>
        <time>2018-01-31T10:13:54Z</time>
      </trkpt>
      <trkpt lat="48.70223" lon="2.45659">
        <ele>82</ele>
        <time>2018-01-31T10:13:54Z</time>
      </trkpt>
      <trkpt lat="48.70218" lon="2.45662">
        <ele>82</ele>
        <time>2018-01-31T10:13:54Z</time>
      </trkpt>
      <trkpt lat="48.70216" lon="2.45663">
        <ele>82</ele>
        <time>2018-01-31T10:14:10Z</time>
      </trkpt>
      <trkpt lat="48.70213" lon="2.45667">
        <ele>82</ele>
        <time>2018-01-31T10:14:10Z</time>
      </trkpt>
      <trkpt lat="48.70209" lon="2.45671">
        <ele>82</ele>
        <time>2018-01-31T10:14:10Z</time>
      </trkpt>
      <trkpt lat="48.70206" lon="2.45673">
        <ele>82</ele>
        <time>2018-01-31T10:14:10Z</time>
      </trkpt>
      <trkpt lat="48.70203" lon="2.45675">
        <ele>82</ele>
        <time>2018-01-31T10:14:26Z</time>
      </trkpt>
      <trkpt lat="48.70199" lon="2.45679">
        <ele>82</ele>
        <time>2018-01-31T10:14:26Z</time>
      </trkpt>
      <trkpt lat="48.70194" lon="2.45684">
        <ele>82</ele>
        <time>2018-01-31T10:14:26Z</time>
      </trkpt>
      <trkpt lat="48.7019" lon="2.45688">
        <ele>82</ele>
        <time>2018-01-31T10:14:26Z</time>
      </trkpt>
      <trkpt lat="48.70182" lon="2.45695">
        <ele>82</ele>
        <time>2018-01-31T10:14:42Z</time>
      </trkpt>
      <trkpt lat="48.70179" lon="2.45701">
        <ele>82</ele>
        <time>2018-01-31T10:14:42Z</time>
      </trkpt>
      <trkpt lat="48.70176" lon="2.45708">
        <ele>82</ele>
        <time>2018-01-31T10:14:42Z</time>
      </trkpt>
      <trkpt lat="48.70172" lon="2.45713">
        <ele>82</ele>
        <time>2018-01-31T10:14:42Z</time>
      </trkpt>
      <trkpt lat="48.70168" lon="2.4572">
        <ele>82</ele>
        <time>2018-01-31T10:14:58Z</time>
      </trkpt>
      <trkpt lat="48.70163" lon="2.45723">
        <ele>82</ele>
        <time>2018-01-31T10:14:58Z</time>
      </trkpt>
      <trkpt lat="48.70159" lon="2.45726">
        <ele>82</ele>
        <time>2018-01-31T10:14:58Z</time>
      </trkpt>
      <trkpt lat="48.70156" lon="2.45727">
        <ele>82</ele>
        <time>2018-01-31T10:14:58Z</time>
      </trkpt>
      <trkpt lat="48.70152" lon="2.45732">
        <ele>82</ele>
        <time>2018-01-31T10:15:14Z</time>
      </trkpt>
      <trkpt lat="48.70148" lon="2.45738">
        <ele>82</ele>
        <time>2018-01-31T10:15:14Z</time>
      </trkpt>
      <trkpt lat="48.70145" lon="2.45742">
        <ele>82</ele>
        <time>2018-01-31T10:15:14Z</time>
      </trkpt>
      <trkpt lat="48.70142" lon="2.45747">
        <ele>82</ele>
        <time>2018-01-31T10:15:14Z</time>
      </trkpt>
      <trkpt lat="48.70136" lon="2.45744">
        <ele>82</ele>
        <time>2018-01-31T10:15:30Z</time>
      </trkpt>
      <trkpt lat="48.70134" lon="2.4575">
        <ele>82</ele>
        <time>2018-01-31T10:15:30Z</time>
      </trkpt>
      <trkpt lat="48.7013" lon="2.45752">
        <ele>82</ele>
        <time>2018-01-31T10:15:30Z</time>
      </trkpt>
      <trkpt lat="48.70125" lon="2.45756">
        <ele>82</ele>
        <time>2018-01-31T10:15:30Z</time>
      </trkpt>
      <trkpt lat="48.70121" lon="2.45757">
        <ele>83</ele>
        <time>2018-01-31T10:15:46Z</time>
      </trkpt>
      <trkpt lat="48.70113" lon="2.45762">
        <ele>83</ele>
        <time>2018-01-31T10:15:46Z</time>
      </trkpt>
      <trkpt lat="48.70106" lon="2.45765">
        <ele>83</ele>
        <time>2018-01-31T10:15:46Z</time>
      </trkpt>
      <trkpt lat="48.70102" lon="2.4577">
        <ele>83</ele>
        <time>2018-01-31T10:15:46Z</time>
      </trkpt>
      <trkpt lat="48.70097" lon="2.45776">
        <ele>83</ele>
        <time>2018-01-31T10:16:02Z</time>
      </trkpt>
      <trkpt lat="48.70093" lon="2.4578">
        <ele>83</ele>
        <time>2018-01-31T10:16:02Z</time>
      </trkpt>
      <trkpt lat="48.70089" lon="2.45786">
        <ele>83</ele>
        <time>2018-01-31T10:16:02Z</time>
      </trkpt>
      <trkpt lat="48.70088" lon="2.45788">
        <ele>83</ele>
        <time>2018-01-31T10:16:02Z</time>
      </trkpt>
      <trkpt lat="48.70089" lon="2.45796">
        <ele>84</ele>
        <time>2018-01-31T10:17:10Z</time>
      </trkpt>
      <trkpt lat="48.7009" lon="2.45796">
        <ele>84</ele>
        <time>2018-01-31T10:17:10Z</time>
      </trkpt>
      <trkpt lat="48.7009" lon="2.45797">
        <ele>84</ele>
        <time>2018-01-31T10:17:10Z</time>
      </trkpt>
      <trkpt lat="48.70087" lon="2.458">
        <ele>84</ele>
        <time>2018-01-31T10:17:10Z</time>
      </trkpt>
      <trkpt lat="48.70085" lon="2.45803">
        <ele>84</ele>
        <time>2018-01-31T10:17:10Z</time>
      </trkpt>
      <trkpt lat="48.70084" lon="2.45806">
        <ele>84</ele>
        <time>2018-01-31T10:17:26Z</time>
      </trkpt>
      <trkpt lat="48.70079" lon="2.45809">
        <ele>84</ele>
        <time>2018-01-31T10:17:26Z</time>
      </trkpt>
      <trkpt lat="48.70071" lon="2.45816">
        <ele>84</ele>
        <time>2018-01-31T10:17:26Z</time>
      </trkpt>
      <trkpt lat="48.70066" lon="2.45823">
        <ele>84</ele>
        <time>2018-01-31T10:17:26Z</time>
      </trkpt>
      <trkpt lat="48.70062" lon="2.45829">
        <ele>84</ele>
        <time>2018-01-31T10:17:42Z</time>
      </trkpt>
      <trkpt lat="48.70061" lon="2.45829">
        <ele>84</ele>
        <time>2018-01-31T10:17:42Z</time>
      </trkpt>
      <trkpt lat="48.70054" lon="2.45831">
        <ele>84</ele>
        <time>2018-01-31T10:17:42Z</time>
      </trkpt>
      <trkpt lat="48.70048" lon="2.45836">
        <ele>84</ele>
        <time>2018-01-31T10:17:42Z</time>
      </trkpt>
      <trkpt lat="48.70043" lon="2.45839">
        <ele>84</ele>
        <time>2018-01-31T10:17:58Z</time>
      </trkpt>
      <trkpt lat="48.70039" lon="2.45845">
        <ele>83</ele>
        <time>2018-01-31T10:17:58Z</time>
      </trkpt>
      <trkpt lat="48.70036" lon="2.45849">
        <ele>83</ele>
        <time>2018-01-31T10:17:58Z</time>
      </trkpt>
      <trkpt lat="48.7003" lon="2.45856">
        <ele>83</ele>
        <time>2018-01-31T10:17:58Z</time>
      </trkpt>
      <trkpt lat="48.70024" lon="2.45858">
        <ele>83</ele>
        <time>2018-01-31T10:18:14Z</time>
      </trkpt>
      <trkpt lat="48.70022" lon="2.4586">
        <ele>83</ele>
        <time>2018-01-31T10:18:14Z</time>
      </trkpt>
      <trkpt lat="48.70019" lon="2.45864">
        <ele>83</ele>
        <time>2018-01-31T10:18:14Z</time>
      </trkpt>
      <trkpt lat="48.70015" lon="2.45869">
        <ele>83</ele>
        <time>2018-01-31T10:18:14Z</time>
      </trkpt>
      <trkpt lat="48.7001" lon="2.45874">
        <ele>83</ele>
        <time>2018-01-31T10:18:30Z</time>
      </trkpt>
      <trkpt lat="48.70006" lon="2.45881">
        <ele>84</ele>
        <time>2018-01-31T10:18:30Z</time>
      </trkpt>
      <trkpt lat="48.70002" lon="2.45885">
        <ele>84</ele>
        <time>2018-01-31T10:18:30Z</time>
      </trkpt>
      <trkpt lat="48.69998" lon="2.45889">
        <ele>84</ele>
        <time>2018-01-31T10:18:30Z</time>
      </trkpt>
      <trkpt lat="48.69993" lon="2.45892">
        <ele>84</ele>
        <time>2018-01-31T10:18:46Z</time>
      </trkpt>
      <trkpt lat="48.69988" lon="2.45896">
        <ele>84</ele>
        <time>2018-01-31T10:18:46Z</time>
      </trkpt>
      <trkpt lat="48.69984" lon="2.45903">
        <ele>84</ele>
        <time>2018-01-31T10:18:46Z</time>
      </trkpt>
      <trkpt lat="48.69983" lon="2.45909">
        <ele>84</ele>
        <time>2018-01-31T10:18:46Z</time>
      </trkpt>
      <trkpt lat="48.69981" lon="2.45916">
        <ele>84</ele>
        <time>2018-01-31T10:19:02Z</time>
      </trkpt>
      <trkpt lat="48.6998" lon="2.45922">
        <ele>84</ele>
        <time>2018-01-31T10:19:02Z</time>
      </trkpt>
      <trkpt lat="48.69977" lon="2.45928">
        <ele>84</ele>
        <time>2018-01-31T10:19:02Z</time>
      </trkpt>
      <trkpt lat="48.69972" lon="2.45932">
        <ele>84</ele>
        <time>2018-01-31T10:19:02Z</time>
      </trkpt>
      <trkpt lat="48.69969" lon="2.45938">
        <ele>84</ele>
        <time>2018-01-31T10:19:18Z</time>
      </trkpt>
      <trkpt lat="48.69967" lon="2.45942">
        <ele>84</ele>
        <time>2018-01-31T10:19:18Z</time>
      </trkpt>
      <trkpt lat="48.69963" lon="2.45945">
        <ele>84</ele>
        <time>2018-01-31T10:19:18Z</time>
      </trkpt>
      <trkpt lat="48.69957" lon="2.45952">
        <ele>84</ele>
        <time>2018-01-31T10:19:18Z</time>
      </trkpt>
      <trkpt lat="48.6995" lon="2.45956">
        <ele>84</ele>
        <time>2018-01-31T10:19:34Z</time>
      </trkpt>
      <trkpt lat="48.69942" lon="2.45953">
        <ele>84</ele>
        <time>2018-01-31T10:19:34Z</time>
      </trkpt>
      <trkpt lat="48.69938" lon="2.45952">
        <ele>84</ele>
        <time>2018-01-31T10:19:34Z</time>
      </trkpt>
      <trkpt lat="48.69937" lon="2.45954">
        <ele>84</ele>
        <time>2018-01-31T10:19:34Z</time>
      </trkpt>
      <trkpt lat="48.69932" lon="2.45957">
        <ele>84</ele>
        <time>2018-01-31T10:19:50Z</time>
      </trkpt>
      <trkpt lat="48.69927" lon="2.45961">
        <ele>84</ele>
        <time>2018-01-31T10:19:50Z</time>
      </trkpt>
      <trkpt lat="48.69921" lon="2.45965">
        <ele>84</ele>
        <time>2018-01-31T10:19:50Z</time>
      </trkpt>
      <trkpt lat="48.69914" lon="2.45973">
        <ele>84</ele>
        <time>2018-01-31T10:19:50Z</time>
      </trkpt>
      <trkpt lat="48.69909" lon="2.45981">
        <ele>84</ele>
        <time>2018-01-31T10:20:06Z</time>
      </trkpt>
      <trkpt lat="48.69905" lon="2.45986">
        <ele>84</ele>
        <time>2018-01-31T10:20:06Z</time>
      </trkpt>
      <trkpt lat="48.69901" lon="2.45989">
        <ele>84</ele>
        <time>2018-01-31T10:20:06Z</time>
      </trkpt>
      <trkpt lat="48.69898" lon="2.45994">
        <ele>84</ele>
        <time>2018-01-31T10:20:06Z</time>
      </trkpt>
      <trkpt lat="48.69896" lon="2.45997">
        <ele>84</ele>
        <time>2018-01-31T10:20:22Z</time>
      </trkpt>
      <trkpt lat="48.69891" lon="2.46001">
        <ele>84</ele>
        <time>2018-01-31T10:20:22Z</time>
      </trkpt>
      <trkpt lat="48.69887" lon="2.46005">
        <ele>84</ele>
        <time>2018-01-31T10:20:22Z</time>
      </trkpt>
      <trkpt lat="48.69883" lon="2.46009">
        <ele>84</ele>
        <time>2018-01-31T10:20:22Z</time>
      </trkpt>
      <trkpt lat="48.69878" lon="2.46013">
        <ele>84</ele>
        <time>2018-01-31T10:20:38Z</time>
      </trkpt>
      <trkpt lat="48.69872" lon="2.46022">
        <ele>83</ele>
        <time>2018-01-31T10:20:38Z</time>
      </trkpt>
      <trkpt lat="48.69869" lon="2.46027">
        <ele>83</ele>
        <time>2018-01-31T10:20:38Z</time>
      </trkpt>
      <trkpt lat="48.69864" lon="2.46031">
        <ele>83</ele>
        <time>2018-01-31T10:20:38Z</time>
      </trkpt>
      <trkpt lat="48.6986" lon="2.46036">
        <ele>83</ele>
        <time>2018-01-31T10:20:54Z</time>
      </trkpt>
      <trkpt lat="48.69859" lon="2.46038">
        <ele>83</ele>
        <time>2018-01-31T10:20:54Z</time>
      </trkpt>
      <trkpt lat="48.69853" lon="2.46043">
        <ele>84</ele>
        <time>2018-01-31T10:20:54Z</time>
      </trkpt>
      <trkpt lat="48.69847" lon="2.46046">
        <ele>84</ele>
        <time>2018-01-31T10:20:54Z</time>
      </trkpt>
      <trkpt lat="48.69843" lon="2.46051">
        <ele>84</ele>
        <time>2018-01-31T10:21:10Z</time>
      </trkpt>
      <trkpt lat="48.69839" lon="2.46053">
        <ele>84</ele>
        <time>2018-01-31T10:21:10Z</time>
      </trkpt>
      <trkpt lat="48.69838" lon="2.46054">
        <ele>84</ele>
        <time>2018-01-31T10:21:10Z</time>
      </trkpt>
      <trkpt lat="48.69831" lon="2.46059">
        <ele>84</ele>
        <time>2018-01-31T10:21:10Z</time>
      </trkpt>
      <trkpt lat="48.69825" lon="2.46063">
        <ele>84</ele>
        <time>2018-01-31T10:21:26Z</time>
      </trkpt>
      <trkpt lat="48.69819" lon="2.46067">
        <ele>84</ele>
        <time>2018-01-31T10:21:26Z</time>
      </trkpt>
      <trkpt lat="48.69818" lon="2.46072">
        <ele>84</ele>
        <time>2018-01-31T10:21:26Z</time>
      </trkpt>
      <trkpt lat="48.69814" lon="2.46078">
        <ele>84</ele>
        <time>2018-01-31T10:21:26Z</time>
      </trkpt>
      <trkpt lat="48.6981" lon="2.46082">
        <ele>84</ele>
        <time>2018-01-31T10:21:42Z</time>
      </trkpt>
      <trkpt lat="48.69806" lon="2.46082">
        <ele>84</ele>
        <time>2018-01-31T10:21:42Z</time>
      </trkpt>
      <trkpt lat="48.69801" lon="2.46086">
        <ele>84</ele>
        <time>2018-01-31T10:21:42Z</time>
      </trkpt>
      <trkpt lat="48.69797" lon="2.46083">
        <ele>84</ele>
        <time>2018-01-31T10:21:42Z</time>
      </trkpt>
      <trkpt lat="48.69793" lon="2.46077">
        <ele>84</ele>
        <time>2018-01-31T10:21:58Z</time>
      </trkpt>
      <trkpt lat="48.6979" lon="2.46074">
        <ele>86</ele>
        <time>2018-01-31T10:21:58Z</time>
      </trkpt>
      <trkpt lat="48.69785" lon="2.4607">
        <ele>86</ele>
        <time>2018-01-31T10:21:58Z</time>
      </trkpt>
      <trkpt lat="48.69781" lon="2.46071">
        <ele>86</ele>
        <time>2018-01-31T10:21:58Z</time>
      </trkpt>
      <trkpt lat="48.69779" lon="2.46072">
        <ele>86</ele>
        <time>2018-01-31T10:22:14Z</time>
      </trkpt>
      <trkpt lat="48.69776" lon="2.46069">
        <ele>86</ele>
        <time>2018-01-31T10:22:14Z</time>
      </trkpt>
      <trkpt lat="48.69773" lon="2.4607">
        <ele>86</ele>
        <time>2018-01-31T10:22:14Z</time>
      </trkpt>
      <trkpt lat="48.69769" lon="2.46072">
        <ele>86</ele>
        <time>2018-01-31T10:22:14Z</time>
      </trkpt>
      <trkpt lat="48.69765" lon="2.46075">
        <ele>86</ele>
        <time>2018-01-31T10:22:30Z</time>
      </trkpt>
      <trkpt lat="48.69764" lon="2.46079">
        <ele>86</ele>
        <time>2018-01-31T10:22:30Z</time>
      </trkpt>
      <trkpt lat="48.6976" lon="2.46086">
        <ele>86</ele>
        <time>2018-01-31T10:22:30Z</time>
      </trkpt>
      <trkpt lat="48.69757" lon="2.46092">
        <ele>86</ele>
        <time>2018-01-31T10:22:30Z</time>
      </trkpt>
      <trkpt lat="48.69757" lon="2.4609">
        <ele>86</ele>
        <time>2018-01-31T10:22:46Z</time>
      </trkpt>
      <trkpt lat="48.69748" lon="2.46099">
        <ele>86</ele>
        <time>2018-01-31T10:22:46Z</time>
      </trkpt>
      <trkpt lat="48.69746" lon="2.461">
        <ele>86</ele>
        <time>2018-01-31T10:22:46Z</time>
      </trkpt>
      <trkpt lat="48.69743" lon="2.46105">
        <ele>86</ele>
        <time>2018-01-31T10:22:46Z</time>
      </trkpt>
      <trkpt lat="48.69738" lon="2.46107">
        <ele>86</ele>
        <time>2018-01-31T10:23:02Z</time>
      </trkpt>
      <trkpt lat="48.69734" lon="2.4611">
        <ele>86</ele>
        <time>2018-01-31T10:23:02Z</time>
      </trkpt>
      <trkpt lat="48.69729" lon="2.46114">
        <ele>86</ele>
        <time>2018-01-31T10:23:02Z</time>
      </trkpt>
      <trkpt lat="48.69726" lon="2.46117">
        <ele>86</ele>
        <time>2018-01-31T10:23:02Z</time>
      </trkpt>
      <trkpt lat="48.6972" lon="2.46118">
        <ele>86</ele>
        <time>2018-01-31T10:29:34Z</time>
      </trkpt>
      <trkpt lat="48.69716" lon="2.46123">
        <ele>86</ele>
        <time>2018-01-31T10:29:34Z</time>
      </trkpt>
      <trkpt lat="48.69712" lon="2.46127">
        <ele>84</ele>
        <time>2018-01-31T10:29:34Z</time>
      </trkpt>
      <trkpt lat="48.69707" lon="2.46131">
        <ele>86</ele>
        <time>2018-01-31T10:29:34Z</time>
      </trkpt>
      <trkpt lat="48.69702" lon="2.46135">
        <ele>86</ele>
        <time>2018-01-31T10:29:34Z</time>
      </trkpt>
      <trkpt lat="48.69697" lon="2.46138">
        <ele>86</ele>
        <time>2018-01-31T10:29:50Z</time>
      </trkpt>
      <trkpt lat="48.69694" lon="2.46144">
        <ele>86</ele>
        <time>2018-01-31T10:29:50Z</time>
      </trkpt>
      <trkpt lat="48.69692" lon="2.46151">
        <ele>86</ele>
        <time>2018-01-31T10:29:50Z</time>
      </trkpt>
      <trkpt lat="48.69687" lon="2.46157">
        <ele>86</ele>
        <time>2018-01-31T10:29:50Z</time>
      </trkpt>
      <trkpt lat="48.69682" lon="2.46163">
        <ele>86</ele>
        <time>2018-01-31T10:30:06Z</time>
      </trkpt>
      <trkpt lat="48.69677" lon="2.46167">
        <ele>86</ele>
        <time>2018-01-31T10:30:06Z</time>
      </trkpt>
      <trkpt lat="48.69675" lon="2.46171">
        <ele>86</ele>
        <time>2018-01-31T10:30:06Z</time>
      </trkpt>
      <trkpt lat="48.6967" lon="2.46176">
        <ele>86</ele>
        <time>2018-01-31T10:30:06Z</time>
      </trkpt>
      <trkpt lat="48.69665" lon="2.46182">
        <ele>86</ele>
        <time>2018-01-31T10:30:22Z</time>
      </trkpt>
      <trkpt lat="48.69663" lon="2.46183">
        <ele>86</ele>
        <time>2018-01-31T10:30:22Z</time>
      </trkpt>
      <trkpt lat="48.6966" lon="2.46188">
        <ele>86</ele>
        <time>2018-01-31T10:30:22Z</time>
      </trkpt>
      <trkpt lat="48.69657" lon="2.46193">
        <ele>86</ele>
        <time>2018-01-31T10:30:22Z</time>
      </trkpt>
      <trkpt lat="48.69652" lon="2.46196">
        <ele>86</ele>
        <time>2018-01-31T10:30:38Z</time>
      </trkpt>
      <trkpt lat="48.69649" lon="2.46193">
        <ele>86</ele>
        <time>2018-01-31T10:30:38Z</time>
      </trkpt>
      <trkpt lat="48.69645" lon="2.46193">
        <ele>86</ele>
        <time>2018-01-31T10:30:38Z</time>
      </trkpt>
      <trkpt lat="48.69643" lon="2.46189">
        <ele>86</ele>
        <time>2018-01-31T10:30:38Z</time>
      </trkpt>
      <trkpt lat="48.69638" lon="2.46179">
        <ele>86</ele>
        <time>2018-01-31T10:30:54Z</time>
      </trkpt>
      <trkpt lat="48.69638" lon="2.46176">
        <ele>86</ele>
        <time>2018-01-31T10:30:54Z</time>
      </trkpt>
      <trkpt lat="48.69632" lon="2.46171">
        <ele>86</ele>
        <time>2018-01-31T10:30:54Z</time>
      </trkpt>
      <trkpt lat="48.69628" lon="2.46169">
        <ele>86</ele>
        <time>2018-01-31T10:30:54Z</time>
      </trkpt>
      <trkpt lat="48.69624" lon="2.46167">
        <ele>87</ele>
        <time>2018-01-31T10:31:14Z</time>
      </trkpt>
      <trkpt lat="48.69619" lon="2.46166">
        <ele>87</ele>
        <time>2018-01-31T10:31:14Z</time>
      </trkpt>
      <trkpt lat="48.69618" lon="2.46167">
        <ele>87</ele>
        <time>2018-01-31T10:31:14Z</time>
      </trkpt>
      <trkpt lat="48.69616" lon="2.46162">
        <ele>87</ele>
        <time>2018-01-31T10:31:14Z</time>
      </trkpt>
      <trkpt lat="48.69613" lon="2.46155">
        <ele>87</ele>
        <time>2018-01-31T10:31:14Z</time>
      </trkpt>
      <trkpt lat="48.69613" lon="2.46152">
        <ele>87</ele>
        <time>2018-01-31T10:31:30Z</time>
      </trkpt>
      <trkpt lat="48.6961" lon="2.46146">
        <ele>87</ele>
        <time>2018-01-31T10:31:30Z</time>
      </trkpt>
      <trkpt lat="48.69606" lon="2.46143">
        <ele>87</ele>
        <time>2018-01-31T10:31:30Z</time>
      </trkpt>
      <trkpt lat="48.69603" lon="2.46136">
        <ele>87</ele>
        <time>2018-01-31T10:31:30Z</time>
      </trkpt>
      <trkpt lat="48.69599" lon="2.46128">
        <ele>87</ele>
        <time>2018-01-31T10:31:50Z</time>
      </trkpt>
      <trkpt lat="48.69595" lon="2.46123">
        <ele>88</ele>
        <time>2018-01-31T10:31:50Z</time>
      </trkpt>
      <trkpt lat="48.69593" lon="2.4612">
        <ele>88</ele>
        <time>2018-01-31T10:31:50Z</time>
      </trkpt>
      <trkpt lat="48.69593" lon="2.46119">
        <ele>88</ele>
        <time>2018-01-31T10:31:50Z</time>
      </trkpt>
      <trkpt lat="48.6959" lon="2.46112">
        <ele>88</ele>
        <time>2018-01-31T10:31:50Z</time>
      </trkpt>
      <trkpt lat="48.69588" lon="2.46107">
        <ele>88</ele>
        <time>2018-01-31T10:32:06Z</time>
      </trkpt>
      <trkpt lat="48.69583" lon="2.46098">
        <ele>88</ele>
        <time>2018-01-31T10:32:06Z</time>
      </trkpt>
      <trkpt lat="48.69579" lon="2.46094">
        <ele>88</ele>
        <time>2018-01-31T10:32:06Z</time>
      </trkpt>
      <trkpt lat="48.69575" lon="2.4609">
        <ele>88</ele>
        <time>2018-01-31T10:32:06Z</time>
      </trkpt>
      <trkpt lat="48.6957" lon="2.46099">
        <ele>88</ele>
        <time>2018-01-31T10:32:42Z</time>
      </trkpt>
      <trkpt lat="48.69568" lon="2.46103">
        <ele>88</ele>
        <time>2018-01-31T10:32:42Z</time>
      </trkpt>
      <trkpt lat="48.69565" lon="2.46104">
        <ele>88</ele>
        <time>2018-01-31T10:32:42Z</time>
      </trkpt>
      <trkpt lat="48.69563" lon="2.46104">
        <ele>88</ele>
        <time>2018-01-31T10:32:42Z</time>
      </trkpt>
      <trkpt lat="48.69555" lon="2.46111">
        <ele>88</ele>
        <time>2018-01-31T10:32:42Z</time>
      </trkpt>
      <trkpt lat="48.69552" lon="2.46113">
        <ele>88</ele>
        <time>2018-01-31T10:32:58Z</time>
      </trkpt>
      <trkpt lat="48.69549" lon="2.46119">
        <ele>88</ele>
        <time>2018-01-31T10:32:58Z</time>
      </trkpt>
      <trkpt lat="48.69546" lon="2.46123">
        <ele>88</ele>
        <time>2018-01-31T10:32:58Z</time>
      </trkpt>
      <trkpt lat="48.69541" lon="2.46127">
        <ele>88</ele>
        <time>2018-01-31T10:32:58Z</time>
      </trkpt>
      <trkpt lat="48.69538" lon="2.46127">
        <ele>88</ele>
        <time>2018-01-31T10:33:14Z</time>
      </trkpt>
      <trkpt lat="48.69534" lon="2.46129">
        <ele>88</ele>
        <time>2018-01-31T10:33:14Z</time>
      </trkpt>
      <trkpt lat="48.69529" lon="2.46131">
        <ele>88</ele>
        <time>2018-01-31T10:33:14Z</time>
      </trkpt>
      <trkpt lat="48.69521" lon="2.46137">
        <ele>88</ele>
        <time>2018-01-31T10:33:14Z</time>
      </trkpt>
      <trkpt lat="48.69515" lon="2.4614">
        <ele>88</ele>
        <time>2018-01-31T10:33:30Z</time>
      </trkpt>
      <trkpt lat="48.69514" lon="2.46146">
        <ele>88</ele>
        <time>2018-01-31T10:33:30Z</time>
      </trkpt>
      <trkpt lat="48.69512" lon="2.46151">
        <ele>88</ele>
        <time>2018-01-31T10:33:30Z</time>
      </trkpt>
      <trkpt lat="48.69508" lon="2.46155">
        <ele>88</ele>
        <time>2018-01-31T10:33:30Z</time>
      </trkpt>
      <trkpt lat="48.69494" lon="2.46163">
        <ele>88</ele>
        <time>2018-01-31T10:34:02Z</time>
      </trkpt>
      <trkpt lat="48.69493" lon="2.46163">
        <ele>88</ele>
        <time>2018-01-31T10:34:02Z</time>
      </trkpt>
      <trkpt lat="48.69492" lon="2.46164">
        <ele>88</ele>
        <time>2018-01-31T10:34:02Z</time>
      </trkpt>
      <trkpt lat="48.69486" lon="2.46175">
        <ele>88</ele>
        <time>2018-01-31T10:34:02Z</time>
      </trkpt>
      <trkpt lat="48.69483" lon="2.46181">
        <ele>88</ele>
        <time>2018-01-31T10:34:02Z</time>
      </trkpt>
      <trkpt lat="48.69477" lon="2.46186">
        <ele>88</ele>
        <time>2018-01-31T10:34:18Z</time>
      </trkpt>
      <trkpt lat="48.69474" lon="2.46188">
        <ele>88</ele>
        <time>2018-01-31T10:34:18Z</time>
      </trkpt>
      <trkpt lat="48.6947" lon="2.4619">
        <ele>88</ele>
        <time>2018-01-31T10:34:18Z</time>
      </trkpt>
      <trkpt lat="48.69465" lon="2.46192">
        <ele>88</ele>
        <time>2018-01-31T10:34:18Z</time>
      </trkpt>
      <trkpt lat="48.69461" lon="2.46196">
        <ele>88</ele>
        <time>2018-01-31T10:34:34Z</time>
      </trkpt>
      <trkpt lat="48.69456" lon="2.462">
        <ele>87</ele>
        <time>2018-01-31T10:34:34Z</time>
      </trkpt>
      <trkpt lat="48.69453" lon="2.46204">
        <ele>87</ele>
        <time>2018-01-31T10:34:34Z</time>
      </trkpt>
      <trkpt lat="48.6945" lon="2.46208">
        <ele>87</ele>
        <time>2018-01-31T10:34:34Z</time>
      </trkpt>
      <trkpt lat="48.69444" lon="2.46214">
        <ele>87</ele>
        <time>2018-01-31T10:34:50Z</time>
      </trkpt>
      <trkpt lat="48.69437" lon="2.46217">
        <ele>87</ele>
        <time>2018-01-31T10:34:50Z</time>
      </trkpt>
      <trkpt lat="48.69431" lon="2.4622">
        <ele>87</ele>
        <time>2018-01-31T10:34:50Z</time>
      </trkpt>
      <trkpt lat="48.69422" lon="2.4623">
        <ele>87</ele>
        <time>2018-01-31T10:34:50Z</time>
      </trkpt>
      <trkpt lat="48.69421" lon="2.46232">
        <ele>87</ele>
        <time>2018-01-31T10:35:06Z</time>
      </trkpt>
      <trkpt lat="48.69418" lon="2.46239">
        <ele>87</ele>
        <time>2018-01-31T10:35:06Z</time>
      </trkpt>
      <trkpt lat="48.69414" lon="2.46248">
        <ele>87</ele>
        <time>2018-01-31T10:35:06Z</time>
      </trkpt>
      <trkpt lat="48.6941" lon="2.46259">
        <ele>87</ele>
        <time>2018-01-31T10:35:06Z</time>
      </trkpt>
      <trkpt lat="48.69407" lon="2.46264">
        <ele>87</ele>
        <time>2018-01-31T10:35:26Z</time>
      </trkpt>
      <trkpt lat="48.69405" lon="2.46268">
        <ele>87</ele>
        <time>2018-01-31T10:35:26Z</time>
      </trkpt>
      <trkpt lat="48.69403" lon="2.46269">
        <ele>87</ele>
        <time>2018-01-31T10:35:26Z</time>
      </trkpt>
      <trkpt lat="48.69403" lon="2.4627">
        <ele>87</ele>
        <time>2018-01-31T10:35:26Z</time>
      </trkpt>
      <trkpt lat="48.69396" lon="2.46273">
        <ele>87</ele>
        <time>2018-01-31T10:35:26Z</time>
      </trkpt>
      <trkpt lat="48.69391" lon="2.46276">
        <ele>87</ele>
        <time>2018-01-31T10:35:42Z</time>
      </trkpt>
      <trkpt lat="48.69387" lon="2.46275">
        <ele>87</ele>
        <time>2018-01-31T10:35:42Z</time>
      </trkpt>
      <trkpt lat="48.69379" lon="2.46273">
        <ele>87</ele>
        <time>2018-01-31T10:35:42Z</time>
      </trkpt>
      <trkpt lat="48.69375" lon="2.46273">
        <ele>90</ele>
        <time>2018-01-31T10:35:42Z</time>
      </trkpt>
      <trkpt lat="48.69373" lon="2.46279">
        <ele>90</ele>
        <time>2018-01-31T10:35:58Z</time>
      </trkpt>
      <trkpt lat="48.6937" lon="2.46283">
        <ele>90</ele>
        <time>2018-01-31T10:35:58Z</time>
      </trkpt>
      <trkpt lat="48.69365" lon="2.4629">
        <ele>90</ele>
        <time>2018-01-31T10:35:58Z</time>
      </trkpt>
      <trkpt lat="48.69362" lon="2.46293">
        <ele>92</ele>
        <time>2018-01-31T10:35:58Z</time>
      </trkpt>
      <trkpt lat="48.69361" lon="2.46297">
        <ele>92</ele>
        <time>2018-01-31T10:36:14Z</time>
      </trkpt>
      <trkpt lat="48.69354" lon="2.46301">
        <ele>92</ele>
        <time>2018-01-31T10:36:14Z</time>
      </trkpt>
      <trkpt lat="48.69349" lon="2.46303">
        <ele>92</ele>
        <time>2018-01-31T10:36:14Z</time>
      </trkpt>
      <trkpt lat="48.69344" lon="2.46306">
        <ele>92</ele>
        <time>2018-01-31T10:36:14Z</time>
      </trkpt>
      <trkpt lat="48.69341" lon="2.4631">
        <ele>92</ele>
        <time>2018-01-31T10:36:30Z</time>
      </trkpt>
      <trkpt lat="48.69337" lon="2.46312">
        <ele>92</ele>
        <time>2018-01-31T10:36:30Z</time>
      </trkpt>
      <trkpt lat="48.69335" lon="2.46315">
        <ele>92</ele>
        <time>2018-01-31T10:36:30Z</time>
      </trkpt>
      <trkpt lat="48.69333" lon="2.4632">
        <ele>92</ele>
        <time>2018-01-31T10:36:30Z</time>
      </trkpt>
      <trkpt lat="48.69329" lon="2.46318">
        <ele>92</ele>
        <time>2018-01-31T10:36:46Z</time>
      </trkpt>
      <trkpt lat="48.69324" lon="2.46317">
        <ele>92</ele>
        <time>2018-01-31T10:36:46Z</time>
      </trkpt>
      <trkpt lat="48.69318" lon="2.46318">
        <ele>92</ele>
        <time>2018-01-31T10:36:46Z</time>
      </trkpt>
      <trkpt lat="48.69313" lon="2.46318">
        <ele>92</ele>
        <time>2018-01-31T10:36:46Z</time>
      </trkpt>
      <trkpt lat="48.69309" lon="2.46319">
        <ele>92</ele>
        <time>2018-01-31T10:37:02Z</time>
      </trkpt>
      <trkpt lat="48.69306" lon="2.46321">
        <ele>92</ele>
        <time>2018-01-31T10:37:02Z</time>
      </trkpt>
      <trkpt lat="48.69303" lon="2.46327">
        <ele>92</ele>
        <time>2018-01-31T10:37:02Z</time>
      </trkpt>
      <trkpt lat="48.693" lon="2.46333">
        <ele>92</ele>
        <time>2018-01-31T10:37:02Z</time>
      </trkpt>
      <trkpt lat="48.69297" lon="2.46335">
        <ele>92</ele>
        <time>2018-01-31T10:37:22Z</time>
      </trkpt>
      <trkpt lat="48.69295" lon="2.46338">
        <ele>92</ele>
        <time>2018-01-31T10:37:22Z</time>
      </trkpt>
      <trkpt lat="48.69294" lon="2.46338">
        <ele>92</ele>
        <time>2018-01-31T10:37:22Z</time>
      </trkpt>
      <trkpt lat="48.69289" lon="2.46341">
        <ele>93</ele>
        <time>2018-01-31T10:37:22Z</time>
      </trkpt>
      <trkpt lat="48.69282" lon="2.46343">
        <ele>93</ele>
        <time>2018-01-31T10:37:22Z</time>
      </trkpt>
      <trkpt lat="48.69276" lon="2.46348">
        <ele>93</ele>
        <time>2018-01-31T10:37:38Z</time>
      </trkpt>
      <trkpt lat="48.69274" lon="2.46351">
        <ele>93</ele>
        <time>2018-01-31T10:37:38Z</time>
      </trkpt>
      <trkpt lat="48.6927" lon="2.46353">
        <ele>93</ele>
        <time>2018-01-31T10:37:38Z</time>
      </trkpt>
      <trkpt lat="48.69263" lon="2.46353">
        <ele>93</ele>
        <time>2018-01-31T10:37:38Z</time>
      </trkpt>
      <trkpt lat="48.69259" lon="2.46354">
        <ele>93</ele>
        <time>2018-01-31T10:37:54Z</time>
      </trkpt>
      <trkpt lat="48.69253" lon="2.46355">
        <ele>93</ele>
        <time>2018-01-31T10:37:54Z</time>
      </trkpt>
      <trkpt lat="48.69247" lon="2.46356">
        <ele>93</ele>
        <time>2018-01-31T10:37:54Z</time>
      </trkpt>
      <trkpt lat="48.69241" lon="2.46355">
        <ele>93</ele>
        <time>2018-01-31T10:37:54Z</time>
      </trkpt>
      <trkpt lat="48.69237" lon="2.46357">
        <ele>93</ele>
        <time>2018-01-31T10:38:10Z</time>
      </trkpt>
      <trkpt lat="48.69233" lon="2.4636">
        <ele>93</ele>
        <time>2018-01-31T10:38:10Z</time>
      </trkpt>
      <trkpt lat="48.6923" lon="2.46362">
        <ele>93</ele>
        <time>2018-01-31T10:38:10Z</time>
      </trkpt>
      <trkpt lat="48.69229" lon="2.46364">
        <ele>93</ele>
        <time>2018-01-31T10:38:10Z</time>
      </trkpt>
      <trkpt lat="48.69224" lon="2.46365">
        <ele>93</ele>
        <time>2018-01-31T10:38:26Z</time>
      </trkpt>
      <trkpt lat="48.69218" lon="2.4637">
        <ele>93</ele>
        <time>2018-01-31T10:38:26Z</time>
      </trkpt>
      <trkpt lat="48.69214" lon="2.4637">
        <ele>93</ele>
        <time>2018-01-31T10:38:26Z</time>
      </trkpt>
      <trkpt lat="48.69206" lon="2.46373">
        <ele>93</ele>
        <time>2018-01-31T10:38:26Z</time>
      </trkpt>
      <trkpt lat="48.69201" lon="2.46375">
        <ele>93</ele>
        <time>2018-01-31T10:38:42Z</time>
      </trkpt>
      <trkpt lat="48.69197" lon="2.46376">
        <ele>93</ele>
        <time>2018-01-31T10:38:42Z</time>
      </trkpt>
      <trkpt lat="48.69195" lon="2.46378">
        <ele>93</ele>
        <time>2018-01-31T10:38:42Z</time>
      </trkpt>
      <trkpt lat="48.69192" lon="2.4638">
        <ele>93</ele>
        <time>2018-01-31T10:38:42Z</time>
      </trkpt>
      <trkpt lat="48.69186" lon="2.46384">
        <ele>93</ele>
        <time>2018-01-31T10:38:58Z</time>
      </trkpt>
      <trkpt lat="48.69184" lon="2.46387">
        <ele>93</ele>
        <time>2018-01-31T10:38:58Z</time>
      </trkpt>
      <trkpt lat="48.69178" lon="2.46389">
        <ele>93</ele>
        <time>2018-01-31T10:38:58Z</time>
      </trkpt>
      <trkpt lat="48.69173" lon="2.46397">
        <ele>93</ele>
        <time>2018-01-31T10:38:58Z</time>
      </trkpt>
      <trkpt lat="48.69167" lon="2.46399">
        <ele>93</ele>
        <time>2018-01-31T10:39:14Z</time>
      </trkpt>
      <trkpt lat="48.69164" lon="2.46397">
        <ele>93</ele>
        <time>2018-01-31T10:39:14Z</time>
      </trkpt>
      <trkpt lat="48.69158" lon="2.46401">
        <ele>93</ele>
        <time>2018-01-31T10:39:14Z</time>
      </trkpt>
      <trkpt lat="48.69154" lon="2.46402">
        <ele>93</ele>
        <time>2018-01-31T10:39:14Z</time>
      </trkpt>
      <trkpt lat="48.6914" lon="2.46419">
        <ele>93</ele>
        <time>2018-01-31T10:49:38Z</time>
      </trkpt>
      <trkpt lat="48.6914" lon="2.46419">
        <ele>93</ele>
        <time>2018-01-31T10:49:38Z</time>
      </trkpt>
      <trkpt lat="48.6914" lon="2.46419">
        <ele>93</ele>
        <time>2018-01-31T10:49:38Z</time>
      </trkpt>
      <trkpt lat="48.69139" lon="2.46419">
        <ele>93</ele>
        <time>2018-01-31T10:49:38Z</time>
      </trkpt>
      <trkpt lat="48.69139" lon="2.46419">
        <ele>93</ele>
        <time>2018-01-31T10:49:38Z</time>
      </trkpt>
      <trkpt lat="48.69137" lon="2.46423">
        <ele>93</ele>
        <time>2018-01-31T10:51:50Z</time>
      </trkpt>
      <trkpt lat="48.69137" lon="2.46423">
        <ele>93</ele>
        <time>2018-01-31T10:51:50Z</time>
      </trkpt>
      <trkpt lat="48.69135" lon="2.46423">
        <ele>93</ele>
        <time>2018-01-31T10:51:50Z</time>
      </trkpt>
      <trkpt lat="48.69133" lon="2.46423">
        <ele>93</ele>
        <time>2018-01-31T10:51:50Z</time>
      </trkpt>
      <trkpt lat="48.69129" lon="2.46425">
        <ele>93</ele>
        <time>2018-01-31T10:51:50Z</time>
      </trkpt>
      <trkpt lat="48.69126" lon="2.46428">
        <ele>93</ele>
        <time>2018-01-31T10:52:06Z</time>
      </trkpt>
      <trkpt lat="48.69122" lon="2.46431">
        <ele>95</ele>
        <time>2018-01-31T10:52:06Z</time>
      </trkpt>
      <trkpt lat="48.69119" lon="2.46435">
        <ele>95</ele>
        <time>2018-01-31T10:52:06Z</time>
      </trkpt>
      <trkpt lat="48.69117" lon="2.46439">
        <ele>95</ele>
        <time>2018-01-31T10:52:06Z</time>
      </trkpt>
      <trkpt lat="48.69115" lon="2.46443">
        <ele>95</ele>
        <time>2018-01-31T10:52:26Z</time>
      </trkpt>
      <trkpt lat="48.69113" lon="2.46446">
        <ele>95</ele>
        <time>2018-01-31T10:52:26Z</time>
      </trkpt>
      <trkpt lat="48.69112" lon="2.4645">
        <ele>95</ele>
        <time>2018-01-31T10:52:26Z</time>
      </trkpt>
      <trkpt lat="48.6911" lon="2.46453">
        <ele>95</ele>
        <time>2018-01-31T10:52:26Z</time>
      </trkpt>
      <trkpt lat="48.69107" lon="2.46459">
        <ele>93</ele>
        <time>2018-01-31T10:52:26Z</time>
      </trkpt>
      <trkpt lat="48.69105" lon="2.46466">
        <ele>93</ele>
        <time>2018-01-31T10:52:42Z</time>
      </trkpt>
      <trkpt lat="48.69104" lon="2.46473">
        <ele>93</ele>
        <time>2018-01-31T10:52:42Z</time>
      </trkpt>
      <trkpt lat="48.69102" lon="2.46477">
        <ele>93</ele>
        <time>2018-01-31T10:52:42Z</time>
      </trkpt>
      <trkpt lat="48.691" lon="2.46486">
        <ele>93</ele>
        <time>2018-01-31T10:52:42Z</time>
      </trkpt>
      <trkpt lat="48.69098" lon="2.46492">
        <ele>93</ele>
        <time>2018-01-31T10:52:58Z</time>
      </trkpt>
      <trkpt lat="48.69098" lon="2.46498">
        <ele>93</ele>
        <time>2018-01-31T10:52:58Z</time>
      </trkpt>
      <trkpt lat="48.69099" lon="2.46502">
        <ele>93</ele>
        <time>2018-01-31T10:52:58Z</time>
      </trkpt>
      <trkpt lat="48.69097" lon="2.4651">
        <ele>93</ele>
        <time>2018-01-31T10:52:58Z</time>
      </trkpt>
      <trkpt lat="48.69097" lon="2.46515">
        <ele>93</ele>
        <time>2018-01-31T10:53:14Z</time>
      </trkpt>
      <trkpt lat="48.69096" lon="2.46524">
        <ele>93</ele>
        <time>2018-01-31T10:53:14Z</time>
      </trkpt>
      <trkpt lat="48.69095" lon="2.46531">
        <ele>93</ele>
        <time>2018-01-31T10:53:14Z</time>
      </trkpt>
      <trkpt lat="48.69093" lon="2.46538">
        <ele>93</ele>
        <time>2018-01-31T10:53:14Z</time>
      </trkpt>
      <trkpt lat="48.69093" lon="2.46545">
        <ele>93</ele>
        <time>2018-01-31T10:53:30Z</time>
      </trkpt>
      <trkpt lat="48.69094" lon="2.46555">
        <ele>93</ele>
        <time>2018-01-31T10:53:30Z</time>
      </trkpt>
      <trkpt lat="48.69093" lon="2.46561">
        <ele>93</ele>
        <time>2018-01-31T10:53:30Z</time>
      </trkpt>
      <trkpt lat="48.69092" lon="2.46567">
        <ele>93</ele>
        <time>2018-01-31T10:53:30Z</time>
      </trkpt>
      <trkpt lat="48.69092" lon="2.46576">
        <ele>93</ele>
        <time>2018-01-31T10:53:46Z</time>
      </trkpt>
      <trkpt lat="48.69092" lon="2.46583">
        <ele>93</ele>
        <time>2018-01-31T10:53:46Z</time>
      </trkpt>
      <trkpt lat="48.6909" lon="2.46592">
        <ele>93</ele>
        <time>2018-01-31T10:53:46Z</time>
      </trkpt>
      <trkpt lat="48.69088" lon="2.46599">
        <ele>93</ele>
        <time>2018-01-31T10:53:46Z</time>
      </trkpt>
      <trkpt lat="48.69085" lon="2.46606">
        <ele>93</ele>
        <time>2018-01-31T10:54:02Z</time>
      </trkpt>
      <trkpt lat="48.69082" lon="2.46611">
        <ele>93</ele>
        <time>2018-01-31T10:54:02Z</time>
      </trkpt>
      <trkpt lat="48.6908" lon="2.46619">
        <ele>93</ele>
        <time>2018-01-31T10:54:02Z</time>
      </trkpt>
      <trkpt lat="48.69078" lon="2.46627">
        <ele>93</ele>
        <time>2018-01-31T10:54:02Z</time>
      </trkpt>
      <trkpt lat="48.69077" lon="2.46636">
        <ele>93</ele>
        <time>2018-01-31T10:54:18Z</time>
      </trkpt>
      <trkpt lat="48.69076" lon="2.46641">
        <ele>93</ele>
        <time>2018-01-31T10:54:18Z</time>
      </trkpt>
      <trkpt lat="48.69075" lon="2.46648">
        <ele>93</ele>
        <time>2018-01-31T10:54:18Z</time>
      </trkpt>
      <trkpt lat="48.69074" lon="2.46655">
        <ele>93</ele>
        <time>2018-01-31T10:54:18Z</time>
      </trkpt>
      <trkpt lat="48.69073" lon="2.46661">
        <ele>93</ele>
        <time>2018-01-31T10:54:34Z</time>
      </trkpt>
      <trkpt lat="48.69071" lon="2.46668">
        <ele>93</ele>
        <time>2018-01-31T10:54:34Z</time>
      </trkpt>
      <trkpt lat="48.69069" lon="2.46675">
        <ele>93</ele>
        <time>2018-01-31T10:54:34Z</time>
      </trkpt>
      <trkpt lat="48.69066" lon="2.46683">
        <ele>93</ele>
        <time>2018-01-31T10:54:34Z</time>
      </trkpt>
      <trkpt lat="48.69064" lon="2.46689">
        <ele>93</ele>
        <time>2018-01-31T10:54:50Z</time>
      </trkpt>
      <trkpt lat="48.69059" lon="2.46699">
        <ele>93</ele>
        <time>2018-01-31T10:54:50Z</time>
      </trkpt>
      <trkpt lat="48.69055" lon="2.46705">
        <ele>93</ele>
        <time>2018-01-31T10:54:50Z</time>
      </trkpt>
      <trkpt lat="48.69051" lon="2.46709">
        <ele>92</ele>
        <time>2018-01-31T10:54:50Z</time>
      </trkpt>
      <trkpt lat="48.69048" lon="2.46713">
        <ele>92</ele>
        <time>2018-01-31T10:55:06Z</time>
      </trkpt>
      <trkpt lat="48.69045" lon="2.46718">
        <ele>92</ele>
        <time>2018-01-31T10:55:06Z</time>
      </trkpt>
      <trkpt lat="48.69043" lon="2.46724">
        <ele>92</ele>
        <time>2018-01-31T10:55:06Z</time>
      </trkpt>
      <trkpt lat="48.69039" lon="2.46729">
        <ele>93</ele>
        <time>2018-01-31T10:55:06Z</time>
      </trkpt>
      <trkpt lat="48.69036" lon="2.46735">
        <ele>93</ele>
        <time>2018-01-31T10:55:22Z</time>
      </trkpt>
      <trkpt lat="48.69031" lon="2.4674">
        <ele>93</ele>
        <time>2018-01-31T10:55:22Z</time>
      </trkpt>
      <trkpt lat="48.69026" lon="2.46747">
        <ele>93</ele>
        <time>2018-01-31T10:55:22Z</time>
      </trkpt>
      <trkpt lat="48.69023" lon="2.46754">
        <ele>93</ele>
        <time>2018-01-31T10:55:22Z</time>
      </trkpt>
      <trkpt lat="48.69019" lon="2.46762">
        <ele>93</ele>
        <time>2018-01-31T10:55:38Z</time>
      </trkpt>
      <trkpt lat="48.69015" lon="2.46772">
        <ele>93</ele>
        <time>2018-01-31T10:55:38Z</time>
      </trkpt>
      <trkpt lat="48.69014" lon="2.46774">
        <ele>93</ele>
        <time>2018-01-31T10:55:38Z</time>
      </trkpt>
      <trkpt lat="48.69012" lon="2.46773">
        <ele>93</ele>
        <time>2018-01-31T10:55:38Z</time>
      </trkpt>
      <trkpt lat="48.69008" lon="2.46774">
        <ele>93</ele>
        <time>2018-01-31T10:55:54Z</time>
      </trkpt>
      <trkpt lat="48.69004" lon="2.46774">
        <ele>93</ele>
        <time>2018-01-31T10:55:54Z</time>
      </trkpt>
      <trkpt lat="48.68999" lon="2.46775">
        <ele>93</ele>
        <time>2018-01-31T10:55:54Z</time>
      </trkpt>
      <trkpt lat="48.68998" lon="2.46775">
        <ele>93</ele>
        <time>2018-01-31T10:55:54Z</time>
      </trkpt>
      <trkpt lat="48.6898" lon="2.4679">
        <ele>93</ele>
        <time>2018-01-31T10:56:18Z</time>
      </trkpt>
      <trkpt lat="48.68969" lon="2.46761">
        <ele>93</ele>
        <time>2018-01-31T10:56:18Z</time>
      </trkpt>
      <trkpt lat="48.6896" lon="2.46755">
        <ele>93</ele>
        <time>2018-01-31T10:56:18Z</time>
      </trkpt>
      <trkpt lat="48.68957" lon="2.46754">
        <ele>93</ele>
        <time>2018-01-31T10:56:18Z</time>
      </trkpt>
      <trkpt lat="48.68949" lon="2.46748">
        <ele>93</ele>
        <time>2018-01-31T10:56:34Z</time>
      </trkpt>
      <trkpt lat="48.68945" lon="2.46747">
        <ele>93</ele>
        <time>2018-01-31T10:56:34Z</time>
      </trkpt>
      <trkpt lat="48.68939" lon="2.46741">
        <ele>93</ele>
        <time>2018-01-31T10:56:34Z</time>
      </trkpt>
      <trkpt lat="48.68935" lon="2.46739">
        <ele>93</ele>
        <time>2018-01-31T10:56:34Z</time>
      </trkpt>
      <trkpt lat="48.68929" lon="2.46737">
        <ele>93</ele>
        <time>2018-01-31T10:56:54Z</time>
      </trkpt>
      <trkpt lat="48.68926" lon="2.46736">
        <ele>93</ele>
        <time>2018-01-31T10:56:54Z</time>
      </trkpt>
      <trkpt lat="48.68925" lon="2.46734">
        <ele>93</ele>
        <time>2018-01-31T10:56:54Z</time>
      </trkpt>
      <trkpt lat="48.68924" lon="2.4673">
        <ele>93</ele>
        <time>2018-01-31T10:56:54Z</time>
      </trkpt>
      <trkpt lat="48.68924" lon="2.46722">
        <ele>93</ele>
        <time>2018-01-31T10:56:54Z</time>
      </trkpt>
      <trkpt lat="48.68923" lon="2.46715">
        <ele>93</ele>
        <time>2018-01-31T10:57:10Z</time>
      </trkpt>
      <trkpt lat="48.68923" lon="2.46705">
        <ele>93</ele>
        <time>2018-01-31T10:57:10Z</time>
      </trkpt>
      <trkpt lat="48.68922" lon="2.46697">
        <ele>93</ele>
        <time>2018-01-31T10:57:10Z</time>
      </trkpt>
      <trkpt lat="48.68922" lon="2.46691">
        <ele>93</ele>
        <time>2018-01-31T10:57:10Z</time>
      </trkpt>
      <trkpt lat="48.68923" lon="2.46685">
        <ele>93</ele>
        <time>2018-01-31T10:57:26Z</time>
      </trkpt>
      <trkpt lat="48.68925" lon="2.46675">
        <ele>93</ele>
        <time>2018-01-31T10:57:26Z</time>
      </trkpt>
      <trkpt lat="48.68927" lon="2.46668">
        <ele>93</ele>
        <time>2018-01-31T10:57:26Z</time>
      </trkpt>
      <trkpt lat="48.68928" lon="2.46661">
        <ele>93</ele>
        <time>2018-01-31T10:57:26Z</time>
      </trkpt>
      <trkpt lat="48.68928" lon="2.46651">
        <ele>93</ele>
        <time>2018-01-31T10:57:42Z</time>
      </trkpt>
      <trkpt lat="48.68929" lon="2.46646">
        <ele>93</ele>
        <time>2018-01-31T10:57:42Z</time>
      </trkpt>
      <trkpt lat="48.6893" lon="2.46642">
        <ele>93</ele>
        <time>2018-01-31T10:57:42Z</time>
      </trkpt>
      <trkpt lat="48.6893" lon="2.46637">
        <ele>93</ele>
        <time>2018-01-31T10:57:42Z</time>
      </trkpt>
      <trkpt lat="48.68931" lon="2.4663">
        <ele>93</ele>
        <time>2018-01-31T10:57:58Z</time>
      </trkpt>
      <trkpt lat="48.68933" lon="2.4662">
        <ele>91</ele>
        <time>2018-01-31T10:57:58Z</time>
      </trkpt>
      <trkpt lat="48.68933" lon="2.46612">
        <ele>91</ele>
        <time>2018-01-31T10:57:58Z</time>
      </trkpt>
      <trkpt lat="48.68932" lon="2.46604">
        <ele>91</ele>
        <time>2018-01-31T10:57:58Z</time>
      </trkpt>
      <trkpt lat="48.68932" lon="2.46598">
        <ele>91</ele>
        <time>2018-01-31T10:58:14Z</time>
      </trkpt>
      <trkpt lat="48.68932" lon="2.46589">
        <ele>91</ele>
        <time>2018-01-31T10:58:14Z</time>
      </trkpt>
      <trkpt lat="48.6893" lon="2.46583">
        <ele>91</ele>
        <time>2018-01-31T10:58:14Z</time>
      </trkpt>
      <trkpt lat="48.68929" lon="2.46576">
        <ele>91</ele>
        <time>2018-01-31T10:58:14Z</time>
      </trkpt>
      <trkpt lat="48.68928" lon="2.46569">
        <ele>91</ele>
        <time>2018-01-31T10:58:30Z</time>
      </trkpt>
      <trkpt lat="48.68927" lon="2.46561">
        <ele>91</ele>
        <time>2018-01-31T10:58:30Z</time>
      </trkpt>
      <trkpt lat="48.68927" lon="2.46558">
        <ele>91</ele>
        <time>2018-01-31T10:58:30Z</time>
      </trkpt>
      <trkpt lat="48.68927" lon="2.46554">
        <ele>91</ele>
        <time>2018-01-31T10:58:30Z</time>
      </trkpt>
      <trkpt lat="48.68926" lon="2.46548">
        <ele>91</ele>
        <time>2018-01-31T10:58:46Z</time>
      </trkpt>
      <trkpt lat="48.68926" lon="2.4654">
        <ele>89</ele>
        <time>2018-01-31T10:58:46Z</time>
      </trkpt>
      <trkpt lat="48.68926" lon="2.46532">
        <ele>89</ele>
        <time>2018-01-31T10:58:46Z</time>
      </trkpt>
      <trkpt lat="48.68928" lon="2.46523">
        <ele>89</ele>
        <time>2018-01-31T10:58:46Z</time>
      </trkpt>
      <trkpt lat="48.6893" lon="2.46516">
        <ele>89</ele>
        <time>2018-01-31T10:59:02Z</time>
      </trkpt>
      <trkpt lat="48.6893" lon="2.46509">
        <ele>89</ele>
        <time>2018-01-31T10:59:02Z</time>
      </trkpt>
      <trkpt lat="48.68931" lon="2.46501">
        <ele>89</ele>
        <time>2018-01-31T10:59:02Z</time>
      </trkpt>
      <trkpt lat="48.68931" lon="2.46495">
        <ele>89</ele>
        <time>2018-01-31T10:59:02Z</time>
      </trkpt>
      <trkpt lat="48.68932" lon="2.46491">
        <ele>89</ele>
        <time>2018-01-31T10:59:18Z</time>
      </trkpt>
      <trkpt lat="48.68933" lon="2.46482">
        <ele>89</ele>
        <time>2018-01-31T10:59:18Z</time>
      </trkpt>
      <trkpt lat="48.68935" lon="2.46477">
        <ele>89</ele>
        <time>2018-01-31T10:59:18Z</time>
      </trkpt>
      <trkpt lat="48.68937" lon="2.46467">
        <ele>89</ele>
        <time>2018-01-31T10:59:18Z</time>
      </trkpt>
      <trkpt lat="48.68938" lon="2.46462">
        <ele>89</ele>
        <time>2018-01-31T10:59:34Z</time>
      </trkpt>
      <trkpt lat="48.68939" lon="2.46457">
        <ele>88</ele>
        <time>2018-01-31T10:59:34Z</time>
      </trkpt>
      <trkpt lat="48.6894" lon="2.46448">
        <ele>88</ele>
        <time>2018-01-31T10:59:34Z</time>
      </trkpt>
      <trkpt lat="48.6894" lon="2.4644">
        <ele>88</ele>
        <time>2018-01-31T10:59:34Z</time>
      </trkpt>
      <trkpt lat="48.68939" lon="2.46435">
        <ele>88</ele>
        <time>2018-01-31T10:59:50Z</time>
      </trkpt>
      <trkpt lat="48.68939" lon="2.46427">
        <ele>88</ele>
        <time>2018-01-31T10:59:50Z</time>
      </trkpt>
      <trkpt lat="48.68939" lon="2.46425">
        <ele>88</ele>
        <time>2018-01-31T10:59:50Z</time>
      </trkpt>
      <trkpt lat="48.68939" lon="2.4642">
        <ele>88</ele>
        <time>2018-01-31T10:59:50Z</time>
      </trkpt>
      <trkpt lat="48.6894" lon="2.46413">
        <ele>88</ele>
        <time>2018-01-31T11:00:06Z</time>
      </trkpt>
      <trkpt lat="48.68939" lon="2.46405">
        <ele>88</ele>
        <time>2018-01-31T11:00:06Z</time>
      </trkpt>
      <trkpt lat="48.68939" lon="2.46399">
        <ele>88</ele>
        <time>2018-01-31T11:00:06Z</time>
      </trkpt>
      <trkpt lat="48.6894" lon="2.46392">
        <ele>88</ele>
        <time>2018-01-31T11:00:06Z</time>
      </trkpt>
      <trkpt lat="48.68941" lon="2.46384">
        <ele>88</ele>
        <time>2018-01-31T11:00:22Z</time>
      </trkpt>
      <trkpt lat="48.68941" lon="2.46377">
        <ele>88</ele>
        <time>2018-01-31T11:00:22Z</time>
      </trkpt>
      <trkpt lat="48.68941" lon="2.46371">
        <ele>86</ele>
        <time>2018-01-31T11:00:22Z</time>
      </trkpt>
      <trkpt lat="48.68941" lon="2.46363">
        <ele>86</ele>
        <time>2018-01-31T11:00:22Z</time>
      </trkpt>
      <trkpt lat="48.6894" lon="2.46356">
        <ele>86</ele>
        <time>2018-01-31T11:00:38Z</time>
      </trkpt>
      <trkpt lat="48.6894" lon="2.46351">
        <ele>86</ele>
        <time>2018-01-31T11:00:38Z</time>
      </trkpt>
      <trkpt lat="48.68938" lon="2.46344">
        <ele>86</ele>
        <time>2018-01-31T11:00:38Z</time>
      </trkpt>
      <trkpt lat="48.68937" lon="2.46335">
        <ele>86</ele>
        <time>2018-01-31T11:00:38Z</time>
      </trkpt>
      <trkpt lat="48.68938" lon="2.46327">
        <ele>86</ele>
        <time>2018-01-31T11:00:54Z</time>
      </trkpt>
      <trkpt lat="48.68939" lon="2.46318">
        <ele>86</ele>
        <time>2018-01-31T11:00:54Z</time>
      </trkpt>
      <trkpt lat="48.6894" lon="2.46312">
        <ele>86</ele>
        <time>2018-01-31T11:00:54Z</time>
      </trkpt>
      <trkpt lat="48.68941" lon="2.46304">
        <ele>86</ele>
        <time>2018-01-31T11:00:54Z</time>
      </trkpt>
      <trkpt lat="48.68943" lon="2.46295">
        <ele>86</ele>
        <time>2018-01-31T11:01:10Z</time>
      </trkpt>
      <trkpt lat="48.68943" lon="2.46283">
        <ele>86</ele>
        <time>2018-01-31T11:01:10Z</time>
      </trkpt>
      <trkpt lat="48.68946" lon="2.4628">
        <ele>86</ele>
        <time>2018-01-31T11:01:10Z</time>
      </trkpt>
      <trkpt lat="48.68948" lon="2.46276">
        <ele>86</ele>
        <time>2018-01-31T11:01:10Z</time>
      </trkpt>
      <trkpt lat="48.68955" lon="2.4627">
        <ele>86</ele>
        <time>2018-01-31T11:01:26Z</time>
      </trkpt>
      <trkpt lat="48.68957" lon="2.46265">
        <ele>86</ele>
        <time>2018-01-31T11:01:26Z</time>
      </trkpt>
      <trkpt lat="48.68962" lon="2.46258">
        <ele>89</ele>
        <time>2018-01-31T11:01:26Z</time>
      </trkpt>
      <trkpt lat="48.68965" lon="2.46248">
        <ele>89</ele>
        <time>2018-01-31T11:01:26Z</time>
      </trkpt>
      <trkpt lat="48.68966" lon="2.46242">
        <ele>89</ele>
        <time>2018-01-31T11:01:42Z</time>
      </trkpt>
      <trkpt lat="48.68968" lon="2.46237">
        <ele>89</ele>
        <time>2018-01-31T11:01:42Z</time>
      </trkpt>
      <trkpt lat="48.68968" lon="2.46231">
        <ele>89</ele>
        <time>2018-01-31T11:01:42Z</time>
      </trkpt>
      <trkpt lat="48.68966" lon="2.46223">
        <ele>89</ele>
        <time>2018-01-31T11:01:42Z</time>
      </trkpt>
      <trkpt lat="48.68964" lon="2.4622">
        <ele>89</ele>
        <time>2018-01-31T11:01:58Z</time>
      </trkpt>
      <trkpt lat="48.68962" lon="2.46213">
        <ele>89</ele>
        <time>2018-01-31T11:01:58Z</time>
      </trkpt>
      <trkpt lat="48.6896" lon="2.46208">
        <ele>89</ele>
        <time>2018-01-31T11:01:58Z</time>
      </trkpt>
      <trkpt lat="48.68959" lon="2.46203">
        <ele>89</ele>
        <time>2018-01-31T11:01:58Z</time>
      </trkpt>
      <trkpt lat="48.68964" lon="2.46188">
        <ele>89</ele>
        <time>2018-01-31T11:02:30Z</time>
      </trkpt>
      <trkpt lat="48.68965" lon="2.46187">
        <ele>89</ele>
        <time>2018-01-31T11:02:30Z</time>
      </trkpt>
      <trkpt lat="48.68964" lon="2.46185">
        <ele>89</ele>
        <time>2018-01-31T11:02:30Z</time>
      </trkpt>
      <trkpt lat="48.68964" lon="2.46184">
        <ele>89</ele>
        <time>2018-01-31T11:02:30Z</time>
      </trkpt>
      <trkpt lat="48.68965" lon="2.46183">
        <ele>89</ele>
        <time>2018-01-31T11:02:30Z</time>
      </trkpt>
      <trkpt lat="48.68961" lon="2.46183">
        <ele>89</ele>
        <time>2018-01-31T11:07:46Z</time>
      </trkpt>
      <trkpt lat="48.68961" lon="2.46183">
        <ele>89</ele>
        <time>2018-01-31T11:07:46Z</time>
      </trkpt>
      <trkpt lat="48.68962" lon="2.4618">
        <ele>89</ele>
        <time>2018-01-31T11:07:46Z</time>
      </trkpt>
      <trkpt lat="48.68962" lon="2.46174">
        <ele>89</ele>
        <time>2018-01-31T11:07:46Z</time>
      </trkpt>
      <trkpt lat="48.68963" lon="2.46169">
        <ele>89</ele>
        <time>2018-01-31T11:07:46Z</time>
      </trkpt>
      <trkpt lat="48.68964" lon="2.46162">
        <ele>89</ele>
        <time>2018-01-31T11:08:02Z</time>
      </trkpt>
      <trkpt lat="48.68966" lon="2.46155">
        <ele>89</ele>
        <time>2018-01-31T11:08:02Z</time>
      </trkpt>
      <trkpt lat="48.68968" lon="2.46148">
        <ele>89</ele>
        <time>2018-01-31T11:08:02Z</time>
      </trkpt>
      <trkpt lat="48.68969" lon="2.46143">
        <ele>89</ele>
        <time>2018-01-31T11:08:02Z</time>
      </trkpt>
      <trkpt lat="48.6897" lon="2.4614">
        <ele>89</ele>
        <time>2018-01-31T11:08:18Z</time>
      </trkpt>
      <trkpt lat="48.68971" lon="2.46136">
        <ele>89</ele>
        <time>2018-01-31T11:08:18Z</time>
      </trkpt>
      <trkpt lat="48.68975" lon="2.4613">
        <ele>89</ele>
        <time>2018-01-31T11:08:18Z</time>
      </trkpt>
      <trkpt lat="48.68978" lon="2.46127">
        <ele>89</ele>
        <time>2018-01-31T11:08:18Z</time>
      </trkpt>
      <trkpt lat="48.68981" lon="2.46118">
        <ele>88</ele>
        <time>2018-01-31T11:08:34Z</time>
      </trkpt>
      <trkpt lat="48.68984" lon="2.46113">
        <ele>88</ele>
        <time>2018-01-31T11:08:34Z</time>
      </trkpt>
      <trkpt lat="48.68987" lon="2.46107">
        <ele>88</ele>
        <time>2018-01-31T11:08:34Z</time>
      </trkpt>
      <trkpt lat="48.6899" lon="2.461">
        <ele>88</ele>
        <time>2018-01-31T11:08:34Z</time>
      </trkpt>
      <trkpt lat="48.68993" lon="2.46091">
        <ele>88</ele>
        <time>2018-01-31T11:08:50Z</time>
      </trkpt>
      <trkpt lat="48.68995" lon="2.46084">
        <ele>88</ele>
        <time>2018-01-31T11:08:50Z</time>
      </trkpt>
      <trkpt lat="48.68996" lon="2.46076">
        <ele>88</ele>
        <time>2018-01-31T11:08:50Z</time>
      </trkpt>
      <trkpt lat="48.68996" lon="2.46068">
        <ele>88</ele>
        <time>2018-01-31T11:08:50Z</time>
      </trkpt>
      <trkpt lat="48.68997" lon="2.46061">
        <ele>88</ele>
        <time>2018-01-31T11:09:06Z</time>
      </trkpt>
      <trkpt lat="48.68997" lon="2.46054">
        <ele>88</ele>
        <time>2018-01-31T11:09:06Z</time>
      </trkpt>
      <trkpt lat="48.68998" lon="2.46047">
        <ele>88</ele>
        <time>2018-01-31T11:09:06Z</time>
      </trkpt>
      <trkpt lat="48.68999" lon="2.46041">
        <ele>86</ele>
        <time>2018-01-31T11:09:06Z</time>
      </trkpt>
      <trkpt lat="48.69" lon="2.46032">
        <ele>86</ele>
        <time>2018-01-31T11:09:22Z</time>
      </trkpt>
      <trkpt lat="48.69001" lon="2.46024">
        <ele>86</ele>
        <time>2018-01-31T11:09:22Z</time>
      </trkpt>
      <trkpt lat="48.69001" lon="2.46017">
        <ele>86</ele>
        <time>2018-01-31T11:09:22Z</time>
      </trkpt>
      <trkpt lat="48.69002" lon="2.46011">
        <ele>86</ele>
        <time>2018-01-31T11:09:22Z</time>
      </trkpt>
      <trkpt lat="48.69" lon="2.46001">
        <ele>86</ele>
        <time>2018-01-31T11:09:38Z</time>
      </trkpt>
      <trkpt lat="48.69" lon="2.45995">
        <ele>86</ele>
        <time>2018-01-31T11:09:38Z</time>
      </trkpt>
      <trkpt lat="48.68999" lon="2.4599">
        <ele>86</ele>
        <time>2018-01-31T11:09:38Z</time>
      </trkpt>
      <trkpt lat="48.68996" lon="2.45981">
        <ele>86</ele>
        <time>2018-01-31T11:09:38Z</time>
      </trkpt>
      <trkpt lat="48.68993" lon="2.45972">
        <ele>86</ele>
        <time>2018-01-31T11:09:54Z</time>
      </trkpt>
      <trkpt lat="48.68991" lon="2.45967">
        <ele>86</ele>
        <time>2018-01-31T11:09:54Z</time>
      </trkpt>
      <trkpt lat="48.68988" lon="2.45959">
        <ele>86</ele>
        <time>2018-01-31T11:09:54Z</time>
      </trkpt>
      <trkpt lat="48.68985" lon="2.45949">
        <ele>86</ele>
        <time>2018-01-31T11:09:54Z</time>
      </trkpt>
      <trkpt lat="48.68983" lon="2.45946">
        <ele>86</ele>
        <time>2018-01-31T11:10:10Z</time>
      </trkpt>
      <trkpt lat="48.68982" lon="2.45937">
        <ele>86</ele>
        <time>2018-01-31T11:10:10Z</time>
      </trkpt>
      <trkpt lat="48.68979" lon="2.45926">
        <ele>86</ele>
        <time>2018-01-31T11:10:10Z</time>
      </trkpt>
      <trkpt lat="48.68977" lon="2.45919">
        <ele>86</ele>
        <time>2018-01-31T11:10:10Z</time>
      </trkpt>
      <trkpt lat="48.68975" lon="2.45911">
        <ele>86</ele>
        <time>2018-01-31T11:10:26Z</time>
      </trkpt>
      <trkpt lat="48.68974" lon="2.45903">
        <ele>86</ele>
        <time>2018-01-31T11:10:26Z</time>
      </trkpt>
      <trkpt lat="48.68973" lon="2.45897">
        <ele>86</ele>
        <time>2018-01-31T11:10:26Z</time>
      </trkpt>
      <trkpt lat="48.6897" lon="2.45889">
        <ele>86</ele>
        <time>2018-01-31T11:10:26Z</time>
      </trkpt>
      <trkpt lat="48.6897" lon="2.45882">
        <ele>86</ele>
        <time>2018-01-31T11:10:42Z</time>
      </trkpt>
      <trkpt lat="48.68968" lon="2.45867">
        <ele>86</ele>
        <time>2018-01-31T11:10:42Z</time>
      </trkpt>
      <trkpt lat="48.68967" lon="2.45866">
        <ele>86</ele>
        <time>2018-01-31T11:10:42Z</time>
      </trkpt>
      <trkpt lat="48.68968" lon="2.45861">
        <ele>86</ele>
        <time>2018-01-31T11:10:42Z</time>
      </trkpt>
      <trkpt lat="48.6897" lon="2.45852">
        <ele>86</ele>
        <time>2018-01-31T11:10:58Z</time>
      </trkpt>
      <trkpt lat="48.68969" lon="2.45841">
        <ele>86</ele>
        <time>2018-01-31T11:10:58Z</time>
      </trkpt>
      <trkpt lat="48.68969" lon="2.45831">
        <ele>86</ele>
        <time>2018-01-31T11:10:58Z</time>
      </trkpt>
      <trkpt lat="48.68969" lon="2.45822">
        <ele>86</ele>
        <time>2018-01-31T11:10:58Z</time>
      </trkpt>
      <trkpt lat="48.6897" lon="2.45813">
        <ele>86</ele>
        <time>2018-01-31T11:11:14Z</time>
      </trkpt>
      <trkpt lat="48.68971" lon="2.45804">
        <ele>86</ele>
        <time>2018-01-31T11:11:14Z</time>
      </trkpt>
      <trkpt lat="48.68972" lon="2.45798">
        <ele>86</ele>
        <time>2018-01-31T11:11:14Z</time>
      </trkpt>
      <trkpt lat="48.68975" lon="2.45795">
        <ele>86</ele>
        <time>2018-01-31T11:11:14Z</time>
      </trkpt>
      <trkpt lat="48.68973" lon="2.45772">
        <ele>85</ele>
        <time>2018-01-31T11:13:06Z</time>
      </trkpt>
      <trkpt lat="48.68971" lon="2.45767">
        <ele>85</ele>
        <time>2018-01-31T11:13:06Z</time>
      </trkpt>
      <trkpt lat="48.68969" lon="2.45767">
        <ele>85</ele>
        <time>2018-01-31T11:13:06Z</time>
      </trkpt>
      <trkpt lat="48.68966" lon="2.45765">
        <ele>85</ele>
        <time>2018-01-31T11:13:06Z</time>
      </trkpt>
      <trkpt lat="48.68963" lon="2.45764">
        <ele>85</ele>
        <time>2018-01-31T11:13:06Z</time>
      </trkpt>
      <trkpt lat="48.68959" lon="2.45764">
        <ele>85</ele>
        <time>2018-01-31T11:13:22Z</time>
      </trkpt>
      <trkpt lat="48.68958" lon="2.45764">
        <ele>85</ele>
        <time>2018-01-31T11:13:22Z</time>
      </trkpt>
      <trkpt lat="48.68953" lon="2.45764">
        <ele>85</ele>
        <time>2018-01-31T11:13:22Z</time>
      </trkpt>
      <trkpt lat="48.68942" lon="2.45766">
        <ele>85</ele>
        <time>2018-01-31T11:13:22Z</time>
      </trkpt>
      <trkpt lat="48.68938" lon="2.45769">
        <ele>85</ele>
        <time>2018-01-31T11:13:38Z</time>
      </trkpt>
      <trkpt lat="48.68934" lon="2.45771">
        <ele>85</ele>
        <time>2018-01-31T11:13:38Z</time>
      </trkpt>
      <trkpt lat="48.6893" lon="2.45773">
        <ele>85</ele>
        <time>2018-01-31T11:13:38Z</time>
      </trkpt>
      <trkpt lat="48.68925" lon="2.45775">
        <ele>85</ele>
        <time>2018-01-31T11:13:38Z</time>
      </trkpt>
      <trkpt lat="48.6892" lon="2.45778">
        <ele>85</ele>
        <time>2018-01-31T11:13:54Z</time>
      </trkpt>
      <trkpt lat="48.68917" lon="2.45782">
        <ele>85</ele>
        <time>2018-01-31T11:13:54Z</time>
      </trkpt>
      <trkpt lat="48.68915" lon="2.45789">
        <ele>85</ele>
        <time>2018-01-31T11:13:54Z</time>
      </trkpt>
      <trkpt lat="48.68917" lon="2.45793">
        <ele>85</ele>
        <time>2018-01-31T11:13:54Z</time>
      </trkpt>
      <trkpt lat="48.68921" lon="2.45793">
        <ele>85</ele>
        <time>2018-01-31T11:14:18Z</time>
      </trkpt>
      <trkpt lat="48.6892" lon="2.45799">
        <ele>85</ele>
        <time>2018-01-31T11:14:18Z</time>
      </trkpt>
      <trkpt lat="48.68919" lon="2.45803">
        <ele>85</ele>
        <time>2018-01-31T11:14:18Z</time>
      </trkpt>
      <trkpt lat="48.68921" lon="2.45804">
        <ele>85</ele>
        <time>2018-01-31T11:14:18Z</time>
      </trkpt>
      <trkpt lat="48.68918" lon="2.45808">
        <ele>85</ele>
        <time>2018-01-31T11:14:18Z</time>
      </trkpt>
      <trkpt lat="48.68912" lon="2.45817">
        <ele>85</ele>
        <time>2018-01-31T11:15:14Z</time>
      </trkpt>
      <trkpt lat="48.68913" lon="2.45818">
        <ele>85</ele>
        <time>2018-01-31T11:15:14Z</time>
      </trkpt>
      <trkpt lat="48.68911" lon="2.4582">
        <ele>85</ele>
        <time>2018-01-31T11:15:14Z</time>
      </trkpt>
      <trkpt lat="48.68908" lon="2.4582">
        <ele>85</ele>
        <time>2018-01-31T11:15:14Z</time>
      </trkpt>
      <trkpt lat="48.68905" lon="2.45821">
        <ele>85</ele>
        <time>2018-01-31T11:15:14Z</time>
      </trkpt>
      <trkpt lat="48.68899" lon="2.45824">
        <ele>85</ele>
        <time>2018-01-31T11:15:46Z</time>
      </trkpt>
      <trkpt lat="48.68898" lon="2.45825">
        <ele>85</ele>
        <time>2018-01-31T11:15:46Z</time>
      </trkpt>
      <trkpt lat="48.68895" lon="2.45824">
        <ele>85</ele>
        <time>2018-01-31T11:15:46Z</time>
      </trkpt>
      <trkpt lat="48.68895" lon="2.45822">
        <ele>85</ele>
        <time>2018-01-31T11:15:46Z</time>
      </trkpt>
      <trkpt lat="48.68893" lon="2.45822">
        <ele>85</ele>
        <time>2018-01-31T11:15:46Z</time>
      </trkpt>
      <trkpt lat="48.68886" lon="2.45821">
        <ele>85</ele>
        <time>2018-01-31T11:16:02Z</time>
      </trkpt>
      <trkpt lat="48.68882" lon="2.45821">
        <ele>85</ele>
        <time>2018-01-31T11:16:02Z</time>
      </trkpt>
      <trkpt lat="48.68873" lon="2.4582">
        <ele>88</ele>
        <time>2018-01-31T11:16:02Z</time>
      </trkpt>
      <trkpt lat="48.68864" lon="2.45821">
        <ele>88</ele>
        <time>2018-01-31T11:16:02Z</time>
      </trkpt>
      <trkpt lat="48.68858" lon="2.45821">
        <ele>88</ele>
        <time>2018-01-31T11:16:18Z</time>
      </trkpt>
      <trkpt lat="48.68852" lon="2.45819">
        <ele>88</ele>
        <time>2018-01-31T11:16:18Z</time>
      </trkpt>
      <trkpt lat="48.68847" lon="2.45817">
        <ele>88</ele>
        <time>2018-01-31T11:16:18Z</time>
      </trkpt>
      <trkpt lat="48.68843" lon="2.45818">
        <ele>88</ele>
        <time>2018-01-31T11:16:18Z</time>
      </trkpt>
      <trkpt lat="48.68839" lon="2.4582">
        <ele>88</ele>
        <time>2018-01-31T11:16:34Z</time>
      </trkpt>
      <trkpt lat="48.68834" lon="2.45822">
        <ele>88</ele>
        <time>2018-01-31T11:16:34Z</time>
      </trkpt>
      <trkpt lat="48.68828" lon="2.45824">
        <ele>88</ele>
        <time>2018-01-31T11:16:34Z</time>
      </trkpt>
      <trkpt lat="48.68823" lon="2.4583">
        <ele>88</ele>
        <time>2018-01-31T11:16:34Z</time>
      </trkpt>
      <trkpt lat="48.68821" lon="2.45834">
        <ele>88</ele>
        <time>2018-01-31T11:16:50Z</time>
      </trkpt>
      <trkpt lat="48.68819" lon="2.45837">
        <ele>88</ele>
        <time>2018-01-31T11:16:50Z</time>
      </trkpt>
      <trkpt lat="48.68816" lon="2.45838">
        <ele>88</ele>
        <time>2018-01-31T11:16:50Z</time>
      </trkpt>
      <trkpt lat="48.6881" lon="2.45842">
        <ele>88</ele>
        <time>2018-01-31T11:16:50Z</time>
      </trkpt>
      <trkpt lat="48.68806" lon="2.45844">
        <ele>88</ele>
        <time>2018-01-31T11:17:06Z</time>
      </trkpt>
      <trkpt lat="48.68802" lon="2.45845">
        <ele>88</ele>
        <time>2018-01-31T11:17:06Z</time>
      </trkpt>
      <trkpt lat="48.68796" lon="2.45848">
        <ele>88</ele>
        <time>2018-01-31T11:17:06Z</time>
      </trkpt>
      <trkpt lat="48.68796" lon="2.45851">
        <ele>88</ele>
        <time>2018-01-31T11:17:06Z</time>
      </trkpt>
      <trkpt lat="48.68788" lon="2.45854">
        <ele>88</ele>
        <time>2018-01-31T11:17:22Z</time>
      </trkpt>
      <trkpt lat="48.68785" lon="2.45854">
        <ele>88</ele>
        <time>2018-01-31T11:17:22Z</time>
      </trkpt>
      <trkpt lat="48.68781" lon="2.45854">
        <ele>88</ele>
        <time>2018-01-31T11:17:22Z</time>
      </trkpt>
      <trkpt lat="48.68778" lon="2.45855">
        <ele>88</ele>
        <time>2018-01-31T11:17:22Z</time>
      </trkpt>
      <trkpt lat="48.68774" lon="2.45857">
        <ele>88</ele>
        <time>2018-01-31T11:17:38Z</time>
      </trkpt>
      <trkpt lat="48.68769" lon="2.45859">
        <ele>88</ele>
        <time>2018-01-31T11:17:38Z</time>
      </trkpt>
      <trkpt lat="48.68763" lon="2.45862">
        <ele>88</ele>
        <time>2018-01-31T11:17:38Z</time>
      </trkpt>
      <trkpt lat="48.68756" lon="2.45863">
        <ele>88</ele>
        <time>2018-01-31T11:17:38Z</time>
      </trkpt>
      <trkpt lat="48.68754" lon="2.45866">
        <ele>88</ele>
        <time>2018-01-31T11:18:14Z</time>
      </trkpt>
      <trkpt lat="48.68755" lon="2.45862">
        <ele>88</ele>
        <time>2018-01-31T11:18:14Z</time>
      </trkpt>
      <trkpt lat="48.6875" lon="2.45863">
        <ele>88</ele>
        <time>2018-01-31T11:18:14Z</time>
      </trkpt>
      <trkpt lat="48.68744" lon="2.45868">
        <ele>88</ele>
        <time>2018-01-31T11:18:14Z</time>
      </trkpt>
      <trkpt lat="48.68738" lon="2.45872">
        <ele>88</ele>
        <time>2018-01-31T11:18:14Z</time>
      </trkpt>
      <trkpt lat="48.68736" lon="2.45875">
        <ele>88</ele>
        <time>2018-01-31T11:18:30Z</time>
      </trkpt>
      <trkpt lat="48.68731" lon="2.45878">
        <ele>89</ele>
        <time>2018-01-31T11:18:30Z</time>
      </trkpt>
      <trkpt lat="48.68725" lon="2.45881">
        <ele>89</ele>
        <time>2018-01-31T11:18:30Z</time>
      </trkpt>
      <trkpt lat="48.68722" lon="2.45882">
        <ele>89</ele>
        <time>2018-01-31T11:18:30Z</time>
      </trkpt>
      <trkpt lat="48.6872" lon="2.45882">
        <ele>89</ele>
        <time>2018-01-31T11:18:50Z</time>
      </trkpt>
      <trkpt lat="48.68714" lon="2.4588">
        <ele>89</ele>
        <time>2018-01-31T11:18:50Z</time>
      </trkpt>
      <trkpt lat="48.68712" lon="2.4588">
        <ele>89</ele>
        <time>2018-01-31T11:18:50Z</time>
      </trkpt>
      <trkpt lat="48.68712" lon="2.45882">
        <ele>89</ele>
        <time>2018-01-31T11:18:50Z</time>
      </trkpt>
      <trkpt lat="48.68709" lon="2.45885">
        <ele>89</ele>
        <time>2018-01-31T11:18:50Z</time>
      </trkpt>
      <trkpt lat="48.68705" lon="2.45889">
        <ele>89</ele>
        <time>2018-01-31T11:19:06Z</time>
      </trkpt>
      <trkpt lat="48.68701" lon="2.45895">
        <ele>89</ele>
        <time>2018-01-31T11:19:06Z</time>
      </trkpt>
      <trkpt lat="48.68697" lon="2.459">
        <ele>89</ele>
        <time>2018-01-31T11:19:06Z</time>
      </trkpt>
      <trkpt lat="48.68693" lon="2.45907">
        <ele>89</ele>
        <time>2018-01-31T11:19:06Z</time>
      </trkpt>
      <trkpt lat="48.68689" lon="2.45911">
        <ele>89</ele>
        <time>2018-01-31T11:19:22Z</time>
      </trkpt>
      <trkpt lat="48.68688" lon="2.45912">
        <ele>89</ele>
        <time>2018-01-31T11:19:22Z</time>
      </trkpt>
      <trkpt lat="48.68684" lon="2.45916">
        <ele>89</ele>
        <time>2018-01-31T11:19:22Z</time>
      </trkpt>
      <trkpt lat="48.6868" lon="2.45919">
        <ele>89</ele>
        <time>2018-01-31T11:19:22Z</time>
      </trkpt>
      <trkpt lat="48.68676" lon="2.45923">
        <ele>89</ele>
        <time>2018-01-31T11:19:38Z</time>
      </trkpt>
      <trkpt lat="48.68669" lon="2.45927">
        <ele>89</ele>
        <time>2018-01-31T11:19:38Z</time>
      </trkpt>
      <trkpt lat="48.68664" lon="2.45931">
        <ele>89</ele>
        <time>2018-01-31T11:19:38Z</time>
      </trkpt>
      <trkpt lat="48.6866" lon="2.45934">
        <ele>89</ele>
        <time>2018-01-31T11:19:38Z</time>
      </trkpt>
      <trkpt lat="48.68655" lon="2.45935">
        <ele>89</ele>
        <time>2018-01-31T11:19:54Z</time>
      </trkpt>
      <trkpt lat="48.68648" lon="2.45941">
        <ele>89</ele>
        <time>2018-01-31T11:19:54Z</time>
      </trkpt>
      <trkpt lat="48.68644" lon="2.45941">
        <ele>89</ele>
        <time>2018-01-31T11:19:54Z</time>
      </trkpt>
      <trkpt lat="48.68641" lon="2.45942">
        <ele>89</ele>
        <time>2018-01-31T11:19:54Z</time>
      </trkpt>
      <trkpt lat="48.68637" lon="2.45946">
        <ele>89</ele>
        <time>2018-01-31T11:20:10Z</time>
      </trkpt>
      <trkpt lat="48.68631" lon="2.45949">
        <ele>89</ele>
        <time>2018-01-31T11:20:10Z</time>
      </trkpt>
      <trkpt lat="48.68627" lon="2.45949">
        <ele>89</ele>
        <time>2018-01-31T11:20:10Z</time>
      </trkpt>
      <trkpt lat="48.68623" lon="2.4595">
        <ele>86</ele>
        <time>2018-01-31T11:20:10Z</time>
      </trkpt>
      <trkpt lat="48.68619" lon="2.4595">
        <ele>86</ele>
        <time>2018-01-31T11:20:26Z</time>
      </trkpt>
      <trkpt lat="48.68615" lon="2.45951">
        <ele>86</ele>
        <time>2018-01-31T11:20:26Z</time>
      </trkpt>
      <trkpt lat="48.68611" lon="2.45951">
        <ele>86</ele>
        <time>2018-01-31T11:20:26Z</time>
      </trkpt>
      <trkpt lat="48.68605" lon="2.45952">
        <ele>86</ele>
        <time>2018-01-31T11:20:26Z</time>
      </trkpt>
      <trkpt lat="48.68602" lon="2.45953">
        <ele>86</ele>
        <time>2018-01-31T11:20:42Z</time>
      </trkpt>
      <trkpt lat="48.68598" lon="2.45952">
        <ele>86</ele>
        <time>2018-01-31T11:20:42Z</time>
      </trkpt>
      <trkpt lat="48.68593" lon="2.45951">
        <ele>86</ele>
        <time>2018-01-31T11:20:42Z</time>
      </trkpt>
      <trkpt lat="48.68587" lon="2.45951">
        <ele>86</ele>
        <time>2018-01-31T11:20:42Z</time>
      </trkpt>
      <trkpt lat="48.68579" lon="2.45948">
        <ele>86</ele>
        <time>2018-01-31T11:21:06Z</time>
      </trkpt>
      <trkpt lat="48.68577" lon="2.45948">
        <ele>86</ele>
        <time>2018-01-31T11:21:06Z</time>
      </trkpt>
      <trkpt lat="48.68574" lon="2.45945">
        <ele>86</ele>
        <time>2018-01-31T11:21:06Z</time>
      </trkpt>
      <trkpt lat="48.68574" lon="2.45944">
        <ele>86</ele>
        <time>2018-01-31T11:21:06Z</time>
      </trkpt>
      <trkpt lat="48.68573" lon="2.45945">
        <ele>86</ele>
        <time>2018-01-31T11:21:06Z</time>
      </trkpt>
      <trkpt lat="48.68572" lon="2.45946">
        <ele>86</ele>
        <time>2018-01-31T11:21:22Z</time>
      </trkpt>
      <trkpt lat="48.68569" lon="2.45949">
        <ele>86</ele>
        <time>2018-01-31T11:21:22Z</time>
      </trkpt>
      <trkpt lat="48.68565" lon="2.45953">
        <ele>86</ele>
        <time>2018-01-31T11:21:22Z</time>
      </trkpt>
      <trkpt lat="48.6856" lon="2.45955">
        <ele>86</ele>
        <time>2018-01-31T11:21:22Z</time>
      </trkpt>
      <trkpt lat="48.68553" lon="2.45956">
        <ele>86</ele>
        <time>2018-01-31T11:21:38Z</time>
      </trkpt>
      <trkpt lat="48.68542" lon="2.45956">
        <ele>86</ele>
        <time>2018-01-31T11:21:38Z</time>
      </trkpt>
      <trkpt lat="48.68535" lon="2.45957">
        <ele>84</ele>
        <time>2018-01-31T11:21:38Z</time>
      </trkpt>
      <trkpt lat="48.68528" lon="2.45956">
        <ele>84</ele>
        <time>2018-01-31T11:21:38Z</time>
      </trkpt>
      <trkpt lat="48.68523" lon="2.45956">
        <ele>84</ele>
        <time>2018-01-31T11:21:54Z</time>
      </trkpt>
      <trkpt lat="48.68517" lon="2.45956">
        <ele>84</ele>
        <time>2018-01-31T11:21:54Z</time>
      </trkpt>
      <trkpt lat="48.68511" lon="2.45955">
        <ele>84</ele>
        <time>2018-01-31T11:21:54Z</time>
      </trkpt>
      <trkpt lat="48.68505" lon="2.45958">
        <ele>84</ele>
        <time>2018-01-31T11:21:54Z</time>
      </trkpt>
      <trkpt lat="48.68502" lon="2.45959">
        <ele>86</ele>
        <time>2018-01-31T11:22:10Z</time>
      </trkpt>
      <trkpt lat="48.68495" lon="2.45959">
        <ele>86</ele>
        <time>2018-01-31T11:22:10Z</time>
      </trkpt>
      <trkpt lat="48.68491" lon="2.45959">
        <ele>86</ele>
        <time>2018-01-31T11:22:10Z</time>
      </trkpt>
      <trkpt lat="48.68488" lon="2.45958">
        <ele>84</ele>
        <time>2018-01-31T11:22:10Z</time>
      </trkpt>
      <trkpt lat="48.68482" lon="2.45958">
        <ele>84</ele>
        <time>2018-01-31T11:22:26Z</time>
      </trkpt>
      <trkpt lat="48.68477" lon="2.45954">
        <ele>84</ele>
        <time>2018-01-31T11:22:26Z</time>
      </trkpt>
      <trkpt lat="48.68474" lon="2.45954">
        <ele>84</ele>
        <time>2018-01-31T11:22:26Z</time>
      </trkpt>
      <trkpt lat="48.6847" lon="2.45955">
        <ele>84</ele>
        <time>2018-01-31T11:22:26Z</time>
      </trkpt>
      <trkpt lat="48.68465" lon="2.45955">
        <ele>84</ele>
        <time>2018-01-31T11:22:42Z</time>
      </trkpt>
      <trkpt lat="48.68456" lon="2.45954">
        <ele>87</ele>
        <time>2018-01-31T11:22:42Z</time>
      </trkpt>
      <trkpt lat="48.68452" lon="2.45955">
        <ele>87</ele>
        <time>2018-01-31T11:22:42Z</time>
      </trkpt>
      <trkpt lat="48.68448" lon="2.45954">
        <ele>87</ele>
        <time>2018-01-31T11:22:42Z</time>
      </trkpt>
      <trkpt lat="48.68442" lon="2.45952">
        <ele>87</ele>
        <time>2018-01-31T11:22:58Z</time>
      </trkpt>
      <trkpt lat="48.68438" lon="2.45946">
        <ele>87</ele>
        <time>2018-01-31T11:22:58Z</time>
      </trkpt>
      <trkpt lat="48.68432" lon="2.45942">
        <ele>87</ele>
        <time>2018-01-31T11:22:58Z</time>
      </trkpt>
      <trkpt lat="48.68428" lon="2.45942">
        <ele>87</ele>
        <time>2018-01-31T11:22:58Z</time>
      </trkpt>
      <trkpt lat="48.68424" lon="2.45942">
        <ele>87</ele>
        <time>2018-01-31T11:23:14Z</time>
      </trkpt>
      <trkpt lat="48.68419" lon="2.4594">
        <ele>87</ele>
        <time>2018-01-31T11:23:14Z</time>
      </trkpt>
      <trkpt lat="48.68418" lon="2.45942">
        <ele>87</ele>
        <time>2018-01-31T11:23:14Z</time>
      </trkpt>
      <trkpt lat="48.6841" lon="2.4594">
        <ele>87</ele>
        <time>2018-01-31T11:23:14Z</time>
      </trkpt>
      <trkpt lat="48.68405" lon="2.45936">
        <ele>87</ele>
        <time>2018-01-31T11:23:34Z</time>
      </trkpt>
      <trkpt lat="48.68406" lon="2.45931">
        <ele>87</ele>
        <time>2018-01-31T11:23:34Z</time>
      </trkpt>
      <trkpt lat="48.684" lon="2.45927">
        <ele>87</ele>
        <time>2018-01-31T11:23:34Z</time>
      </trkpt>
      <trkpt lat="48.68399" lon="2.45928">
        <ele>87</ele>
        <time>2018-01-31T11:23:34Z</time>
      </trkpt>
      <trkpt lat="48.68397" lon="2.45928">
        <ele>87</ele>
        <time>2018-01-31T11:23:34Z</time>
      </trkpt>
      <trkpt lat="48.68391" lon="2.45927">
        <ele>87</ele>
        <time>2018-01-31T11:23:50Z</time>
      </trkpt>
      <trkpt lat="48.68383" lon="2.45926">
        <ele>87</ele>
        <time>2018-01-31T11:23:50Z</time>
      </trkpt>
      <trkpt lat="48.68375" lon="2.45928">
        <ele>87</ele>
        <time>2018-01-31T11:23:50Z</time>
      </trkpt>
      <trkpt lat="48.68367" lon="2.45927">
        <ele>91</ele>
        <time>2018-01-31T11:23:50Z</time>
      </trkpt>
      <trkpt lat="48.68359" lon="2.45924">
        <ele>91</ele>
        <time>2018-01-31T11:24:10Z</time>
      </trkpt>
      <trkpt lat="48.6836" lon="2.45925">
        <ele>91</ele>
        <time>2018-01-31T11:24:10Z</time>
      </trkpt>
      <trkpt lat="48.68356" lon="2.45926">
        <ele>91</ele>
        <time>2018-01-31T11:24:10Z</time>
      </trkpt>
      <trkpt lat="48.68354" lon="2.45926">
        <ele>91</ele>
        <time>2018-01-31T11:24:10Z</time>
      </trkpt>
      <trkpt lat="48.6835" lon="2.45926">
        <ele>91</ele>
        <time>2018-01-31T11:24:10Z</time>
      </trkpt>
      <trkpt lat="48.68346" lon="2.45925">
        <ele>91</ele>
        <time>2018-01-31T11:24:26Z</time>
      </trkpt>
      <trkpt lat="48.68343" lon="2.45928">
        <ele>91</ele>
        <time>2018-01-31T11:24:26Z</time>
      </trkpt>
      <trkpt lat="48.68339" lon="2.45929">
        <ele>91</ele>
        <time>2018-01-31T11:24:26Z</time>
      </trkpt>
      <trkpt lat="48.68335" lon="2.45932">
        <ele>91</ele>
        <time>2018-01-31T11:24:26Z</time>
      </trkpt>
      <trkpt lat="48.68331" lon="2.45938">
        <ele>91</ele>
        <time>2018-01-31T11:24:42Z</time>
      </trkpt>
      <trkpt lat="48.68327" lon="2.45942">
        <ele>91</ele>
        <time>2018-01-31T11:24:42Z</time>
      </trkpt>
      <trkpt lat="48.68323" lon="2.45947">
        <ele>91</ele>
        <time>2018-01-31T11:24:42Z</time>
      </trkpt>
      <trkpt lat="48.68319" lon="2.45952">
        <ele>91</ele>
        <time>2018-01-31T11:24:42Z</time>
      </trkpt>
      <trkpt lat="48.68315" lon="2.45955">
        <ele>91</ele>
        <time>2018-01-31T11:24:58Z</time>
      </trkpt>
      <trkpt lat="48.68307" lon="2.45957">
        <ele>91</ele>
        <time>2018-01-31T11:24:58Z</time>
      </trkpt>
      <trkpt lat="48.68301" lon="2.4596">
        <ele>92</ele>
        <time>2018-01-31T11:24:58Z</time>
      </trkpt>
      <trkpt lat="48.68297" lon="2.45961">
        <ele>92</ele>
        <time>2018-01-31T11:24:58Z</time>
      </trkpt>
      <trkpt lat="48.68291" lon="2.45963">
        <ele>90</ele>
        <time>2018-01-31T11:25:14Z</time>
      </trkpt>
      <trkpt lat="48.68286" lon="2.45965">
        <ele>90</ele>
        <time>2018-01-31T11:25:14Z</time>
      </trkpt>
      <trkpt lat="48.68283" lon="2.45963">
        <ele>90</ele>
        <time>2018-01-31T11:25:14Z</time>
      </trkpt>
      <trkpt lat="48.68278" lon="2.45963">
        <ele>90</ele>
        <time>2018-01-31T11:25:14Z</time>
      </trkpt>
      <trkpt lat="48.68273" lon="2.45961">
        <ele>90</ele>
        <time>2018-01-31T11:25:30Z</time>
      </trkpt>
      <trkpt lat="48.68268" lon="2.45962">
        <ele>90</ele>
        <time>2018-01-31T11:25:30Z</time>
      </trkpt>
      <trkpt lat="48.68261" lon="2.4596">
        <ele>90</ele>
        <time>2018-01-31T11:25:30Z</time>
      </trkpt>
      <trkpt lat="48.68256" lon="2.45957">
        <ele>90</ele>
        <time>2018-01-31T11:25:30Z</time>
      </trkpt>
      <trkpt lat="48.68252" lon="2.45957">
        <ele>90</ele>
        <time>2018-01-31T11:25:46Z</time>
      </trkpt>
      <trkpt lat="48.68248" lon="2.45954">
        <ele>90</ele>
        <time>2018-01-31T11:25:46Z</time>
      </trkpt>
      <trkpt lat="48.68243" lon="2.45952">
        <ele>90</ele>
        <time>2018-01-31T11:25:46Z</time>
      </trkpt>
      <trkpt lat="48.68237" lon="2.45949">
        <ele>90</ele>
        <time>2018-01-31T11:25:46Z</time>
      </trkpt>
      <trkpt lat="48.68234" lon="2.4595">
        <ele>90</ele>
        <time>2018-01-31T11:26:02Z</time>
      </trkpt>
      <trkpt lat="48.68226" lon="2.45947">
        <ele>90</ele>
        <time>2018-01-31T11:26:02Z</time>
      </trkpt>
      <trkpt lat="48.68219" lon="2.45946">
        <ele>90</ele>
        <time>2018-01-31T11:26:02Z</time>
      </trkpt>
      <trkpt lat="48.68215" lon="2.45945">
        <ele>90</ele>
        <time>2018-01-31T11:26:02Z</time>
      </trkpt>
      <trkpt lat="48.68213" lon="2.45945">
        <ele>90</ele>
        <time>2018-01-31T11:26:18Z</time>
      </trkpt>
      <trkpt lat="48.68208" lon="2.45945">
        <ele>89</ele>
        <time>2018-01-31T11:26:18Z</time>
      </trkpt>
      <trkpt lat="48.68202" lon="2.45944">
        <ele>89</ele>
        <time>2018-01-31T11:26:18Z</time>
      </trkpt>
      <trkpt lat="48.682" lon="2.45943">
        <ele>89</ele>
        <time>2018-01-31T11:26:18Z</time>
      </trkpt>
      <trkpt lat="48.68197" lon="2.45944">
        <ele>89</ele>
        <time>2018-01-31T11:26:34Z</time>
      </trkpt>
      <trkpt lat="48.68189" lon="2.45946">
        <ele>89</ele>
        <time>2018-01-31T11:26:34Z</time>
      </trkpt>
      <trkpt lat="48.68185" lon="2.45949">
        <ele>89</ele>
        <time>2018-01-31T11:26:34Z</time>
      </trkpt>
      <trkpt lat="48.6818" lon="2.45951">
        <ele>89</ele>
        <time>2018-01-31T11:26:34Z</time>
      </trkpt>
      <trkpt lat="48.68175" lon="2.45955">
        <ele>89</ele>
        <time>2018-01-31T11:26:50Z</time>
      </trkpt>
      <trkpt lat="48.68171" lon="2.45956">
        <ele>89</ele>
        <time>2018-01-31T11:26:50Z</time>
      </trkpt>
      <trkpt lat="48.68166" lon="2.45959">
        <ele>90</ele>
        <time>2018-01-31T11:26:50Z</time>
      </trkpt>
      <trkpt lat="48.68162" lon="2.45963">
        <ele>90</ele>
        <time>2018-01-31T11:26:50Z</time>
      </trkpt>
      <trkpt lat="48.68158" lon="2.45965">
        <ele>90</ele>
        <time>2018-01-31T11:27:06Z</time>
      </trkpt>
      <trkpt lat="48.68155" lon="2.45966">
        <ele>90</ele>
        <time>2018-01-31T11:27:06Z</time>
      </trkpt>
      <trkpt lat="48.68152" lon="2.45968">
        <ele>90</ele>
        <time>2018-01-31T11:27:06Z</time>
      </trkpt>
      <trkpt lat="48.68148" lon="2.45968">
        <ele>90</ele>
        <time>2018-01-31T11:27:06Z</time>
      </trkpt>
      <trkpt lat="48.68143" lon="2.4597">
        <ele>90</ele>
        <time>2018-01-31T11:27:23Z</time>
      </trkpt>
      <trkpt lat="48.68138" lon="2.45973">
        <ele>90</ele>
        <time>2018-01-31T11:27:23Z</time>
      </trkpt>
      <trkpt lat="48.68135" lon="2.45973">
        <ele>90</ele>
        <time>2018-01-31T11:27:23Z</time>
      </trkpt>
      <trkpt lat="48.68132" lon="2.45975">
        <ele>90</ele>
        <time>2018-01-31T11:27:23Z</time>
      </trkpt>
      <trkpt lat="48.68128" lon="2.45978">
        <ele>90</ele>
        <time>2018-01-31T11:27:38Z</time>
      </trkpt>
      <trkpt lat="48.68125" lon="2.45979">
        <ele>90</ele>
        <time>2018-01-31T11:27:38Z</time>
      </trkpt>
      <trkpt lat="48.68121" lon="2.45981">
        <ele>90</ele>
        <time>2018-01-31T11:27:38Z</time>
      </trkpt>
      <trkpt lat="48.68116" lon="2.45981">
        <ele>90</ele>
        <time>2018-01-31T11:27:38Z</time>
      </trkpt>
      <trkpt lat="48.6811" lon="2.45981">
        <ele>90</ele>
        <time>2018-01-31T11:27:54Z</time>
      </trkpt>
      <trkpt lat="48.68105" lon="2.4598">
        <ele>90</ele>
        <time>2018-01-31T11:27:54Z</time>
      </trkpt>
      <trkpt lat="48.68099" lon="2.45979">
        <ele>90</ele>
        <time>2018-01-31T11:27:54Z</time>
      </trkpt>
      <trkpt lat="48.68095" lon="2.45978">
        <ele>90</ele>
        <time>2018-01-31T11:27:54Z</time>
      </trkpt>
      <trkpt lat="48.6809" lon="2.45976">
        <ele>90</ele>
        <time>2018-01-31T11:28:10Z</time>
      </trkpt>
      <trkpt lat="48.68087" lon="2.45977">
        <ele>90</ele>
        <time>2018-01-31T11:28:10Z</time>
      </trkpt>
      <trkpt lat="48.68081" lon="2.45977">
        <ele>90</ele>
        <time>2018-01-31T11:28:10Z</time>
      </trkpt>
      <trkpt lat="48.68074" lon="2.45976">
        <ele>90</ele>
        <time>2018-01-31T11:28:10Z</time>
      </trkpt>
      <trkpt lat="48.68066" lon="2.45973">
        <ele>90</ele>
        <time>2018-01-31T11:28:26Z</time>
      </trkpt>
      <trkpt lat="48.68061" lon="2.4597">
        <ele>90</ele>
        <time>2018-01-31T11:28:26Z</time>
      </trkpt>
      <trkpt lat="48.68059" lon="2.45969">
        <ele>90</ele>
        <time>2018-01-31T11:28:26Z</time>
      </trkpt>
      <trkpt lat="48.68055" lon="2.45966">
        <ele>90</ele>
        <time>2018-01-31T11:28:26Z</time>
      </trkpt>
      <trkpt lat="48.68051" lon="2.45965">
        <ele>90</ele>
        <time>2018-01-31T11:28:42Z</time>
      </trkpt>
      <trkpt lat="48.68045" lon="2.45964">
        <ele>90</ele>
        <time>2018-01-31T11:28:42Z</time>
      </trkpt>
      <trkpt lat="48.68042" lon="2.45961">
        <ele>88</ele>
        <time>2018-01-31T11:28:42Z</time>
      </trkpt>
      <trkpt lat="48.68035" lon="2.45957">
        <ele>87</ele>
        <time>2018-01-31T11:28:42Z</time>
      </trkpt>
      <trkpt lat="48.6803" lon="2.45955">
        <ele>87</ele>
        <time>2018-01-31T11:28:58Z</time>
      </trkpt>
      <trkpt lat="48.68026" lon="2.45955">
        <ele>87</ele>
        <time>2018-01-31T11:28:58Z</time>
      </trkpt>
      <trkpt lat="48.68021" lon="2.45957">
        <ele>87</ele>
        <time>2018-01-31T11:28:58Z</time>
      </trkpt>
      <trkpt lat="48.68018" lon="2.45958">
        <ele>87</ele>
        <time>2018-01-31T11:28:58Z</time>
      </trkpt>
      <trkpt lat="48.68013" lon="2.45959">
        <ele>88</ele>
        <time>2018-01-31T11:29:14Z</time>
      </trkpt>
      <trkpt lat="48.68006" lon="2.45961">
        <ele>88</ele>
        <time>2018-01-31T11:29:14Z</time>
      </trkpt>
      <trkpt lat="48.68001" lon="2.45962">
        <ele>88</ele>
        <time>2018-01-31T11:29:14Z</time>
      </trkpt>
      <trkpt lat="48.67995" lon="2.45964">
        <ele>88</ele>
        <time>2018-01-31T11:29:14Z</time>
      </trkpt>
      <trkpt lat="48.67991" lon="2.45965">
        <ele>88</ele>
        <time>2018-01-31T11:29:30Z</time>
      </trkpt>
      <trkpt lat="48.67986" lon="2.45969">
        <ele>88</ele>
        <time>2018-01-31T11:29:30Z</time>
      </trkpt>
      <trkpt lat="48.67981" lon="2.45972">
        <ele>88</ele>
        <time>2018-01-31T11:29:30Z</time>
      </trkpt>
      <trkpt lat="48.67978" lon="2.45974">
        <ele>88</ele>
        <time>2018-01-31T11:29:30Z</time>
      </trkpt>
      <trkpt lat="48.67973" lon="2.45977">
        <ele>88</ele>
        <time>2018-01-31T11:29:46Z</time>
      </trkpt>
      <trkpt lat="48.67969" lon="2.45979">
        <ele>88</ele>
        <time>2018-01-31T11:29:46Z</time>
      </trkpt>
      <trkpt lat="48.67965" lon="2.45983">
        <ele>88</ele>
        <time>2018-01-31T11:29:46Z</time>
      </trkpt>
      <trkpt lat="48.67963" lon="2.45986">
        <ele>88</ele>
        <time>2018-01-31T11:29:46Z</time>
      </trkpt>
      <trkpt lat="48.67959" lon="2.45988">
        <ele>88</ele>
        <time>2018-01-31T11:30:02Z</time>
      </trkpt>
      <trkpt lat="48.67954" lon="2.45992">
        <ele>86</ele>
        <time>2018-01-31T11:30:02Z</time>
      </trkpt>
      <trkpt lat="48.67951" lon="2.45994">
        <ele>86</ele>
        <time>2018-01-31T11:30:02Z</time>
      </trkpt>
      <trkpt lat="48.67944" lon="2.45997">
        <ele>86</ele>
        <time>2018-01-31T11:30:02Z</time>
      </trkpt>
      <trkpt lat="48.67942" lon="2.45998">
        <ele>86</ele>
        <time>2018-01-31T11:30:18Z</time>
      </trkpt>
      <trkpt lat="48.67937" lon="2.46001">
        <ele>86</ele>
        <time>2018-01-31T11:30:18Z</time>
      </trkpt>
      <trkpt lat="48.6793" lon="2.46002">
        <ele>86</ele>
        <time>2018-01-31T11:30:18Z</time>
      </trkpt>
      <trkpt lat="48.67927" lon="2.46003">
        <ele>86</ele>
        <time>2018-01-31T11:30:18Z</time>
      </trkpt>
      <trkpt lat="48.67921" lon="2.46008">
        <ele>86</ele>
        <time>2018-01-31T11:30:34Z</time>
      </trkpt>
      <trkpt lat="48.67914" lon="2.46011">
        <ele>86</ele>
        <time>2018-01-31T11:30:34Z</time>
      </trkpt>
      <trkpt lat="48.6791" lon="2.46012">
        <ele>86</ele>
        <time>2018-01-31T11:30:34Z</time>
      </trkpt>
      <trkpt lat="48.67905" lon="2.46013">
        <ele>86</ele>
        <time>2018-01-31T11:30:34Z</time>
      </trkpt>
      <trkpt lat="48.67899" lon="2.46014">
        <ele>86</ele>
        <time>2018-01-31T11:30:50Z</time>
      </trkpt>
      <trkpt lat="48.67895" lon="2.46015">
        <ele>86</ele>
        <time>2018-01-31T11:30:50Z</time>
      </trkpt>
      <trkpt lat="48.6789" lon="2.46017">
        <ele>86</ele>
        <time>2018-01-31T11:30:50Z</time>
      </trkpt>
      <trkpt lat="48.67886" lon="2.46018">
        <ele>86</ele>
        <time>2018-01-31T11:30:50Z</time>
      </trkpt>
      <trkpt lat="48.67881" lon="2.46018">
        <ele>86</ele>
        <time>2018-01-31T11:31:06Z</time>
      </trkpt>
      <trkpt lat="48.67877" lon="2.46019">
        <ele>86</ele>
        <time>2018-01-31T11:31:06Z</time>
      </trkpt>
      <trkpt lat="48.67869" lon="2.46019">
        <ele>88</ele>
        <time>2018-01-31T11:31:06Z</time>
      </trkpt>
      <trkpt lat="48.67865" lon="2.46018">
        <ele>88</ele>
        <time>2018-01-31T11:31:06Z</time>
      </trkpt>
      <trkpt lat="48.67861" lon="2.46017">
        <ele>88</ele>
        <time>2018-01-31T11:31:22Z</time>
      </trkpt>
      <trkpt lat="48.67857" lon="2.46015">
        <ele>88</ele>
        <time>2018-01-31T11:31:22Z</time>
      </trkpt>
      <trkpt lat="48.67852" lon="2.46014">
        <ele>88</ele>
        <time>2018-01-31T11:31:22Z</time>
      </trkpt>
      <trkpt lat="48.67848" lon="2.46012">
        <ele>88</ele>
        <time>2018-01-31T11:31:22Z</time>
      </trkpt>
      <trkpt lat="48.67845" lon="2.46011">
        <ele>88</ele>
        <time>2018-01-31T11:31:38Z</time>
      </trkpt>
      <trkpt lat="48.67838" lon="2.46005">
        <ele>88</ele>
        <time>2018-01-31T11:31:38Z</time>
      </trkpt>
      <trkpt lat="48.67837" lon="2.46002">
        <ele>88</ele>
        <time>2018-01-31T11:31:38Z</time>
      </trkpt>
      <trkpt lat="48.67835" lon="2.46">
        <ele>88</ele>
        <time>2018-01-31T11:31:38Z</time>
      </trkpt>
      <trkpt lat="48.67831" lon="2.45995">
        <ele>88</ele>
        <time>2018-01-31T11:31:54Z</time>
      </trkpt>
      <trkpt lat="48.67826" lon="2.45988">
        <ele>88</ele>
        <time>2018-01-31T11:31:54Z</time>
      </trkpt>
      <trkpt lat="48.67823" lon="2.45983">
        <ele>88</ele>
        <time>2018-01-31T11:31:54Z</time>
      </trkpt>
      <trkpt lat="48.67821" lon="2.45978">
        <ele>88</ele>
        <time>2018-01-31T11:31:54Z</time>
      </trkpt>
      <trkpt lat="48.67816" lon="2.45971">
        <ele>88</ele>
        <time>2018-01-31T11:32:10Z</time>
      </trkpt>
      <trkpt lat="48.67812" lon="2.45966">
        <ele>88</ele>
        <time>2018-01-31T11:32:10Z</time>
      </trkpt>
      <trkpt lat="48.67811" lon="2.45962">
        <ele>88</ele>
        <time>2018-01-31T11:32:10Z</time>
      </trkpt>
      <trkpt lat="48.67808" lon="2.45956">
        <ele>86</ele>
        <time>2018-01-31T11:32:10Z</time>
      </trkpt>
      <trkpt lat="48.67805" lon="2.4595">
        <ele>86</ele>
        <time>2018-01-31T11:32:26Z</time>
      </trkpt>
      <trkpt lat="48.67801" lon="2.45945">
        <ele>86</ele>
        <time>2018-01-31T11:32:26Z</time>
      </trkpt>
      <trkpt lat="48.67799" lon="2.45942">
        <ele>86</ele>
        <time>2018-01-31T11:32:26Z</time>
      </trkpt>
      <trkpt lat="48.67794" lon="2.45935">
        <ele>86</ele>
        <time>2018-01-31T11:32:26Z</time>
      </trkpt>
      <trkpt lat="48.67791" lon="2.4593">
        <ele>88</ele>
        <time>2018-01-31T11:32:42Z</time>
      </trkpt>
      <trkpt lat="48.67788" lon="2.45924">
        <ele>88</ele>
        <time>2018-01-31T11:32:42Z</time>
      </trkpt>
      <trkpt lat="48.67785" lon="2.45921">
        <ele>88</ele>
        <time>2018-01-31T11:32:42Z</time>
      </trkpt>
      <trkpt lat="48.67783" lon="2.45916">
        <ele>88</ele>
        <time>2018-01-31T11:32:42Z</time>
      </trkpt>
      <trkpt lat="48.67779" lon="2.45909">
        <ele>88</ele>
        <time>2018-01-31T11:32:58Z</time>
      </trkpt>
      <trkpt lat="48.67777" lon="2.45904">
        <ele>88</ele>
        <time>2018-01-31T11:32:58Z</time>
      </trkpt>
      <trkpt lat="48.67774" lon="2.45899">
        <ele>88</ele>
        <time>2018-01-31T11:32:58Z</time>
      </trkpt>
      <trkpt lat="48.67773" lon="2.45896">
        <ele>88</ele>
        <time>2018-01-31T11:32:58Z</time>
      </trkpt>
      <trkpt lat="48.67769" lon="2.45892">
        <ele>88</ele>
        <time>2018-01-31T11:33:14Z</time>
      </trkpt>
      <trkpt lat="48.67766" lon="2.45887">
        <ele>88</ele>
        <time>2018-01-31T11:33:14Z</time>
      </trkpt>
      <trkpt lat="48.67764" lon="2.45881">
        <ele>88</ele>
        <time>2018-01-31T11:33:14Z</time>
      </trkpt>
      <trkpt lat="48.67763" lon="2.45872">
        <ele>88</ele>
        <time>2018-01-31T11:33:14Z</time>
      </trkpt>
      <trkpt lat="48.67761" lon="2.45867">
        <ele>88</ele>
        <time>2018-01-31T11:33:30Z</time>
      </trkpt>
      <trkpt lat="48.67759" lon="2.45859">
        <ele>88</ele>
        <time>2018-01-31T11:33:30Z</time>
      </trkpt>
      <trkpt lat="48.67756" lon="2.45853">
        <ele>88</ele>
        <time>2018-01-31T11:33:30Z</time>
      </trkpt>
      <trkpt lat="48.67755" lon="2.45846">
        <ele>88</ele>
        <time>2018-01-31T11:33:30Z</time>
      </trkpt>
      <trkpt lat="48.67753" lon="2.45835">
        <ele>88</ele>
        <time>2018-01-31T11:33:46Z</time>
      </trkpt>
      <trkpt lat="48.67754" lon="2.45824">
        <ele>88</ele>
        <time>2018-01-31T11:33:46Z</time>
      </trkpt>
      <trkpt lat="48.67755" lon="2.45814">
        <ele>88</ele>
        <time>2018-01-31T11:33:46Z</time>
      </trkpt>
      <trkpt lat="48.67756" lon="2.45807">
        <ele>88</ele>
        <time>2018-01-31T11:33:46Z</time>
      </trkpt>
      <trkpt lat="48.67757" lon="2.45796">
        <ele>88</ele>
        <time>2018-01-31T11:34:18Z</time>
      </trkpt>
      <trkpt lat="48.67758" lon="2.45796">
        <ele>88</ele>
        <time>2018-01-31T11:34:18Z</time>
      </trkpt>
      <trkpt lat="48.67761" lon="2.45795">
        <ele>88</ele>
        <time>2018-01-31T11:34:18Z</time>
      </trkpt>
      <trkpt lat="48.67764" lon="2.45792">
        <ele>88</ele>
        <time>2018-01-31T11:34:18Z</time>
      </trkpt>
      <trkpt lat="48.67768" lon="2.45786">
        <ele>87</ele>
        <time>2018-01-31T11:34:18Z</time>
      </trkpt>
      <trkpt lat="48.67773" lon="2.4578">
        <ele>87</ele>
        <time>2018-01-31T11:34:34Z</time>
      </trkpt>
      <trkpt lat="48.67781" lon="2.45775">
        <ele>87</ele>
        <time>2018-01-31T11:34:34Z</time>
      </trkpt>
      <trkpt lat="48.67786" lon="2.4577">
        <ele>87</ele>
        <time>2018-01-31T11:34:34Z</time>
      </trkpt>
      <trkpt lat="48.67791" lon="2.45765">
        <ele>87</ele>
        <time>2018-01-31T11:34:34Z</time>
      </trkpt>
      <trkpt lat="48.67795" lon="2.45761">
        <ele>89</ele>
        <time>2018-01-31T11:34:50Z</time>
      </trkpt>
      <trkpt lat="48.67799" lon="2.45756">
        <ele>89</ele>
        <time>2018-01-31T11:34:50Z</time>
      </trkpt>
      <trkpt lat="48.67803" lon="2.45751">
        <ele>89</ele>
        <time>2018-01-31T11:34:50Z</time>
      </trkpt>
      <trkpt lat="48.67806" lon="2.45747">
        <ele>89</ele>
        <time>2018-01-31T11:34:50Z</time>
      </trkpt>
      <trkpt lat="48.67809" lon="2.45744">
        <ele>89</ele>
        <time>2018-01-31T11:35:06Z</time>
      </trkpt>
      <trkpt lat="48.67812" lon="2.45742">
        <ele>89</ele>
        <time>2018-01-31T11:35:06Z</time>
      </trkpt>
      <trkpt lat="48.67817" lon="2.45738">
        <ele>89</ele>
        <time>2018-01-31T11:35:06Z</time>
      </trkpt>
      <trkpt lat="48.67821" lon="2.45734">
        <ele>89</ele>
        <time>2018-01-31T11:35:06Z</time>
      </trkpt>
      <trkpt lat="48.67826" lon="2.4573">
        <ele>89</ele>
        <time>2018-01-31T11:35:22Z</time>
      </trkpt>
      <trkpt lat="48.67829" lon="2.45726">
        <ele>89</ele>
        <time>2018-01-31T11:35:22Z</time>
      </trkpt>
      <trkpt lat="48.67833" lon="2.45722">
        <ele>89</ele>
        <time>2018-01-31T11:35:22Z</time>
      </trkpt>
      <trkpt lat="48.67837" lon="2.45719">
        <ele>89</ele>
        <time>2018-01-31T11:35:22Z</time>
      </trkpt>
      <trkpt lat="48.67841" lon="2.45714">
        <ele>89</ele>
        <time>2018-01-31T11:35:38Z</time>
      </trkpt>
      <trkpt lat="48.67845" lon="2.45709">
        <ele>89</ele>
        <time>2018-01-31T11:35:38Z</time>
      </trkpt>
      <trkpt lat="48.67848" lon="2.45704">
        <ele>88</ele>
        <time>2018-01-31T11:35:38Z</time>
      </trkpt>
      <trkpt lat="48.67852" lon="2.457">
        <ele>88</ele>
        <time>2018-01-31T11:35:38Z</time>
      </trkpt>
      <trkpt lat="48.67859" lon="2.45696">
        <ele>88</ele>
        <time>2018-01-31T11:35:54Z</time>
      </trkpt>
      <trkpt lat="48.67863" lon="2.45693">
        <ele>88</ele>
        <time>2018-01-31T11:35:54Z</time>
      </trkpt>
      <trkpt lat="48.67867" lon="2.4569">
        <ele>88</ele>
        <time>2018-01-31T11:35:54Z</time>
      </trkpt>
      <trkpt lat="48.67872" lon="2.45688">
        <ele>88</ele>
        <time>2018-01-31T11:35:54Z</time>
      </trkpt>
      <trkpt lat="48.67876" lon="2.45685">
        <ele>87</ele>
        <time>2018-01-31T11:36:10Z</time>
      </trkpt>
      <trkpt lat="48.67882" lon="2.4568">
        <ele>87</ele>
        <time>2018-01-31T11:36:10Z</time>
      </trkpt>
      <trkpt lat="48.67885" lon="2.45678">
        <ele>87</ele>
        <time>2018-01-31T11:36:10Z</time>
      </trkpt>
      <trkpt lat="48.67888" lon="2.45674">
        <ele>87</ele>
        <time>2018-01-31T11:36:10Z</time>
      </trkpt>
      <trkpt lat="48.67892" lon="2.45669">
        <ele>87</ele>
        <time>2018-01-31T11:36:26Z</time>
      </trkpt>
      <trkpt lat="48.67896" lon="2.45664">
        <ele>87</ele>
        <time>2018-01-31T11:36:26Z</time>
      </trkpt>
      <trkpt lat="48.67902" lon="2.45654">
        <ele>87</ele>
        <time>2018-01-31T11:36:26Z</time>
      </trkpt>
      <trkpt lat="48.67904" lon="2.4565">
        <ele>87</ele>
        <time>2018-01-31T11:36:26Z</time>
      </trkpt>
      <trkpt lat="48.67903" lon="2.45654">
        <ele>87</ele>
        <time>2018-01-31T11:36:42Z</time>
      </trkpt>
      <trkpt lat="48.6791" lon="2.45649">
        <ele>87</ele>
        <time>2018-01-31T11:36:42Z</time>
      </trkpt>
      <trkpt lat="48.67916" lon="2.45644">
        <ele>87</ele>
        <time>2018-01-31T11:36:42Z</time>
      </trkpt>
      <trkpt lat="48.67923" lon="2.45636">
        <ele>87</ele>
        <time>2018-01-31T11:36:42Z</time>
      </trkpt>
      <trkpt lat="48.67925" lon="2.45635">
        <ele>87</ele>
        <time>2018-01-31T11:36:58Z</time>
      </trkpt>
      <trkpt lat="48.67927" lon="2.45636">
        <ele>87</ele>
        <time>2018-01-31T11:36:58Z</time>
      </trkpt>
      <trkpt lat="48.67932" lon="2.45627">
        <ele>87</ele>
        <time>2018-01-31T11:36:58Z</time>
      </trkpt>
      <trkpt lat="48.67941" lon="2.45621">
        <ele>85</ele>
        <time>2018-01-31T11:36:58Z</time>
      </trkpt>
      <trkpt lat="48.67945" lon="2.45618">
        <ele>85</ele>
        <time>2018-01-31T11:37:14Z</time>
      </trkpt>
      <trkpt lat="48.67945" lon="2.45613">
        <ele>85</ele>
        <time>2018-01-31T11:37:14Z</time>
      </trkpt>
      <trkpt lat="48.67949" lon="2.45613">
        <ele>85</ele>
        <time>2018-01-31T11:37:14Z</time>
      </trkpt>
      <trkpt lat="48.67957" lon="2.4561">
        <ele>85</ele>
        <time>2018-01-31T11:37:14Z</time>
      </trkpt>
      <trkpt lat="48.67958" lon="2.45605">
        <ele>85</ele>
        <time>2018-01-31T11:37:30Z</time>
      </trkpt>
      <trkpt lat="48.67961" lon="2.456">
        <ele>86</ele>
        <time>2018-01-31T11:37:30Z</time>
      </trkpt>
      <trkpt lat="48.67964" lon="2.45601">
        <ele>86</ele>
        <time>2018-01-31T11:37:30Z</time>
      </trkpt>
      <trkpt lat="48.67968" lon="2.45596">
        <ele>86</ele>
        <time>2018-01-31T11:37:30Z</time>
      </trkpt>
      <trkpt lat="48.67971" lon="2.4559">
        <ele>86</ele>
        <time>2018-01-31T11:37:46Z</time>
      </trkpt>
      <trkpt lat="48.67974" lon="2.45583">
        <ele>86</ele>
        <time>2018-01-31T11:37:46Z</time>
      </trkpt>
      <trkpt lat="48.67979" lon="2.4558">
        <ele>86</ele>
        <time>2018-01-31T11:37:46Z</time>
      </trkpt>
      <trkpt lat="48.67983" lon="2.45576">
        <ele>86</ele>
        <time>2018-01-31T11:37:46Z</time>
      </trkpt>
      <trkpt lat="48.67985" lon="2.45569">
        <ele>86</ele>
        <time>2018-01-31T11:38:02Z</time>
      </trkpt>
      <trkpt lat="48.67987" lon="2.45564">
        <ele>86</ele>
        <time>2018-01-31T11:38:02Z</time>
      </trkpt>
      <trkpt lat="48.67989" lon="2.45558">
        <ele>86</ele>
        <time>2018-01-31T11:38:02Z</time>
      </trkpt>
      <trkpt lat="48.67994" lon="2.45554">
        <ele>86</ele>
        <time>2018-01-31T11:38:02Z</time>
      </trkpt>
      <trkpt lat="48.68001" lon="2.4555">
        <ele>86</ele>
        <time>2018-01-31T11:38:19Z</time>
      </trkpt>
      <trkpt lat="48.68006" lon="2.45548">
        <ele>86</ele>
        <time>2018-01-31T11:38:19Z</time>
      </trkpt>
      <trkpt lat="48.68009" lon="2.45546">
        <ele>86</ele>
        <time>2018-01-31T11:38:19Z</time>
      </trkpt>
      <trkpt lat="48.68011" lon="2.45544">
        <ele>86</ele>
        <time>2018-01-31T11:38:19Z</time>
      </trkpt>
      <trkpt lat="48.68014" lon="2.45541">
        <ele>87</ele>
        <time>2018-01-31T11:38:34Z</time>
      </trkpt>
      <trkpt lat="48.68023" lon="2.45538">
        <ele>87</ele>
        <time>2018-01-31T11:38:34Z</time>
      </trkpt>
      <trkpt lat="48.68028" lon="2.45533">
        <ele>87</ele>
        <time>2018-01-31T11:38:34Z</time>
      </trkpt>
      <trkpt lat="48.68031" lon="2.4553">
        <ele>87</ele>
        <time>2018-01-31T11:38:34Z</time>
      </trkpt>
      <trkpt lat="48.68036" lon="2.45526">
        <ele>87</ele>
        <time>2018-01-31T11:38:50Z</time>
      </trkpt>
      <trkpt lat="48.68042" lon="2.45523">
        <ele>87</ele>
        <time>2018-01-31T11:38:50Z</time>
      </trkpt>
      <trkpt lat="48.68048" lon="2.45519">
        <ele>85</ele>
        <time>2018-01-31T11:38:50Z</time>
      </trkpt>
      <trkpt lat="48.68053" lon="2.45516">
        <ele>85</ele>
        <time>2018-01-31T11:38:50Z</time>
      </trkpt>
      <trkpt lat="48.68057" lon="2.45512">
        <ele>85</ele>
        <time>2018-01-31T11:39:06Z</time>
      </trkpt>
      <trkpt lat="48.68063" lon="2.45505">
        <ele>85</ele>
        <time>2018-01-31T11:39:06Z</time>
      </trkpt>
      <trkpt lat="48.68069" lon="2.45499">
        <ele>85</ele>
        <time>2018-01-31T11:39:06Z</time>
      </trkpt>
      <trkpt lat="48.68073" lon="2.45496">
        <ele>85</ele>
        <time>2018-01-31T11:39:06Z</time>
      </trkpt>
      <trkpt lat="48.68076" lon="2.45493">
        <ele>85</ele>
        <time>2018-01-31T11:39:22Z</time>
      </trkpt>
      <trkpt lat="48.68079" lon="2.45489">
        <ele>85</ele>
        <time>2018-01-31T11:39:22Z</time>
      </trkpt>
      <trkpt lat="48.68083" lon="2.45485">
        <ele>85</ele>
        <time>2018-01-31T11:39:22Z</time>
      </trkpt>
      <trkpt lat="48.68086" lon="2.45481">
        <ele>85</ele>
        <time>2018-01-31T11:39:22Z</time>
      </trkpt>
      <trkpt lat="48.68088" lon="2.45478">
        <ele>85</ele>
        <time>2018-01-31T11:39:38Z</time>
      </trkpt>
      <trkpt lat="48.6809" lon="2.45475">
        <ele>85</ele>
        <time>2018-01-31T11:39:38Z</time>
      </trkpt>
      <trkpt lat="48.68092" lon="2.45473">
        <ele>85</ele>
        <time>2018-01-31T11:39:38Z</time>
      </trkpt>
      <trkpt lat="48.68097" lon="2.45468">
        <ele>85</ele>
        <time>2018-01-31T11:39:38Z</time>
      </trkpt>
      <trkpt lat="48.68101" lon="2.45464">
        <ele>85</ele>
        <time>2018-01-31T11:39:54Z</time>
      </trkpt>
      <trkpt lat="48.68105" lon="2.45459">
        <ele>85</ele>
        <time>2018-01-31T11:39:54Z</time>
      </trkpt>
      <trkpt lat="48.68109" lon="2.45455">
        <ele>86</ele>
        <time>2018-01-31T11:39:54Z</time>
      </trkpt>
      <trkpt lat="48.68114" lon="2.45449">
        <ele>86</ele>
        <time>2018-01-31T11:39:54Z</time>
      </trkpt>
      <trkpt lat="48.68118" lon="2.45445">
        <ele>86</ele>
        <time>2018-01-31T11:40:10Z</time>
      </trkpt>
      <trkpt lat="48.68121" lon="2.45442">
        <ele>86</ele>
        <time>2018-01-31T11:40:10Z</time>
      </trkpt>
      <trkpt lat="48.68124" lon="2.4544">
        <ele>86</ele>
        <time>2018-01-31T11:40:10Z</time>
      </trkpt>
      <trkpt lat="48.68129" lon="2.45436">
        <ele>85</ele>
        <time>2018-01-31T11:40:10Z</time>
      </trkpt>
      <trkpt lat="48.68133" lon="2.45434">
        <ele>85</ele>
        <time>2018-01-31T11:40:26Z</time>
      </trkpt>
      <trkpt lat="48.68138" lon="2.45431">
        <ele>85</ele>
        <time>2018-01-31T11:40:26Z</time>
      </trkpt>
      <trkpt lat="48.68142" lon="2.45428">
        <ele>85</ele>
        <time>2018-01-31T11:40:26Z</time>
      </trkpt>
      <trkpt lat="48.68148" lon="2.45423">
        <ele>85</ele>
        <time>2018-01-31T11:40:26Z</time>
      </trkpt>
      <trkpt lat="48.68155" lon="2.45417">
        <ele>85</ele>
        <time>2018-01-31T11:40:42Z</time>
      </trkpt>
      <trkpt lat="48.68158" lon="2.45412">
        <ele>85</ele>
        <time>2018-01-31T11:40:42Z</time>
      </trkpt>
      <trkpt lat="48.68161" lon="2.45407">
        <ele>85</ele>
        <time>2018-01-31T11:40:42Z</time>
      </trkpt>
      <trkpt lat="48.68165" lon="2.45402">
        <ele>85</ele>
        <time>2018-01-31T11:40:42Z</time>
      </trkpt>
      <trkpt lat="48.68168" lon="2.45398">
        <ele>85</ele>
        <time>2018-01-31T11:40:58Z</time>
      </trkpt>
      <trkpt lat="48.68173" lon="2.45393">
        <ele>85</ele>
        <time>2018-01-31T11:40:58Z</time>
      </trkpt>
      <trkpt lat="48.68179" lon="2.4539">
        <ele>85</ele>
        <time>2018-01-31T11:40:58Z</time>
      </trkpt>
      <trkpt lat="48.68182" lon="2.45388">
        <ele>85</ele>
        <time>2018-01-31T11:40:58Z</time>
      </trkpt>
      <trkpt lat="48.68186" lon="2.45385">
        <ele>85</ele>
        <time>2018-01-31T11:41:14Z</time>
      </trkpt>
      <trkpt lat="48.68191" lon="2.45382">
        <ele>85</ele>
        <time>2018-01-31T11:41:14Z</time>
      </trkpt>
      <trkpt lat="48.68196" lon="2.45379">
        <ele>85</ele>
        <time>2018-01-31T11:41:14Z</time>
      </trkpt>
      <trkpt lat="48.68201" lon="2.45374">
        <ele>83</ele>
        <time>2018-01-31T11:41:14Z</time>
      </trkpt>
      <trkpt lat="48.68204" lon="2.4537">
        <ele>83</ele>
        <time>2018-01-31T11:41:30Z</time>
      </trkpt>
      <trkpt lat="48.68208" lon="2.45366">
        <ele>83</ele>
        <time>2018-01-31T11:41:30Z</time>
      </trkpt>
      <trkpt lat="48.6821" lon="2.45364">
        <ele>84</ele>
        <time>2018-01-31T11:41:30Z</time>
      </trkpt>
      <trkpt lat="48.68212" lon="2.45361">
        <ele>84</ele>
        <time>2018-01-31T11:41:30Z</time>
      </trkpt>
      <trkpt lat="48.68212" lon="2.45352">
        <ele>84</ele>
        <time>2018-01-31T11:42:06Z</time>
      </trkpt>
      <trkpt lat="48.68212" lon="2.45352">
        <ele>84</ele>
        <time>2018-01-31T11:42:06Z</time>
      </trkpt>
      <trkpt lat="48.68212" lon="2.4535">
        <ele>84</ele>
        <time>2018-01-31T11:42:06Z</time>
      </trkpt>
      <trkpt lat="48.68212" lon="2.45348">
        <ele>84</ele>
        <time>2018-01-31T11:42:06Z</time>
      </trkpt>
      <trkpt lat="48.68216" lon="2.45337">
        <ele>84</ele>
        <time>2018-01-31T11:42:06Z</time>
      </trkpt>
      <trkpt lat="48.68218" lon="2.45328">
        <ele>84</ele>
        <time>2018-01-31T11:42:22Z</time>
      </trkpt>
      <trkpt lat="48.68216" lon="2.45321">
        <ele>84</ele>
        <time>2018-01-31T11:42:22Z</time>
      </trkpt>
      <trkpt lat="48.68214" lon="2.45315">
        <ele>84</ele>
        <time>2018-01-31T11:42:22Z</time>
      </trkpt>
      <trkpt lat="48.68213" lon="2.45307">
        <ele>84</ele>
        <time>2018-01-31T11:42:22Z</time>
      </trkpt>
      <trkpt lat="48.68211" lon="2.453">
        <ele>84</ele>
        <time>2018-01-31T11:42:38Z</time>
      </trkpt>
      <trkpt lat="48.6821" lon="2.45297">
        <ele>84</ele>
        <time>2018-01-31T11:42:38Z</time>
      </trkpt>
      <trkpt lat="48.68208" lon="2.45291">
        <ele>84</ele>
        <time>2018-01-31T11:42:38Z</time>
      </trkpt>
      <trkpt lat="48.68206" lon="2.45286">
        <ele>84</ele>
        <time>2018-01-31T11:42:38Z</time>
      </trkpt>
      <trkpt lat="48.68205" lon="2.45279">
        <ele>84</ele>
        <time>2018-01-31T11:42:54Z</time>
      </trkpt>
      <trkpt lat="48.68203" lon="2.45269">
        <ele>84</ele>
        <time>2018-01-31T11:42:54Z</time>
      </trkpt>
      <trkpt lat="48.68201" lon="2.45265">
        <ele>84</ele>
        <time>2018-01-31T11:42:54Z</time>
      </trkpt>
      <trkpt lat="48.68197" lon="2.45255">
        <ele>84</ele>
        <time>2018-01-31T11:42:54Z</time>
      </trkpt>
      <trkpt lat="48.68194" lon="2.45248">
        <ele>84</ele>
        <time>2018-01-31T11:43:10Z</time>
      </trkpt>
      <trkpt lat="48.68191" lon="2.45244">
        <ele>84</ele>
        <time>2018-01-31T11:43:10Z</time>
      </trkpt>
      <trkpt lat="48.68188" lon="2.45235">
        <ele>84</ele>
        <time>2018-01-31T11:43:10Z</time>
      </trkpt>
      <trkpt lat="48.68185" lon="2.45227">
        <ele>84</ele>
        <time>2018-01-31T11:43:10Z</time>
      </trkpt>
      <trkpt lat="48.68182" lon="2.45219">
        <ele>84</ele>
        <time>2018-01-31T11:43:26Z</time>
      </trkpt>
      <trkpt lat="48.68179" lon="2.4521">
        <ele>84</ele>
        <time>2018-01-31T11:43:26Z</time>
      </trkpt>
      <trkpt lat="48.68176" lon="2.45203">
        <ele>84</ele>
        <time>2018-01-31T11:43:26Z</time>
      </trkpt>
      <trkpt lat="48.68173" lon="2.45198">
        <ele>84</ele>
        <time>2018-01-31T11:43:26Z</time>
      </trkpt>
      <trkpt lat="48.6817" lon="2.45193">
        <ele>84</ele>
        <time>2018-01-31T11:43:42Z</time>
      </trkpt>
      <trkpt lat="48.68166" lon="2.45184">
        <ele>84</ele>
        <time>2018-01-31T11:43:42Z</time>
      </trkpt>
      <trkpt lat="48.68163" lon="2.45178">
        <ele>84</ele>
        <time>2018-01-31T11:43:42Z</time>
      </trkpt>
      <trkpt lat="48.68159" lon="2.4517">
        <ele>84</ele>
        <time>2018-01-31T11:43:42Z</time>
      </trkpt>
      <trkpt lat="48.68157" lon="2.45165">
        <ele>84</ele>
        <time>2018-01-31T11:43:58Z</time>
      </trkpt>
      <trkpt lat="48.68155" lon="2.4516">
        <ele>84</ele>
        <time>2018-01-31T11:43:58Z</time>
      </trkpt>
      <trkpt lat="48.68153" lon="2.45156">
        <ele>84</ele>
        <time>2018-01-31T11:43:58Z</time>
      </trkpt>
      <trkpt lat="48.68151" lon="2.4515">
        <ele>84</ele>
        <time>2018-01-31T11:43:58Z</time>
      </trkpt>
      <trkpt lat="48.68149" lon="2.45145">
        <ele>84</ele>
        <time>2018-01-31T11:44:14Z</time>
      </trkpt>
      <trkpt lat="48.68147" lon="2.45138">
        <ele>84</ele>
        <time>2018-01-31T11:44:14Z</time>
      </trkpt>
      <trkpt lat="48.68145" lon="2.45132">
        <ele>84</ele>
        <time>2018-01-31T11:44:14Z</time>
      </trkpt>
      <trkpt lat="48.68142" lon="2.45126">
        <ele>84</ele>
        <time>2018-01-31T11:44:14Z</time>
      </trkpt>
      <trkpt lat="48.6814" lon="2.4512">
        <ele>84</ele>
        <time>2018-01-31T11:44:30Z</time>
      </trkpt>
      <trkpt lat="48.68137" lon="2.45111">
        <ele>84</ele>
        <time>2018-01-31T11:44:30Z</time>
      </trkpt>
      <trkpt lat="48.68134" lon="2.45103">
        <ele>84</ele>
        <time>2018-01-31T11:44:30Z</time>
      </trkpt>
      <trkpt lat="48.68132" lon="2.45096">
        <ele>84</ele>
        <time>2018-01-31T11:44:30Z</time>
      </trkpt>
      <trkpt lat="48.68129" lon="2.4509">
        <ele>84</ele>
        <time>2018-01-31T11:44:46Z</time>
      </trkpt>
      <trkpt lat="48.68127" lon="2.45084">
        <ele>84</ele>
        <time>2018-01-31T11:44:46Z</time>
      </trkpt>
      <trkpt lat="48.68125" lon="2.45078">
        <ele>84</ele>
        <time>2018-01-31T11:44:46Z</time>
      </trkpt>
      <trkpt lat="48.68124" lon="2.45072">
        <ele>86</ele>
        <time>2018-01-31T11:44:46Z</time>
      </trkpt>
      <trkpt lat="48.68123" lon="2.45066">
        <ele>86</ele>
        <time>2018-01-31T11:45:02Z</time>
      </trkpt>
      <trkpt lat="48.68121" lon="2.4506">
        <ele>86</ele>
        <time>2018-01-31T11:45:02Z</time>
      </trkpt>
      <trkpt lat="48.68118" lon="2.45052">
        <ele>86</ele>
        <time>2018-01-31T11:45:02Z</time>
      </trkpt>
      <trkpt lat="48.68116" lon="2.45045">
        <ele>86</ele>
        <time>2018-01-31T11:45:02Z</time>
      </trkpt>
      <trkpt lat="48.68114" lon="2.45039">
        <ele>86</ele>
        <time>2018-01-31T11:45:18Z</time>
      </trkpt>
      <trkpt lat="48.68111" lon="2.4503">
        <ele>86</ele>
        <time>2018-01-31T11:45:18Z</time>
      </trkpt>
      <trkpt lat="48.68109" lon="2.45024">
        <ele>86</ele>
        <time>2018-01-31T11:45:18Z</time>
      </trkpt>
      <trkpt lat="48.68106" lon="2.45017">
        <ele>86</ele>
        <time>2018-01-31T11:45:18Z</time>
      </trkpt>
      <trkpt lat="48.68104" lon="2.4501">
        <ele>86</ele>
        <time>2018-01-31T11:45:34Z</time>
      </trkpt>
      <trkpt lat="48.68101" lon="2.45004">
        <ele>86</ele>
        <time>2018-01-31T11:45:34Z</time>
      </trkpt>
      <trkpt lat="48.68098" lon="2.44996">
        <ele>86</ele>
        <time>2018-01-31T11:45:34Z</time>
      </trkpt>
      <trkpt lat="48.68097" lon="2.44991">
        <ele>86</ele>
        <time>2018-01-31T11:45:34Z</time>
      </trkpt>
      <trkpt lat="48.68094" lon="2.44984">
        <ele>86</ele>
        <time>2018-01-31T11:45:50Z</time>
      </trkpt>
      <trkpt lat="48.68092" lon="2.44977">
        <ele>86</ele>
        <time>2018-01-31T11:45:50Z</time>
      </trkpt>
      <trkpt lat="48.6809" lon="2.44971">
        <ele>86</ele>
        <time>2018-01-31T11:45:50Z</time>
      </trkpt>
      <trkpt lat="48.68087" lon="2.44965">
        <ele>86</ele>
        <time>2018-01-31T11:45:50Z</time>
      </trkpt>
      <trkpt lat="48.68086" lon="2.44958">
        <ele>87</ele>
        <time>2018-01-31T11:46:06Z</time>
      </trkpt>
      <trkpt lat="48.68083" lon="2.44952">
        <ele>87</ele>
        <time>2018-01-31T11:46:06Z</time>
      </trkpt>
      <trkpt lat="48.68081" lon="2.44947">
        <ele>87</ele>
        <time>2018-01-31T11:46:06Z</time>
      </trkpt>
      <trkpt lat="48.6808" lon="2.44942">
        <ele>87</ele>
        <time>2018-01-31T11:46:06Z</time>
      </trkpt>
      <trkpt lat="48.68079" lon="2.44935">
        <ele>87</ele>
        <time>2018-01-31T11:46:22Z</time>
      </trkpt>
      <trkpt lat="48.68077" lon="2.44927">
        <ele>87</ele>
        <time>2018-01-31T11:46:22Z</time>
      </trkpt>
      <trkpt lat="48.68076" lon="2.4492">
        <ele>87</ele>
        <time>2018-01-31T11:46:22Z</time>
      </trkpt>
      <trkpt lat="48.68074" lon="2.44911">
        <ele>87</ele>
        <time>2018-01-31T11:46:22Z</time>
      </trkpt>
      <trkpt lat="48.68073" lon="2.44906">
        <ele>87</ele>
        <time>2018-01-31T11:46:38Z</time>
      </trkpt>
      <trkpt lat="48.68071" lon="2.44902">
        <ele>87</ele>
        <time>2018-01-31T11:46:38Z</time>
      </trkpt>
      <trkpt lat="48.68068" lon="2.44896">
        <ele>87</ele>
        <time>2018-01-31T11:46:38Z</time>
      </trkpt>
      <trkpt lat="48.68066" lon="2.44889">
        <ele>87</ele>
        <time>2018-01-31T11:46:38Z</time>
      </trkpt>
      <trkpt lat="48.68062" lon="2.44883">
        <ele>87</ele>
        <time>2018-01-31T11:46:54Z</time>
      </trkpt>
      <trkpt lat="48.68059" lon="2.44876">
        <ele>87</ele>
        <time>2018-01-31T11:46:54Z</time>
      </trkpt>
      <trkpt lat="48.68056" lon="2.44866">
        <ele>88</ele>
        <time>2018-01-31T11:46:54Z</time>
      </trkpt>
      <trkpt lat="48.68054" lon="2.44859">
        <ele>88</ele>
        <time>2018-01-31T11:46:54Z</time>
      </trkpt>
      <trkpt lat="48.68052" lon="2.44855">
        <ele>88</ele>
        <time>2018-01-31T11:47:10Z</time>
      </trkpt>
      <trkpt lat="48.68051" lon="2.44849">
        <ele>88</ele>
        <time>2018-01-31T11:47:10Z</time>
      </trkpt>
      <trkpt lat="48.68048" lon="2.44844">
        <ele>88</ele>
        <time>2018-01-31T11:47:10Z</time>
      </trkpt>
      <trkpt lat="48.68046" lon="2.44838">
        <ele>88</ele>
        <time>2018-01-31T11:47:10Z</time>
      </trkpt>
      <trkpt lat="48.68043" lon="2.4483">
        <ele>88</ele>
        <time>2018-01-31T11:47:26Z</time>
      </trkpt>
      <trkpt lat="48.68041" lon="2.44824">
        <ele>88</ele>
        <time>2018-01-31T11:47:26Z</time>
      </trkpt>
      <trkpt lat="48.6804" lon="2.44819">
        <ele>88</ele>
        <time>2018-01-31T11:47:26Z</time>
      </trkpt>
      <trkpt lat="48.68036" lon="2.44811">
        <ele>88</ele>
        <time>2018-01-31T11:47:26Z</time>
      </trkpt>
      <trkpt lat="48.68032" lon="2.44805">
        <ele>88</ele>
        <time>2018-01-31T11:47:42Z</time>
      </trkpt>
      <trkpt lat="48.68029" lon="2.44798">
        <ele>88</ele>
        <time>2018-01-31T11:47:42Z</time>
      </trkpt>
      <trkpt lat="48.68026" lon="2.44789">
        <ele>87</ele>
        <time>2018-01-31T11:47:42Z</time>
      </trkpt>
      <trkpt lat="48.68026" lon="2.44782">
        <ele>87</ele>
        <time>2018-01-31T11:47:42Z</time>
      </trkpt>
      <trkpt lat="48.68025" lon="2.44773">
        <ele>87</ele>
        <time>2018-01-31T11:47:58Z</time>
      </trkpt>
      <trkpt lat="48.68024" lon="2.44771">
        <ele>87</ele>
        <time>2018-01-31T11:47:58Z</time>
      </trkpt>
      <trkpt lat="48.68021" lon="2.44765">
        <ele>87</ele>
        <time>2018-01-31T11:47:58Z</time>
      </trkpt>
      <trkpt lat="48.68019" lon="2.44757">
        <ele>87</ele>
        <time>2018-01-31T11:47:58Z</time>
      </trkpt>
      <trkpt lat="48.68016" lon="2.44753">
        <ele>87</ele>
        <time>2018-01-31T11:48:14Z</time>
      </trkpt>
      <trkpt lat="48.68012" lon="2.44746">
        <ele>87</ele>
        <time>2018-01-31T11:48:14Z</time>
      </trkpt>
      <trkpt lat="48.68008" lon="2.44742">
        <ele>87</ele>
        <time>2018-01-31T11:48:14Z</time>
      </trkpt>
      <trkpt lat="48.68002" lon="2.44741">
        <ele>87</ele>
        <time>2018-01-31T11:48:14Z</time>
      </trkpt>
      <trkpt lat="48.67995" lon="2.44746">
        <ele>87</ele>
        <time>2018-01-31T11:48:34Z</time>
      </trkpt>
      <trkpt lat="48.67992" lon="2.44751">
        <ele>87</ele>
        <time>2018-01-31T11:48:34Z</time>
      </trkpt>
      <trkpt lat="48.67992" lon="2.44752">
        <ele>87</ele>
        <time>2018-01-31T11:48:34Z</time>
      </trkpt>
      <trkpt lat="48.6799" lon="2.44755">
        <ele>87</ele>
        <time>2018-01-31T11:48:34Z</time>
      </trkpt>
      <trkpt lat="48.67989" lon="2.44757">
        <ele>87</ele>
        <time>2018-01-31T11:48:34Z</time>
      </trkpt>
      <trkpt lat="48.67987" lon="2.4476">
        <ele>87</ele>
        <time>2018-01-31T11:48:50Z</time>
      </trkpt>
      <trkpt lat="48.67981" lon="2.44764">
        <ele>87</ele>
        <time>2018-01-31T11:48:50Z</time>
      </trkpt>
      <trkpt lat="48.67975" lon="2.44768">
        <ele>87</ele>
        <time>2018-01-31T11:48:50Z</time>
      </trkpt>
      <trkpt lat="48.6797" lon="2.44771">
        <ele>87</ele>
        <time>2018-01-31T11:48:50Z</time>
      </trkpt>
      <trkpt lat="48.67966" lon="2.44773">
        <ele>87</ele>
        <time>2018-01-31T11:49:06Z</time>
      </trkpt>
      <trkpt lat="48.6796" lon="2.44777">
        <ele>87</ele>
        <time>2018-01-31T11:49:06Z</time>
      </trkpt>
      <trkpt lat="48.67954" lon="2.44781">
        <ele>84</ele>
        <time>2018-01-31T11:49:06Z</time>
      </trkpt>
      <trkpt lat="48.6795" lon="2.44785">
        <ele>84</ele>
        <time>2018-01-31T11:49:06Z</time>
      </trkpt>
      <trkpt lat="48.67945" lon="2.44789">
        <ele>84</ele>
        <time>2018-01-31T11:49:22Z</time>
      </trkpt>
      <trkpt lat="48.6794" lon="2.44791">
        <ele>84</ele>
        <time>2018-01-31T11:49:22Z</time>
      </trkpt>
      <trkpt lat="48.67936" lon="2.44794">
        <ele>84</ele>
        <time>2018-01-31T11:49:22Z</time>
      </trkpt>
      <trkpt lat="48.67932" lon="2.44796">
        <ele>84</ele>
        <time>2018-01-31T11:49:22Z</time>
      </trkpt>
      <trkpt lat="48.67927" lon="2.44802">
        <ele>84</ele>
        <time>2018-01-31T11:49:38Z</time>
      </trkpt>
      <trkpt lat="48.67923" lon="2.44806">
        <ele>84</ele>
        <time>2018-01-31T11:49:38Z</time>
      </trkpt>
      <trkpt lat="48.6792" lon="2.44808">
        <ele>84</ele>
        <time>2018-01-31T11:49:38Z</time>
      </trkpt>
      <trkpt lat="48.67915" lon="2.44811">
        <ele>84</ele>
        <time>2018-01-31T11:49:38Z</time>
      </trkpt>
      <trkpt lat="48.67911" lon="2.44814">
        <ele>84</ele>
        <time>2018-01-31T11:49:54Z</time>
      </trkpt>
      <trkpt lat="48.67906" lon="2.44819">
        <ele>84</ele>
        <time>2018-01-31T11:49:54Z</time>
      </trkpt>
      <trkpt lat="48.67901" lon="2.44824">
        <ele>84</ele>
        <time>2018-01-31T11:49:54Z</time>
      </trkpt>
      <trkpt lat="48.67895" lon="2.44829">
        <ele>84</ele>
        <time>2018-01-31T11:49:54Z</time>
      </trkpt>
      <trkpt lat="48.67891" lon="2.44834">
        <ele>84</ele>
        <time>2018-01-31T11:50:10Z</time>
      </trkpt>
      <trkpt lat="48.67888" lon="2.44838">
        <ele>84</ele>
        <time>2018-01-31T11:50:10Z</time>
      </trkpt>
      <trkpt lat="48.67885" lon="2.44842">
        <ele>84</ele>
        <time>2018-01-31T11:50:10Z</time>
      </trkpt>
      <trkpt lat="48.67883" lon="2.44844">
        <ele>84</ele>
        <time>2018-01-31T11:50:10Z</time>
      </trkpt>
      <trkpt lat="48.67881" lon="2.44849">
        <ele>84</ele>
        <time>2018-01-31T11:50:26Z</time>
      </trkpt>
      <trkpt lat="48.67875" lon="2.44854">
        <ele>82</ele>
        <time>2018-01-31T11:50:26Z</time>
      </trkpt>
      <trkpt lat="48.67869" lon="2.44858">
        <ele>82</ele>
        <time>2018-01-31T11:50:26Z</time>
      </trkpt>
      <trkpt lat="48.67864" lon="2.44862">
        <ele>82</ele>
        <time>2018-01-31T11:50:26Z</time>
      </trkpt>
      <trkpt lat="48.67862" lon="2.44867">
        <ele>82</ele>
        <time>2018-01-31T11:50:42Z</time>
      </trkpt>
      <trkpt lat="48.67859" lon="2.44872">
        <ele>82</ele>
        <time>2018-01-31T11:50:42Z</time>
      </trkpt>
      <trkpt lat="48.67855" lon="2.44878">
        <ele>82</ele>
        <time>2018-01-31T11:50:42Z</time>
      </trkpt>
      <trkpt lat="48.67851" lon="2.44882">
        <ele>82</ele>
        <time>2018-01-31T11:50:42Z</time>
      </trkpt>
      <trkpt lat="48.67847" lon="2.44885">
        <ele>82</ele>
        <time>2018-01-31T11:50:58Z</time>
      </trkpt>
      <trkpt lat="48.67842" lon="2.44887">
        <ele>82</ele>
        <time>2018-01-31T11:50:58Z</time>
      </trkpt>
      <trkpt lat="48.67837" lon="2.44889">
        <ele>82</ele>
        <time>2018-01-31T11:50:58Z</time>
      </trkpt>
      <trkpt lat="48.67833" lon="2.44894">
        <ele>82</ele>
        <time>2018-01-31T11:50:58Z</time>
      </trkpt>
      <trkpt lat="48.6783" lon="2.44898">
        <ele>82</ele>
        <time>2018-01-31T11:51:14Z</time>
      </trkpt>
      <trkpt lat="48.67825" lon="2.44901">
        <ele>82</ele>
        <time>2018-01-31T11:51:14Z</time>
      </trkpt>
      <trkpt lat="48.67821" lon="2.44904">
        <ele>82</ele>
        <time>2018-01-31T11:51:14Z</time>
      </trkpt>
      <trkpt lat="48.67817" lon="2.44906">
        <ele>82</ele>
        <time>2018-01-31T11:51:14Z</time>
      </trkpt>
      <trkpt lat="48.67811" lon="2.44911">
        <ele>82</ele>
        <time>2018-01-31T11:51:30Z</time>
      </trkpt>
      <trkpt lat="48.67808" lon="2.44915">
        <ele>82</ele>
        <time>2018-01-31T11:51:30Z</time>
      </trkpt>
      <trkpt lat="48.67804" lon="2.44918">
        <ele>82</ele>
        <time>2018-01-31T11:51:30Z</time>
      </trkpt>
      <trkpt lat="48.67799" lon="2.44923">
        <ele>82</ele>
        <time>2018-01-31T11:51:30Z</time>
      </trkpt>
      <trkpt lat="48.67795" lon="2.44927">
        <ele>82</ele>
        <time>2018-01-31T11:51:46Z</time>
      </trkpt>
      <trkpt lat="48.6779" lon="2.4493">
        <ele>83</ele>
        <time>2018-01-31T11:51:46Z</time>
      </trkpt>
      <trkpt lat="48.67787" lon="2.44935">
        <ele>83</ele>
        <time>2018-01-31T11:51:46Z</time>
      </trkpt>
      <trkpt lat="48.67782" lon="2.4494">
        <ele>83</ele>
        <time>2018-01-31T11:51:46Z</time>
      </trkpt>
      <trkpt lat="48.6778" lon="2.44941">
        <ele>83</ele>
        <time>2018-01-31T11:52:02Z</time>
      </trkpt>
      <trkpt lat="48.67774" lon="2.44946">
        <ele>83</ele>
        <time>2018-01-31T11:52:02Z</time>
      </trkpt>
      <trkpt lat="48.6777" lon="2.44951">
        <ele>83</ele>
        <time>2018-01-31T11:52:02Z</time>
      </trkpt>
      <trkpt lat="48.67766" lon="2.44956">
        <ele>83</ele>
        <time>2018-01-31T11:52:02Z</time>
      </trkpt>
      <trkpt lat="48.67763" lon="2.44961">
        <ele>83</ele>
        <time>2018-01-31T11:52:18Z</time>
      </trkpt>
      <trkpt lat="48.67756" lon="2.44965">
        <ele>83</ele>
        <time>2018-01-31T11:52:18Z</time>
      </trkpt>
      <trkpt lat="48.67753" lon="2.44966">
        <ele>83</ele>
        <time>2018-01-31T11:52:18Z</time>
      </trkpt>
      <trkpt lat="48.67749" lon="2.44971">
        <ele>83</ele>
        <time>2018-01-31T11:52:18Z</time>
      </trkpt>
      <trkpt lat="48.67744" lon="2.44976">
        <ele>83</ele>
        <time>2018-01-31T11:52:34Z</time>
      </trkpt>
      <trkpt lat="48.67742" lon="2.44983">
        <ele>83</ele>
        <time>2018-01-31T11:52:34Z</time>
      </trkpt>
      <trkpt lat="48.6774" lon="2.44988">
        <ele>83</ele>
        <time>2018-01-31T11:52:34Z</time>
      </trkpt>
      <trkpt lat="48.67736" lon="2.44995">
        <ele>83</ele>
        <time>2018-01-31T11:52:34Z</time>
      </trkpt>
      <trkpt lat="48.67731" lon="2.44999">
        <ele>83</ele>
        <time>2018-01-31T11:52:50Z</time>
      </trkpt>
      <trkpt lat="48.67726" lon="2.45001">
        <ele>83</ele>
        <time>2018-01-31T11:52:50Z</time>
      </trkpt>
      <trkpt lat="48.67723" lon="2.45006">
        <ele>83</ele>
        <time>2018-01-31T11:52:50Z</time>
      </trkpt>
      <trkpt lat="48.67722" lon="2.45009">
        <ele>83</ele>
        <time>2018-01-31T11:52:50Z</time>
      </trkpt>
      <trkpt lat="48.6772" lon="2.45015">
        <ele>83</ele>
        <time>2018-01-31T11:53:06Z</time>
      </trkpt>
      <trkpt lat="48.67716" lon="2.45021">
        <ele>83</ele>
        <time>2018-01-31T11:53:06Z</time>
      </trkpt>
      <trkpt lat="48.67712" lon="2.45027">
        <ele>83</ele>
        <time>2018-01-31T11:53:06Z</time>
      </trkpt>
      <trkpt lat="48.67707" lon="2.45032">
        <ele>83</ele>
        <time>2018-01-31T11:53:06Z</time>
      </trkpt>
      <trkpt lat="48.67702" lon="2.45036">
        <ele>83</ele>
        <time>2018-01-31T11:53:22Z</time>
      </trkpt>
      <trkpt lat="48.67696" lon="2.45042">
        <ele>83</ele>
        <time>2018-01-31T11:53:22Z</time>
      </trkpt>
      <trkpt lat="48.67692" lon="2.45045">
        <ele>83</ele>
        <time>2018-01-31T11:53:22Z</time>
      </trkpt>
      <trkpt lat="48.67689" lon="2.45049">
        <ele>83</ele>
        <time>2018-01-31T11:53:22Z</time>
      </trkpt>
      <trkpt lat="48.67686" lon="2.45052">
        <ele>83</ele>
        <time>2018-01-31T11:53:38Z</time>
      </trkpt>
      <trkpt lat="48.67682" lon="2.45059">
        <ele>83</ele>
        <time>2018-01-31T11:53:38Z</time>
      </trkpt>
      <trkpt lat="48.67676" lon="2.45063">
        <ele>83</ele>
        <time>2018-01-31T11:53:38Z</time>
      </trkpt>
      <trkpt lat="48.67673" lon="2.45068">
        <ele>83</ele>
        <time>2018-01-31T11:53:38Z</time>
      </trkpt>
      <trkpt lat="48.67669" lon="2.45071">
        <ele>83</ele>
        <time>2018-01-31T11:53:54Z</time>
      </trkpt>
      <trkpt lat="48.67662" lon="2.45076">
        <ele>83</ele>
        <time>2018-01-31T11:53:54Z</time>
      </trkpt>
      <trkpt lat="48.6766" lon="2.4508">
        <ele>83</ele>
        <time>2018-01-31T11:53:54Z</time>
      </trkpt>
      <trkpt lat="48.67657" lon="2.45081">
        <ele>83</ele>
        <time>2018-01-31T11:53:54Z</time>
      </trkpt>
      <trkpt lat="48.67653" lon="2.45085">
        <ele>83</ele>
        <time>2018-01-31T11:54:10Z</time>
      </trkpt>
      <trkpt lat="48.67648" lon="2.45088">
        <ele>83</ele>
        <time>2018-01-31T11:54:10Z</time>
      </trkpt>
      <trkpt lat="48.67644" lon="2.45092">
        <ele>83</ele>
        <time>2018-01-31T11:54:10Z</time>
      </trkpt>
      <trkpt lat="48.67639" lon="2.45094">
        <ele>83</ele>
        <time>2018-01-31T11:54:10Z</time>
      </trkpt>
      <trkpt lat="48.67633" lon="2.451">
        <ele>83</ele>
        <time>2018-01-31T11:54:26Z</time>
      </trkpt>
      <trkpt lat="48.67629" lon="2.45107">
        <ele>83</ele>
        <time>2018-01-31T11:54:26Z</time>
      </trkpt>
      <trkpt lat="48.67628" lon="2.45111">
        <ele>83</ele>
        <time>2018-01-31T11:54:26Z</time>
      </trkpt>
      <trkpt lat="48.67624" lon="2.45113">
        <ele>82</ele>
        <time>2018-01-31T11:54:26Z</time>
      </trkpt>
      <trkpt lat="48.67619" lon="2.45115">
        <ele>82</ele>
        <time>2018-01-31T11:54:42Z</time>
      </trkpt>
      <trkpt lat="48.67613" lon="2.45117">
        <ele>82</ele>
        <time>2018-01-31T11:54:42Z</time>
      </trkpt>
      <trkpt lat="48.67609" lon="2.45122">
        <ele>82</ele>
        <time>2018-01-31T11:54:42Z</time>
      </trkpt>
      <trkpt lat="48.67602" lon="2.45127">
        <ele>84</ele>
        <time>2018-01-31T11:54:42Z</time>
      </trkpt>
      <trkpt lat="48.67599" lon="2.45127">
        <ele>84</ele>
        <time>2018-01-31T11:54:58Z</time>
      </trkpt>
      <trkpt lat="48.67595" lon="2.45132">
        <ele>84</ele>
        <time>2018-01-31T11:54:58Z</time>
      </trkpt>
      <trkpt lat="48.67591" lon="2.45136">
        <ele>84</ele>
        <time>2018-01-31T11:54:58Z</time>
      </trkpt>
      <trkpt lat="48.67589" lon="2.4514">
        <ele>84</ele>
        <time>2018-01-31T11:54:58Z</time>
      </trkpt>
      <trkpt lat="48.67586" lon="2.45142">
        <ele>84</ele>
        <time>2018-01-31T11:55:14Z</time>
      </trkpt>
      <trkpt lat="48.67582" lon="2.45145">
        <ele>84</ele>
        <time>2018-01-31T11:55:14Z</time>
      </trkpt>
      <trkpt lat="48.67578" lon="2.45148">
        <ele>84</ele>
        <time>2018-01-31T11:55:14Z</time>
      </trkpt>
      <trkpt lat="48.67575" lon="2.45152">
        <ele>84</ele>
        <time>2018-01-31T11:55:14Z</time>
      </trkpt>
      <trkpt lat="48.67573" lon="2.45155">
        <ele>84</ele>
        <time>2018-01-31T11:55:30Z</time>
      </trkpt>
      <trkpt lat="48.6757" lon="2.45156">
        <ele>84</ele>
        <time>2018-01-31T11:55:30Z</time>
      </trkpt>
      <trkpt lat="48.67564" lon="2.45163">
        <ele>84</ele>
        <time>2018-01-31T11:55:30Z</time>
      </trkpt>
      <trkpt lat="48.67559" lon="2.45168">
        <ele>84</ele>
        <time>2018-01-31T11:55:30Z</time>
      </trkpt>
      <trkpt lat="48.67557" lon="2.45174">
        <ele>84</ele>
        <time>2018-01-31T11:56:14Z</time>
      </trkpt>
      <trkpt lat="48.67559" lon="2.45175">
        <ele>84</ele>
        <time>2018-01-31T11:56:14Z</time>
      </trkpt>
      <trkpt lat="48.67561" lon="2.45181">
        <ele>84</ele>
        <time>2018-01-31T11:56:14Z</time>
      </trkpt>
      <trkpt lat="48.67565" lon="2.45184">
        <ele>84</ele>
        <time>2018-01-31T11:56:14Z</time>
      </trkpt>
      <trkpt lat="48.67569" lon="2.45185">
        <ele>84</ele>
        <time>2018-01-31T11:56:14Z</time>
      </trkpt>
      <trkpt lat="48.67574" lon="2.45189">
        <ele>84</ele>
        <time>2018-01-31T11:56:30Z</time>
      </trkpt>
      <trkpt lat="48.67576" lon="2.45191">
        <ele>84</ele>
        <time>2018-01-31T11:56:30Z</time>
      </trkpt>
      <trkpt lat="48.6758" lon="2.45192">
        <ele>84</ele>
        <time>2018-01-31T11:56:30Z</time>
      </trkpt>
      <trkpt lat="48.67585" lon="2.45192">
        <ele>84</ele>
        <time>2018-01-31T11:56:30Z</time>
      </trkpt>
      <trkpt lat="48.67584" lon="2.45181">
        <ele>84</ele>
        <time>2018-01-31T11:59:30Z</time>
      </trkpt>
      <trkpt lat="48.67584" lon="2.45181">
        <ele>84</ele>
        <time>2018-01-31T11:59:30Z</time>
      </trkpt>
      <trkpt lat="48.67584" lon="2.45181">
        <ele>84</ele>
        <time>2018-01-31T11:59:30Z</time>
      </trkpt>
      <trkpt lat="48.67584" lon="2.45181">
        <ele>84</ele>
        <time>2018-01-31T11:59:30Z</time>
      </trkpt>
      <trkpt lat="48.67584" lon="2.4518">
        <ele>84</ele>
        <time>2018-01-31T11:59:30Z</time>
      </trkpt>
      <trkpt lat="48.6759" lon="2.45188">
        <ele>84</ele>
        <time>2018-01-31T12:01:26Z</time>
      </trkpt>
      <trkpt lat="48.6759" lon="2.45188">
        <ele>84</ele>
        <time>2018-01-31T12:01:26Z</time>
      </trkpt>
      <trkpt lat="48.6759" lon="2.45188">
        <ele>84</ele>
        <time>2018-01-31T12:01:26Z</time>
      </trkpt>
      <trkpt lat="48.6759" lon="2.45189">
        <ele>84</ele>
        <time>2018-01-31T12:01:26Z</time>
      </trkpt>
      <trkpt lat="48.67592" lon="2.45189">
        <ele>84</ele>
        <time>2018-01-31T12:01:26Z</time>
      </trkpt>
      <trkpt lat="48.67586" lon="2.45187">
        <ele>84</ele>
        <time>2018-01-31T12:02:50Z</time>
      </trkpt>
      <trkpt lat="48.67585" lon="2.45187">
        <ele>84</ele>
        <time>2018-01-31T12:02:50Z</time>
      </trkpt>
      <trkpt lat="48.67585" lon="2.45186">
        <ele>84</ele>
        <time>2018-01-31T12:02:50Z</time>
      </trkpt>
      <trkpt lat="48.67584" lon="2.45186">
        <ele>84</ele>
        <time>2018-01-31T12:02:50Z</time>
      </trkpt>
      <trkpt lat="48.67583" lon="2.45186">
        <ele>84</ele>
        <time>2018-01-31T12:02:50Z</time>
      </trkpt>
      <trkpt lat="48.67578" lon="2.45179">
        <ele>84</ele>
        <time>2018-01-31T12:07:02Z</time>
      </trkpt>
      <trkpt lat="48.67581" lon="2.45175">
        <ele>84</ele>
        <time>2018-01-31T12:07:02Z</time>
      </trkpt>
      <trkpt lat="48.67582" lon="2.45174">
        <ele>84</ele>
        <time>2018-01-31T12:07:02Z</time>
      </trkpt>
      <trkpt lat="48.67584" lon="2.45173">
        <ele>84</ele>
        <time>2018-01-31T12:07:02Z</time>
      </trkpt>
      <trkpt lat="48.67585" lon="2.45172">
        <ele>84</ele>
        <time>2018-01-31T12:07:02Z</time>
      </trkpt>
      <trkpt lat="48.67582" lon="2.45178">
        <ele>84</ele>
        <time>2018-01-31T12:09:58Z</time>
      </trkpt>
      <trkpt lat="48.67581" lon="2.45179">
        <ele>84</ele>
        <time>2018-01-31T12:09:58Z</time>
      </trkpt>
      <trkpt lat="48.6758" lon="2.4518">
        <ele>84</ele>
        <time>2018-01-31T12:09:58Z</time>
      </trkpt>
      <trkpt lat="48.67579" lon="2.45181">
        <ele>84</ele>
        <time>2018-01-31T12:09:58Z</time>
      </trkpt>
      <trkpt lat="48.67578" lon="2.45183">
        <ele>84</ele>
        <time>2018-01-31T12:09:58Z</time>
      </trkpt>
      <trkpt lat="48.67586" lon="2.45187">
        <ele>84</ele>
        <time>2018-01-31T12:21:02Z</time>
      </trkpt>
      <trkpt lat="48.67586" lon="2.45188">
        <ele>84</ele>
        <time>2018-01-31T12:21:02Z</time>
      </trkpt>
      <trkpt lat="48.67585" lon="2.45193">
        <ele>84</ele>
        <time>2018-01-31T12:21:02Z</time>
      </trkpt>
      <trkpt lat="48.67585" lon="2.45194">
        <ele>84</ele>
        <time>2018-01-31T12:21:02Z</time>
      </trkpt>
      <trkpt lat="48.67585" lon="2.45194">
        <ele>84</ele>
        <time>2018-01-31T12:21:02Z</time>
      </trkpt>
      <trkpt lat="48.67584" lon="2.45186">
        <ele>84</ele>
        <time>2018-01-31T12:27:10Z</time>
      </trkpt>
      <trkpt lat="48.67584" lon="2.45185">
        <ele>84</ele>
        <time>2018-01-31T12:27:10Z</time>
      </trkpt>
      <trkpt lat="48.67584" lon="2.45184">
        <ele>84</ele>
        <time>2018-01-31T12:27:10Z</time>
      </trkpt>
      <trkpt lat="48.67584" lon="2.45182">
        <ele>84</ele>
        <time>2018-01-31T12:27:10Z</time>
      </trkpt>
      <trkpt lat="48.67583" lon="2.4518">
        <ele>84</ele>
        <time>2018-01-31T12:27:10Z</time>
      </trkpt>
      <trkpt lat="48.67582" lon="2.45178">
        <ele>84</ele>
        <time>2018-01-31T12:27:26Z</time>
      </trkpt>
      <trkpt lat="48.67581" lon="2.45173">
        <ele>84</ele>
        <time>2018-01-31T12:27:26Z</time>
      </trkpt>
      <trkpt lat="48.67577" lon="2.45174">
        <ele>84</ele>
        <time>2018-01-31T12:27:26Z</time>
      </trkpt>
      <trkpt lat="48.67572" lon="2.45182">
        <ele>84</ele>
        <time>2018-01-31T12:27:26Z</time>
      </trkpt>
      <trkpt lat="48.67569" lon="2.45189">
        <ele>84</ele>
        <time>2018-01-31T12:27:42Z</time>
      </trkpt>
      <trkpt lat="48.67569" lon="2.45196">
        <ele>84</ele>
        <time>2018-01-31T12:27:42Z</time>
      </trkpt>
      <trkpt lat="48.67571" lon="2.45204">
        <ele>84</ele>
        <time>2018-01-31T12:27:42Z</time>
      </trkpt>
      <trkpt lat="48.67573" lon="2.45212">
        <ele>86</ele>
        <time>2018-01-31T12:27:42Z</time>
      </trkpt>
      <trkpt lat="48.67575" lon="2.4522">
        <ele>86</ele>
        <time>2018-01-31T12:27:58Z</time>
      </trkpt>
      <trkpt lat="48.67577" lon="2.45228">
        <ele>86</ele>
        <time>2018-01-31T12:27:58Z</time>
      </trkpt>
      <trkpt lat="48.67579" lon="2.45236">
        <ele>86</ele>
        <time>2018-01-31T12:27:58Z</time>
      </trkpt>
      <trkpt lat="48.67581" lon="2.45243">
        <ele>86</ele>
        <time>2018-01-31T12:27:58Z</time>
      </trkpt>
      <trkpt lat="48.67582" lon="2.45251">
        <ele>86</ele>
        <time>2018-01-31T12:28:14Z</time>
      </trkpt>
      <trkpt lat="48.67584" lon="2.45258">
        <ele>86</ele>
        <time>2018-01-31T12:28:14Z</time>
      </trkpt>
      <trkpt lat="48.67586" lon="2.45265">
        <ele>86</ele>
        <time>2018-01-31T12:28:14Z</time>
      </trkpt>
      <trkpt lat="48.67588" lon="2.45273">
        <ele>86</ele>
        <time>2018-01-31T12:28:14Z</time>
      </trkpt>
      <trkpt lat="48.6759" lon="2.4528">
        <ele>86</ele>
        <time>2018-01-31T12:28:30Z</time>
      </trkpt>
      <trkpt lat="48.67594" lon="2.4529">
        <ele>86</ele>
        <time>2018-01-31T12:28:30Z</time>
      </trkpt>
      <trkpt lat="48.67596" lon="2.45298">
        <ele>86</ele>
        <time>2018-01-31T12:28:30Z</time>
      </trkpt>
      <trkpt lat="48.67598" lon="2.45306">
        <ele>86</ele>
        <time>2018-01-31T12:28:30Z</time>
      </trkpt>
      <trkpt lat="48.676" lon="2.45313">
        <ele>86</ele>
        <time>2018-01-31T12:28:46Z</time>
      </trkpt>
      <trkpt lat="48.67602" lon="2.45319">
        <ele>86</ele>
        <time>2018-01-31T12:28:46Z</time>
      </trkpt>
      <trkpt lat="48.67604" lon="2.45325">
        <ele>86</ele>
        <time>2018-01-31T12:28:46Z</time>
      </trkpt>
      <trkpt lat="48.67605" lon="2.45327">
        <ele>86</ele>
        <time>2018-01-31T12:28:46Z</time>
      </trkpt>
      <trkpt lat="48.67605" lon="2.45327">
        <ele>86</ele>
        <time>2018-01-31T12:29:10Z</time>
      </trkpt>
      <trkpt lat="48.67605" lon="2.45327">
        <ele>86</ele>
        <time>2018-01-31T12:29:10Z</time>
      </trkpt>
      <trkpt lat="48.67605" lon="2.45327">
        <ele>86</ele>
        <time>2018-01-31T12:29:10Z</time>
      </trkpt>
      <trkpt lat="48.67607" lon="2.45333">
        <ele>86</ele>
        <time>2018-01-31T12:29:10Z</time>
      </trkpt>
      <trkpt lat="48.67609" lon="2.45342">
        <ele>86</ele>
        <time>2018-01-31T12:29:10Z</time>
      </trkpt>
      <trkpt lat="48.6761" lon="2.45349">
        <ele>86</ele>
        <time>2018-01-31T12:29:26Z</time>
      </trkpt>
      <trkpt lat="48.67612" lon="2.45357">
        <ele>86</ele>
        <time>2018-01-31T12:29:26Z</time>
      </trkpt>
      <trkpt lat="48.67614" lon="2.45366">
        <ele>86</ele>
        <time>2018-01-31T12:29:26Z</time>
      </trkpt>
      <trkpt lat="48.67616" lon="2.45374">
        <ele>86</ele>
        <time>2018-01-31T12:29:26Z</time>
      </trkpt>
      <trkpt lat="48.67619" lon="2.45382">
        <ele>87</ele>
        <time>2018-01-31T12:29:42Z</time>
      </trkpt>
      <trkpt lat="48.67623" lon="2.45391">
        <ele>87</ele>
        <time>2018-01-31T12:29:42Z</time>
      </trkpt>
      <trkpt lat="48.67626" lon="2.45396">
        <ele>88</ele>
        <time>2018-01-31T12:29:42Z</time>
      </trkpt>
      <trkpt lat="48.67629" lon="2.45408">
        <ele>88</ele>
        <time>2018-01-31T12:29:42Z</time>
      </trkpt>
      <trkpt lat="48.67632" lon="2.45416">
        <ele>88</ele>
        <time>2018-01-31T12:29:58Z</time>
      </trkpt>
      <trkpt lat="48.67634" lon="2.45424">
        <ele>88</ele>
        <time>2018-01-31T12:29:58Z</time>
      </trkpt>
      <trkpt lat="48.67636" lon="2.45432">
        <ele>88</ele>
        <time>2018-01-31T12:29:58Z</time>
      </trkpt>
      <trkpt lat="48.67639" lon="2.4544">
        <ele>88</ele>
        <time>2018-01-31T12:29:58Z</time>
      </trkpt>
      <trkpt lat="48.6764" lon="2.45448">
        <ele>88</ele>
        <time>2018-01-31T12:30:14Z</time>
      </trkpt>
      <trkpt lat="48.67642" lon="2.45458">
        <ele>88</ele>
        <time>2018-01-31T12:30:14Z</time>
      </trkpt>
      <trkpt lat="48.67643" lon="2.45465">
        <ele>88</ele>
        <time>2018-01-31T12:30:14Z</time>
      </trkpt>
      <trkpt lat="48.67644" lon="2.4547">
        <ele>88</ele>
        <time>2018-01-31T12:30:14Z</time>
      </trkpt>
      <trkpt lat="48.67645" lon="2.45475">
        <ele>88</ele>
        <time>2018-01-31T12:30:30Z</time>
      </trkpt>
      <trkpt lat="48.67648" lon="2.45484">
        <ele>88</ele>
        <time>2018-01-31T12:30:30Z</time>
      </trkpt>
      <trkpt lat="48.67651" lon="2.45494">
        <ele>88</ele>
        <time>2018-01-31T12:30:30Z</time>
      </trkpt>
      <trkpt lat="48.67653" lon="2.45503">
        <ele>88</ele>
        <time>2018-01-31T12:30:30Z</time>
      </trkpt>
      <trkpt lat="48.67655" lon="2.45511">
        <ele>88</ele>
        <time>2018-01-31T12:30:46Z</time>
      </trkpt>
      <trkpt lat="48.67657" lon="2.45521">
        <ele>88</ele>
        <time>2018-01-31T12:30:46Z</time>
      </trkpt>
      <trkpt lat="48.67659" lon="2.4553">
        <ele>88</ele>
        <time>2018-01-31T12:30:46Z</time>
      </trkpt>
      <trkpt lat="48.67661" lon="2.45539">
        <ele>88</ele>
        <time>2018-01-31T12:30:46Z</time>
      </trkpt>
      <trkpt lat="48.67663" lon="2.45547">
        <ele>86</ele>
        <time>2018-01-31T12:31:02Z</time>
      </trkpt>
      <trkpt lat="48.67664" lon="2.45553">
        <ele>86</ele>
        <time>2018-01-31T12:31:02Z</time>
      </trkpt>
      <trkpt lat="48.67667" lon="2.45558">
        <ele>86</ele>
        <time>2018-01-31T12:31:02Z</time>
      </trkpt>
      <trkpt lat="48.6767" lon="2.45565">
        <ele>86</ele>
        <time>2018-01-31T12:31:02Z</time>
      </trkpt>
      <trkpt lat="48.67673" lon="2.45574">
        <ele>86</ele>
        <time>2018-01-31T12:31:18Z</time>
      </trkpt>
      <trkpt lat="48.67675" lon="2.45581">
        <ele>86</ele>
        <time>2018-01-31T12:31:18Z</time>
      </trkpt>
      <trkpt lat="48.67678" lon="2.45587">
        <ele>86</ele>
        <time>2018-01-31T12:31:18Z</time>
      </trkpt>
      <trkpt lat="48.67679" lon="2.45592">
        <ele>86</ele>
        <time>2018-01-31T12:31:18Z</time>
      </trkpt>
      <trkpt lat="48.67682" lon="2.456">
        <ele>86</ele>
        <time>2018-01-31T12:31:34Z</time>
      </trkpt>
      <trkpt lat="48.67685" lon="2.45608">
        <ele>86</ele>
        <time>2018-01-31T12:31:34Z</time>
      </trkpt>
      <trkpt lat="48.67687" lon="2.45616">
        <ele>86</ele>
        <time>2018-01-31T12:31:34Z</time>
      </trkpt>
      <trkpt lat="48.6769" lon="2.45625">
        <ele>86</ele>
        <time>2018-01-31T12:31:34Z</time>
      </trkpt>
      <trkpt lat="48.67693" lon="2.45631">
        <ele>85</ele>
        <time>2018-01-31T12:31:50Z</time>
      </trkpt>
      <trkpt lat="48.67695" lon="2.45638">
        <ele>85</ele>
        <time>2018-01-31T12:31:50Z</time>
      </trkpt>
      <trkpt lat="48.67697" lon="2.45645">
        <ele>85</ele>
        <time>2018-01-31T12:31:50Z</time>
      </trkpt>
      <trkpt lat="48.67701" lon="2.45652">
        <ele>85</ele>
        <time>2018-01-31T12:31:50Z</time>
      </trkpt>
      <trkpt lat="48.67704" lon="2.45661">
        <ele>85</ele>
        <time>2018-01-31T12:32:06Z</time>
      </trkpt>
      <trkpt lat="48.67706" lon="2.45668">
        <ele>85</ele>
        <time>2018-01-31T12:32:06Z</time>
      </trkpt>
      <trkpt lat="48.67708" lon="2.45676">
        <ele>85</ele>
        <time>2018-01-31T12:32:06Z</time>
      </trkpt>
      <trkpt lat="48.6771" lon="2.45683">
        <ele>88</ele>
        <time>2018-01-31T12:32:06Z</time>
      </trkpt>
      <trkpt lat="48.67712" lon="2.4569">
        <ele>88</ele>
        <time>2018-01-31T12:32:22Z</time>
      </trkpt>
      <trkpt lat="48.67715" lon="2.45698">
        <ele>88</ele>
        <time>2018-01-31T12:32:22Z</time>
      </trkpt>
      <trkpt lat="48.67717" lon="2.45706">
        <ele>88</ele>
        <time>2018-01-31T12:32:22Z</time>
      </trkpt>
      <trkpt lat="48.67719" lon="2.45715">
        <ele>87</ele>
        <time>2018-01-31T12:32:22Z</time>
      </trkpt>
      <trkpt lat="48.67721" lon="2.45721">
        <ele>87</ele>
        <time>2018-01-31T12:32:38Z</time>
      </trkpt>
      <trkpt lat="48.67723" lon="2.45728">
        <ele>87</ele>
        <time>2018-01-31T12:32:38Z</time>
      </trkpt>
      <trkpt lat="48.67725" lon="2.45733">
        <ele>87</ele>
        <time>2018-01-31T12:32:38Z</time>
      </trkpt>
      <trkpt lat="48.67727" lon="2.45737">
        <ele>87</ele>
        <time>2018-01-31T12:32:38Z</time>
      </trkpt>
      <trkpt lat="48.6773" lon="2.45748">
        <ele>87</ele>
        <time>2018-01-31T12:32:54Z</time>
      </trkpt>
      <trkpt lat="48.67732" lon="2.45755">
        <ele>87</ele>
        <time>2018-01-31T12:32:54Z</time>
      </trkpt>
      <trkpt lat="48.67734" lon="2.45761">
        <ele>87</ele>
        <time>2018-01-31T12:32:54Z</time>
      </trkpt>
      <trkpt lat="48.67735" lon="2.45767">
        <ele>87</ele>
        <time>2018-01-31T12:32:54Z</time>
      </trkpt>
      <trkpt lat="48.67738" lon="2.45774">
        <ele>87</ele>
        <time>2018-01-31T12:33:10Z</time>
      </trkpt>
      <trkpt lat="48.6774" lon="2.4578">
        <ele>87</ele>
        <time>2018-01-31T12:33:10Z</time>
      </trkpt>
      <trkpt lat="48.67743" lon="2.45785">
        <ele>87</ele>
        <time>2018-01-31T12:33:10Z</time>
      </trkpt>
      <trkpt lat="48.67747" lon="2.45794">
        <ele>88</ele>
        <time>2018-01-31T12:33:10Z</time>
      </trkpt>
      <trkpt lat="48.67749" lon="2.45799">
        <ele>88</ele>
        <time>2018-01-31T12:33:26Z</time>
      </trkpt>
      <trkpt lat="48.67752" lon="2.45807">
        <ele>88</ele>
        <time>2018-01-31T12:33:26Z</time>
      </trkpt>
      <trkpt lat="48.67756" lon="2.45814">
        <ele>88</ele>
        <time>2018-01-31T12:33:26Z</time>
      </trkpt>
      <trkpt lat="48.67756" lon="2.45817">
        <ele>88</ele>
        <time>2018-01-31T12:33:26Z</time>
      </trkpt>
      <trkpt lat="48.67755" lon="2.45812">
        <ele>88</ele>
        <time>2018-01-31T12:34:18Z</time>
      </trkpt>
      <trkpt lat="48.67755" lon="2.45812">
        <ele>88</ele>
        <time>2018-01-31T12:34:18Z</time>
      </trkpt>
      <trkpt lat="48.67753" lon="2.45807">
        <ele>88</ele>
        <time>2018-01-31T12:34:18Z</time>
      </trkpt>
      <trkpt lat="48.67753" lon="2.45806">
        <ele>88</ele>
        <time>2018-01-31T12:34:18Z</time>
      </trkpt>
      <trkpt lat="48.67752" lon="2.45804">
        <ele>88</ele>
        <time>2018-01-31T12:34:18Z</time>
      </trkpt>
      <trkpt lat="48.67749" lon="2.45805">
        <ele>88</ele>
        <time>2018-01-31T12:34:38Z</time>
      </trkpt>
      <trkpt lat="48.67747" lon="2.45806">
        <ele>88</ele>
        <time>2018-01-31T12:34:38Z</time>
      </trkpt>
      <trkpt lat="48.67745" lon="2.45807">
        <ele>88</ele>
        <time>2018-01-31T12:34:38Z</time>
      </trkpt>
      <trkpt lat="48.67745" lon="2.45807">
        <ele>88</ele>
        <time>2018-01-31T12:34:38Z</time>
      </trkpt>
      <trkpt lat="48.67739" lon="2.45812">
        <ele>88</ele>
        <time>2018-01-31T12:34:38Z</time>
      </trkpt>
      <trkpt lat="48.67733" lon="2.45817">
        <ele>88</ele>
        <time>2018-01-31T12:34:54Z</time>
      </trkpt>
      <trkpt lat="48.67727" lon="2.45819">
        <ele>88</ele>
        <time>2018-01-31T12:34:54Z</time>
      </trkpt>
      <trkpt lat="48.67722" lon="2.45821">
        <ele>88</ele>
        <time>2018-01-31T12:34:54Z</time>
      </trkpt>
      <trkpt lat="48.67713" lon="2.45824">
        <ele>88</ele>
        <time>2018-01-31T12:34:54Z</time>
      </trkpt>
      <trkpt lat="48.67708" lon="2.45826">
        <ele>89</ele>
        <time>2018-01-31T12:35:10Z</time>
      </trkpt>
      <trkpt lat="48.677" lon="2.45833">
        <ele>89</ele>
        <time>2018-01-31T12:35:10Z</time>
      </trkpt>
      <trkpt lat="48.67691" lon="2.45839">
        <ele>89</ele>
        <time>2018-01-31T12:35:10Z</time>
      </trkpt>
      <trkpt lat="48.67685" lon="2.45844">
        <ele>89</ele>
        <time>2018-01-31T12:35:10Z</time>
      </trkpt>
      <trkpt lat="48.67682" lon="2.45847">
        <ele>89</ele>
        <time>2018-01-31T12:35:26Z</time>
      </trkpt>
      <trkpt lat="48.67678" lon="2.45851">
        <ele>89</ele>
        <time>2018-01-31T12:35:26Z</time>
      </trkpt>
      <trkpt lat="48.67673" lon="2.45855">
        <ele>89</ele>
        <time>2018-01-31T12:35:26Z</time>
      </trkpt>
      <trkpt lat="48.67665" lon="2.4586">
        <ele>89</ele>
        <time>2018-01-31T12:35:26Z</time>
      </trkpt>
      <trkpt lat="48.67662" lon="2.45863">
        <ele>89</ele>
        <time>2018-01-31T12:35:42Z</time>
      </trkpt>
      <trkpt lat="48.67657" lon="2.45866">
        <ele>89</ele>
        <time>2018-01-31T12:35:42Z</time>
      </trkpt>
      <trkpt lat="48.67652" lon="2.45871">
        <ele>89</ele>
        <time>2018-01-31T12:35:42Z</time>
      </trkpt>
      <trkpt lat="48.67648" lon="2.45875">
        <ele>89</ele>
        <time>2018-01-31T12:35:42Z</time>
      </trkpt>
      <trkpt lat="48.67643" lon="2.45881">
        <ele>90</ele>
        <time>2018-01-31T12:35:58Z</time>
      </trkpt>
      <trkpt lat="48.67639" lon="2.45883">
        <ele>90</ele>
        <time>2018-01-31T12:35:58Z</time>
      </trkpt>
      <trkpt lat="48.67635" lon="2.45886">
        <ele>90</ele>
        <time>2018-01-31T12:35:58Z</time>
      </trkpt>
      <trkpt lat="48.67631" lon="2.45886">
        <ele>90</ele>
        <time>2018-01-31T12:35:58Z</time>
      </trkpt>
      <trkpt lat="48.67627" lon="2.45889">
        <ele>90</ele>
        <time>2018-01-31T12:36:14Z</time>
      </trkpt>
      <trkpt lat="48.67623" lon="2.45893">
        <ele>87</ele>
        <time>2018-01-31T12:36:14Z</time>
      </trkpt>
      <trkpt lat="48.67617" lon="2.45899">
        <ele>87</ele>
        <time>2018-01-31T12:36:14Z</time>
      </trkpt>
      <trkpt lat="48.67614" lon="2.45904">
        <ele>87</ele>
        <time>2018-01-31T12:36:14Z</time>
      </trkpt>
      <trkpt lat="48.67611" lon="2.45908">
        <ele>87</ele>
        <time>2018-01-31T12:36:30Z</time>
      </trkpt>
      <trkpt lat="48.67605" lon="2.45913">
        <ele>87</ele>
        <time>2018-01-31T12:36:30Z</time>
      </trkpt>
      <trkpt lat="48.67601" lon="2.45916">
        <ele>87</ele>
        <time>2018-01-31T12:36:30Z</time>
      </trkpt>
      <trkpt lat="48.67597" lon="2.45921">
        <ele>87</ele>
        <time>2018-01-31T12:36:30Z</time>
      </trkpt>
      <trkpt lat="48.67594" lon="2.45924">
        <ele>87</ele>
        <time>2018-01-31T12:36:46Z</time>
      </trkpt>
      <trkpt lat="48.6759" lon="2.45929">
        <ele>87</ele>
        <time>2018-01-31T12:36:46Z</time>
      </trkpt>
      <trkpt lat="48.67587" lon="2.45933">
        <ele>87</ele>
        <time>2018-01-31T12:36:46Z</time>
      </trkpt>
      <trkpt lat="48.67584" lon="2.45936">
        <ele>87</ele>
        <time>2018-01-31T12:36:46Z</time>
      </trkpt>
      <trkpt lat="48.67581" lon="2.45939">
        <ele>87</ele>
        <time>2018-01-31T12:37:02Z</time>
      </trkpt>
      <trkpt lat="48.67578" lon="2.45941">
        <ele>87</ele>
        <time>2018-01-31T12:37:02Z</time>
      </trkpt>
      <trkpt lat="48.67574" lon="2.45942">
        <ele>87</ele>
        <time>2018-01-31T12:37:02Z</time>
      </trkpt>
      <trkpt lat="48.6757" lon="2.45946">
        <ele>87</ele>
        <time>2018-01-31T12:37:02Z</time>
      </trkpt>
      <trkpt lat="48.67567" lon="2.45947">
        <ele>87</ele>
        <time>2018-01-31T12:37:18Z</time>
      </trkpt>
      <trkpt lat="48.67563" lon="2.45952">
        <ele>87</ele>
        <time>2018-01-31T12:37:18Z</time>
      </trkpt>
      <trkpt lat="48.6756" lon="2.45955">
        <ele>87</ele>
        <time>2018-01-31T12:37:18Z</time>
      </trkpt>
      <trkpt lat="48.67557" lon="2.45963">
        <ele>88</ele>
        <time>2018-01-31T12:37:18Z</time>
      </trkpt>
      <trkpt lat="48.67553" lon="2.45971">
        <ele>88</ele>
        <time>2018-01-31T12:37:34Z</time>
      </trkpt>
      <trkpt lat="48.67543" lon="2.4598">
        <ele>88</ele>
        <time>2018-01-31T12:37:34Z</time>
      </trkpt>
      <trkpt lat="48.67538" lon="2.45984">
        <ele>87</ele>
        <time>2018-01-31T12:37:34Z</time>
      </trkpt>
      <trkpt lat="48.67533" lon="2.45989">
        <ele>87</ele>
        <time>2018-01-31T12:37:34Z</time>
      </trkpt>
      <trkpt lat="48.67529" lon="2.45993">
        <ele>87</ele>
        <time>2018-01-31T12:37:50Z</time>
      </trkpt>
      <trkpt lat="48.67522" lon="2.45998">
        <ele>87</ele>
        <time>2018-01-31T12:37:50Z</time>
      </trkpt>
      <trkpt lat="48.67519" lon="2.45999">
        <ele>87</ele>
        <time>2018-01-31T12:37:50Z</time>
      </trkpt>
      <trkpt lat="48.67519" lon="2.46">
        <ele>87</ele>
        <time>2018-01-31T12:37:50Z</time>
      </trkpt>
      <trkpt lat="48.67518" lon="2.46">
        <ele>87</ele>
        <time>2018-01-31T12:38:10Z</time>
      </trkpt>
      <trkpt lat="48.67515" lon="2.46001">
        <ele>87</ele>
        <time>2018-01-31T12:38:10Z</time>
      </trkpt>
      <trkpt lat="48.67512" lon="2.46001">
        <ele>87</ele>
        <time>2018-01-31T12:38:10Z</time>
      </trkpt>
      <trkpt lat="48.6751" lon="2.46001">
        <ele>87</ele>
        <time>2018-01-31T12:38:10Z</time>
      </trkpt>
      <trkpt lat="48.67509" lon="2.46">
        <ele>87</ele>
        <time>2018-01-31T12:38:10Z</time>
      </trkpt>
      <trkpt lat="48.67507" lon="2.45998">
        <ele>87</ele>
        <time>2018-01-31T12:38:26Z</time>
      </trkpt>
      <trkpt lat="48.67503" lon="2.45997">
        <ele>87</ele>
        <time>2018-01-31T12:38:26Z</time>
      </trkpt>
      <trkpt lat="48.67495" lon="2.45994">
        <ele>87</ele>
        <time>2018-01-31T12:38:26Z</time>
      </trkpt>
      <trkpt lat="48.67488" lon="2.45991">
        <ele>87</ele>
        <time>2018-01-31T12:38:26Z</time>
      </trkpt>
      <trkpt lat="48.67483" lon="2.45989">
        <ele>87</ele>
        <time>2018-01-31T12:38:42Z</time>
      </trkpt>
      <trkpt lat="48.67476" lon="2.45989">
        <ele>87</ele>
        <time>2018-01-31T12:38:42Z</time>
      </trkpt>
      <trkpt lat="48.67472" lon="2.45988">
        <ele>87</ele>
        <time>2018-01-31T12:38:42Z</time>
      </trkpt>
      <trkpt lat="48.67465" lon="2.45987">
        <ele>87</ele>
        <time>2018-01-31T12:38:42Z</time>
      </trkpt>
      <trkpt lat="48.67461" lon="2.45987">
        <ele>87</ele>
        <time>2018-01-31T12:39:02Z</time>
      </trkpt>
      <trkpt lat="48.67461" lon="2.45986">
        <ele>87</ele>
        <time>2018-01-31T12:39:02Z</time>
      </trkpt>
      <trkpt lat="48.67456" lon="2.45988">
        <ele>89</ele>
        <time>2018-01-31T12:39:02Z</time>
      </trkpt>
      <trkpt lat="48.67453" lon="2.45987">
        <ele>89</ele>
        <time>2018-01-31T12:39:02Z</time>
      </trkpt>
      <trkpt lat="48.67449" lon="2.45986">
        <ele>89</ele>
        <time>2018-01-31T12:39:02Z</time>
      </trkpt>
      <trkpt lat="48.67447" lon="2.45986">
        <ele>89</ele>
        <time>2018-01-31T12:39:22Z</time>
      </trkpt>
      <trkpt lat="48.67447" lon="2.45986">
        <ele>89</ele>
        <time>2018-01-31T12:39:22Z</time>
      </trkpt>
      <trkpt lat="48.67445" lon="2.45985">
        <ele>89</ele>
        <time>2018-01-31T12:39:22Z</time>
      </trkpt>
      <trkpt lat="48.67442" lon="2.45985">
        <ele>89</ele>
        <time>2018-01-31T12:39:22Z</time>
      </trkpt>
      <trkpt lat="48.67438" lon="2.45984">
        <ele>89</ele>
        <time>2018-01-31T12:39:22Z</time>
      </trkpt>
      <trkpt lat="48.67435" lon="2.45985">
        <ele>89</ele>
        <time>2018-01-31T12:39:42Z</time>
      </trkpt>
      <trkpt lat="48.67435" lon="2.45984">
        <ele>89</ele>
        <time>2018-01-31T12:39:42Z</time>
      </trkpt>
      <trkpt lat="48.67432" lon="2.45985">
        <ele>89</ele>
        <time>2018-01-31T12:39:42Z</time>
      </trkpt>
      <trkpt lat="48.67429" lon="2.45983">
        <ele>89</ele>
        <time>2018-01-31T12:39:42Z</time>
      </trkpt>
      <trkpt lat="48.67421" lon="2.45981">
        <ele>89</ele>
        <time>2018-01-31T12:39:42Z</time>
      </trkpt>
      <trkpt lat="48.67415" lon="2.4598">
        <ele>89</ele>
        <time>2018-01-31T12:39:58Z</time>
      </trkpt>
      <trkpt lat="48.67409" lon="2.4598">
        <ele>89</ele>
        <time>2018-01-31T12:39:58Z</time>
      </trkpt>
      <trkpt lat="48.67404" lon="2.45979">
        <ele>89</ele>
        <time>2018-01-31T12:39:58Z</time>
      </trkpt>
      <trkpt lat="48.67399" lon="2.45979">
        <ele>89</ele>
        <time>2018-01-31T12:39:58Z</time>
      </trkpt>
      <trkpt lat="48.67393" lon="2.4598">
        <ele>89</ele>
        <time>2018-01-31T12:40:14Z</time>
      </trkpt>
      <trkpt lat="48.67389" lon="2.45978">
        <ele>89</ele>
        <time>2018-01-31T12:40:14Z</time>
      </trkpt>
      <trkpt lat="48.67384" lon="2.45977">
        <ele>89</ele>
        <time>2018-01-31T12:40:14Z</time>
      </trkpt>
      <trkpt lat="48.6738" lon="2.45977">
        <ele>89</ele>
        <time>2018-01-31T12:40:14Z</time>
      </trkpt>
      <trkpt lat="48.67374" lon="2.45975">
        <ele>87</ele>
        <time>2018-01-31T12:40:30Z</time>
      </trkpt>
      <trkpt lat="48.6737" lon="2.45974">
        <ele>87</ele>
        <time>2018-01-31T12:40:30Z</time>
      </trkpt>
      <trkpt lat="48.67367" lon="2.45973">
        <ele>87</ele>
        <time>2018-01-31T12:40:30Z</time>
      </trkpt>
      <trkpt lat="48.67365" lon="2.45973">
        <ele>87</ele>
        <time>2018-01-31T12:40:30Z</time>
      </trkpt>
      <trkpt lat="48.67362" lon="2.45973">
        <ele>87</ele>
        <time>2018-01-31T12:40:46Z</time>
      </trkpt>
      <trkpt lat="48.67359" lon="2.45973">
        <ele>87</ele>
        <time>2018-01-31T12:40:46Z</time>
      </trkpt>
      <trkpt lat="48.67355" lon="2.45973">
        <ele>87</ele>
        <time>2018-01-31T12:40:46Z</time>
      </trkpt>
      <trkpt lat="48.6735" lon="2.45972">
        <ele>87</ele>
        <time>2018-01-31T12:40:46Z</time>
      </trkpt>
      <trkpt lat="48.67346" lon="2.45971">
        <ele>87</ele>
        <time>2018-01-31T12:41:02Z</time>
      </trkpt>
      <trkpt lat="48.67345" lon="2.4597">
        <ele>87</ele>
        <time>2018-01-31T12:41:02Z</time>
      </trkpt>
      <trkpt lat="48.6734" lon="2.4597">
        <ele>87</ele>
        <time>2018-01-31T12:41:02Z</time>
      </trkpt>
      <trkpt lat="48.67336" lon="2.45969">
        <ele>87</ele>
        <time>2018-01-31T12:41:02Z</time>
      </trkpt>
      <trkpt lat="48.67332" lon="2.45969">
        <ele>87</ele>
        <time>2018-01-31T12:41:22Z</time>
      </trkpt>
      <trkpt lat="48.67332" lon="2.45967">
        <ele>87</ele>
        <time>2018-01-31T12:41:22Z</time>
      </trkpt>
      <trkpt lat="48.67328" lon="2.45966">
        <ele>87</ele>
        <time>2018-01-31T12:41:22Z</time>
      </trkpt>
      <trkpt lat="48.67326" lon="2.45965">
        <ele>87</ele>
        <time>2018-01-31T12:41:22Z</time>
      </trkpt>
      <trkpt lat="48.67321" lon="2.45964">
        <ele>87</ele>
        <time>2018-01-31T12:41:22Z</time>
      </trkpt>
      <trkpt lat="48.67319" lon="2.45963">
        <ele>87</ele>
        <time>2018-01-31T12:41:42Z</time>
      </trkpt>
      <trkpt lat="48.67317" lon="2.45963">
        <ele>87</ele>
        <time>2018-01-31T12:41:42Z</time>
      </trkpt>
      <trkpt lat="48.67315" lon="2.45962">
        <ele>87</ele>
        <time>2018-01-31T12:41:42Z</time>
      </trkpt>
      <trkpt lat="48.67311" lon="2.4596">
        <ele>87</ele>
        <time>2018-01-31T12:41:42Z</time>
      </trkpt>
      <trkpt lat="48.67307" lon="2.45959">
        <ele>87</ele>
        <time>2018-01-31T12:41:42Z</time>
      </trkpt>
      <trkpt lat="48.67304" lon="2.45959">
        <ele>87</ele>
        <time>2018-01-31T12:41:58Z</time>
      </trkpt>
      <trkpt lat="48.673" lon="2.45958">
        <ele>88</ele>
        <time>2018-01-31T12:41:58Z</time>
      </trkpt>
      <trkpt lat="48.67294" lon="2.45958">
        <ele>88</ele>
        <time>2018-01-31T12:41:58Z</time>
      </trkpt>
      <trkpt lat="48.67291" lon="2.45958">
        <ele>88</ele>
        <time>2018-01-31T12:41:58Z</time>
      </trkpt>
      <trkpt lat="48.67287" lon="2.45958">
        <ele>88</ele>
        <time>2018-01-31T12:42:14Z</time>
      </trkpt>
      <trkpt lat="48.67282" lon="2.45956">
        <ele>88</ele>
        <time>2018-01-31T12:42:14Z</time>
      </trkpt>
      <trkpt lat="48.67277" lon="2.45955">
        <ele>88</ele>
        <time>2018-01-31T12:42:14Z</time>
      </trkpt>
      <trkpt lat="48.67272" lon="2.45954">
        <ele>88</ele>
        <time>2018-01-31T12:42:14Z</time>
      </trkpt>
      <trkpt lat="48.67268" lon="2.45952">
        <ele>88</ele>
        <time>2018-01-31T12:42:30Z</time>
      </trkpt>
      <trkpt lat="48.67263" lon="2.45951">
        <ele>88</ele>
        <time>2018-01-31T12:42:30Z</time>
      </trkpt>
      <trkpt lat="48.67258" lon="2.45949">
        <ele>88</ele>
        <time>2018-01-31T12:42:30Z</time>
      </trkpt>
      <trkpt lat="48.67256" lon="2.4595">
        <ele>88</ele>
        <time>2018-01-31T12:42:30Z</time>
      </trkpt>
      <trkpt lat="48.67253" lon="2.45949">
        <ele>88</ele>
        <time>2018-01-31T12:42:46Z</time>
      </trkpt>
      <trkpt lat="48.67248" lon="2.45949">
        <ele>88</ele>
        <time>2018-01-31T12:42:46Z</time>
      </trkpt>
      <trkpt lat="48.67241" lon="2.45951">
        <ele>88</ele>
        <time>2018-01-31T12:42:46Z</time>
      </trkpt>
      <trkpt lat="48.67234" lon="2.4595">
        <ele>88</ele>
        <time>2018-01-31T12:42:46Z</time>
      </trkpt>
      <trkpt lat="48.67229" lon="2.4595">
        <ele>88</ele>
        <time>2018-01-31T12:43:02Z</time>
      </trkpt>
      <trkpt lat="48.67225" lon="2.45948">
        <ele>88</ele>
        <time>2018-01-31T12:43:02Z</time>
      </trkpt>
      <trkpt lat="48.6722" lon="2.45945">
        <ele>88</ele>
        <time>2018-01-31T12:43:02Z</time>
      </trkpt>
      <trkpt lat="48.67214" lon="2.45943">
        <ele>88</ele>
        <time>2018-01-31T12:43:02Z</time>
      </trkpt>
      <trkpt lat="48.67212" lon="2.45942">
        <ele>88</ele>
        <time>2018-01-31T12:43:18Z</time>
      </trkpt>
      <trkpt lat="48.67209" lon="2.4594">
        <ele>88</ele>
        <time>2018-01-31T12:43:18Z</time>
      </trkpt>
      <trkpt lat="48.67206" lon="2.45936">
        <ele>90</ele>
        <time>2018-01-31T12:43:18Z</time>
      </trkpt>
      <trkpt lat="48.67203" lon="2.45934">
        <ele>90</ele>
        <time>2018-01-31T12:43:18Z</time>
      </trkpt>
      <trkpt lat="48.67202" lon="2.45934">
        <ele>90</ele>
        <time>2018-01-31T12:43:34Z</time>
      </trkpt>
      <trkpt lat="48.67201" lon="2.45933">
        <ele>90</ele>
        <time>2018-01-31T12:43:34Z</time>
      </trkpt>
      <trkpt lat="48.67198" lon="2.45936">
        <ele>90</ele>
        <time>2018-01-31T12:43:34Z</time>
      </trkpt>
      <trkpt lat="48.67193" lon="2.45943">
        <ele>90</ele>
        <time>2018-01-31T12:43:34Z</time>
      </trkpt>
      <trkpt lat="48.67189" lon="2.45958">
        <ele>90</ele>
        <time>2018-01-31T12:43:50Z</time>
      </trkpt>
      <trkpt lat="48.67187" lon="2.45969">
        <ele>90</ele>
        <time>2018-01-31T12:43:50Z</time>
      </trkpt>
      <trkpt lat="48.67186" lon="2.45975">
        <ele>90</ele>
        <time>2018-01-31T12:43:50Z</time>
      </trkpt>
      <trkpt lat="48.67187" lon="2.4598">
        <ele>90</ele>
        <time>2018-01-31T12:43:50Z</time>
      </trkpt>
      <trkpt lat="48.67187" lon="2.45985">
        <ele>90</ele>
        <time>2018-01-31T12:44:06Z</time>
      </trkpt>
      <trkpt lat="48.67187" lon="2.45988">
        <ele>90</ele>
        <time>2018-01-31T12:44:06Z</time>
      </trkpt>
      <trkpt lat="48.67188" lon="2.45991">
        <ele>90</ele>
        <time>2018-01-31T12:44:06Z</time>
      </trkpt>
      <trkpt lat="48.67189" lon="2.46001">
        <ele>90</ele>
        <time>2018-01-31T12:44:06Z</time>
      </trkpt>
      <trkpt lat="48.67191" lon="2.4601">
        <ele>90</ele>
        <time>2018-01-31T12:44:22Z</time>
      </trkpt>
      <trkpt lat="48.67192" lon="2.4602">
        <ele>90</ele>
        <time>2018-01-31T12:44:22Z</time>
      </trkpt>
      <trkpt lat="48.67194" lon="2.46029">
        <ele>90</ele>
        <time>2018-01-31T12:44:22Z</time>
      </trkpt>
      <trkpt lat="48.67195" lon="2.46039">
        <ele>90</ele>
        <time>2018-01-31T12:44:22Z</time>
      </trkpt>
      <trkpt lat="48.67197" lon="2.46046">
        <ele>89</ele>
        <time>2018-01-31T12:44:38Z</time>
      </trkpt>
      <trkpt lat="48.67198" lon="2.46054">
        <ele>89</ele>
        <time>2018-01-31T12:44:38Z</time>
      </trkpt>
      <trkpt lat="48.67199" lon="2.46063">
        <ele>89</ele>
        <time>2018-01-31T12:44:38Z</time>
      </trkpt>
      <trkpt lat="48.672" lon="2.46067">
        <ele>89</ele>
        <time>2018-01-31T12:44:38Z</time>
      </trkpt>
      <trkpt lat="48.67201" lon="2.4607">
        <ele>89</ele>
        <time>2018-01-31T12:44:58Z</time>
      </trkpt>
      <trkpt lat="48.67202" lon="2.46073">
        <ele>89</ele>
        <time>2018-01-31T12:44:58Z</time>
      </trkpt>
      <trkpt lat="48.67202" lon="2.46075">
        <ele>89</ele>
        <time>2018-01-31T12:44:58Z</time>
      </trkpt>
      <trkpt lat="48.67203" lon="2.46081">
        <ele>89</ele>
        <time>2018-01-31T12:44:58Z</time>
      </trkpt>
      <trkpt lat="48.67205" lon="2.46086">
        <ele>89</ele>
        <time>2018-01-31T12:44:58Z</time>
      </trkpt>
      <trkpt lat="48.67205" lon="2.46091">
        <ele>89</ele>
        <time>2018-01-31T12:45:14Z</time>
      </trkpt>
      <trkpt lat="48.67207" lon="2.461">
        <ele>89</ele>
        <time>2018-01-31T12:45:14Z</time>
      </trkpt>
      <trkpt lat="48.67209" lon="2.46108">
        <ele>88</ele>
        <time>2018-01-31T12:45:14Z</time>
      </trkpt>
      <trkpt lat="48.6721" lon="2.46113">
        <ele>88</ele>
        <time>2018-01-31T12:45:14Z</time>
      </trkpt>
      <trkpt lat="48.67212" lon="2.4612">
        <ele>88</ele>
        <time>2018-01-31T12:45:30Z</time>
      </trkpt>
      <trkpt lat="48.67215" lon="2.46126">
        <ele>88</ele>
        <time>2018-01-31T12:45:30Z</time>
      </trkpt>
      <trkpt lat="48.67216" lon="2.46132">
        <ele>88</ele>
        <time>2018-01-31T12:45:30Z</time>
      </trkpt>
      <trkpt lat="48.67217" lon="2.46137">
        <ele>88</ele>
        <time>2018-01-31T12:45:30Z</time>
      </trkpt>
      <trkpt lat="48.67217" lon="2.46142">
        <ele>88</ele>
        <time>2018-01-31T12:45:46Z</time>
      </trkpt>
      <trkpt lat="48.67218" lon="2.46153">
        <ele>88</ele>
        <time>2018-01-31T12:45:46Z</time>
      </trkpt>
      <trkpt lat="48.67219" lon="2.4616">
        <ele>88</ele>
        <time>2018-01-31T12:45:46Z</time>
      </trkpt>
      <trkpt lat="48.6722" lon="2.46166">
        <ele>88</ele>
        <time>2018-01-31T12:45:46Z</time>
      </trkpt>
      <trkpt lat="48.67222" lon="2.46174">
        <ele>88</ele>
        <time>2018-01-31T12:46:02Z</time>
      </trkpt>
      <trkpt lat="48.67224" lon="2.4618">
        <ele>88</ele>
        <time>2018-01-31T12:46:02Z</time>
      </trkpt>
      <trkpt lat="48.67227" lon="2.4619">
        <ele>88</ele>
        <time>2018-01-31T12:46:02Z</time>
      </trkpt>
      <trkpt lat="48.67228" lon="2.46198">
        <ele>88</ele>
        <time>2018-01-31T12:46:02Z</time>
      </trkpt>
      <trkpt lat="48.67229" lon="2.46203">
        <ele>88</ele>
        <time>2018-01-31T12:46:18Z</time>
      </trkpt>
      <trkpt lat="48.67231" lon="2.46209">
        <ele>87</ele>
        <time>2018-01-31T12:46:18Z</time>
      </trkpt>
      <trkpt lat="48.67233" lon="2.46214">
        <ele>87</ele>
        <time>2018-01-31T12:46:18Z</time>
      </trkpt>
      <trkpt lat="48.67235" lon="2.46221">
        <ele>87</ele>
        <time>2018-01-31T12:46:18Z</time>
      </trkpt>
      <trkpt lat="48.67241" lon="2.46235">
        <ele>87</ele>
        <time>2018-01-31T12:46:54Z</time>
      </trkpt>
      <trkpt lat="48.67242" lon="2.46237">
        <ele>87</ele>
        <time>2018-01-31T12:46:54Z</time>
      </trkpt>
      <trkpt lat="48.67243" lon="2.46239">
        <ele>87</ele>
        <time>2018-01-31T12:46:54Z</time>
      </trkpt>
      <trkpt lat="48.67245" lon="2.46244">
        <ele>87</ele>
        <time>2018-01-31T12:46:54Z</time>
      </trkpt>
      <trkpt lat="48.67246" lon="2.46251">
        <ele>87</ele>
        <time>2018-01-31T12:46:54Z</time>
      </trkpt>
      <trkpt lat="48.67248" lon="2.46257">
        <ele>87</ele>
        <time>2018-01-31T12:47:14Z</time>
      </trkpt>
      <trkpt lat="48.67249" lon="2.4626">
        <ele>87</ele>
        <time>2018-01-31T12:47:14Z</time>
      </trkpt>
      <trkpt lat="48.6725" lon="2.46264">
        <ele>87</ele>
        <time>2018-01-31T12:47:14Z</time>
      </trkpt>
      <trkpt lat="48.67251" lon="2.46268">
        <ele>87</ele>
        <time>2018-01-31T12:47:14Z</time>
      </trkpt>
      <trkpt lat="48.67252" lon="2.46276">
        <ele>87</ele>
        <time>2018-01-31T12:47:14Z</time>
      </trkpt>
      <trkpt lat="48.67248" lon="2.46271">
        <ele>87</ele>
        <time>2018-01-31T12:47:46Z</time>
      </trkpt>
      <trkpt lat="48.67247" lon="2.46272">
        <ele>87</ele>
        <time>2018-01-31T12:47:46Z</time>
      </trkpt>
      <trkpt lat="48.67245" lon="2.46274">
        <ele>87</ele>
        <time>2018-01-31T12:47:46Z</time>
      </trkpt>
      <trkpt lat="48.67242" lon="2.46279">
        <ele>87</ele>
        <time>2018-01-31T12:47:46Z</time>
      </trkpt>
      <trkpt lat="48.67238" lon="2.46281">
        <ele>87</ele>
        <time>2018-01-31T12:47:46Z</time>
      </trkpt>
      <trkpt lat="48.67233" lon="2.46283">
        <ele>87</ele>
        <time>2018-01-31T12:48:02Z</time>
      </trkpt>
      <trkpt lat="48.67229" lon="2.46286">
        <ele>87</ele>
        <time>2018-01-31T12:48:02Z</time>
      </trkpt>
      <trkpt lat="48.67224" lon="2.46289">
        <ele>87</ele>
        <time>2018-01-31T12:48:02Z</time>
      </trkpt>
      <trkpt lat="48.67221" lon="2.46291">
        <ele>87</ele>
        <time>2018-01-31T12:48:02Z</time>
      </trkpt>
      <trkpt lat="48.67209" lon="2.46297">
        <ele>86</ele>
        <time>2018-01-31T12:48:18Z</time>
      </trkpt>
      <trkpt lat="48.672" lon="2.46301">
        <ele>89</ele>
        <time>2018-01-31T12:48:18Z</time>
      </trkpt>
      <trkpt lat="48.67192" lon="2.46302">
        <ele>89</ele>
        <time>2018-01-31T12:48:18Z</time>
      </trkpt>
      <trkpt lat="48.67183" lon="2.46304">
        <ele>89</ele>
        <time>2018-01-31T12:48:18Z</time>
      </trkpt>
      <trkpt lat="48.67178" lon="2.4631">
        <ele>89</ele>
        <time>2018-01-31T12:48:34Z</time>
      </trkpt>
      <trkpt lat="48.67175" lon="2.46312">
        <ele>89</ele>
        <time>2018-01-31T12:48:34Z</time>
      </trkpt>
      <trkpt lat="48.67167" lon="2.46316">
        <ele>89</ele>
        <time>2018-01-31T12:48:34Z</time>
      </trkpt>
      <trkpt lat="48.67162" lon="2.46323">
        <ele>89</ele>
        <time>2018-01-31T12:48:34Z</time>
      </trkpt>
      <trkpt lat="48.67155" lon="2.4633">
        <ele>89</ele>
        <time>2018-01-31T12:48:50Z</time>
      </trkpt>
      <trkpt lat="48.67151" lon="2.46337">
        <ele>89</ele>
        <time>2018-01-31T12:48:50Z</time>
      </trkpt>
      <trkpt lat="48.67149" lon="2.4634">
        <ele>89</ele>
        <time>2018-01-31T12:48:50Z</time>
      </trkpt>
      <trkpt lat="48.67146" lon="2.46344">
        <ele>89</ele>
        <time>2018-01-31T12:48:50Z</time>
      </trkpt>
      <trkpt lat="48.67145" lon="2.46348">
        <ele>89</ele>
        <time>2018-01-31T12:49:06Z</time>
      </trkpt>
      <trkpt lat="48.67141" lon="2.46355">
        <ele>89</ele>
        <time>2018-01-31T12:49:06Z</time>
      </trkpt>
      <trkpt lat="48.67139" lon="2.46358">
        <ele>89</ele>
        <time>2018-01-31T12:49:06Z</time>
      </trkpt>
      <trkpt lat="48.67136" lon="2.46362">
        <ele>89</ele>
        <time>2018-01-31T12:49:06Z</time>
      </trkpt>
      <trkpt lat="48.67132" lon="2.46367">
        <ele>89</ele>
        <time>2018-01-31T12:49:22Z</time>
      </trkpt>
      <trkpt lat="48.67127" lon="2.46371">
        <ele>89</ele>
        <time>2018-01-31T12:49:22Z</time>
      </trkpt>
      <trkpt lat="48.67126" lon="2.46372">
        <ele>89</ele>
        <time>2018-01-31T12:49:22Z</time>
      </trkpt>
      <trkpt lat="48.67124" lon="2.46374">
        <ele>87</ele>
        <time>2018-01-31T12:49:22Z</time>
      </trkpt>
      <trkpt lat="48.67123" lon="2.46378">
        <ele>88</ele>
        <time>2018-01-31T12:49:38Z</time>
      </trkpt>
      <trkpt lat="48.67118" lon="2.46385">
        <ele>88</ele>
        <time>2018-01-31T12:49:38Z</time>
      </trkpt>
      <trkpt lat="48.67114" lon="2.46389">
        <ele>88</ele>
        <time>2018-01-31T12:49:38Z</time>
      </trkpt>
      <trkpt lat="48.67108" lon="2.46394">
        <ele>88</ele>
        <time>2018-01-31T12:49:38Z</time>
      </trkpt>
      <trkpt lat="48.67104" lon="2.46398">
        <ele>88</ele>
        <time>2018-01-31T12:49:54Z</time>
      </trkpt>
      <trkpt lat="48.67098" lon="2.46403">
        <ele>88</ele>
        <time>2018-01-31T12:49:54Z</time>
      </trkpt>
      <trkpt lat="48.67092" lon="2.46409">
        <ele>88</ele>
        <time>2018-01-31T12:49:54Z</time>
      </trkpt>
      <trkpt lat="48.67089" lon="2.46415">
        <ele>88</ele>
        <time>2018-01-31T12:49:54Z</time>
      </trkpt>
      <trkpt lat="48.67086" lon="2.46419">
        <ele>88</ele>
        <time>2018-01-31T12:50:10Z</time>
      </trkpt>
      <trkpt lat="48.67083" lon="2.46423">
        <ele>88</ele>
        <time>2018-01-31T12:50:10Z</time>
      </trkpt>
      <trkpt lat="48.67078" lon="2.46424">
        <ele>88</ele>
        <time>2018-01-31T12:50:10Z</time>
      </trkpt>
      <trkpt lat="48.67077" lon="2.46426">
        <ele>88</ele>
        <time>2018-01-31T12:50:10Z</time>
      </trkpt>
      <trkpt lat="48.67073" lon="2.46429">
        <ele>88</ele>
        <time>2018-01-31T12:50:26Z</time>
      </trkpt>
      <trkpt lat="48.67069" lon="2.46432">
        <ele>88</ele>
        <time>2018-01-31T12:50:26Z</time>
      </trkpt>
      <trkpt lat="48.67066" lon="2.46433">
        <ele>88</ele>
        <time>2018-01-31T12:50:26Z</time>
      </trkpt>
      <trkpt lat="48.67058" lon="2.46445">
        <ele>88</ele>
        <time>2018-01-31T12:50:26Z</time>
      </trkpt>
      <trkpt lat="48.67051" lon="2.46446">
        <ele>88</ele>
        <time>2018-01-31T12:50:42Z</time>
      </trkpt>
      <trkpt lat="48.67047" lon="2.46448">
        <ele>88</ele>
        <time>2018-01-31T12:50:42Z</time>
      </trkpt>
      <trkpt lat="48.67044" lon="2.46452">
        <ele>88</ele>
        <time>2018-01-31T12:50:42Z</time>
      </trkpt>
      <trkpt lat="48.6704" lon="2.46456">
        <ele>89</ele>
        <time>2018-01-31T12:50:42Z</time>
      </trkpt>
      <trkpt lat="48.67036" lon="2.46458">
        <ele>89</ele>
        <time>2018-01-31T12:50:58Z</time>
      </trkpt>
      <trkpt lat="48.67031" lon="2.46462">
        <ele>89</ele>
        <time>2018-01-31T12:50:58Z</time>
      </trkpt>
      <trkpt lat="48.6703" lon="2.46465">
        <ele>89</ele>
        <time>2018-01-31T12:50:58Z</time>
      </trkpt>
      <trkpt lat="48.67025" lon="2.46468">
        <ele>89</ele>
        <time>2018-01-31T12:50:58Z</time>
      </trkpt>
      <trkpt lat="48.67021" lon="2.46477">
        <ele>89</ele>
        <time>2018-01-31T12:51:14Z</time>
      </trkpt>
      <trkpt lat="48.67016" lon="2.46483">
        <ele>89</ele>
        <time>2018-01-31T12:51:14Z</time>
      </trkpt>
      <trkpt lat="48.67012" lon="2.46486">
        <ele>89</ele>
        <time>2018-01-31T12:51:14Z</time>
      </trkpt>
      <trkpt lat="48.67009" lon="2.46487">
        <ele>89</ele>
        <time>2018-01-31T12:51:14Z</time>
      </trkpt>
      <trkpt lat="48.67003" lon="2.46492">
        <ele>89</ele>
        <time>2018-01-31T12:51:30Z</time>
      </trkpt>
      <trkpt lat="48.67" lon="2.46499">
        <ele>89</ele>
        <time>2018-01-31T12:51:30Z</time>
      </trkpt>
      <trkpt lat="48.66995" lon="2.46505">
        <ele>89</ele>
        <time>2018-01-31T12:51:30Z</time>
      </trkpt>
      <trkpt lat="48.66992" lon="2.46511">
        <ele>89</ele>
        <time>2018-01-31T12:51:30Z</time>
      </trkpt>
      <trkpt lat="48.66989" lon="2.46516">
        <ele>89</ele>
        <time>2018-01-31T12:51:46Z</time>
      </trkpt>
      <trkpt lat="48.66989" lon="2.46518">
        <ele>89</ele>
        <time>2018-01-31T12:51:46Z</time>
      </trkpt>
      <trkpt lat="48.66981" lon="2.46526">
        <ele>89</ele>
        <time>2018-01-31T12:51:46Z</time>
      </trkpt>
      <trkpt lat="48.66978" lon="2.46529">
        <ele>89</ele>
        <time>2018-01-31T12:51:46Z</time>
      </trkpt>
      <trkpt lat="48.66976" lon="2.46532">
        <ele>89</ele>
        <time>2018-01-31T12:52:02Z</time>
      </trkpt>
      <trkpt lat="48.6697" lon="2.46536">
        <ele>89</ele>
        <time>2018-01-31T12:52:02Z</time>
      </trkpt>
      <trkpt lat="48.66967" lon="2.46542">
        <ele>89</ele>
        <time>2018-01-31T12:52:02Z</time>
      </trkpt>
      <trkpt lat="48.66965" lon="2.46553">
        <ele>88</ele>
        <time>2018-01-31T12:52:02Z</time>
      </trkpt>
      <trkpt lat="48.66968" lon="2.46556">
        <ele>88</ele>
        <time>2018-01-31T12:52:26Z</time>
      </trkpt>
      <trkpt lat="48.6697" lon="2.46562">
        <ele>88</ele>
        <time>2018-01-31T12:52:26Z</time>
      </trkpt>
      <trkpt lat="48.6697" lon="2.46568">
        <ele>88</ele>
        <time>2018-01-31T12:52:26Z</time>
      </trkpt>
      <trkpt lat="48.6697" lon="2.46571">
        <ele>88</ele>
        <time>2018-01-31T12:52:26Z</time>
      </trkpt>
      <trkpt lat="48.66971" lon="2.46581">
        <ele>88</ele>
        <time>2018-01-31T12:52:26Z</time>
      </trkpt>
      <trkpt lat="48.66972" lon="2.46587">
        <ele>88</ele>
        <time>2018-01-31T12:52:42Z</time>
      </trkpt>
      <trkpt lat="48.66975" lon="2.46591">
        <ele>88</ele>
        <time>2018-01-31T12:52:42Z</time>
      </trkpt>
      <trkpt lat="48.66976" lon="2.46593">
        <ele>88</ele>
        <time>2018-01-31T12:52:42Z</time>
      </trkpt>
      <trkpt lat="48.66978" lon="2.46598">
        <ele>88</ele>
        <time>2018-01-31T12:52:42Z</time>
      </trkpt>
      <trkpt lat="48.6698" lon="2.46603">
        <ele>88</ele>
        <time>2018-01-31T12:52:58Z</time>
      </trkpt>
      <trkpt lat="48.66983" lon="2.46608">
        <ele>88</ele>
        <time>2018-01-31T12:52:58Z</time>
      </trkpt>
      <trkpt lat="48.66985" lon="2.46614">
        <ele>88</ele>
        <time>2018-01-31T12:52:58Z</time>
      </trkpt>
      <trkpt lat="48.66986" lon="2.4662">
        <ele>88</ele>
        <time>2018-01-31T12:52:58Z</time>
      </trkpt>
      <trkpt lat="48.66989" lon="2.46626">
        <ele>88</ele>
        <time>2018-01-31T12:53:14Z</time>
      </trkpt>
      <trkpt lat="48.66989" lon="2.46631">
        <ele>88</ele>
        <time>2018-01-31T12:53:14Z</time>
      </trkpt>
      <trkpt lat="48.6699" lon="2.46638">
        <ele>88</ele>
        <time>2018-01-31T12:53:14Z</time>
      </trkpt>
      <trkpt lat="48.66991" lon="2.46643">
        <ele>88</ele>
        <time>2018-01-31T12:53:14Z</time>
      </trkpt>
      <trkpt lat="48.66993" lon="2.4665">
        <ele>88</ele>
        <time>2018-01-31T12:53:30Z</time>
      </trkpt>
      <trkpt lat="48.66994" lon="2.46657">
        <ele>88</ele>
        <time>2018-01-31T12:53:30Z</time>
      </trkpt>
      <trkpt lat="48.66998" lon="2.46663">
        <ele>88</ele>
        <time>2018-01-31T12:53:30Z</time>
      </trkpt>
      <trkpt lat="48.67001" lon="2.46668">
        <ele>88</ele>
        <time>2018-01-31T12:53:30Z</time>
      </trkpt>
      <trkpt lat="48.67001" lon="2.46673">
        <ele>88</ele>
        <time>2018-01-31T12:53:46Z</time>
      </trkpt>
      <trkpt lat="48.67002" lon="2.46679">
        <ele>88</ele>
        <time>2018-01-31T12:53:46Z</time>
      </trkpt>
      <trkpt lat="48.67004" lon="2.46689">
        <ele>88</ele>
        <time>2018-01-31T12:53:46Z</time>
      </trkpt>
      <trkpt lat="48.67007" lon="2.46697">
        <ele>88</ele>
        <time>2018-01-31T12:53:46Z</time>
      </trkpt>
      <trkpt lat="48.6701" lon="2.46707">
        <ele>88</ele>
        <time>2018-01-31T12:54:02Z</time>
      </trkpt>
      <trkpt lat="48.67012" lon="2.46714">
        <ele>87</ele>
        <time>2018-01-31T12:54:02Z</time>
      </trkpt>
      <trkpt lat="48.67014" lon="2.4672">
        <ele>87</ele>
        <time>2018-01-31T12:54:02Z</time>
      </trkpt>
      <trkpt lat="48.67015" lon="2.46727">
        <ele>87</ele>
        <time>2018-01-31T12:54:02Z</time>
      </trkpt>
      <trkpt lat="48.67017" lon="2.46735">
        <ele>87</ele>
        <time>2018-01-31T12:54:18Z</time>
      </trkpt>
      <trkpt lat="48.67018" lon="2.4674">
        <ele>87</ele>
        <time>2018-01-31T12:54:18Z</time>
      </trkpt>
      <trkpt lat="48.67021" lon="2.46746">
        <ele>87</ele>
        <time>2018-01-31T12:54:18Z</time>
      </trkpt>
      <trkpt lat="48.67022" lon="2.46752">
        <ele>87</ele>
        <time>2018-01-31T12:54:18Z</time>
      </trkpt>
      <trkpt lat="48.67022" lon="2.46757">
        <ele>87</ele>
        <time>2018-01-31T12:54:42Z</time>
      </trkpt>
      <trkpt lat="48.67023" lon="2.46761">
        <ele>87</ele>
        <time>2018-01-31T12:54:42Z</time>
      </trkpt>
      <trkpt lat="48.67022" lon="2.46763">
        <ele>87</ele>
        <time>2018-01-31T12:54:42Z</time>
      </trkpt>
      <trkpt lat="48.67023" lon="2.46764">
        <ele>87</ele>
        <time>2018-01-31T12:54:42Z</time>
      </trkpt>
      <trkpt lat="48.67023" lon="2.46771">
        <ele>87</ele>
        <time>2018-01-31T12:54:42Z</time>
      </trkpt>
      <trkpt lat="48.67025" lon="2.46778">
        <ele>87</ele>
        <time>2018-01-31T12:54:58Z</time>
      </trkpt>
      <trkpt lat="48.67027" lon="2.46783">
        <ele>87</ele>
        <time>2018-01-31T12:54:58Z</time>
      </trkpt>
      <trkpt lat="48.67029" lon="2.4679">
        <ele>87</ele>
        <time>2018-01-31T12:54:58Z</time>
      </trkpt>
      <trkpt lat="48.67031" lon="2.46797">
        <ele>90</ele>
        <time>2018-01-31T12:54:58Z</time>
      </trkpt>
      <trkpt lat="48.67033" lon="2.46804">
        <ele>90</ele>
        <time>2018-01-31T12:55:14Z</time>
      </trkpt>
      <trkpt lat="48.67035" lon="2.46811">
        <ele>90</ele>
        <time>2018-01-31T12:55:14Z</time>
      </trkpt>
      <trkpt lat="48.67037" lon="2.46818">
        <ele>90</ele>
        <time>2018-01-31T12:55:14Z</time>
      </trkpt>
      <trkpt lat="48.67038" lon="2.46825">
        <ele>90</ele>
        <time>2018-01-31T12:55:14Z</time>
      </trkpt>
      <trkpt lat="48.67039" lon="2.46831">
        <ele>90</ele>
        <time>2018-01-31T12:55:30Z</time>
      </trkpt>
      <trkpt lat="48.67041" lon="2.46838">
        <ele>90</ele>
        <time>2018-01-31T12:55:30Z</time>
      </trkpt>
      <trkpt lat="48.67043" lon="2.46845">
        <ele>87</ele>
        <time>2018-01-31T12:55:30Z</time>
      </trkpt>
      <trkpt lat="48.67045" lon="2.4685">
        <ele>87</ele>
        <time>2018-01-31T12:55:30Z</time>
      </trkpt>
      <trkpt lat="48.67047" lon="2.46855">
        <ele>87</ele>
        <time>2018-01-31T12:55:50Z</time>
      </trkpt>
      <trkpt lat="48.6705" lon="2.4686">
        <ele>87</ele>
        <time>2018-01-31T12:55:50Z</time>
      </trkpt>
      <trkpt lat="48.67051" lon="2.46862">
        <ele>87</ele>
        <time>2018-01-31T12:55:50Z</time>
      </trkpt>
      <trkpt lat="48.67052" lon="2.46865">
        <ele>87</ele>
        <time>2018-01-31T12:55:50Z</time>
      </trkpt>
      <trkpt lat="48.67053" lon="2.46866">
        <ele>87</ele>
        <time>2018-01-31T12:55:50Z</time>
      </trkpt>
      <trkpt lat="48.67055" lon="2.46871">
        <ele>87</ele>
        <time>2018-01-31T12:56:14Z</time>
      </trkpt>
      <trkpt lat="48.67056" lon="2.4687">
        <ele>87</ele>
        <time>2018-01-31T12:56:14Z</time>
      </trkpt>
      <trkpt lat="48.67057" lon="2.4687">
        <ele>87</ele>
        <time>2018-01-31T12:56:14Z</time>
      </trkpt>
      <trkpt lat="48.67059" lon="2.46875">
        <ele>87</ele>
        <time>2018-01-31T12:56:14Z</time>
      </trkpt>
      <trkpt lat="48.6706" lon="2.4688">
        <ele>87</ele>
        <time>2018-01-31T12:56:14Z</time>
      </trkpt>
      <trkpt lat="48.67061" lon="2.46885">
        <ele>87</ele>
        <time>2018-01-31T12:56:30Z</time>
      </trkpt>
      <trkpt lat="48.67062" lon="2.46892">
        <ele>87</ele>
        <time>2018-01-31T12:56:30Z</time>
      </trkpt>
      <trkpt lat="48.67063" lon="2.46897">
        <ele>87</ele>
        <time>2018-01-31T12:56:30Z</time>
      </trkpt>
      <trkpt lat="48.67064" lon="2.469">
        <ele>87</ele>
        <time>2018-01-31T12:56:30Z</time>
      </trkpt>
      <trkpt lat="48.67066" lon="2.46907">
        <ele>87</ele>
        <time>2018-01-31T12:56:50Z</time>
      </trkpt>
      <trkpt lat="48.67068" lon="2.46911">
        <ele>87</ele>
        <time>2018-01-31T12:56:50Z</time>
      </trkpt>
      <trkpt lat="48.67068" lon="2.46912">
        <ele>87</ele>
        <time>2018-01-31T12:56:50Z</time>
      </trkpt>
      <trkpt lat="48.6707" lon="2.46917">
        <ele>87</ele>
        <time>2018-01-31T12:56:50Z</time>
      </trkpt>
      <trkpt lat="48.67071" lon="2.46923">
        <ele>87</ele>
        <time>2018-01-31T12:56:50Z</time>
      </trkpt>
      <trkpt lat="48.67073" lon="2.4693">
        <ele>87</ele>
        <time>2018-01-31T12:57:06Z</time>
      </trkpt>
      <trkpt lat="48.67074" lon="2.46936">
        <ele>87</ele>
        <time>2018-01-31T12:57:06Z</time>
      </trkpt>
      <trkpt lat="48.67075" lon="2.46942">
        <ele>87</ele>
        <time>2018-01-31T12:57:06Z</time>
      </trkpt>
      <trkpt lat="48.67078" lon="2.46948">
        <ele>87</ele>
        <time>2018-01-31T12:57:06Z</time>
      </trkpt>
      <trkpt lat="48.6708" lon="2.46953">
        <ele>87</ele>
        <time>2018-01-31T12:57:22Z</time>
      </trkpt>
      <trkpt lat="48.67081" lon="2.46962">
        <ele>88</ele>
        <time>2018-01-31T12:57:22Z</time>
      </trkpt>
      <trkpt lat="48.67081" lon="2.46967">
        <ele>88</ele>
        <time>2018-01-31T12:57:22Z</time>
      </trkpt>
      <trkpt lat="48.67081" lon="2.46968">
        <ele>88</ele>
        <time>2018-01-31T12:57:22Z</time>
      </trkpt>
      <trkpt lat="48.67081" lon="2.46973">
        <ele>88</ele>
        <time>2018-01-31T12:57:38Z</time>
      </trkpt>
      <trkpt lat="48.67083" lon="2.46981">
        <ele>88</ele>
        <time>2018-01-31T12:57:38Z</time>
      </trkpt>
      <trkpt lat="48.67085" lon="2.4699">
        <ele>88</ele>
        <time>2018-01-31T12:57:38Z</time>
      </trkpt>
      <trkpt lat="48.67087" lon="2.46997">
        <ele>88</ele>
        <time>2018-01-31T12:57:38Z</time>
      </trkpt>
      <trkpt lat="48.67089" lon="2.47002">
        <ele>88</ele>
        <time>2018-01-31T12:57:54Z</time>
      </trkpt>
      <trkpt lat="48.67091" lon="2.47011">
        <ele>88</ele>
        <time>2018-01-31T12:57:54Z</time>
      </trkpt>
      <trkpt lat="48.67092" lon="2.4702">
        <ele>88</ele>
        <time>2018-01-31T12:57:54Z</time>
      </trkpt>
      <trkpt lat="48.67093" lon="2.47027">
        <ele>88</ele>
        <time>2018-01-31T12:57:54Z</time>
      </trkpt>
      <trkpt lat="48.67094" lon="2.47032">
        <ele>88</ele>
        <time>2018-01-31T12:58:10Z</time>
      </trkpt>
      <trkpt lat="48.67097" lon="2.4704">
        <ele>88</ele>
        <time>2018-01-31T12:58:10Z</time>
      </trkpt>
      <trkpt lat="48.671" lon="2.47052">
        <ele>88</ele>
        <time>2018-01-31T12:58:10Z</time>
      </trkpt>
      <trkpt lat="48.67102" lon="2.47056">
        <ele>88</ele>
        <time>2018-01-31T12:58:10Z</time>
      </trkpt>
      <trkpt lat="48.67104" lon="2.47066">
        <ele>88</ele>
        <time>2018-01-31T12:58:26Z</time>
      </trkpt>
      <trkpt lat="48.67105" lon="2.47073">
        <ele>88</ele>
        <time>2018-01-31T12:58:26Z</time>
      </trkpt>
      <trkpt lat="48.67105" lon="2.47078">
        <ele>88</ele>
        <time>2018-01-31T12:58:26Z</time>
      </trkpt>
      <trkpt lat="48.67108" lon="2.47085">
        <ele>88</ele>
        <time>2018-01-31T12:58:26Z</time>
      </trkpt>
      <trkpt lat="48.67111" lon="2.47094">
        <ele>88</ele>
        <time>2018-01-31T12:58:42Z</time>
      </trkpt>
      <trkpt lat="48.67112" lon="2.471">
        <ele>88</ele>
        <time>2018-01-31T12:58:42Z</time>
      </trkpt>
      <trkpt lat="48.67112" lon="2.47105">
        <ele>88</ele>
        <time>2018-01-31T12:58:42Z</time>
      </trkpt>
      <trkpt lat="48.67115" lon="2.47115">
        <ele>88</ele>
        <time>2018-01-31T12:58:42Z</time>
      </trkpt>
      <trkpt lat="48.67117" lon="2.47128">
        <ele>88</ele>
        <time>2018-01-31T12:58:58Z</time>
      </trkpt>
      <trkpt lat="48.6712" lon="2.47139">
        <ele>88</ele>
        <time>2018-01-31T12:58:58Z</time>
      </trkpt>
      <trkpt lat="48.67121" lon="2.47143">
        <ele>88</ele>
        <time>2018-01-31T12:58:58Z</time>
      </trkpt>
      <trkpt lat="48.67122" lon="2.47146">
        <ele>88</ele>
        <time>2018-01-31T12:58:58Z</time>
      </trkpt>
      <trkpt lat="48.67124" lon="2.47154">
        <ele>88</ele>
        <time>2018-01-31T12:59:14Z</time>
      </trkpt>
      <trkpt lat="48.67126" lon="2.47162">
        <ele>89</ele>
        <time>2018-01-31T12:59:14Z</time>
      </trkpt>
      <trkpt lat="48.67127" lon="2.47169">
        <ele>89</ele>
        <time>2018-01-31T12:59:14Z</time>
      </trkpt>
      <trkpt lat="48.67129" lon="2.47174">
        <ele>89</ele>
        <time>2018-01-31T12:59:14Z</time>
      </trkpt>
      <trkpt lat="48.67131" lon="2.47182">
        <ele>89</ele>
        <time>2018-01-31T12:59:30Z</time>
      </trkpt>
      <trkpt lat="48.67133" lon="2.47187">
        <ele>89</ele>
        <time>2018-01-31T12:59:30Z</time>
      </trkpt>
      <trkpt lat="48.67135" lon="2.47193">
        <ele>89</ele>
        <time>2018-01-31T12:59:30Z</time>
      </trkpt>
      <trkpt lat="48.67137" lon="2.47201">
        <ele>89</ele>
        <time>2018-01-31T12:59:30Z</time>
      </trkpt>
      <trkpt lat="48.67138" lon="2.47206">
        <ele>89</ele>
        <time>2018-01-31T12:59:50Z</time>
      </trkpt>
      <trkpt lat="48.67139" lon="2.47208">
        <ele>89</ele>
        <time>2018-01-31T12:59:50Z</time>
      </trkpt>
      <trkpt lat="48.6714" lon="2.47213">
        <ele>89</ele>
        <time>2018-01-31T12:59:50Z</time>
      </trkpt>
      <trkpt lat="48.6714" lon="2.47217">
        <ele>89</ele>
        <time>2018-01-31T12:59:50Z</time>
      </trkpt>
      <trkpt lat="48.67141" lon="2.47222">
        <ele>89</ele>
        <time>2018-01-31T12:59:50Z</time>
      </trkpt>
      <trkpt lat="48.67143" lon="2.47233">
        <ele>89</ele>
        <time>2018-01-31T13:00:06Z</time>
      </trkpt>
      <trkpt lat="48.67144" lon="2.47238">
        <ele>89</ele>
        <time>2018-01-31T13:00:06Z</time>
      </trkpt>
      <trkpt lat="48.67146" lon="2.47242">
        <ele>89</ele>
        <time>2018-01-31T13:00:06Z</time>
      </trkpt>
      <trkpt lat="48.67148" lon="2.47248">
        <ele>89</ele>
        <time>2018-01-31T13:00:06Z</time>
      </trkpt>
      <trkpt lat="48.67158" lon="2.47267">
        <ele>89</ele>
        <time>2018-01-31T13:00:38Z</time>
      </trkpt>
      <trkpt lat="48.67159" lon="2.47268">
        <ele>89</ele>
        <time>2018-01-31T13:00:38Z</time>
      </trkpt>
      <trkpt lat="48.67161" lon="2.47271">
        <ele>89</ele>
        <time>2018-01-31T13:00:38Z</time>
      </trkpt>
      <trkpt lat="48.67164" lon="2.47273">
        <ele>89</ele>
        <time>2018-01-31T13:00:38Z</time>
      </trkpt>
      <trkpt lat="48.67166" lon="2.47274">
        <ele>89</ele>
        <time>2018-01-31T13:00:38Z</time>
      </trkpt>
      <trkpt lat="48.67171" lon="2.4727">
        <ele>89</ele>
        <time>2018-01-31T13:00:54Z</time>
      </trkpt>
      <trkpt lat="48.67176" lon="2.47267">
        <ele>89</ele>
        <time>2018-01-31T13:00:54Z</time>
      </trkpt>
      <trkpt lat="48.67182" lon="2.47263">
        <ele>89</ele>
        <time>2018-01-31T13:00:54Z</time>
      </trkpt>
      <trkpt lat="48.67185" lon="2.47259">
        <ele>89</ele>
        <time>2018-01-31T13:00:54Z</time>
      </trkpt>
      <trkpt lat="48.67186" lon="2.47257">
        <ele>89</ele>
        <time>2018-01-31T13:01:10Z</time>
      </trkpt>
      <trkpt lat="48.67185" lon="2.47256">
        <ele>89</ele>
        <time>2018-01-31T13:01:10Z</time>
      </trkpt>
      <trkpt lat="48.67189" lon="2.47251">
        <ele>89</ele>
        <time>2018-01-31T13:01:10Z</time>
      </trkpt>
      <trkpt lat="48.67193" lon="2.47247">
        <ele>89</ele>
        <time>2018-01-31T13:01:10Z</time>
      </trkpt>
      <trkpt lat="48.67198" lon="2.47246">
        <ele>89</ele>
        <time>2018-01-31T13:01:26Z</time>
      </trkpt>
      <trkpt lat="48.67203" lon="2.47243">
        <ele>89</ele>
        <time>2018-01-31T13:01:26Z</time>
      </trkpt>
      <trkpt lat="48.6721" lon="2.47239">
        <ele>88</ele>
        <time>2018-01-31T13:01:26Z</time>
      </trkpt>
      <trkpt lat="48.67215" lon="2.47236">
        <ele>88</ele>
        <time>2018-01-31T13:01:26Z</time>
      </trkpt>
      <trkpt lat="48.67219" lon="2.47229">
        <ele>88</ele>
        <time>2018-01-31T13:01:42Z</time>
      </trkpt>
      <trkpt lat="48.67225" lon="2.47219">
        <ele>88</ele>
        <time>2018-01-31T13:01:42Z</time>
      </trkpt>
      <trkpt lat="48.67227" lon="2.47218">
        <ele>88</ele>
        <time>2018-01-31T13:01:42Z</time>
      </trkpt>
      <trkpt lat="48.67229" lon="2.47216">
        <ele>88</ele>
        <time>2018-01-31T13:01:42Z</time>
      </trkpt>
      <trkpt lat="48.67235" lon="2.47209">
        <ele>88</ele>
        <time>2018-01-31T13:02:02Z</time>
      </trkpt>
      <trkpt lat="48.67237" lon="2.47206">
        <ele>88</ele>
        <time>2018-01-31T13:02:02Z</time>
      </trkpt>
      <trkpt lat="48.67239" lon="2.47205">
        <ele>88</ele>
        <time>2018-01-31T13:02:02Z</time>
      </trkpt>
      <trkpt lat="48.67242" lon="2.47203">
        <ele>88</ele>
        <time>2018-01-31T13:02:02Z</time>
      </trkpt>
      <trkpt lat="48.67245" lon="2.47202">
        <ele>88</ele>
        <time>2018-01-31T13:02:02Z</time>
      </trkpt>
      <trkpt lat="48.67248" lon="2.47201">
        <ele>88</ele>
        <time>2018-01-31T13:02:18Z</time>
      </trkpt>
      <trkpt lat="48.67252" lon="2.47199">
        <ele>88</ele>
        <time>2018-01-31T13:02:18Z</time>
      </trkpt>
      <trkpt lat="48.67259" lon="2.47191">
        <ele>88</ele>
        <time>2018-01-31T13:02:18Z</time>
      </trkpt>
      <trkpt lat="48.67264" lon="2.47184">
        <ele>88</ele>
        <time>2018-01-31T13:02:18Z</time>
      </trkpt>
      <trkpt lat="48.67268" lon="2.47175">
        <ele>88</ele>
        <time>2018-01-31T13:02:34Z</time>
      </trkpt>
      <trkpt lat="48.67272" lon="2.47167">
        <ele>88</ele>
        <time>2018-01-31T13:02:34Z</time>
      </trkpt>
      <trkpt lat="48.67276" lon="2.47159">
        <ele>88</ele>
        <time>2018-01-31T13:02:34Z</time>
      </trkpt>
      <trkpt lat="48.67278" lon="2.47156">
        <ele>88</ele>
        <time>2018-01-31T13:02:34Z</time>
      </trkpt>
      <trkpt lat="48.67281" lon="2.4715">
        <ele>88</ele>
        <time>2018-01-31T13:02:50Z</time>
      </trkpt>
      <trkpt lat="48.67282" lon="2.47147">
        <ele>88</ele>
        <time>2018-01-31T13:02:50Z</time>
      </trkpt>
      <trkpt lat="48.67283" lon="2.47144">
        <ele>88</ele>
        <time>2018-01-31T13:02:50Z</time>
      </trkpt>
      <trkpt lat="48.67286" lon="2.47138">
        <ele>88</ele>
        <time>2018-01-31T13:02:50Z</time>
      </trkpt>
      <trkpt lat="48.6729" lon="2.47134">
        <ele>88</ele>
        <time>2018-01-31T13:03:06Z</time>
      </trkpt>
      <trkpt lat="48.67296" lon="2.47129">
        <ele>88</ele>
        <time>2018-01-31T13:03:06Z</time>
      </trkpt>
      <trkpt lat="48.673" lon="2.47127">
        <ele>88</ele>
        <time>2018-01-31T13:03:06Z</time>
      </trkpt>
      <trkpt lat="48.67304" lon="2.47126">
        <ele>88</ele>
        <time>2018-01-31T13:03:06Z</time>
      </trkpt>
      <trkpt lat="48.67309" lon="2.47125">
        <ele>88</ele>
        <time>2018-01-31T13:03:22Z</time>
      </trkpt>
      <trkpt lat="48.67313" lon="2.47121">
        <ele>88</ele>
        <time>2018-01-31T13:03:22Z</time>
      </trkpt>
      <trkpt lat="48.67317" lon="2.47117">
        <ele>88</ele>
        <time>2018-01-31T13:03:22Z</time>
      </trkpt>
      <trkpt lat="48.67321" lon="2.47114">
        <ele>88</ele>
        <time>2018-01-31T13:03:22Z</time>
      </trkpt>
      <trkpt lat="48.67325" lon="2.47112">
        <ele>88</ele>
        <time>2018-01-31T13:03:38Z</time>
      </trkpt>
      <trkpt lat="48.67328" lon="2.47109">
        <ele>88</ele>
        <time>2018-01-31T13:03:38Z</time>
      </trkpt>
      <trkpt lat="48.67331" lon="2.47107">
        <ele>88</ele>
        <time>2018-01-31T13:03:38Z</time>
      </trkpt>
      <trkpt lat="48.67335" lon="2.47105">
        <ele>88</ele>
        <time>2018-01-31T13:03:38Z</time>
      </trkpt>
      <trkpt lat="48.6734" lon="2.471">
        <ele>88</ele>
        <time>2018-01-31T13:03:54Z</time>
      </trkpt>
      <trkpt lat="48.67346" lon="2.47095">
        <ele>88</ele>
        <time>2018-01-31T13:03:54Z</time>
      </trkpt>
      <trkpt lat="48.67349" lon="2.47091">
        <ele>88</ele>
        <time>2018-01-31T13:03:54Z</time>
      </trkpt>
      <trkpt lat="48.67354" lon="2.47086">
        <ele>88</ele>
        <time>2018-01-31T13:03:54Z</time>
      </trkpt>
      <trkpt lat="48.67357" lon="2.47081">
        <ele>88</ele>
        <time>2018-01-31T13:04:10Z</time>
      </trkpt>
      <trkpt lat="48.67361" lon="2.47075">
        <ele>88</ele>
        <time>2018-01-31T13:04:10Z</time>
      </trkpt>
      <trkpt lat="48.67363" lon="2.47073">
        <ele>88</ele>
        <time>2018-01-31T13:04:10Z</time>
      </trkpt>
      <trkpt lat="48.67365" lon="2.47072">
        <ele>88</ele>
        <time>2018-01-31T13:04:10Z</time>
      </trkpt>
      <trkpt lat="48.67368" lon="2.47069">
        <ele>88</ele>
        <time>2018-01-31T13:04:26Z</time>
      </trkpt>
      <trkpt lat="48.67372" lon="2.47066">
        <ele>88</ele>
        <time>2018-01-31T13:04:26Z</time>
      </trkpt>
      <trkpt lat="48.67377" lon="2.4706">
        <ele>88</ele>
        <time>2018-01-31T13:04:26Z</time>
      </trkpt>
      <trkpt lat="48.67382" lon="2.47056">
        <ele>88</ele>
        <time>2018-01-31T13:04:26Z</time>
      </trkpt>
      <trkpt lat="48.67386" lon="2.47051">
        <ele>88</ele>
        <time>2018-01-31T13:04:42Z</time>
      </trkpt>
      <trkpt lat="48.67389" lon="2.47047">
        <ele>88</ele>
        <time>2018-01-31T13:04:42Z</time>
      </trkpt>
      <trkpt lat="48.67393" lon="2.47043">
        <ele>88</ele>
        <time>2018-01-31T13:04:42Z</time>
      </trkpt>
      <trkpt lat="48.67398" lon="2.4704">
        <ele>87</ele>
        <time>2018-01-31T13:04:42Z</time>
      </trkpt>
      <trkpt lat="48.67401" lon="2.47037">
        <ele>87</ele>
        <time>2018-01-31T13:04:58Z</time>
      </trkpt>
      <trkpt lat="48.67405" lon="2.47034">
        <ele>87</ele>
        <time>2018-01-31T13:04:58Z</time>
      </trkpt>
      <trkpt lat="48.67409" lon="2.4703">
        <ele>87</ele>
        <time>2018-01-31T13:04:58Z</time>
      </trkpt>
      <trkpt lat="48.67412" lon="2.47026">
        <ele>87</ele>
        <time>2018-01-31T13:04:58Z</time>
      </trkpt>
      <trkpt lat="48.67417" lon="2.4702">
        <ele>87</ele>
        <time>2018-01-31T13:05:14Z</time>
      </trkpt>
      <trkpt lat="48.67421" lon="2.47017">
        <ele>87</ele>
        <time>2018-01-31T13:05:14Z</time>
      </trkpt>
      <trkpt lat="48.67425" lon="2.47013">
        <ele>87</ele>
        <time>2018-01-31T13:05:14Z</time>
      </trkpt>
      <trkpt lat="48.67428" lon="2.47008">
        <ele>87</ele>
        <time>2018-01-31T13:05:14Z</time>
      </trkpt>
      <trkpt lat="48.67438" lon="2.46993">
        <ele>87</ele>
        <time>2018-01-31T13:05:46Z</time>
      </trkpt>
      <trkpt lat="48.67443" lon="2.46988">
        <ele>87</ele>
        <time>2018-01-31T13:05:46Z</time>
      </trkpt>
      <trkpt lat="48.67447" lon="2.46982">
        <ele>87</ele>
        <time>2018-01-31T13:05:46Z</time>
      </trkpt>
      <trkpt lat="48.67451" lon="2.46979">
        <ele>87</ele>
        <time>2018-01-31T13:05:46Z</time>
      </trkpt>
      <trkpt lat="48.67455" lon="2.46975">
        <ele>87</ele>
        <time>2018-01-31T13:05:46Z</time>
      </trkpt>
      <trkpt lat="48.67458" lon="2.46971">
        <ele>87</ele>
        <time>2018-01-31T13:06:02Z</time>
      </trkpt>
      <trkpt lat="48.67461" lon="2.46966">
        <ele>86</ele>
        <time>2018-01-31T13:06:02Z</time>
      </trkpt>
      <trkpt lat="48.67465" lon="2.46962">
        <ele>86</ele>
        <time>2018-01-31T13:06:02Z</time>
      </trkpt>
      <trkpt lat="48.67468" lon="2.46958">
        <ele>86</ele>
        <time>2018-01-31T13:06:02Z</time>
      </trkpt>
      <trkpt lat="48.6747" lon="2.46954">
        <ele>86</ele>
        <time>2018-01-31T13:06:18Z</time>
      </trkpt>
      <trkpt lat="48.67474" lon="2.4695">
        <ele>86</ele>
        <time>2018-01-31T13:06:18Z</time>
      </trkpt>
      <trkpt lat="48.67478" lon="2.46945">
        <ele>86</ele>
        <time>2018-01-31T13:06:18Z</time>
      </trkpt>
      <trkpt lat="48.67482" lon="2.4694">
        <ele>86</ele>
        <time>2018-01-31T13:06:18Z</time>
      </trkpt>
      <trkpt lat="48.67484" lon="2.46936">
        <ele>86</ele>
        <time>2018-01-31T13:06:34Z</time>
      </trkpt>
      <trkpt lat="48.67487" lon="2.46934">
        <ele>86</ele>
        <time>2018-01-31T13:06:34Z</time>
      </trkpt>
      <trkpt lat="48.67491" lon="2.46931">
        <ele>86</ele>
        <time>2018-01-31T13:06:34Z</time>
      </trkpt>
      <trkpt lat="48.67494" lon="2.46926">
        <ele>86</ele>
        <time>2018-01-31T13:06:34Z</time>
      </trkpt>
      <trkpt lat="48.67497" lon="2.46921">
        <ele>86</ele>
        <time>2018-01-31T13:06:50Z</time>
      </trkpt>
      <trkpt lat="48.675" lon="2.46918">
        <ele>86</ele>
        <time>2018-01-31T13:06:50Z</time>
      </trkpt>
      <trkpt lat="48.67505" lon="2.46914">
        <ele>86</ele>
        <time>2018-01-31T13:06:50Z</time>
      </trkpt>
      <trkpt lat="48.67507" lon="2.46913">
        <ele>86</ele>
        <time>2018-01-31T13:06:50Z</time>
      </trkpt>
      <trkpt lat="48.67511" lon="2.4691">
        <ele>86</ele>
        <time>2018-01-31T13:07:06Z</time>
      </trkpt>
      <trkpt lat="48.67515" lon="2.46907">
        <ele>86</ele>
        <time>2018-01-31T13:07:06Z</time>
      </trkpt>
      <trkpt lat="48.67519" lon="2.46905">
        <ele>86</ele>
        <time>2018-01-31T13:07:06Z</time>
      </trkpt>
      <trkpt lat="48.67525" lon="2.46901">
        <ele>86</ele>
        <time>2018-01-31T13:07:06Z</time>
      </trkpt>
      <trkpt lat="48.67529" lon="2.46898">
        <ele>86</ele>
        <time>2018-01-31T13:07:22Z</time>
      </trkpt>
      <trkpt lat="48.67534" lon="2.46893">
        <ele>86</ele>
        <time>2018-01-31T13:07:22Z</time>
      </trkpt>
      <trkpt lat="48.67535" lon="2.4689">
        <ele>86</ele>
        <time>2018-01-31T13:07:22Z</time>
      </trkpt>
      <trkpt lat="48.67539" lon="2.46886">
        <ele>86</ele>
        <time>2018-01-31T13:07:22Z</time>
      </trkpt>
      <trkpt lat="48.67541" lon="2.46886">
        <ele>86</ele>
        <time>2018-01-31T13:07:38Z</time>
      </trkpt>
      <trkpt lat="48.67546" lon="2.46881">
        <ele>87</ele>
        <time>2018-01-31T13:07:38Z</time>
      </trkpt>
      <trkpt lat="48.6755" lon="2.46876">
        <ele>87</ele>
        <time>2018-01-31T13:07:38Z</time>
      </trkpt>
      <trkpt lat="48.67556" lon="2.46871">
        <ele>87</ele>
        <time>2018-01-31T13:07:38Z</time>
      </trkpt>
      <trkpt lat="48.67563" lon="2.46865">
        <ele>87</ele>
        <time>2018-01-31T13:07:54Z</time>
      </trkpt>
      <trkpt lat="48.67567" lon="2.4686">
        <ele>87</ele>
        <time>2018-01-31T13:07:54Z</time>
      </trkpt>
      <trkpt lat="48.67571" lon="2.46856">
        <ele>87</ele>
        <time>2018-01-31T13:07:54Z</time>
      </trkpt>
      <trkpt lat="48.67577" lon="2.46847">
        <ele>87</ele>
        <time>2018-01-31T13:07:54Z</time>
      </trkpt>
      <trkpt lat="48.67583" lon="2.46842">
        <ele>87</ele>
        <time>2018-01-31T13:08:14Z</time>
      </trkpt>
      <trkpt lat="48.67584" lon="2.46842">
        <ele>87</ele>
        <time>2018-01-31T13:08:14Z</time>
      </trkpt>
      <trkpt lat="48.67586" lon="2.46842">
        <ele>87</ele>
        <time>2018-01-31T13:08:14Z</time>
      </trkpt>
      <trkpt lat="48.67589" lon="2.46839">
        <ele>87</ele>
        <time>2018-01-31T13:08:14Z</time>
      </trkpt>
      <trkpt lat="48.67592" lon="2.46835">
        <ele>87</ele>
        <time>2018-01-31T13:08:14Z</time>
      </trkpt>
      <trkpt lat="48.67595" lon="2.46831">
        <ele>87</ele>
        <time>2018-01-31T13:08:30Z</time>
      </trkpt>
      <trkpt lat="48.67598" lon="2.46826">
        <ele>87</ele>
        <time>2018-01-31T13:08:30Z</time>
      </trkpt>
      <trkpt lat="48.67601" lon="2.46822">
        <ele>87</ele>
        <time>2018-01-31T13:08:30Z</time>
      </trkpt>
      <trkpt lat="48.67606" lon="2.46817">
        <ele>87</ele>
        <time>2018-01-31T13:08:30Z</time>
      </trkpt>
      <trkpt lat="48.67609" lon="2.46814">
        <ele>87</ele>
        <time>2018-01-31T13:08:46Z</time>
      </trkpt>
      <trkpt lat="48.67616" lon="2.46807">
        <ele>87</ele>
        <time>2018-01-31T13:08:46Z</time>
      </trkpt>
      <trkpt lat="48.6762" lon="2.46802">
        <ele>87</ele>
        <time>2018-01-31T13:08:46Z</time>
      </trkpt>
      <trkpt lat="48.67626" lon="2.46796">
        <ele>89</ele>
        <time>2018-01-31T13:08:46Z</time>
      </trkpt>
      <trkpt lat="48.67631" lon="2.46792">
        <ele>87</ele>
        <time>2018-01-31T13:09:14Z</time>
      </trkpt>
      <trkpt lat="48.67634" lon="2.4679">
        <ele>87</ele>
        <time>2018-01-31T13:09:14Z</time>
      </trkpt>
      <trkpt lat="48.67637" lon="2.46788">
        <ele>87</ele>
        <time>2018-01-31T13:09:14Z</time>
      </trkpt>
      <trkpt lat="48.6764" lon="2.46785">
        <ele>87</ele>
        <time>2018-01-31T13:09:14Z</time>
      </trkpt>
      <trkpt lat="48.67645" lon="2.46781">
        <ele>87</ele>
        <time>2018-01-31T13:09:14Z</time>
      </trkpt>
      <trkpt lat="48.67648" lon="2.46779">
        <ele>87</ele>
        <time>2018-01-31T13:09:30Z</time>
      </trkpt>
      <trkpt lat="48.67653" lon="2.46776">
        <ele>87</ele>
        <time>2018-01-31T13:09:30Z</time>
      </trkpt>
      <trkpt lat="48.67659" lon="2.46771">
        <ele>87</ele>
        <time>2018-01-31T13:09:30Z</time>
      </trkpt>
      <trkpt lat="48.67661" lon="2.46768">
        <ele>87</ele>
        <time>2018-01-31T13:09:30Z</time>
      </trkpt>
      <trkpt lat="48.67664" lon="2.46765">
        <ele>87</ele>
        <time>2018-01-31T13:09:46Z</time>
      </trkpt>
      <trkpt lat="48.67666" lon="2.46762">
        <ele>87</ele>
        <time>2018-01-31T13:09:46Z</time>
      </trkpt>
      <trkpt lat="48.6767" lon="2.46758">
        <ele>87</ele>
        <time>2018-01-31T13:09:46Z</time>
      </trkpt>
      <trkpt lat="48.67674" lon="2.46755">
        <ele>87</ele>
        <time>2018-01-31T13:09:46Z</time>
      </trkpt>
      <trkpt lat="48.67676" lon="2.46754">
        <ele>87</ele>
        <time>2018-01-31T13:10:06Z</time>
      </trkpt>
      <trkpt lat="48.67679" lon="2.46751">
        <ele>87</ele>
        <time>2018-01-31T13:10:06Z</time>
      </trkpt>
      <trkpt lat="48.67681" lon="2.4675">
        <ele>87</ele>
        <time>2018-01-31T13:10:06Z</time>
      </trkpt>
      <trkpt lat="48.67683" lon="2.4675">
        <ele>87</ele>
        <time>2018-01-31T13:10:06Z</time>
      </trkpt>
      <trkpt lat="48.67688" lon="2.46745">
        <ele>87</ele>
        <time>2018-01-31T13:10:06Z</time>
      </trkpt>
      <trkpt lat="48.67691" lon="2.46741">
        <ele>87</ele>
        <time>2018-01-31T13:10:22Z</time>
      </trkpt>
      <trkpt lat="48.67696" lon="2.46738">
        <ele>87</ele>
        <time>2018-01-31T13:10:22Z</time>
      </trkpt>
      <trkpt lat="48.67702" lon="2.46734">
        <ele>87</ele>
        <time>2018-01-31T13:10:22Z</time>
      </trkpt>
      <trkpt lat="48.67704" lon="2.46734">
        <ele>87</ele>
        <time>2018-01-31T13:10:22Z</time>
      </trkpt>
      <trkpt lat="48.67709" lon="2.46732">
        <ele>90</ele>
        <time>2018-01-31T13:10:38Z</time>
      </trkpt>
      <trkpt lat="48.67713" lon="2.46727">
        <ele>90</ele>
        <time>2018-01-31T13:10:38Z</time>
      </trkpt>
      <trkpt lat="48.67717" lon="2.46723">
        <ele>90</ele>
        <time>2018-01-31T13:10:38Z</time>
      </trkpt>
      <trkpt lat="48.67719" lon="2.46719">
        <ele>90</ele>
        <time>2018-01-31T13:10:38Z</time>
      </trkpt>
      <trkpt lat="48.6772" lon="2.46698">
        <ele>88</ele>
        <time>2018-01-31T13:11:14Z</time>
      </trkpt>
      <trkpt lat="48.67719" lon="2.46697">
        <ele>88</ele>
        <time>2018-01-31T13:11:14Z</time>
      </trkpt>
      <trkpt lat="48.67719" lon="2.46697">
        <ele>88</ele>
        <time>2018-01-31T13:11:14Z</time>
      </trkpt>
      <trkpt lat="48.67718" lon="2.46698">
        <ele>88</ele>
        <time>2018-01-31T13:11:14Z</time>
      </trkpt>
      <trkpt lat="48.67716" lon="2.467">
        <ele>88</ele>
        <time>2018-01-31T13:11:14Z</time>
      </trkpt>
      <trkpt lat="48.67707" lon="2.46697">
        <ele>86</ele>
        <time>2018-01-31T13:12:06Z</time>
      </trkpt>
      <trkpt lat="48.67707" lon="2.46696">
        <ele>86</ele>
        <time>2018-01-31T13:12:06Z</time>
      </trkpt>
      <trkpt lat="48.67706" lon="2.46696">
        <ele>86</ele>
        <time>2018-01-31T13:12:06Z</time>
      </trkpt>
      <trkpt lat="48.67706" lon="2.46695">
        <ele>86</ele>
        <time>2018-01-31T13:12:06Z</time>
      </trkpt>
      <trkpt lat="48.67704" lon="2.46696">
        <ele>86</ele>
        <time>2018-01-31T13:12:06Z</time>
      </trkpt>
      <trkpt lat="48.67703" lon="2.46696">
        <ele>86</ele>
        <time>2018-01-31T13:13:06Z</time>
      </trkpt>
      <trkpt lat="48.67702" lon="2.46691">
        <ele>86</ele>
        <time>2018-01-31T13:13:06Z</time>
      </trkpt>
      <trkpt lat="48.67703" lon="2.46688">
        <ele>86</ele>
        <time>2018-01-31T13:13:06Z</time>
      </trkpt>
      <trkpt lat="48.677" lon="2.46681">
        <ele>86</ele>
        <time>2018-01-31T13:13:06Z</time>
      </trkpt>
      <trkpt lat="48.67697" lon="2.46676">
        <ele>86</ele>
        <time>2018-01-31T13:13:06Z</time>
      </trkpt>
      <trkpt lat="48.67692" lon="2.46672">
        <ele>86</ele>
        <time>2018-01-31T13:13:30Z</time>
      </trkpt>
      <trkpt lat="48.67688" lon="2.46674">
        <ele>86</ele>
        <time>2018-01-31T13:13:30Z</time>
      </trkpt>
      <trkpt lat="48.67686" lon="2.46673">
        <ele>86</ele>
        <time>2018-01-31T13:13:30Z</time>
      </trkpt>
      <trkpt lat="48.67686" lon="2.46673">
        <ele>86</ele>
        <time>2018-01-31T13:13:30Z</time>
      </trkpt>
      <trkpt lat="48.67686" lon="2.46673">
        <ele>86</ele>
        <time>2018-01-31T13:13:30Z</time>
      </trkpt>
      <trkpt lat="48.67678" lon="2.46674">
        <ele>86</ele>
        <time>2018-01-31T13:14:14Z</time>
      </trkpt>
      <trkpt lat="48.67678" lon="2.46674">
        <ele>86</ele>
        <time>2018-01-31T13:14:14Z</time>
      </trkpt>
      <trkpt lat="48.67678" lon="2.46671">
        <ele>86</ele>
        <time>2018-01-31T13:14:14Z</time>
      </trkpt>
      <trkpt lat="48.67677" lon="2.46672">
        <ele>86</ele>
        <time>2018-01-31T13:14:14Z</time>
      </trkpt>
      <trkpt lat="48.67675" lon="2.46666">
        <ele>86</ele>
        <time>2018-01-31T13:14:14Z</time>
      </trkpt>
      <trkpt lat="48.67673" lon="2.46667">
        <ele>86</ele>
        <time>2018-01-31T13:15:22Z</time>
      </trkpt>
      <trkpt lat="48.67672" lon="2.46668">
        <ele>86</ele>
        <time>2018-01-31T13:15:22Z</time>
      </trkpt>
      <trkpt lat="48.67672" lon="2.46671">
        <ele>86</ele>
        <time>2018-01-31T13:15:22Z</time>
      </trkpt>
      <trkpt lat="48.67674" lon="2.46674">
        <ele>86</ele>
        <time>2018-01-31T13:15:22Z</time>
      </trkpt>
      <trkpt lat="48.67675" lon="2.46681">
        <ele>86</ele>
        <time>2018-01-31T13:15:22Z</time>
      </trkpt>
      <trkpt lat="48.67677" lon="2.46687">
        <ele>86</ele>
        <time>2018-01-31T13:15:38Z</time>
      </trkpt>
      <trkpt lat="48.67679" lon="2.46692">
        <ele>86</ele>
        <time>2018-01-31T13:15:38Z</time>
      </trkpt>
      <trkpt lat="48.67682" lon="2.467">
        <ele>86</ele>
        <time>2018-01-31T13:15:38Z</time>
      </trkpt>
      <trkpt lat="48.67685" lon="2.46706">
        <ele>86</ele>
        <time>2018-01-31T13:15:38Z</time>
      </trkpt>
      <trkpt lat="48.67694" lon="2.46704">
        <ele>86</ele>
        <time>2018-01-31T13:16:22Z</time>
      </trkpt>
      <trkpt lat="48.67694" lon="2.46704">
        <ele>86</ele>
        <time>2018-01-31T13:16:22Z</time>
      </trkpt>
      <trkpt lat="48.67695" lon="2.46704">
        <ele>86</ele>
        <time>2018-01-31T13:16:22Z</time>
      </trkpt>
      <trkpt lat="48.67695" lon="2.46704">
        <ele>86</ele>
        <time>2018-01-31T13:16:22Z</time>
      </trkpt>
      <trkpt lat="48.67696" lon="2.46704">
        <ele>86</ele>
        <time>2018-01-31T13:16:22Z</time>
      </trkpt>
      <trkpt lat="48.67701" lon="2.46705">
        <ele>86</ele>
        <time>2018-01-31T13:17:10Z</time>
      </trkpt>
      <trkpt lat="48.677" lon="2.46702">
        <ele>86</ele>
        <time>2018-01-31T13:17:10Z</time>
      </trkpt>
      <trkpt lat="48.67701" lon="2.46696">
        <ele>86</ele>
        <time>2018-01-31T13:17:10Z</time>
      </trkpt>
      <trkpt lat="48.67705" lon="2.46687">
        <ele>86</ele>
        <time>2018-01-31T13:17:10Z</time>
      </trkpt>
      <trkpt lat="48.6771" lon="2.46683">
        <ele>88</ele>
        <time>2018-01-31T13:17:10Z</time>
      </trkpt>
      <trkpt lat="48.67716" lon="2.46678">
        <ele>88</ele>
        <time>2018-01-31T13:17:26Z</time>
      </trkpt>
      <trkpt lat="48.67721" lon="2.46674">
        <ele>88</ele>
        <time>2018-01-31T13:17:26Z</time>
      </trkpt>
      <trkpt lat="48.67726" lon="2.46668">
        <ele>88</ele>
        <time>2018-01-31T13:17:26Z</time>
      </trkpt>
      <trkpt lat="48.67732" lon="2.46663">
        <ele>88</ele>
        <time>2018-01-31T13:17:26Z</time>
      </trkpt>
      <trkpt lat="48.67737" lon="2.46656">
        <ele>88</ele>
        <time>2018-01-31T13:17:42Z</time>
      </trkpt>
      <trkpt lat="48.67741" lon="2.46652">
        <ele>88</ele>
        <time>2018-01-31T13:17:42Z</time>
      </trkpt>
      <trkpt lat="48.67744" lon="2.46649">
        <ele>88</ele>
        <time>2018-01-31T13:17:42Z</time>
      </trkpt>
      <trkpt lat="48.67748" lon="2.46647">
        <ele>88</ele>
        <time>2018-01-31T13:17:42Z</time>
      </trkpt>
      <trkpt lat="48.67752" lon="2.46643">
        <ele>88</ele>
        <time>2018-01-31T13:17:58Z</time>
      </trkpt>
      <trkpt lat="48.67755" lon="2.46639">
        <ele>88</ele>
        <time>2018-01-31T13:17:58Z</time>
      </trkpt>
      <trkpt lat="48.6776" lon="2.46636">
        <ele>88</ele>
        <time>2018-01-31T13:17:58Z</time>
      </trkpt>
      <trkpt lat="48.67765" lon="2.46631">
        <ele>88</ele>
        <time>2018-01-31T13:17:58Z</time>
      </trkpt>
      <trkpt lat="48.6777" lon="2.46626">
        <ele>88</ele>
        <time>2018-01-31T13:18:14Z</time>
      </trkpt>
      <trkpt lat="48.67775" lon="2.46618">
        <ele>87</ele>
        <time>2018-01-31T13:18:14Z</time>
      </trkpt>
      <trkpt lat="48.67779" lon="2.46614">
        <ele>87</ele>
        <time>2018-01-31T13:18:14Z</time>
      </trkpt>
      <trkpt lat="48.67782" lon="2.4661">
        <ele>87</ele>
        <time>2018-01-31T13:18:14Z</time>
      </trkpt>
      <trkpt lat="48.67787" lon="2.46606">
        <ele>87</ele>
        <time>2018-01-31T13:18:30Z</time>
      </trkpt>
      <trkpt lat="48.67791" lon="2.46605">
        <ele>87</ele>
        <time>2018-01-31T13:18:30Z</time>
      </trkpt>
      <trkpt lat="48.67794" lon="2.46603">
        <ele>91</ele>
        <time>2018-01-31T13:18:30Z</time>
      </trkpt>
      <trkpt lat="48.67798" lon="2.466">
        <ele>91</ele>
        <time>2018-01-31T13:18:30Z</time>
      </trkpt>
      <trkpt lat="48.67804" lon="2.46595">
        <ele>91</ele>
        <time>2018-01-31T13:18:46Z</time>
      </trkpt>
      <trkpt lat="48.67809" lon="2.46589">
        <ele>91</ele>
        <time>2018-01-31T13:18:46Z</time>
      </trkpt>
      <trkpt lat="48.67812" lon="2.46584">
        <ele>91</ele>
        <time>2018-01-31T13:18:46Z</time>
      </trkpt>
      <trkpt lat="48.67815" lon="2.4658">
        <ele>91</ele>
        <time>2018-01-31T13:18:46Z</time>
      </trkpt>
      <trkpt lat="48.67818" lon="2.46578">
        <ele>91</ele>
        <time>2018-01-31T13:19:02Z</time>
      </trkpt>
      <trkpt lat="48.67822" lon="2.46572">
        <ele>91</ele>
        <time>2018-01-31T13:19:02Z</time>
      </trkpt>
      <trkpt lat="48.67826" lon="2.46569">
        <ele>91</ele>
        <time>2018-01-31T13:19:02Z</time>
      </trkpt>
      <trkpt lat="48.67831" lon="2.46563">
        <ele>91</ele>
        <time>2018-01-31T13:19:02Z</time>
      </trkpt>
      <trkpt lat="48.67835" lon="2.46562">
        <ele>91</ele>
        <time>2018-01-31T13:19:18Z</time>
      </trkpt>
      <trkpt lat="48.67839" lon="2.46556">
        <ele>91</ele>
        <time>2018-01-31T13:19:18Z</time>
      </trkpt>
      <trkpt lat="48.67845" lon="2.4655">
        <ele>91</ele>
        <time>2018-01-31T13:19:18Z</time>
      </trkpt>
      <trkpt lat="48.67847" lon="2.46548">
        <ele>91</ele>
        <time>2018-01-31T13:19:18Z</time>
      </trkpt>
      <trkpt lat="48.67849" lon="2.46545">
        <ele>91</ele>
        <time>2018-01-31T13:19:34Z</time>
      </trkpt>
      <trkpt lat="48.67855" lon="2.46539">
        <ele>90</ele>
        <time>2018-01-31T13:19:34Z</time>
      </trkpt>
      <trkpt lat="48.67861" lon="2.46534">
        <ele>90</ele>
        <time>2018-01-31T13:19:34Z</time>
      </trkpt>
      <trkpt lat="48.67867" lon="2.46527">
        <ele>90</ele>
        <time>2018-01-31T13:19:34Z</time>
      </trkpt>
      <trkpt lat="48.67871" lon="2.46523">
        <ele>90</ele>
        <time>2018-01-31T13:19:50Z</time>
      </trkpt>
      <trkpt lat="48.67874" lon="2.46519">
        <ele>90</ele>
        <time>2018-01-31T13:19:50Z</time>
      </trkpt>
      <trkpt lat="48.67879" lon="2.46515">
        <ele>89</ele>
        <time>2018-01-31T13:19:50Z</time>
      </trkpt>
      <trkpt lat="48.67882" lon="2.46512">
        <ele>89</ele>
        <time>2018-01-31T13:19:50Z</time>
      </trkpt>
      <trkpt lat="48.67885" lon="2.46509">
        <ele>89</ele>
        <time>2018-01-31T13:20:06Z</time>
      </trkpt>
      <trkpt lat="48.6789" lon="2.46503">
        <ele>89</ele>
        <time>2018-01-31T13:20:06Z</time>
      </trkpt>
      <trkpt lat="48.67894" lon="2.46499">
        <ele>89</ele>
        <time>2018-01-31T13:20:06Z</time>
      </trkpt>
      <trkpt lat="48.67898" lon="2.46499">
        <ele>89</ele>
        <time>2018-01-31T13:20:06Z</time>
      </trkpt>
      <trkpt lat="48.67904" lon="2.46496">
        <ele>89</ele>
        <time>2018-01-31T13:20:22Z</time>
      </trkpt>
      <trkpt lat="48.67911" lon="2.4649">
        <ele>89</ele>
        <time>2018-01-31T13:20:22Z</time>
      </trkpt>
      <trkpt lat="48.67914" lon="2.46488">
        <ele>89</ele>
        <time>2018-01-31T13:20:22Z</time>
      </trkpt>
      <trkpt lat="48.67916" lon="2.46484">
        <ele>89</ele>
        <time>2018-01-31T13:20:22Z</time>
      </trkpt>
      <trkpt lat="48.67922" lon="2.46481">
        <ele>89</ele>
        <time>2018-01-31T13:20:38Z</time>
      </trkpt>
      <trkpt lat="48.67928" lon="2.46478">
        <ele>89</ele>
        <time>2018-01-31T13:20:38Z</time>
      </trkpt>
      <trkpt lat="48.67932" lon="2.46478">
        <ele>89</ele>
        <time>2018-01-31T13:20:38Z</time>
      </trkpt>
      <trkpt lat="48.67935" lon="2.46481">
        <ele>89</ele>
        <time>2018-01-31T13:20:38Z</time>
      </trkpt>
      <trkpt lat="48.67941" lon="2.46481">
        <ele>89</ele>
        <time>2018-01-31T13:20:54Z</time>
      </trkpt>
      <trkpt lat="48.67947" lon="2.46476">
        <ele>89</ele>
        <time>2018-01-31T13:20:54Z</time>
      </trkpt>
      <trkpt lat="48.67947" lon="2.46473">
        <ele>89</ele>
        <time>2018-01-31T13:20:54Z</time>
      </trkpt>
      <trkpt lat="48.67952" lon="2.46467">
        <ele>89</ele>
        <time>2018-01-31T13:20:54Z</time>
      </trkpt>
      <trkpt lat="48.67955" lon="2.46465">
        <ele>89</ele>
        <time>2018-01-31T13:21:10Z</time>
      </trkpt>
      <trkpt lat="48.67957" lon="2.46463">
        <ele>89</ele>
        <time>2018-01-31T13:21:10Z</time>
      </trkpt>
      <trkpt lat="48.67961" lon="2.46464">
        <ele>91</ele>
        <time>2018-01-31T13:21:10Z</time>
      </trkpt>
      <trkpt lat="48.67965" lon="2.46463">
        <ele>91</ele>
        <time>2018-01-31T13:21:10Z</time>
      </trkpt>
      <trkpt lat="48.6797" lon="2.46465">
        <ele>91</ele>
        <time>2018-01-31T13:21:26Z</time>
      </trkpt>
      <trkpt lat="48.67974" lon="2.46466">
        <ele>91</ele>
        <time>2018-01-31T13:21:26Z</time>
      </trkpt>
      <trkpt lat="48.67977" lon="2.46468">
        <ele>91</ele>
        <time>2018-01-31T13:21:26Z</time>
      </trkpt>
      <trkpt lat="48.67982" lon="2.4647">
        <ele>91</ele>
        <time>2018-01-31T13:21:26Z</time>
      </trkpt>
      <trkpt lat="48.67987" lon="2.46472">
        <ele>91</ele>
        <time>2018-01-31T13:21:42Z</time>
      </trkpt>
      <trkpt lat="48.67992" lon="2.46473">
        <ele>91</ele>
        <time>2018-01-31T13:21:42Z</time>
      </trkpt>
      <trkpt lat="48.67995" lon="2.46476">
        <ele>91</ele>
        <time>2018-01-31T13:21:42Z</time>
      </trkpt>
      <trkpt lat="48.68001" lon="2.46481">
        <ele>91</ele>
        <time>2018-01-31T13:21:42Z</time>
      </trkpt>
      <trkpt lat="48.68007" lon="2.46484">
        <ele>91</ele>
        <time>2018-01-31T13:21:58Z</time>
      </trkpt>
      <trkpt lat="48.68011" lon="2.46486">
        <ele>91</ele>
        <time>2018-01-31T13:21:58Z</time>
      </trkpt>
      <trkpt lat="48.68015" lon="2.46488">
        <ele>91</ele>
        <time>2018-01-31T13:21:58Z</time>
      </trkpt>
      <trkpt lat="48.68022" lon="2.4649">
        <ele>91</ele>
        <time>2018-01-31T13:21:58Z</time>
      </trkpt>
      <trkpt lat="48.68025" lon="2.46491">
        <ele>91</ele>
        <time>2018-01-31T13:22:14Z</time>
      </trkpt>
      <trkpt lat="48.68031" lon="2.46493">
        <ele>91</ele>
        <time>2018-01-31T13:22:14Z</time>
      </trkpt>
      <trkpt lat="48.68039" lon="2.46495">
        <ele>91</ele>
        <time>2018-01-31T13:22:14Z</time>
      </trkpt>
      <trkpt lat="48.68045" lon="2.46494">
        <ele>90</ele>
        <time>2018-01-31T13:22:14Z</time>
      </trkpt>
      <trkpt lat="48.68049" lon="2.46494">
        <ele>90</ele>
        <time>2018-01-31T13:22:30Z</time>
      </trkpt>
      <trkpt lat="48.68052" lon="2.46496">
        <ele>90</ele>
        <time>2018-01-31T13:22:30Z</time>
      </trkpt>
      <trkpt lat="48.68056" lon="2.46497">
        <ele>90</ele>
        <time>2018-01-31T13:22:30Z</time>
      </trkpt>
      <trkpt lat="48.68058" lon="2.46498">
        <ele>90</ele>
        <time>2018-01-31T13:22:30Z</time>
      </trkpt>
      <trkpt lat="48.68064" lon="2.46498">
        <ele>90</ele>
        <time>2018-01-31T13:22:46Z</time>
      </trkpt>
      <trkpt lat="48.68068" lon="2.46498">
        <ele>90</ele>
        <time>2018-01-31T13:22:46Z</time>
      </trkpt>
      <trkpt lat="48.68074" lon="2.46499">
        <ele>90</ele>
        <time>2018-01-31T13:22:46Z</time>
      </trkpt>
      <trkpt lat="48.68079" lon="2.46501">
        <ele>90</ele>
        <time>2018-01-31T13:22:46Z</time>
      </trkpt>
      <trkpt lat="48.68085" lon="2.46503">
        <ele>90</ele>
        <time>2018-01-31T13:23:02Z</time>
      </trkpt>
      <trkpt lat="48.68093" lon="2.46506">
        <ele>90</ele>
        <time>2018-01-31T13:23:02Z</time>
      </trkpt>
      <trkpt lat="48.68098" lon="2.4651">
        <ele>90</ele>
        <time>2018-01-31T13:23:02Z</time>
      </trkpt>
      <trkpt lat="48.68104" lon="2.46511">
        <ele>90</ele>
        <time>2018-01-31T13:23:02Z</time>
      </trkpt>
      <trkpt lat="48.6811" lon="2.46512">
        <ele>90</ele>
        <time>2018-01-31T13:23:18Z</time>
      </trkpt>
      <trkpt lat="48.68115" lon="2.46512">
        <ele>90</ele>
        <time>2018-01-31T13:23:18Z</time>
      </trkpt>
      <trkpt lat="48.6812" lon="2.46513">
        <ele>90</ele>
        <time>2018-01-31T13:23:18Z</time>
      </trkpt>
      <trkpt lat="48.68123" lon="2.46515">
        <ele>90</ele>
        <time>2018-01-31T13:23:18Z</time>
      </trkpt>
      <trkpt lat="48.68128" lon="2.46516">
        <ele>88</ele>
        <time>2018-01-31T13:23:34Z</time>
      </trkpt>
      <trkpt lat="48.68135" lon="2.46518">
        <ele>88</ele>
        <time>2018-01-31T13:23:34Z</time>
      </trkpt>
      <trkpt lat="48.6814" lon="2.46519">
        <ele>88</ele>
        <time>2018-01-31T13:23:34Z</time>
      </trkpt>
      <trkpt lat="48.68146" lon="2.4652">
        <ele>88</ele>
        <time>2018-01-31T13:23:34Z</time>
      </trkpt>
      <trkpt lat="48.68149" lon="2.4652">
        <ele>88</ele>
        <time>2018-01-31T13:23:50Z</time>
      </trkpt>
      <trkpt lat="48.68153" lon="2.46521">
        <ele>88</ele>
        <time>2018-01-31T13:23:50Z</time>
      </trkpt>
      <trkpt lat="48.6816" lon="2.46523">
        <ele>88</ele>
        <time>2018-01-31T13:23:50Z</time>
      </trkpt>
      <trkpt lat="48.68166" lon="2.46526">
        <ele>88</ele>
        <time>2018-01-31T13:23:50Z</time>
      </trkpt>
      <trkpt lat="48.68171" lon="2.46528">
        <ele>88</ele>
        <time>2018-01-31T13:24:06Z</time>
      </trkpt>
      <trkpt lat="48.68176" lon="2.4653">
        <ele>88</ele>
        <time>2018-01-31T13:24:06Z</time>
      </trkpt>
      <trkpt lat="48.68181" lon="2.46531">
        <ele>88</ele>
        <time>2018-01-31T13:24:06Z</time>
      </trkpt>
      <trkpt lat="48.68188" lon="2.46532">
        <ele>88</ele>
        <time>2018-01-31T13:24:06Z</time>
      </trkpt>
      <trkpt lat="48.6819" lon="2.46532">
        <ele>88</ele>
        <time>2018-01-31T13:24:22Z</time>
      </trkpt>
      <trkpt lat="48.68192" lon="2.46532">
        <ele>88</ele>
        <time>2018-01-31T13:24:22Z</time>
      </trkpt>
      <trkpt lat="48.68196" lon="2.46534">
        <ele>88</ele>
        <time>2018-01-31T13:24:22Z</time>
      </trkpt>
      <trkpt lat="48.68203" lon="2.46536">
        <ele>88</ele>
        <time>2018-01-31T13:24:22Z</time>
      </trkpt>
      <trkpt lat="48.68207" lon="2.46538">
        <ele>88</ele>
        <time>2018-01-31T13:24:38Z</time>
      </trkpt>
      <trkpt lat="48.68214" lon="2.4654">
        <ele>89</ele>
        <time>2018-01-31T13:24:38Z</time>
      </trkpt>
      <trkpt lat="48.68218" lon="2.46541">
        <ele>89</ele>
        <time>2018-01-31T13:24:38Z</time>
      </trkpt>
      <trkpt lat="48.68224" lon="2.46543">
        <ele>91</ele>
        <time>2018-01-31T13:24:38Z</time>
      </trkpt>
      <trkpt lat="48.68226" lon="2.46542">
        <ele>91</ele>
        <time>2018-01-31T13:24:54Z</time>
      </trkpt>
      <trkpt lat="48.68229" lon="2.46542">
        <ele>91</ele>
        <time>2018-01-31T13:24:54Z</time>
      </trkpt>
      <trkpt lat="48.68236" lon="2.46544">
        <ele>91</ele>
        <time>2018-01-31T13:24:54Z</time>
      </trkpt>
      <trkpt lat="48.68241" lon="2.46543">
        <ele>91</ele>
        <time>2018-01-31T13:24:54Z</time>
      </trkpt>
      <trkpt lat="48.68246" lon="2.46544">
        <ele>91</ele>
        <time>2018-01-31T13:25:10Z</time>
      </trkpt>
      <trkpt lat="48.68247" lon="2.46544">
        <ele>91</ele>
        <time>2018-01-31T13:25:10Z</time>
      </trkpt>
      <trkpt lat="48.68251" lon="2.46545">
        <ele>91</ele>
        <time>2018-01-31T13:25:10Z</time>
      </trkpt>
      <trkpt lat="48.68258" lon="2.46547">
        <ele>91</ele>
        <time>2018-01-31T13:25:10Z</time>
      </trkpt>
      <trkpt lat="48.68263" lon="2.46548">
        <ele>91</ele>
        <time>2018-01-31T13:25:26Z</time>
      </trkpt>
      <trkpt lat="48.68268" lon="2.46549">
        <ele>91</ele>
        <time>2018-01-31T13:25:26Z</time>
      </trkpt>
      <trkpt lat="48.68276" lon="2.46552">
        <ele>91</ele>
        <time>2018-01-31T13:25:26Z</time>
      </trkpt>
      <trkpt lat="48.68281" lon="2.46554">
        <ele>91</ele>
        <time>2018-01-31T13:25:26Z</time>
      </trkpt>
      <trkpt lat="48.68287" lon="2.46554">
        <ele>91</ele>
        <time>2018-01-31T13:25:42Z</time>
      </trkpt>
      <trkpt lat="48.68291" lon="2.46555">
        <ele>91</ele>
        <time>2018-01-31T13:25:42Z</time>
      </trkpt>
      <trkpt lat="48.68296" lon="2.46556">
        <ele>90</ele>
        <time>2018-01-31T13:25:42Z</time>
      </trkpt>
      <trkpt lat="48.683" lon="2.46557">
        <ele>90</ele>
        <time>2018-01-31T13:25:42Z</time>
      </trkpt>
      <trkpt lat="48.68302" lon="2.46558">
        <ele>90</ele>
        <time>2018-01-31T13:25:58Z</time>
      </trkpt>
      <trkpt lat="48.68307" lon="2.4656">
        <ele>90</ele>
        <time>2018-01-31T13:25:58Z</time>
      </trkpt>
      <trkpt lat="48.68312" lon="2.46562">
        <ele>90</ele>
        <time>2018-01-31T13:25:58Z</time>
      </trkpt>
      <trkpt lat="48.68318" lon="2.46564">
        <ele>90</ele>
        <time>2018-01-31T13:25:58Z</time>
      </trkpt>
      <trkpt lat="48.68324" lon="2.46565">
        <ele>90</ele>
        <time>2018-01-31T13:26:14Z</time>
      </trkpt>
      <trkpt lat="48.68331" lon="2.46567">
        <ele>90</ele>
        <time>2018-01-31T13:26:14Z</time>
      </trkpt>
      <trkpt lat="48.68336" lon="2.46568">
        <ele>90</ele>
        <time>2018-01-31T13:26:14Z</time>
      </trkpt>
      <trkpt lat="48.68341" lon="2.46568">
        <ele>90</ele>
        <time>2018-01-31T13:26:14Z</time>
      </trkpt>
      <trkpt lat="48.68346" lon="2.4657">
        <ele>90</ele>
        <time>2018-01-31T13:26:30Z</time>
      </trkpt>
      <trkpt lat="48.6835" lon="2.46572">
        <ele>90</ele>
        <time>2018-01-31T13:26:30Z</time>
      </trkpt>
      <trkpt lat="48.68355" lon="2.46574">
        <ele>90</ele>
        <time>2018-01-31T13:26:30Z</time>
      </trkpt>
      <trkpt lat="48.68362" lon="2.46577">
        <ele>90</ele>
        <time>2018-01-31T13:26:30Z</time>
      </trkpt>
      <trkpt lat="48.68367" lon="2.4658">
        <ele>90</ele>
        <time>2018-01-31T13:26:46Z</time>
      </trkpt>
      <trkpt lat="48.68371" lon="2.46581">
        <ele>90</ele>
        <time>2018-01-31T13:26:46Z</time>
      </trkpt>
      <trkpt lat="48.68375" lon="2.46582">
        <ele>90</ele>
        <time>2018-01-31T13:26:46Z</time>
      </trkpt>
      <trkpt lat="48.68379" lon="2.46584">
        <ele>88</ele>
        <time>2018-01-31T13:26:46Z</time>
      </trkpt>
      <trkpt lat="48.68389" lon="2.46583">
        <ele>88</ele>
        <time>2018-01-31T13:27:18Z</time>
      </trkpt>
      <trkpt lat="48.68394" lon="2.46583">
        <ele>88</ele>
        <time>2018-01-31T13:27:18Z</time>
      </trkpt>
      <trkpt lat="48.684" lon="2.46584">
        <ele>88</ele>
        <time>2018-01-31T13:27:18Z</time>
      </trkpt>
      <trkpt lat="48.68409" lon="2.46587">
        <ele>88</ele>
        <time>2018-01-31T13:27:18Z</time>
      </trkpt>
      <trkpt lat="48.68413" lon="2.4659">
        <ele>88</ele>
        <time>2018-01-31T13:27:18Z</time>
      </trkpt>
      <trkpt lat="48.68418" lon="2.46591">
        <ele>88</ele>
        <time>2018-01-31T13:27:34Z</time>
      </trkpt>
      <trkpt lat="48.68423" lon="2.46593">
        <ele>88</ele>
        <time>2018-01-31T13:27:34Z</time>
      </trkpt>
      <trkpt lat="48.68427" lon="2.46597">
        <ele>88</ele>
        <time>2018-01-31T13:27:34Z</time>
      </trkpt>
      <trkpt lat="48.68432" lon="2.466">
        <ele>88</ele>
        <time>2018-01-31T13:27:34Z</time>
      </trkpt>
      <trkpt lat="48.68437" lon="2.46601">
        <ele>88</ele>
        <time>2018-01-31T13:27:50Z</time>
      </trkpt>
      <trkpt lat="48.68442" lon="2.46603">
        <ele>88</ele>
        <time>2018-01-31T13:27:50Z</time>
      </trkpt>
      <trkpt lat="48.68446" lon="2.46603">
        <ele>88</ele>
        <time>2018-01-31T13:27:50Z</time>
      </trkpt>
      <trkpt lat="48.68451" lon="2.46605">
        <ele>88</ele>
        <time>2018-01-31T13:27:50Z</time>
      </trkpt>
      <trkpt lat="48.68458" lon="2.46606">
        <ele>88</ele>
        <time>2018-01-31T13:28:06Z</time>
      </trkpt>
      <trkpt lat="48.68463" lon="2.46607">
        <ele>90</ele>
        <time>2018-01-31T13:28:06Z</time>
      </trkpt>
      <trkpt lat="48.68469" lon="2.4661">
        <ele>90</ele>
        <time>2018-01-31T13:28:06Z</time>
      </trkpt>
      <trkpt lat="48.68473" lon="2.46612">
        <ele>90</ele>
        <time>2018-01-31T13:28:06Z</time>
      </trkpt>
      <trkpt lat="48.6848" lon="2.46614">
        <ele>90</ele>
        <time>2018-01-31T13:28:22Z</time>
      </trkpt>
      <trkpt lat="48.68486" lon="2.46616">
        <ele>90</ele>
        <time>2018-01-31T13:28:22Z</time>
      </trkpt>
      <trkpt lat="48.68492" lon="2.46618">
        <ele>90</ele>
        <time>2018-01-31T13:28:22Z</time>
      </trkpt>
      <trkpt lat="48.68497" lon="2.46619">
        <ele>90</ele>
        <time>2018-01-31T13:28:22Z</time>
      </trkpt>
      <trkpt lat="48.68501" lon="2.4662">
        <ele>90</ele>
        <time>2018-01-31T13:28:38Z</time>
      </trkpt>
      <trkpt lat="48.68507" lon="2.46621">
        <ele>90</ele>
        <time>2018-01-31T13:28:38Z</time>
      </trkpt>
      <trkpt lat="48.68511" lon="2.46621">
        <ele>90</ele>
        <time>2018-01-31T13:28:38Z</time>
      </trkpt>
      <trkpt lat="48.68516" lon="2.46621">
        <ele>90</ele>
        <time>2018-01-31T13:28:38Z</time>
      </trkpt>
      <trkpt lat="48.68522" lon="2.46623">
        <ele>90</ele>
        <time>2018-01-31T13:28:54Z</time>
      </trkpt>
      <trkpt lat="48.68527" lon="2.46624">
        <ele>90</ele>
        <time>2018-01-31T13:28:54Z</time>
      </trkpt>
      <trkpt lat="48.68532" lon="2.46625">
        <ele>88</ele>
        <time>2018-01-31T13:28:54Z</time>
      </trkpt>
      <trkpt lat="48.68537" lon="2.46627">
        <ele>88</ele>
        <time>2018-01-31T13:28:54Z</time>
      </trkpt>
      <trkpt lat="48.68542" lon="2.46628">
        <ele>88</ele>
        <time>2018-01-31T13:29:10Z</time>
      </trkpt>
      <trkpt lat="48.68545" lon="2.46628">
        <ele>89</ele>
        <time>2018-01-31T13:29:10Z</time>
      </trkpt>
      <trkpt lat="48.68551" lon="2.4663">
        <ele>89</ele>
        <time>2018-01-31T13:29:10Z</time>
      </trkpt>
      <trkpt lat="48.68556" lon="2.46631">
        <ele>89</ele>
        <time>2018-01-31T13:29:10Z</time>
      </trkpt>
      <trkpt lat="48.68561" lon="2.46633">
        <ele>89</ele>
        <time>2018-01-31T13:29:26Z</time>
      </trkpt>
      <trkpt lat="48.68564" lon="2.46635">
        <ele>89</ele>
        <time>2018-01-31T13:29:26Z</time>
      </trkpt>
      <trkpt lat="48.68571" lon="2.46637">
        <ele>89</ele>
        <time>2018-01-31T13:29:26Z</time>
      </trkpt>
      <trkpt lat="48.68577" lon="2.4664">
        <ele>89</ele>
        <time>2018-01-31T13:29:26Z</time>
      </trkpt>
      <trkpt lat="48.68578" lon="2.4664">
        <ele>89</ele>
        <time>2018-01-31T13:29:42Z</time>
      </trkpt>
      <trkpt lat="48.68581" lon="2.46642">
        <ele>89</ele>
        <time>2018-01-31T13:29:42Z</time>
      </trkpt>
      <trkpt lat="48.68586" lon="2.46641">
        <ele>89</ele>
        <time>2018-01-31T13:29:42Z</time>
      </trkpt>
      <trkpt lat="48.68594" lon="2.46635">
        <ele>89</ele>
        <time>2018-01-31T13:29:42Z</time>
      </trkpt>
      <trkpt lat="48.68594" lon="2.4663">
        <ele>89</ele>
        <time>2018-01-31T13:30:22Z</time>
      </trkpt>
      <trkpt lat="48.68596" lon="2.4663">
        <ele>89</ele>
        <time>2018-01-31T13:30:22Z</time>
      </trkpt>
      <trkpt lat="48.686" lon="2.46633">
        <ele>89</ele>
        <time>2018-01-31T13:30:22Z</time>
      </trkpt>
      <trkpt lat="48.68607" lon="2.46634">
        <ele>89</ele>
        <time>2018-01-31T13:30:22Z</time>
      </trkpt>
      <trkpt lat="48.68611" lon="2.46636">
        <ele>89</ele>
        <time>2018-01-31T13:30:22Z</time>
      </trkpt>
      <trkpt lat="48.68617" lon="2.46638">
        <ele>89</ele>
        <time>2018-01-31T13:30:38Z</time>
      </trkpt>
      <trkpt lat="48.68621" lon="2.46642">
        <ele>89</ele>
        <time>2018-01-31T13:30:38Z</time>
      </trkpt>
      <trkpt lat="48.68623" lon="2.46643">
        <ele>89</ele>
        <time>2018-01-31T13:30:38Z</time>
      </trkpt>
      <trkpt lat="48.68626" lon="2.46645">
        <ele>89</ele>
        <time>2018-01-31T13:30:38Z</time>
      </trkpt>
      <trkpt lat="48.68631" lon="2.46646">
        <ele>89</ele>
        <time>2018-01-31T13:30:54Z</time>
      </trkpt>
      <trkpt lat="48.68637" lon="2.46649">
        <ele>89</ele>
        <time>2018-01-31T13:30:54Z</time>
      </trkpt>
      <trkpt lat="48.68643" lon="2.46652">
        <ele>89</ele>
        <time>2018-01-31T13:30:54Z</time>
      </trkpt>
      <trkpt lat="48.68649" lon="2.46655">
        <ele>89</ele>
        <time>2018-01-31T13:30:54Z</time>
      </trkpt>
      <trkpt lat="48.68654" lon="2.46657">
        <ele>89</ele>
        <time>2018-01-31T13:31:10Z</time>
      </trkpt>
      <trkpt lat="48.68657" lon="2.46658">
        <ele>89</ele>
        <time>2018-01-31T13:31:10Z</time>
      </trkpt>
      <trkpt lat="48.68663" lon="2.46659">
        <ele>89</ele>
        <time>2018-01-31T13:31:10Z</time>
      </trkpt>
      <trkpt lat="48.68667" lon="2.46661">
        <ele>89</ele>
        <time>2018-01-31T13:31:10Z</time>
      </trkpt>
      <trkpt lat="48.68671" lon="2.46662">
        <ele>89</ele>
        <time>2018-01-31T13:31:26Z</time>
      </trkpt>
      <trkpt lat="48.68677" lon="2.46664">
        <ele>89</ele>
        <time>2018-01-31T13:31:26Z</time>
      </trkpt>
      <trkpt lat="48.68682" lon="2.46667">
        <ele>89</ele>
        <time>2018-01-31T13:31:26Z</time>
      </trkpt>
      <trkpt lat="48.68686" lon="2.46668">
        <ele>89</ele>
        <time>2018-01-31T13:31:26Z</time>
      </trkpt>
      <trkpt lat="48.68691" lon="2.46669">
        <ele>89</ele>
        <time>2018-01-31T13:31:42Z</time>
      </trkpt>
      <trkpt lat="48.68695" lon="2.46672">
        <ele>89</ele>
        <time>2018-01-31T13:31:42Z</time>
      </trkpt>
      <trkpt lat="48.687" lon="2.46673">
        <ele>89</ele>
        <time>2018-01-31T13:31:42Z</time>
      </trkpt>
      <trkpt lat="48.68704" lon="2.46674">
        <ele>89</ele>
        <time>2018-01-31T13:31:42Z</time>
      </trkpt>
      <trkpt lat="48.68708" lon="2.46675">
        <ele>89</ele>
        <time>2018-01-31T13:31:58Z</time>
      </trkpt>
      <trkpt lat="48.68713" lon="2.46677">
        <ele>89</ele>
        <time>2018-01-31T13:31:58Z</time>
      </trkpt>
      <trkpt lat="48.68718" lon="2.4668">
        <ele>89</ele>
        <time>2018-01-31T13:31:58Z</time>
      </trkpt>
      <trkpt lat="48.68724" lon="2.46681">
        <ele>89</ele>
        <time>2018-01-31T13:31:58Z</time>
      </trkpt>
      <trkpt lat="48.68731" lon="2.46684">
        <ele>89</ele>
        <time>2018-01-31T13:32:14Z</time>
      </trkpt>
      <trkpt lat="48.68738" lon="2.46683">
        <ele>89</ele>
        <time>2018-01-31T13:32:14Z</time>
      </trkpt>
      <trkpt lat="48.6874" lon="2.46684">
        <ele>89</ele>
        <time>2018-01-31T13:32:14Z</time>
      </trkpt>
      <trkpt lat="48.68745" lon="2.46684">
        <ele>89</ele>
        <time>2018-01-31T13:32:14Z</time>
      </trkpt>
      <trkpt lat="48.68748" lon="2.46682">
        <ele>89</ele>
        <time>2018-01-31T13:32:34Z</time>
      </trkpt>
      <trkpt lat="48.6875" lon="2.46682">
        <ele>89</ele>
        <time>2018-01-31T13:32:34Z</time>
      </trkpt>
      <trkpt lat="48.68753" lon="2.46683">
        <ele>89</ele>
        <time>2018-01-31T13:32:34Z</time>
      </trkpt>
      <trkpt lat="48.68757" lon="2.46686">
        <ele>89</ele>
        <time>2018-01-31T13:32:34Z</time>
      </trkpt>
      <trkpt lat="48.68762" lon="2.46689">
        <ele>89</ele>
        <time>2018-01-31T13:32:34Z</time>
      </trkpt>
      <trkpt lat="48.68769" lon="2.46691">
        <ele>89</ele>
        <time>2018-01-31T13:32:50Z</time>
      </trkpt>
      <trkpt lat="48.68773" lon="2.46693">
        <ele>89</ele>
        <time>2018-01-31T13:32:50Z</time>
      </trkpt>
      <trkpt lat="48.68777" lon="2.46695">
        <ele>89</ele>
        <time>2018-01-31T13:32:50Z</time>
      </trkpt>
      <trkpt lat="48.68781" lon="2.46698">
        <ele>89</ele>
        <time>2018-01-31T13:32:50Z</time>
      </trkpt>
      <trkpt lat="48.68784" lon="2.467">
        <ele>89</ele>
        <time>2018-01-31T13:33:06Z</time>
      </trkpt>
      <trkpt lat="48.68788" lon="2.46702">
        <ele>89</ele>
        <time>2018-01-31T13:33:06Z</time>
      </trkpt>
      <trkpt lat="48.68792" lon="2.46704">
        <ele>89</ele>
        <time>2018-01-31T13:33:06Z</time>
      </trkpt>
      <trkpt lat="48.68795" lon="2.46706">
        <ele>92</ele>
        <time>2018-01-31T13:33:06Z</time>
      </trkpt>
      <trkpt lat="48.68799" lon="2.46709">
        <ele>92</ele>
        <time>2018-01-31T13:33:22Z</time>
      </trkpt>
      <trkpt lat="48.68804" lon="2.4671">
        <ele>92</ele>
        <time>2018-01-31T13:33:22Z</time>
      </trkpt>
      <trkpt lat="48.6881" lon="2.46713">
        <ele>92</ele>
        <time>2018-01-31T13:33:22Z</time>
      </trkpt>
      <trkpt lat="48.68815" lon="2.46714">
        <ele>92</ele>
        <time>2018-01-31T13:33:22Z</time>
      </trkpt>
      <trkpt lat="48.68821" lon="2.46714">
        <ele>92</ele>
        <time>2018-01-31T13:33:38Z</time>
      </trkpt>
      <trkpt lat="48.68827" lon="2.46717">
        <ele>92</ele>
        <time>2018-01-31T13:33:38Z</time>
      </trkpt>
      <trkpt lat="48.6883" lon="2.46718">
        <ele>92</ele>
        <time>2018-01-31T13:33:38Z</time>
      </trkpt>
      <trkpt lat="48.68834" lon="2.46721">
        <ele>92</ele>
        <time>2018-01-31T13:33:38Z</time>
      </trkpt>
      <trkpt lat="48.68839" lon="2.46724">
        <ele>92</ele>
        <time>2018-01-31T13:33:54Z</time>
      </trkpt>
      <trkpt lat="48.68843" lon="2.46725">
        <ele>92</ele>
        <time>2018-01-31T13:33:54Z</time>
      </trkpt>
      <trkpt lat="48.68849" lon="2.46726">
        <ele>92</ele>
        <time>2018-01-31T13:33:54Z</time>
      </trkpt>
      <trkpt lat="48.68853" lon="2.46723">
        <ele>92</ele>
        <time>2018-01-31T13:33:54Z</time>
      </trkpt>
      <trkpt lat="48.68855" lon="2.46719">
        <ele>92</ele>
        <time>2018-01-31T13:34:14Z</time>
      </trkpt>
      <trkpt lat="48.68859" lon="2.46716">
        <ele>92</ele>
        <time>2018-01-31T13:34:14Z</time>
      </trkpt>
      <trkpt lat="48.6886" lon="2.46715">
        <ele>92</ele>
        <time>2018-01-31T13:34:14Z</time>
      </trkpt>
      <trkpt lat="48.68862" lon="2.46716">
        <ele>92</ele>
        <time>2018-01-31T13:34:14Z</time>
      </trkpt>
      <trkpt lat="48.68865" lon="2.46716">
        <ele>92</ele>
        <time>2018-01-31T13:34:14Z</time>
      </trkpt>
      <trkpt lat="48.68867" lon="2.46718">
        <ele>92</ele>
        <time>2018-01-31T13:34:34Z</time>
      </trkpt>
      <trkpt lat="48.6887" lon="2.46719">
        <ele>92</ele>
        <time>2018-01-31T13:34:34Z</time>
      </trkpt>
      <trkpt lat="48.68874" lon="2.46721">
        <ele>92</ele>
        <time>2018-01-31T13:34:34Z</time>
      </trkpt>
      <trkpt lat="48.68875" lon="2.46723">
        <ele>92</ele>
        <time>2018-01-31T13:34:34Z</time>
      </trkpt>
      <trkpt lat="48.68878" lon="2.46726">
        <ele>93</ele>
        <time>2018-01-31T13:34:34Z</time>
      </trkpt>
      <trkpt lat="48.6888" lon="2.46726">
        <ele>93</ele>
        <time>2018-01-31T13:34:50Z</time>
      </trkpt>
      <trkpt lat="48.68885" lon="2.4673">
        <ele>93</ele>
        <time>2018-01-31T13:34:50Z</time>
      </trkpt>
      <trkpt lat="48.68891" lon="2.46734">
        <ele>93</ele>
        <time>2018-01-31T13:34:50Z</time>
      </trkpt>
      <trkpt lat="48.68896" lon="2.46736">
        <ele>93</ele>
        <time>2018-01-31T13:34:50Z</time>
      </trkpt>
      <trkpt lat="48.68903" lon="2.46739">
        <ele>93</ele>
        <time>2018-01-31T13:35:06Z</time>
      </trkpt>
      <trkpt lat="48.6891" lon="2.46741">
        <ele>93</ele>
        <time>2018-01-31T13:35:06Z</time>
      </trkpt>
      <trkpt lat="48.68915" lon="2.4674">
        <ele>93</ele>
        <time>2018-01-31T13:35:06Z</time>
      </trkpt>
      <trkpt lat="48.68918" lon="2.46741">
        <ele>93</ele>
        <time>2018-01-31T13:35:06Z</time>
      </trkpt>
      <trkpt lat="48.68923" lon="2.46743">
        <ele>93</ele>
        <time>2018-01-31T13:35:22Z</time>
      </trkpt>
      <trkpt lat="48.6893" lon="2.46746">
        <ele>93</ele>
        <time>2018-01-31T13:35:22Z</time>
      </trkpt>
      <trkpt lat="48.68931" lon="2.46748">
        <ele>93</ele>
        <time>2018-01-31T13:35:22Z</time>
      </trkpt>
      <trkpt lat="48.68933" lon="2.46749">
        <ele>93</ele>
        <time>2018-01-31T13:35:22Z</time>
      </trkpt>
      <trkpt lat="48.68934" lon="2.46747">
        <ele>93</ele>
        <time>2018-01-31T13:35:58Z</time>
      </trkpt>
      <trkpt lat="48.6894" lon="2.4675">
        <ele>93</ele>
        <time>2018-01-31T13:35:58Z</time>
      </trkpt>
      <trkpt lat="48.68943" lon="2.46754">
        <ele>93</ele>
        <time>2018-01-31T13:35:58Z</time>
      </trkpt>
      <trkpt lat="48.68945" lon="2.46756">
        <ele>93</ele>
        <time>2018-01-31T13:35:58Z</time>
      </trkpt>
      <trkpt lat="48.68947" lon="2.46759">
        <ele>93</ele>
        <time>2018-01-31T13:35:58Z</time>
      </trkpt>
      <trkpt lat="48.68951" lon="2.46761">
        <ele>93</ele>
        <time>2018-01-31T13:36:14Z</time>
      </trkpt>
      <trkpt lat="48.68955" lon="2.46762">
        <ele>93</ele>
        <time>2018-01-31T13:36:14Z</time>
      </trkpt>
      <trkpt lat="48.68961" lon="2.46762">
        <ele>93</ele>
        <time>2018-01-31T13:36:14Z</time>
      </trkpt>
      <trkpt lat="48.68965" lon="2.46763">
        <ele>93</ele>
        <time>2018-01-31T13:36:14Z</time>
      </trkpt>
      <trkpt lat="48.6897" lon="2.46763">
        <ele>93</ele>
        <time>2018-01-31T13:36:34Z</time>
      </trkpt>
      <trkpt lat="48.68972" lon="2.46764">
        <ele>93</ele>
        <time>2018-01-31T13:36:34Z</time>
      </trkpt>
      <trkpt lat="48.68974" lon="2.46765">
        <ele>93</ele>
        <time>2018-01-31T13:36:34Z</time>
      </trkpt>
      <trkpt lat="48.68975" lon="2.46765">
        <ele>93</ele>
        <time>2018-01-31T13:36:34Z</time>
      </trkpt>
      <trkpt lat="48.6898" lon="2.46766">
        <ele>93</ele>
        <time>2018-01-31T13:36:34Z</time>
      </trkpt>
      <trkpt lat="48.68994" lon="2.46767">
        <ele>93</ele>
        <time>2018-01-31T13:36:50Z</time>
      </trkpt>
      <trkpt lat="48.69003" lon="2.46767">
        <ele>93</ele>
        <time>2018-01-31T13:36:50Z</time>
      </trkpt>
      <trkpt lat="48.69009" lon="2.46772">
        <ele>93</ele>
        <time>2018-01-31T13:36:50Z</time>
      </trkpt>
      <trkpt lat="48.69013" lon="2.46774">
        <ele>93</ele>
        <time>2018-01-31T13:36:50Z</time>
      </trkpt>
      <trkpt lat="48.69019" lon="2.46778">
        <ele>93</ele>
        <time>2018-01-31T13:37:06Z</time>
      </trkpt>
      <trkpt lat="48.69022" lon="2.46783">
        <ele>93</ele>
        <time>2018-01-31T13:37:06Z</time>
      </trkpt>
      <trkpt lat="48.69028" lon="2.46787">
        <ele>93</ele>
        <time>2018-01-31T13:37:06Z</time>
      </trkpt>
      <trkpt lat="48.69034" lon="2.46789">
        <ele>93</ele>
        <time>2018-01-31T13:37:06Z</time>
      </trkpt>
      <trkpt lat="48.69037" lon="2.46792">
        <ele>92</ele>
        <time>2018-01-31T13:37:22Z</time>
      </trkpt>
      <trkpt lat="48.69041" lon="2.46793">
        <ele>92</ele>
        <time>2018-01-31T13:37:22Z</time>
      </trkpt>
      <trkpt lat="48.69046" lon="2.46796">
        <ele>91</ele>
        <time>2018-01-31T13:37:22Z</time>
      </trkpt>
      <trkpt lat="48.6905" lon="2.468">
        <ele>91</ele>
        <time>2018-01-31T13:37:22Z</time>
      </trkpt>
      <trkpt lat="48.69055" lon="2.46802">
        <ele>91</ele>
        <time>2018-01-31T13:37:38Z</time>
      </trkpt>
      <trkpt lat="48.69059" lon="2.46804">
        <ele>91</ele>
        <time>2018-01-31T13:37:38Z</time>
      </trkpt>
      <trkpt lat="48.69062" lon="2.46805">
        <ele>91</ele>
        <time>2018-01-31T13:37:38Z</time>
      </trkpt>
      <trkpt lat="48.69068" lon="2.46808">
        <ele>91</ele>
        <time>2018-01-31T13:37:38Z</time>
      </trkpt>
      <trkpt lat="48.69071" lon="2.46811">
        <ele>91</ele>
        <time>2018-01-31T13:37:54Z</time>
      </trkpt>
      <trkpt lat="48.69074" lon="2.46812">
        <ele>91</ele>
        <time>2018-01-31T13:37:54Z</time>
      </trkpt>
      <trkpt lat="48.69078" lon="2.46817">
        <ele>91</ele>
        <time>2018-01-31T13:37:54Z</time>
      </trkpt>
      <trkpt lat="48.69084" lon="2.46822">
        <ele>91</ele>
        <time>2018-01-31T13:37:54Z</time>
      </trkpt>
      <trkpt lat="48.69098" lon="2.46823">
        <ele>91</ele>
        <time>2018-01-31T13:38:22Z</time>
      </trkpt>
      <trkpt lat="48.69102" lon="2.46823">
        <ele>91</ele>
        <time>2018-01-31T13:38:22Z</time>
      </trkpt>
      <trkpt lat="48.69107" lon="2.46826">
        <ele>91</ele>
        <time>2018-01-31T13:38:22Z</time>
      </trkpt>
      <trkpt lat="48.69113" lon="2.46831">
        <ele>91</ele>
        <time>2018-01-31T13:38:22Z</time>
      </trkpt>
      <trkpt lat="48.69117" lon="2.46833">
        <ele>91</ele>
        <time>2018-01-31T13:38:22Z</time>
      </trkpt>
      <trkpt lat="48.69123" lon="2.46836">
        <ele>91</ele>
        <time>2018-01-31T13:38:38Z</time>
      </trkpt>
      <trkpt lat="48.69129" lon="2.46838">
        <ele>88</ele>
        <time>2018-01-31T13:38:38Z</time>
      </trkpt>
      <trkpt lat="48.69132" lon="2.46839">
        <ele>88</ele>
        <time>2018-01-31T13:38:38Z</time>
      </trkpt>
      <trkpt lat="48.69137" lon="2.46841">
        <ele>88</ele>
        <time>2018-01-31T13:38:38Z</time>
      </trkpt>
      <trkpt lat="48.6914" lon="2.46841">
        <ele>88</ele>
        <time>2018-01-31T13:38:54Z</time>
      </trkpt>
      <trkpt lat="48.69143" lon="2.46843">
        <ele>88</ele>
        <time>2018-01-31T13:38:54Z</time>
      </trkpt>
      <trkpt lat="48.69145" lon="2.46844">
        <ele>88</ele>
        <time>2018-01-31T13:38:54Z</time>
      </trkpt>
      <trkpt lat="48.69149" lon="2.46845">
        <ele>88</ele>
        <time>2018-01-31T13:38:54Z</time>
      </trkpt>
      <trkpt lat="48.69154" lon="2.46849">
        <ele>88</ele>
        <time>2018-01-31T13:39:10Z</time>
      </trkpt>
      <trkpt lat="48.69157" lon="2.46853">
        <ele>88</ele>
        <time>2018-01-31T13:39:10Z</time>
      </trkpt>
      <trkpt lat="48.69163" lon="2.46858">
        <ele>88</ele>
        <time>2018-01-31T13:39:10Z</time>
      </trkpt>
      <trkpt lat="48.69165" lon="2.46862">
        <ele>88</ele>
        <time>2018-01-31T13:39:10Z</time>
      </trkpt>
      <trkpt lat="48.69169" lon="2.46867">
        <ele>88</ele>
        <time>2018-01-31T13:39:26Z</time>
      </trkpt>
      <trkpt lat="48.69174" lon="2.46872">
        <ele>88</ele>
        <time>2018-01-31T13:39:26Z</time>
      </trkpt>
      <trkpt lat="48.69179" lon="2.46878">
        <ele>88</ele>
        <time>2018-01-31T13:39:26Z</time>
      </trkpt>
      <trkpt lat="48.69183" lon="2.46883">
        <ele>88</ele>
        <time>2018-01-31T13:39:26Z</time>
      </trkpt>
      <trkpt lat="48.69187" lon="2.46887">
        <ele>88</ele>
        <time>2018-01-31T13:39:42Z</time>
      </trkpt>
      <trkpt lat="48.6919" lon="2.4689">
        <ele>88</ele>
        <time>2018-01-31T13:39:42Z</time>
      </trkpt>
      <trkpt lat="48.69194" lon="2.46895">
        <ele>88</ele>
        <time>2018-01-31T13:39:42Z</time>
      </trkpt>
      <trkpt lat="48.69199" lon="2.46899">
        <ele>88</ele>
        <time>2018-01-31T13:39:42Z</time>
      </trkpt>
      <trkpt lat="48.69204" lon="2.469">
        <ele>88</ele>
        <time>2018-01-31T13:39:58Z</time>
      </trkpt>
      <trkpt lat="48.69208" lon="2.46902">
        <ele>88</ele>
        <time>2018-01-31T13:39:58Z</time>
      </trkpt>
      <trkpt lat="48.69217" lon="2.46905">
        <ele>85</ele>
        <time>2018-01-31T13:39:58Z</time>
      </trkpt>
      <trkpt lat="48.69223" lon="2.46907">
        <ele>85</ele>
        <time>2018-01-31T13:39:58Z</time>
      </trkpt>
      <trkpt lat="48.69226" lon="2.46908">
        <ele>85</ele>
        <time>2018-01-31T13:40:14Z</time>
      </trkpt>
      <trkpt lat="48.69233" lon="2.4691">
        <ele>85</ele>
        <time>2018-01-31T13:40:14Z</time>
      </trkpt>
      <trkpt lat="48.69238" lon="2.46914">
        <ele>85</ele>
        <time>2018-01-31T13:40:14Z</time>
      </trkpt>
      <trkpt lat="48.69241" lon="2.46916">
        <ele>85</ele>
        <time>2018-01-31T13:40:14Z</time>
      </trkpt>
      <trkpt lat="48.69246" lon="2.46921">
        <ele>85</ele>
        <time>2018-01-31T13:40:30Z</time>
      </trkpt>
      <trkpt lat="48.69251" lon="2.46924">
        <ele>85</ele>
        <time>2018-01-31T13:40:30Z</time>
      </trkpt>
      <trkpt lat="48.69256" lon="2.46928">
        <ele>85</ele>
        <time>2018-01-31T13:40:30Z</time>
      </trkpt>
      <trkpt lat="48.69263" lon="2.46932">
        <ele>85</ele>
        <time>2018-01-31T13:40:30Z</time>
      </trkpt>
      <trkpt lat="48.69268" lon="2.46936">
        <ele>85</ele>
        <time>2018-01-31T13:40:46Z</time>
      </trkpt>
      <trkpt lat="48.69274" lon="2.4694">
        <ele>85</ele>
        <time>2018-01-31T13:40:46Z</time>
      </trkpt>
      <trkpt lat="48.69278" lon="2.46944">
        <ele>85</ele>
        <time>2018-01-31T13:40:46Z</time>
      </trkpt>
      <trkpt lat="48.69281" lon="2.46947">
        <ele>85</ele>
        <time>2018-01-31T13:40:46Z</time>
      </trkpt>
      <trkpt lat="48.69286" lon="2.46952">
        <ele>85</ele>
        <time>2018-01-31T13:41:02Z</time>
      </trkpt>
      <trkpt lat="48.69291" lon="2.46956">
        <ele>85</ele>
        <time>2018-01-31T13:41:02Z</time>
      </trkpt>
      <trkpt lat="48.69295" lon="2.4696">
        <ele>88</ele>
        <time>2018-01-31T13:41:02Z</time>
      </trkpt>
      <trkpt lat="48.69298" lon="2.46963">
        <ele>88</ele>
        <time>2018-01-31T13:41:02Z</time>
      </trkpt>
      <trkpt lat="48.69301" lon="2.46966">
        <ele>88</ele>
        <time>2018-01-31T13:41:18Z</time>
      </trkpt>
      <trkpt lat="48.69305" lon="2.46969">
        <ele>88</ele>
        <time>2018-01-31T13:41:18Z</time>
      </trkpt>
      <trkpt lat="48.69309" lon="2.46973">
        <ele>88</ele>
        <time>2018-01-31T13:41:18Z</time>
      </trkpt>
      <trkpt lat="48.69313" lon="2.46977">
        <ele>88</ele>
        <time>2018-01-31T13:41:18Z</time>
      </trkpt>
      <trkpt lat="48.69319" lon="2.46983">
        <ele>88</ele>
        <time>2018-01-31T13:41:34Z</time>
      </trkpt>
      <trkpt lat="48.69322" lon="2.46984">
        <ele>88</ele>
        <time>2018-01-31T13:41:34Z</time>
      </trkpt>
      <trkpt lat="48.69325" lon="2.46988">
        <ele>88</ele>
        <time>2018-01-31T13:41:34Z</time>
      </trkpt>
      <trkpt lat="48.69327" lon="2.46992">
        <ele>88</ele>
        <time>2018-01-31T13:41:34Z</time>
      </trkpt>
      <trkpt lat="48.6933" lon="2.46996">
        <ele>88</ele>
        <time>2018-01-31T13:41:50Z</time>
      </trkpt>
      <trkpt lat="48.69332" lon="2.46999">
        <ele>88</ele>
        <time>2018-01-31T13:41:50Z</time>
      </trkpt>
      <trkpt lat="48.69337" lon="2.47004">
        <ele>88</ele>
        <time>2018-01-31T13:41:50Z</time>
      </trkpt>
      <trkpt lat="48.6934" lon="2.47009">
        <ele>88</ele>
        <time>2018-01-31T13:41:50Z</time>
      </trkpt>
      <trkpt lat="48.6935" lon="2.47009">
        <ele>88</ele>
        <time>2018-01-31T13:42:22Z</time>
      </trkpt>
      <trkpt lat="48.6935" lon="2.47009">
        <ele>88</ele>
        <time>2018-01-31T13:42:22Z</time>
      </trkpt>
      <trkpt lat="48.69353" lon="2.47007">
        <ele>88</ele>
        <time>2018-01-31T13:42:22Z</time>
      </trkpt>
      <trkpt lat="48.69354" lon="2.47006">
        <ele>88</ele>
        <time>2018-01-31T13:42:22Z</time>
      </trkpt>
      <trkpt lat="48.69359" lon="2.47005">
        <ele>88</ele>
        <time>2018-01-31T13:42:22Z</time>
      </trkpt>
      <trkpt lat="48.69362" lon="2.46997">
        <ele>88</ele>
        <time>2018-01-31T13:43:02Z</time>
      </trkpt>
      <trkpt lat="48.69365" lon="2.46995">
        <ele>88</ele>
        <time>2018-01-31T13:43:02Z</time>
      </trkpt>
      <trkpt lat="48.69365" lon="2.46995">
        <ele>88</ele>
        <time>2018-01-31T13:43:02Z</time>
      </trkpt>
      <trkpt lat="48.69366" lon="2.46994">
        <ele>88</ele>
        <time>2018-01-31T13:43:02Z</time>
      </trkpt>
      <trkpt lat="48.69369" lon="2.46993">
        <ele>88</ele>
        <time>2018-01-31T13:43:02Z</time>
      </trkpt>
      <trkpt lat="48.69371" lon="2.46991">
        <ele>88</ele>
        <time>2018-01-31T13:43:18Z</time>
      </trkpt>
      <trkpt lat="48.69375" lon="2.46988">
        <ele>84</ele>
        <time>2018-01-31T13:43:18Z</time>
      </trkpt>
      <trkpt lat="48.69379" lon="2.46986">
        <ele>84</ele>
        <time>2018-01-31T13:43:18Z</time>
      </trkpt>
      <trkpt lat="48.6938" lon="2.46984">
        <ele>84</ele>
        <time>2018-01-31T13:43:18Z</time>
      </trkpt>
      <trkpt lat="48.69384" lon="2.4698">
        <ele>84</ele>
        <time>2018-01-31T13:43:34Z</time>
      </trkpt>
      <trkpt lat="48.69387" lon="2.46975">
        <ele>84</ele>
        <time>2018-01-31T13:43:34Z</time>
      </trkpt>
      <trkpt lat="48.6939" lon="2.4697">
        <ele>84</ele>
        <time>2018-01-31T13:43:34Z</time>
      </trkpt>
      <trkpt lat="48.69391" lon="2.46966">
        <ele>84</ele>
        <time>2018-01-31T13:43:34Z</time>
      </trkpt>
      <trkpt lat="48.69393" lon="2.46964">
        <ele>84</ele>
        <time>2018-01-31T13:43:50Z</time>
      </trkpt>
      <trkpt lat="48.69395" lon="2.4696">
        <ele>84</ele>
        <time>2018-01-31T13:43:50Z</time>
      </trkpt>
      <trkpt lat="48.69399" lon="2.46955">
        <ele>84</ele>
        <time>2018-01-31T13:43:50Z</time>
      </trkpt>
      <trkpt lat="48.69401" lon="2.46951">
        <ele>84</ele>
        <time>2018-01-31T13:43:50Z</time>
      </trkpt>
      <trkpt lat="48.69403" lon="2.46947">
        <ele>84</ele>
        <time>2018-01-31T13:44:06Z</time>
      </trkpt>
      <trkpt lat="48.69406" lon="2.46943">
        <ele>84</ele>
        <time>2018-01-31T13:44:06Z</time>
      </trkpt>
      <trkpt lat="48.69409" lon="2.4694">
        <ele>84</ele>
        <time>2018-01-31T13:44:06Z</time>
      </trkpt>
      <trkpt lat="48.69412" lon="2.46934">
        <ele>84</ele>
        <time>2018-01-31T13:44:06Z</time>
      </trkpt>
      <trkpt lat="48.69415" lon="2.4693">
        <ele>84</ele>
        <time>2018-01-31T13:44:22Z</time>
      </trkpt>
      <trkpt lat="48.69419" lon="2.46928">
        <ele>84</ele>
        <time>2018-01-31T13:44:22Z</time>
      </trkpt>
      <trkpt lat="48.69422" lon="2.46927">
        <ele>84</ele>
        <time>2018-01-31T13:44:22Z</time>
      </trkpt>
      <trkpt lat="48.69425" lon="2.46927">
        <ele>84</ele>
        <time>2018-01-31T13:44:22Z</time>
      </trkpt>
      <trkpt lat="48.69429" lon="2.46928">
        <ele>84</ele>
        <time>2018-01-31T13:44:38Z</time>
      </trkpt>
      <trkpt lat="48.69434" lon="2.4693">
        <ele>84</ele>
        <time>2018-01-31T13:44:38Z</time>
      </trkpt>
      <trkpt lat="48.6944" lon="2.46932">
        <ele>84</ele>
        <time>2018-01-31T13:44:38Z</time>
      </trkpt>
      <trkpt lat="48.69446" lon="2.46936">
        <ele>84</ele>
        <time>2018-01-31T13:44:38Z</time>
      </trkpt>
      <trkpt lat="48.69452" lon="2.46938">
        <ele>84</ele>
        <time>2018-01-31T13:44:54Z</time>
      </trkpt>
      <trkpt lat="48.69457" lon="2.46939">
        <ele>84</ele>
        <time>2018-01-31T13:44:54Z</time>
      </trkpt>
      <trkpt lat="48.69462" lon="2.46942">
        <ele>83</ele>
        <time>2018-01-31T13:44:54Z</time>
      </trkpt>
      <trkpt lat="48.69466" lon="2.46944">
        <ele>83</ele>
        <time>2018-01-31T13:44:54Z</time>
      </trkpt>
      <trkpt lat="48.69472" lon="2.46947">
        <ele>83</ele>
        <time>2018-01-31T13:45:10Z</time>
      </trkpt>
      <trkpt lat="48.69477" lon="2.46948">
        <ele>83</ele>
        <time>2018-01-31T13:45:10Z</time>
      </trkpt>
      <trkpt lat="48.69481" lon="2.46949">
        <ele>83</ele>
        <time>2018-01-31T13:45:10Z</time>
      </trkpt>
      <trkpt lat="48.69485" lon="2.46951">
        <ele>83</ele>
        <time>2018-01-31T13:45:10Z</time>
      </trkpt>
      <trkpt lat="48.69489" lon="2.46952">
        <ele>83</ele>
        <time>2018-01-31T13:45:26Z</time>
      </trkpt>
      <trkpt lat="48.69497" lon="2.46954">
        <ele>83</ele>
        <time>2018-01-31T13:45:26Z</time>
      </trkpt>
      <trkpt lat="48.69502" lon="2.46956">
        <ele>83</ele>
        <time>2018-01-31T13:45:26Z</time>
      </trkpt>
      <trkpt lat="48.69507" lon="2.46959">
        <ele>85</ele>
        <time>2018-01-31T13:45:26Z</time>
      </trkpt>
      <trkpt lat="48.6951" lon="2.4696">
        <ele>85</ele>
        <time>2018-01-31T13:45:42Z</time>
      </trkpt>
      <trkpt lat="48.69515" lon="2.46963">
        <ele>85</ele>
        <time>2018-01-31T13:45:42Z</time>
      </trkpt>
      <trkpt lat="48.69521" lon="2.46965">
        <ele>85</ele>
        <time>2018-01-31T13:45:42Z</time>
      </trkpt>
      <trkpt lat="48.69526" lon="2.46967">
        <ele>85</ele>
        <time>2018-01-31T13:45:42Z</time>
      </trkpt>
      <trkpt lat="48.69529" lon="2.46969">
        <ele>85</ele>
        <time>2018-01-31T13:45:58Z</time>
      </trkpt>
      <trkpt lat="48.69535" lon="2.4697">
        <ele>85</ele>
        <time>2018-01-31T13:45:58Z</time>
      </trkpt>
      <trkpt lat="48.69541" lon="2.46969">
        <ele>85</ele>
        <time>2018-01-31T13:45:58Z</time>
      </trkpt>
      <trkpt lat="48.69546" lon="2.46968">
        <ele>84</ele>
        <time>2018-01-31T13:45:58Z</time>
      </trkpt>
      <trkpt lat="48.69548" lon="2.46968">
        <ele>84</ele>
        <time>2018-01-31T13:46:14Z</time>
      </trkpt>
      <trkpt lat="48.69551" lon="2.46969">
        <ele>84</ele>
        <time>2018-01-31T13:46:14Z</time>
      </trkpt>
      <trkpt lat="48.69555" lon="2.4697">
        <ele>84</ele>
        <time>2018-01-31T13:46:14Z</time>
      </trkpt>
      <trkpt lat="48.6956" lon="2.46971">
        <ele>84</ele>
        <time>2018-01-31T13:46:14Z</time>
      </trkpt>
      <trkpt lat="48.69565" lon="2.46973">
        <ele>84</ele>
        <time>2018-01-31T13:46:30Z</time>
      </trkpt>
      <trkpt lat="48.6957" lon="2.46976">
        <ele>84</ele>
        <time>2018-01-31T13:46:30Z</time>
      </trkpt>
      <trkpt lat="48.69575" lon="2.46977">
        <ele>84</ele>
        <time>2018-01-31T13:46:30Z</time>
      </trkpt>
      <trkpt lat="48.6958" lon="2.4698">
        <ele>84</ele>
        <time>2018-01-31T13:46:30Z</time>
      </trkpt>
      <trkpt lat="48.69583" lon="2.46981">
        <ele>84</ele>
        <time>2018-01-31T13:46:46Z</time>
      </trkpt>
      <trkpt lat="48.69588" lon="2.46983">
        <ele>84</ele>
        <time>2018-01-31T13:46:46Z</time>
      </trkpt>
      <trkpt lat="48.69594" lon="2.46985">
        <ele>84</ele>
        <time>2018-01-31T13:46:46Z</time>
      </trkpt>
      <trkpt lat="48.69598" lon="2.46986">
        <ele>84</ele>
        <time>2018-01-31T13:46:46Z</time>
      </trkpt>
      <trkpt lat="48.69604" lon="2.46987">
        <ele>84</ele>
        <time>2018-01-31T13:47:02Z</time>
      </trkpt>
      <trkpt lat="48.69609" lon="2.46989">
        <ele>84</ele>
        <time>2018-01-31T13:47:02Z</time>
      </trkpt>
      <trkpt lat="48.69614" lon="2.4699">
        <ele>84</ele>
        <time>2018-01-31T13:47:02Z</time>
      </trkpt>
      <trkpt lat="48.69618" lon="2.46993">
        <ele>84</ele>
        <time>2018-01-31T13:47:02Z</time>
      </trkpt>
      <trkpt lat="48.69623" lon="2.46995">
        <ele>84</ele>
        <time>2018-01-31T13:47:18Z</time>
      </trkpt>
      <trkpt lat="48.69627" lon="2.46996">
        <ele>83</ele>
        <time>2018-01-31T13:47:18Z</time>
      </trkpt>
      <trkpt lat="48.69632" lon="2.46998">
        <ele>83</ele>
        <time>2018-01-31T13:47:18Z</time>
      </trkpt>
      <trkpt lat="48.69638" lon="2.47">
        <ele>83</ele>
        <time>2018-01-31T13:47:18Z</time>
      </trkpt>
      <trkpt lat="48.69643" lon="2.47002">
        <ele>83</ele>
        <time>2018-01-31T13:47:34Z</time>
      </trkpt>
      <trkpt lat="48.6965" lon="2.47005">
        <ele>83</ele>
        <time>2018-01-31T13:47:34Z</time>
      </trkpt>
      <trkpt lat="48.69656" lon="2.47009">
        <ele>83</ele>
        <time>2018-01-31T13:47:34Z</time>
      </trkpt>
      <trkpt lat="48.6966" lon="2.47012">
        <ele>83</ele>
        <time>2018-01-31T13:47:34Z</time>
      </trkpt>
      <trkpt lat="48.69665" lon="2.47017">
        <ele>83</ele>
        <time>2018-01-31T13:47:50Z</time>
      </trkpt>
      <trkpt lat="48.69668" lon="2.47021">
        <ele>83</ele>
        <time>2018-01-31T13:47:50Z</time>
      </trkpt>
      <trkpt lat="48.6967" lon="2.47025">
        <ele>83</ele>
        <time>2018-01-31T13:47:50Z</time>
      </trkpt>
      <trkpt lat="48.69677" lon="2.47028">
        <ele>83</ele>
        <time>2018-01-31T13:47:50Z</time>
      </trkpt>
      <trkpt lat="48.69683" lon="2.4703">
        <ele>83</ele>
        <time>2018-01-31T13:48:06Z</time>
      </trkpt>
      <trkpt lat="48.69688" lon="2.47031">
        <ele>83</ele>
        <time>2018-01-31T13:48:06Z</time>
      </trkpt>
      <trkpt lat="48.69691" lon="2.47032">
        <ele>83</ele>
        <time>2018-01-31T13:48:06Z</time>
      </trkpt>
      <trkpt lat="48.69696" lon="2.47034">
        <ele>83</ele>
        <time>2018-01-31T13:48:06Z</time>
      </trkpt>
      <trkpt lat="48.69703" lon="2.47039">
        <ele>83</ele>
        <time>2018-01-31T13:48:22Z</time>
      </trkpt>
      <trkpt lat="48.69708" lon="2.47042">
        <ele>87</ele>
        <time>2018-01-31T13:48:22Z</time>
      </trkpt>
      <trkpt lat="48.69712" lon="2.47044">
        <ele>81</ele>
        <time>2018-01-31T13:48:22Z</time>
      </trkpt>
      <trkpt lat="48.69718" lon="2.47046">
        <ele>81</ele>
        <time>2018-01-31T13:48:22Z</time>
      </trkpt>
      <trkpt lat="48.69722" lon="2.47047">
        <ele>81</ele>
        <time>2018-01-31T13:48:38Z</time>
      </trkpt>
      <trkpt lat="48.69725" lon="2.47049">
        <ele>81</ele>
        <time>2018-01-31T13:48:38Z</time>
      </trkpt>
      <trkpt lat="48.69729" lon="2.47049">
        <ele>81</ele>
        <time>2018-01-31T13:48:38Z</time>
      </trkpt>
      <trkpt lat="48.69735" lon="2.47049">
        <ele>81</ele>
        <time>2018-01-31T13:48:38Z</time>
      </trkpt>
      <trkpt lat="48.6974" lon="2.47049">
        <ele>81</ele>
        <time>2018-01-31T13:48:54Z</time>
      </trkpt>
      <trkpt lat="48.69745" lon="2.4705">
        <ele>81</ele>
        <time>2018-01-31T13:48:54Z</time>
      </trkpt>
      <trkpt lat="48.6975" lon="2.47053">
        <ele>81</ele>
        <time>2018-01-31T13:48:54Z</time>
      </trkpt>
      <trkpt lat="48.69755" lon="2.47056">
        <ele>81</ele>
        <time>2018-01-31T13:48:54Z</time>
      </trkpt>
      <trkpt lat="48.6976" lon="2.47056">
        <ele>81</ele>
        <time>2018-01-31T13:49:10Z</time>
      </trkpt>
      <trkpt lat="48.69766" lon="2.4706">
        <ele>81</ele>
        <time>2018-01-31T13:49:10Z</time>
      </trkpt>
      <trkpt lat="48.69771" lon="2.47061">
        <ele>81</ele>
        <time>2018-01-31T13:49:10Z</time>
      </trkpt>
      <trkpt lat="48.69775" lon="2.47062">
        <ele>81</ele>
        <time>2018-01-31T13:49:10Z</time>
      </trkpt>
      <trkpt lat="48.69778" lon="2.47064">
        <ele>81</ele>
        <time>2018-01-31T13:49:26Z</time>
      </trkpt>
      <trkpt lat="48.69781" lon="2.47066">
        <ele>81</ele>
        <time>2018-01-31T13:49:26Z</time>
      </trkpt>
      <trkpt lat="48.69788" lon="2.47069">
        <ele>81</ele>
        <time>2018-01-31T13:49:26Z</time>
      </trkpt>
      <trkpt lat="48.69794" lon="2.47071">
        <ele>78</ele>
        <time>2018-01-31T13:49:26Z</time>
      </trkpt>
      <trkpt lat="48.698" lon="2.47072">
        <ele>78</ele>
        <time>2018-01-31T13:49:42Z</time>
      </trkpt>
      <trkpt lat="48.69804" lon="2.47074">
        <ele>78</ele>
        <time>2018-01-31T13:49:42Z</time>
      </trkpt>
      <trkpt lat="48.69807" lon="2.47075">
        <ele>78</ele>
        <time>2018-01-31T13:49:42Z</time>
      </trkpt>
      <trkpt lat="48.69813" lon="2.47075">
        <ele>78</ele>
        <time>2018-01-31T13:49:42Z</time>
      </trkpt>
      <trkpt lat="48.69819" lon="2.47071">
        <ele>78</ele>
        <time>2018-01-31T13:49:58Z</time>
      </trkpt>
      <trkpt lat="48.69822" lon="2.4707">
        <ele>78</ele>
        <time>2018-01-31T13:49:58Z</time>
      </trkpt>
      <trkpt lat="48.69828" lon="2.47065">
        <ele>78</ele>
        <time>2018-01-31T13:49:58Z</time>
      </trkpt>
      <trkpt lat="48.69834" lon="2.47061">
        <ele>78</ele>
        <time>2018-01-31T13:49:58Z</time>
      </trkpt>
      <trkpt lat="48.69838" lon="2.47056">
        <ele>78</ele>
        <time>2018-01-31T13:50:14Z</time>
      </trkpt>
      <trkpt lat="48.69842" lon="2.47047">
        <ele>78</ele>
        <time>2018-01-31T13:50:14Z</time>
      </trkpt>
      <trkpt lat="48.69848" lon="2.4704">
        <ele>79</ele>
        <time>2018-01-31T13:50:14Z</time>
      </trkpt>
      <trkpt lat="48.69854" lon="2.47033">
        <ele>79</ele>
        <time>2018-01-31T13:50:14Z</time>
      </trkpt>
      <trkpt lat="48.69858" lon="2.47027">
        <ele>79</ele>
        <time>2018-01-31T13:50:30Z</time>
      </trkpt>
      <trkpt lat="48.69862" lon="2.47023">
        <ele>79</ele>
        <time>2018-01-31T13:50:30Z</time>
      </trkpt>
      <trkpt lat="48.69864" lon="2.47019">
        <ele>79</ele>
        <time>2018-01-31T13:50:30Z</time>
      </trkpt>
      <trkpt lat="48.69867" lon="2.47017">
        <ele>79</ele>
        <time>2018-01-31T13:50:30Z</time>
      </trkpt>
      <trkpt lat="48.6987" lon="2.47014">
        <ele>79</ele>
        <time>2018-01-31T13:50:46Z</time>
      </trkpt>
      <trkpt lat="48.69872" lon="2.47011">
        <ele>79</ele>
        <time>2018-01-31T13:50:46Z</time>
      </trkpt>
      <trkpt lat="48.69875" lon="2.47007">
        <ele>77</ele>
        <time>2018-01-31T13:50:46Z</time>
      </trkpt>
      <trkpt lat="48.69878" lon="2.47003">
        <ele>77</ele>
        <time>2018-01-31T13:50:46Z</time>
      </trkpt>
      <trkpt lat="48.6988" lon="2.46997">
        <ele>77</ele>
        <time>2018-01-31T13:51:02Z</time>
      </trkpt>
      <trkpt lat="48.69878" lon="2.46992">
        <ele>77</ele>
        <time>2018-01-31T13:51:02Z</time>
      </trkpt>
      <trkpt lat="48.69879" lon="2.46988">
        <ele>77</ele>
        <time>2018-01-31T13:51:02Z</time>
      </trkpt>
      <trkpt lat="48.69883" lon="2.46984">
        <ele>77</ele>
        <time>2018-01-31T13:51:02Z</time>
      </trkpt>
      <trkpt lat="48.69887" lon="2.46979">
        <ele>77</ele>
        <time>2018-01-31T13:51:18Z</time>
      </trkpt>
      <trkpt lat="48.6989" lon="2.46973">
        <ele>77</ele>
        <time>2018-01-31T13:51:18Z</time>
      </trkpt>
      <trkpt lat="48.69894" lon="2.46969">
        <ele>77</ele>
        <time>2018-01-31T13:51:18Z</time>
      </trkpt>
      <trkpt lat="48.69899" lon="2.46963">
        <ele>77</ele>
        <time>2018-01-31T13:51:18Z</time>
      </trkpt>
      <trkpt lat="48.69901" lon="2.4696">
        <ele>77</ele>
        <time>2018-01-31T13:51:34Z</time>
      </trkpt>
      <trkpt lat="48.69903" lon="2.46955">
        <ele>80</ele>
        <time>2018-01-31T13:51:34Z</time>
      </trkpt>
      <trkpt lat="48.69906" lon="2.46947">
        <ele>80</ele>
        <time>2018-01-31T13:51:34Z</time>
      </trkpt>
      <trkpt lat="48.69908" lon="2.4694">
        <ele>80</ele>
        <time>2018-01-31T13:51:34Z</time>
      </trkpt>
      <trkpt lat="48.69911" lon="2.46935">
        <ele>80</ele>
        <time>2018-01-31T13:51:50Z</time>
      </trkpt>
      <trkpt lat="48.69916" lon="2.46931">
        <ele>80</ele>
        <time>2018-01-31T13:51:50Z</time>
      </trkpt>
      <trkpt lat="48.69919" lon="2.46925">
        <ele>80</ele>
        <time>2018-01-31T13:51:50Z</time>
      </trkpt>
      <trkpt lat="48.69922" lon="2.46922">
        <ele>80</ele>
        <time>2018-01-31T13:51:50Z</time>
      </trkpt>
      <trkpt lat="48.69929" lon="2.46913">
        <ele>80</ele>
        <time>2018-01-31T13:52:22Z</time>
      </trkpt>
      <trkpt lat="48.6993" lon="2.46913">
        <ele>80</ele>
        <time>2018-01-31T13:52:22Z</time>
      </trkpt>
      <trkpt lat="48.69932" lon="2.46915">
        <ele>80</ele>
        <time>2018-01-31T13:52:22Z</time>
      </trkpt>
      <trkpt lat="48.69935" lon="2.46917">
        <ele>80</ele>
        <time>2018-01-31T13:52:22Z</time>
      </trkpt>
      <trkpt lat="48.69941" lon="2.46922">
        <ele>80</ele>
        <time>2018-01-31T13:52:22Z</time>
      </trkpt>
      <trkpt lat="48.69944" lon="2.46927">
        <ele>80</ele>
        <time>2018-01-31T13:52:38Z</time>
      </trkpt>
      <trkpt lat="48.69948" lon="2.46933">
        <ele>80</ele>
        <time>2018-01-31T13:52:38Z</time>
      </trkpt>
      <trkpt lat="48.69951" lon="2.46937">
        <ele>80</ele>
        <time>2018-01-31T13:52:38Z</time>
      </trkpt>
      <trkpt lat="48.69956" lon="2.46941">
        <ele>80</ele>
        <time>2018-01-31T13:52:38Z</time>
      </trkpt>
      <trkpt lat="48.69959" lon="2.46948">
        <ele>79</ele>
        <time>2018-01-31T13:52:54Z</time>
      </trkpt>
      <trkpt lat="48.69962" lon="2.46953">
        <ele>79</ele>
        <time>2018-01-31T13:52:54Z</time>
      </trkpt>
      <trkpt lat="48.69966" lon="2.46959">
        <ele>78</ele>
        <time>2018-01-31T13:52:54Z</time>
      </trkpt>
      <trkpt lat="48.69968" lon="2.46964">
        <ele>78</ele>
        <time>2018-01-31T13:52:54Z</time>
      </trkpt>
      <trkpt lat="48.69971" lon="2.46969">
        <ele>78</ele>
        <time>2018-01-31T13:53:10Z</time>
      </trkpt>
      <trkpt lat="48.69974" lon="2.46973">
        <ele>78</ele>
        <time>2018-01-31T13:53:10Z</time>
      </trkpt>
      <trkpt lat="48.69977" lon="2.46977">
        <ele>78</ele>
        <time>2018-01-31T13:53:10Z</time>
      </trkpt>
      <trkpt lat="48.69979" lon="2.46981">
        <ele>78</ele>
        <time>2018-01-31T13:53:10Z</time>
      </trkpt>
      <trkpt lat="48.69982" lon="2.46986">
        <ele>78</ele>
        <time>2018-01-31T13:53:26Z</time>
      </trkpt>
      <trkpt lat="48.69987" lon="2.46992">
        <ele>78</ele>
        <time>2018-01-31T13:53:26Z</time>
      </trkpt>
      <trkpt lat="48.6999" lon="2.46997">
        <ele>78</ele>
        <time>2018-01-31T13:53:26Z</time>
      </trkpt>
      <trkpt lat="48.69994" lon="2.47002">
        <ele>78</ele>
        <time>2018-01-31T13:53:26Z</time>
      </trkpt>
      <trkpt lat="48.69996" lon="2.47007">
        <ele>78</ele>
        <time>2018-01-31T13:53:42Z</time>
      </trkpt>
      <trkpt lat="48.69999" lon="2.47008">
        <ele>78</ele>
        <time>2018-01-31T13:53:42Z</time>
      </trkpt>
      <trkpt lat="48.70001" lon="2.4701">
        <ele>78</ele>
        <time>2018-01-31T13:53:42Z</time>
      </trkpt>
      <trkpt lat="48.70005" lon="2.47015">
        <ele>78</ele>
        <time>2018-01-31T13:53:42Z</time>
      </trkpt>
      <trkpt lat="48.70009" lon="2.47018">
        <ele>78</ele>
        <time>2018-01-31T13:53:58Z</time>
      </trkpt>
      <trkpt lat="48.70013" lon="2.47023">
        <ele>78</ele>
        <time>2018-01-31T13:53:58Z</time>
      </trkpt>
      <trkpt lat="48.70017" lon="2.47027">
        <ele>78</ele>
        <time>2018-01-31T13:53:58Z</time>
      </trkpt>
      <trkpt lat="48.7002" lon="2.47031">
        <ele>78</ele>
        <time>2018-01-31T13:53:58Z</time>
      </trkpt>
      <trkpt lat="48.70022" lon="2.47035">
        <ele>78</ele>
        <time>2018-01-31T13:54:14Z</time>
      </trkpt>
      <trkpt lat="48.70025" lon="2.4704">
        <ele>78</ele>
        <time>2018-01-31T13:54:14Z</time>
      </trkpt>
      <trkpt lat="48.70028" lon="2.47044">
        <ele>74</ele>
        <time>2018-01-31T13:54:14Z</time>
      </trkpt>
      <trkpt lat="48.7003" lon="2.47048">
        <ele>74</ele>
        <time>2018-01-31T13:54:14Z</time>
      </trkpt>
      <trkpt lat="48.70033" lon="2.47051">
        <ele>74</ele>
        <time>2018-01-31T13:54:30Z</time>
      </trkpt>
      <trkpt lat="48.70036" lon="2.47056">
        <ele>74</ele>
        <time>2018-01-31T13:54:30Z</time>
      </trkpt>
      <trkpt lat="48.7004" lon="2.47061">
        <ele>74</ele>
        <time>2018-01-31T13:54:30Z</time>
      </trkpt>
      <trkpt lat="48.70044" lon="2.47066">
        <ele>73</ele>
        <time>2018-01-31T13:54:30Z</time>
      </trkpt>
      <trkpt lat="48.70047" lon="2.47071">
        <ele>73</ele>
        <time>2018-01-31T13:54:46Z</time>
      </trkpt>
      <trkpt lat="48.70051" lon="2.47076">
        <ele>73</ele>
        <time>2018-01-31T13:54:46Z</time>
      </trkpt>
      <trkpt lat="48.70055" lon="2.47081">
        <ele>73</ele>
        <time>2018-01-31T13:54:46Z</time>
      </trkpt>
      <trkpt lat="48.70059" lon="2.47086">
        <ele>73</ele>
        <time>2018-01-31T13:54:46Z</time>
      </trkpt>
      <trkpt lat="48.7006" lon="2.47089">
        <ele>73</ele>
        <time>2018-01-31T13:55:02Z</time>
      </trkpt>
      <trkpt lat="48.70064" lon="2.47093">
        <ele>73</ele>
        <time>2018-01-31T13:55:02Z</time>
      </trkpt>
      <trkpt lat="48.70066" lon="2.47096">
        <ele>73</ele>
        <time>2018-01-31T13:55:02Z</time>
      </trkpt>
      <trkpt lat="48.70068" lon="2.47099">
        <ele>73</ele>
        <time>2018-01-31T13:55:02Z</time>
      </trkpt>
      <trkpt lat="48.7007" lon="2.47104">
        <ele>73</ele>
        <time>2018-01-31T13:55:18Z</time>
      </trkpt>
      <trkpt lat="48.70072" lon="2.47109">
        <ele>73</ele>
        <time>2018-01-31T13:55:18Z</time>
      </trkpt>
      <trkpt lat="48.70078" lon="2.47114">
        <ele>73</ele>
        <time>2018-01-31T13:55:18Z</time>
      </trkpt>
      <trkpt lat="48.70084" lon="2.47118">
        <ele>73</ele>
        <time>2018-01-31T13:55:18Z</time>
      </trkpt>
      <trkpt lat="48.70089" lon="2.47123">
        <ele>73</ele>
        <time>2018-01-31T13:55:34Z</time>
      </trkpt>
      <trkpt lat="48.70092" lon="2.47127">
        <ele>71</ele>
        <time>2018-01-31T13:55:34Z</time>
      </trkpt>
      <trkpt lat="48.70098" lon="2.47131">
        <ele>71</ele>
        <time>2018-01-31T13:55:34Z</time>
      </trkpt>
      <trkpt lat="48.70104" lon="2.47136">
        <ele>71</ele>
        <time>2018-01-31T13:55:34Z</time>
      </trkpt>
      <trkpt lat="48.70108" lon="2.47139">
        <ele>71</ele>
        <time>2018-01-31T13:55:50Z</time>
      </trkpt>
      <trkpt lat="48.70113" lon="2.47142">
        <ele>71</ele>
        <time>2018-01-31T13:55:50Z</time>
      </trkpt>
      <trkpt lat="48.70117" lon="2.47144">
        <ele>71</ele>
        <time>2018-01-31T13:55:50Z</time>
      </trkpt>
      <trkpt lat="48.70119" lon="2.47144">
        <ele>71</ele>
        <time>2018-01-31T13:55:50Z</time>
      </trkpt>
      <trkpt lat="48.70124" lon="2.47146">
        <ele>71</ele>
        <time>2018-01-31T13:56:06Z</time>
      </trkpt>
      <trkpt lat="48.70129" lon="2.47149">
        <ele>70</ele>
        <time>2018-01-31T13:56:06Z</time>
      </trkpt>
      <trkpt lat="48.70134" lon="2.47151">
        <ele>70</ele>
        <time>2018-01-31T13:56:06Z</time>
      </trkpt>
      <trkpt lat="48.7014" lon="2.47154">
        <ele>70</ele>
        <time>2018-01-31T13:56:06Z</time>
      </trkpt>
      <trkpt lat="48.70145" lon="2.47158">
        <ele>70</ele>
        <time>2018-01-31T13:56:22Z</time>
      </trkpt>
      <trkpt lat="48.70147" lon="2.4716">
        <ele>70</ele>
        <time>2018-01-31T13:56:22Z</time>
      </trkpt>
      <trkpt lat="48.7015" lon="2.47161">
        <ele>70</ele>
        <time>2018-01-31T13:56:22Z</time>
      </trkpt>
      <trkpt lat="48.70154" lon="2.47162">
        <ele>70</ele>
        <time>2018-01-31T13:56:22Z</time>
      </trkpt>
      <trkpt lat="48.70162" lon="2.47164">
        <ele>70</ele>
        <time>2018-01-31T13:56:38Z</time>
      </trkpt>
      <trkpt lat="48.70167" lon="2.47167">
        <ele>70</ele>
        <time>2018-01-31T13:56:38Z</time>
      </trkpt>
      <trkpt lat="48.70176" lon="2.47166">
        <ele>70</ele>
        <time>2018-01-31T13:56:38Z</time>
      </trkpt>
      <trkpt lat="48.70181" lon="2.47166">
        <ele>70</ele>
        <time>2018-01-31T13:56:38Z</time>
      </trkpt>
      <trkpt lat="48.70185" lon="2.47168">
        <ele>70</ele>
        <time>2018-01-31T13:56:54Z</time>
      </trkpt>
      <trkpt lat="48.70187" lon="2.47171">
        <ele>70</ele>
        <time>2018-01-31T13:56:54Z</time>
      </trkpt>
      <trkpt lat="48.70195" lon="2.47174">
        <ele>70</ele>
        <time>2018-01-31T13:56:54Z</time>
      </trkpt>
      <trkpt lat="48.702" lon="2.47176">
        <ele>70</ele>
        <time>2018-01-31T13:56:54Z</time>
      </trkpt>
      <trkpt lat="48.70203" lon="2.47178">
        <ele>70</ele>
        <time>2018-01-31T13:57:10Z</time>
      </trkpt>
      <trkpt lat="48.70207" lon="2.4718">
        <ele>70</ele>
        <time>2018-01-31T13:57:10Z</time>
      </trkpt>
      <trkpt lat="48.7021" lon="2.47182">
        <ele>69</ele>
        <time>2018-01-31T13:57:10Z</time>
      </trkpt>
      <trkpt lat="48.70211" lon="2.47187">
        <ele>69</ele>
        <time>2018-01-31T13:57:10Z</time>
      </trkpt>
      <trkpt lat="48.70214" lon="2.47191">
        <ele>69</ele>
        <time>2018-01-31T13:57:26Z</time>
      </trkpt>
      <trkpt lat="48.70216" lon="2.47192">
        <ele>69</ele>
        <time>2018-01-31T13:57:26Z</time>
      </trkpt>
      <trkpt lat="48.70219" lon="2.47194">
        <ele>69</ele>
        <time>2018-01-31T13:57:26Z</time>
      </trkpt>
      <trkpt lat="48.70225" lon="2.47195">
        <ele>69</ele>
        <time>2018-01-31T13:57:26Z</time>
      </trkpt>
      <trkpt lat="48.70231" lon="2.47198">
        <ele>69</ele>
        <time>2018-01-31T13:57:42Z</time>
      </trkpt>
      <trkpt lat="48.70235" lon="2.47202">
        <ele>69</ele>
        <time>2018-01-31T13:57:42Z</time>
      </trkpt>
      <trkpt lat="48.7024" lon="2.47205">
        <ele>69</ele>
        <time>2018-01-31T13:57:42Z</time>
      </trkpt>
      <trkpt lat="48.70244" lon="2.47204">
        <ele>69</ele>
        <time>2018-01-31T13:57:42Z</time>
      </trkpt>
      <trkpt lat="48.70249" lon="2.47206">
        <ele>69</ele>
        <time>2018-01-31T13:57:58Z</time>
      </trkpt>
      <trkpt lat="48.70252" lon="2.47206">
        <ele>69</ele>
        <time>2018-01-31T13:57:58Z</time>
      </trkpt>
      <trkpt lat="48.70256" lon="2.47207">
        <ele>69</ele>
        <time>2018-01-31T13:57:58Z</time>
      </trkpt>
      <trkpt lat="48.70269" lon="2.47212">
        <ele>65</ele>
        <time>2018-01-31T13:57:58Z</time>
      </trkpt>
      <trkpt lat="48.70284" lon="2.47213">
        <ele>65</ele>
        <time>2018-01-31T13:58:30Z</time>
      </trkpt>
      <trkpt lat="48.70285" lon="2.47217">
        <ele>65</ele>
        <time>2018-01-31T13:58:30Z</time>
      </trkpt>
      <trkpt lat="48.70285" lon="2.47221">
        <ele>65</ele>
        <time>2018-01-31T13:58:30Z</time>
      </trkpt>
      <trkpt lat="48.70284" lon="2.47224">
        <ele>65</ele>
        <time>2018-01-31T13:58:30Z</time>
      </trkpt>
      <trkpt lat="48.70285" lon="2.4723">
        <ele>65</ele>
        <time>2018-01-31T13:58:30Z</time>
      </trkpt>
      <trkpt lat="48.70285" lon="2.47233">
        <ele>65</ele>
        <time>2018-01-31T13:58:46Z</time>
      </trkpt>
      <trkpt lat="48.70288" lon="2.47242">
        <ele>65</ele>
        <time>2018-01-31T13:58:46Z</time>
      </trkpt>
      <trkpt lat="48.70293" lon="2.47242">
        <ele>63</ele>
        <time>2018-01-31T13:58:46Z</time>
      </trkpt>
      <trkpt lat="48.70293" lon="2.47243">
        <ele>63</ele>
        <time>2018-01-31T13:58:46Z</time>
      </trkpt>
      <trkpt lat="48.70296" lon="2.47246">
        <ele>63</ele>
        <time>2018-01-31T13:59:02Z</time>
      </trkpt>
      <trkpt lat="48.70301" lon="2.4725">
        <ele>63</ele>
        <time>2018-01-31T13:59:02Z</time>
      </trkpt>
      <trkpt lat="48.70303" lon="2.47254">
        <ele>63</ele>
        <time>2018-01-31T13:59:02Z</time>
      </trkpt>
      <trkpt lat="48.70306" lon="2.47259">
        <ele>63</ele>
        <time>2018-01-31T13:59:02Z</time>
      </trkpt>
      <trkpt lat="48.70309" lon="2.47262">
        <ele>63</ele>
        <time>2018-01-31T13:59:18Z</time>
      </trkpt>
      <trkpt lat="48.70314" lon="2.47264">
        <ele>63</ele>
        <time>2018-01-31T13:59:18Z</time>
      </trkpt>
      <trkpt lat="48.70318" lon="2.47267">
        <ele>63</ele>
        <time>2018-01-31T13:59:18Z</time>
      </trkpt>
      <trkpt lat="48.70321" lon="2.4727">
        <ele>63</ele>
        <time>2018-01-31T13:59:18Z</time>
      </trkpt>
      <trkpt lat="48.70324" lon="2.47273">
        <ele>63</ele>
        <time>2018-01-31T13:59:34Z</time>
      </trkpt>
      <trkpt lat="48.70326" lon="2.47279">
        <ele>63</ele>
        <time>2018-01-31T13:59:34Z</time>
      </trkpt>
      <trkpt lat="48.70328" lon="2.47283">
        <ele>63</ele>
        <time>2018-01-31T13:59:34Z</time>
      </trkpt>
      <trkpt lat="48.70332" lon="2.47288">
        <ele>63</ele>
        <time>2018-01-31T13:59:34Z</time>
      </trkpt>
      <trkpt lat="48.70336" lon="2.47292">
        <ele>59</ele>
        <time>2018-01-31T13:59:50Z</time>
      </trkpt>
      <trkpt lat="48.70341" lon="2.47293">
        <ele>59</ele>
        <time>2018-01-31T13:59:50Z</time>
      </trkpt>
      <trkpt lat="48.70345" lon="2.47295">
        <ele>59</ele>
        <time>2018-01-31T13:59:50Z</time>
      </trkpt>
      <trkpt lat="48.70351" lon="2.47298">
        <ele>59</ele>
        <time>2018-01-31T13:59:50Z</time>
      </trkpt>
      <trkpt lat="48.70358" lon="2.47302">
        <ele>59</ele>
        <time>2018-01-31T14:00:06Z</time>
      </trkpt>
      <trkpt lat="48.70362" lon="2.47305">
        <ele>59</ele>
        <time>2018-01-31T14:00:06Z</time>
      </trkpt>
      <trkpt lat="48.70364" lon="2.47307">
        <ele>59</ele>
        <time>2018-01-31T14:00:06Z</time>
      </trkpt>
      <trkpt lat="48.70368" lon="2.4731">
        <ele>59</ele>
        <time>2018-01-31T14:00:06Z</time>
      </trkpt>
      <trkpt lat="48.70372" lon="2.47313">
        <ele>59</ele>
        <time>2018-01-31T14:00:22Z</time>
      </trkpt>
      <trkpt lat="48.70377" lon="2.47317">
        <ele>57</ele>
        <time>2018-01-31T14:00:22Z</time>
      </trkpt>
      <trkpt lat="48.70381" lon="2.47321">
        <ele>57</ele>
        <time>2018-01-31T14:00:22Z</time>
      </trkpt>
      <trkpt lat="48.70385" lon="2.47329">
        <ele>57</ele>
        <time>2018-01-31T14:00:22Z</time>
      </trkpt>
      <trkpt lat="48.7039" lon="2.47336">
        <ele>57</ele>
        <time>2018-01-31T14:00:38Z</time>
      </trkpt>
      <trkpt lat="48.70393" lon="2.47338">
        <ele>57</ele>
        <time>2018-01-31T14:00:38Z</time>
      </trkpt>
      <trkpt lat="48.70398" lon="2.4734">
        <ele>57</ele>
        <time>2018-01-31T14:00:38Z</time>
      </trkpt>
      <trkpt lat="48.70401" lon="2.47343">
        <ele>57</ele>
        <time>2018-01-31T14:00:38Z</time>
      </trkpt>
      <trkpt lat="48.70404" lon="2.47344">
        <ele>57</ele>
        <time>2018-01-31T14:00:54Z</time>
      </trkpt>
      <trkpt lat="48.70408" lon="2.47347">
        <ele>57</ele>
        <time>2018-01-31T14:00:54Z</time>
      </trkpt>
      <trkpt lat="48.70411" lon="2.4735">
        <ele>57</ele>
        <time>2018-01-31T14:00:54Z</time>
      </trkpt>
      <trkpt lat="48.70415" lon="2.47353">
        <ele>57</ele>
        <time>2018-01-31T14:00:54Z</time>
      </trkpt>
      <trkpt lat="48.70418" lon="2.47358">
        <ele>57</ele>
        <time>2018-01-31T14:01:10Z</time>
      </trkpt>
      <trkpt lat="48.70423" lon="2.47362">
        <ele>57</ele>
        <time>2018-01-31T14:01:10Z</time>
      </trkpt>
      <trkpt lat="48.70425" lon="2.47363">
        <ele>57</ele>
        <time>2018-01-31T14:01:10Z</time>
      </trkpt>
      <trkpt lat="48.70426" lon="2.47366">
        <ele>57</ele>
        <time>2018-01-31T14:01:10Z</time>
      </trkpt>
      <trkpt lat="48.70429" lon="2.47366">
        <ele>57</ele>
        <time>2018-01-31T14:01:38Z</time>
      </trkpt>
      <trkpt lat="48.7043" lon="2.47367">
        <ele>57</ele>
        <time>2018-01-31T14:01:38Z</time>
      </trkpt>
      <trkpt lat="48.70431" lon="2.47367">
        <ele>57</ele>
        <time>2018-01-31T14:01:38Z</time>
      </trkpt>
      <trkpt lat="48.70433" lon="2.4737">
        <ele>57</ele>
        <time>2018-01-31T14:01:38Z</time>
      </trkpt>
      <trkpt lat="48.7044" lon="2.4737">
        <ele>57</ele>
        <time>2018-01-31T14:01:38Z</time>
      </trkpt>
      <trkpt lat="48.70443" lon="2.47373">
        <ele>57</ele>
        <time>2018-01-31T14:01:54Z</time>
      </trkpt>
      <trkpt lat="48.70445" lon="2.47376">
        <ele>54</ele>
        <time>2018-01-31T14:01:54Z</time>
      </trkpt>
      <trkpt lat="48.70447" lon="2.47384">
        <ele>54</ele>
        <time>2018-01-31T14:01:54Z</time>
      </trkpt>
      <trkpt lat="48.7045" lon="2.47388">
        <ele>54</ele>
        <time>2018-01-31T14:01:54Z</time>
      </trkpt>
      <trkpt lat="48.70455" lon="2.47396">
        <ele>54</ele>
        <time>2018-01-31T14:02:10Z</time>
      </trkpt>
      <trkpt lat="48.70461" lon="2.47402">
        <ele>48</ele>
        <time>2018-01-31T14:02:10Z</time>
      </trkpt>
      <trkpt lat="48.70462" lon="2.47405">
        <ele>48</ele>
        <time>2018-01-31T14:02:10Z</time>
      </trkpt>
      <trkpt lat="48.70465" lon="2.47411">
        <ele>48</ele>
        <time>2018-01-31T14:02:10Z</time>
      </trkpt>
      <trkpt lat="48.7047" lon="2.47414">
        <ele>48</ele>
        <time>2018-01-31T14:02:26Z</time>
      </trkpt>
      <trkpt lat="48.70474" lon="2.47416">
        <ele>48</ele>
        <time>2018-01-31T14:02:26Z</time>
      </trkpt>
      <trkpt lat="48.70476" lon="2.47419">
        <ele>48</ele>
        <time>2018-01-31T14:02:26Z</time>
      </trkpt>
      <trkpt lat="48.70479" lon="2.47421">
        <ele>48</ele>
        <time>2018-01-31T14:02:26Z</time>
      </trkpt>
      <trkpt lat="48.70482" lon="2.47424">
        <ele>48</ele>
        <time>2018-01-31T14:02:42Z</time>
      </trkpt>
      <trkpt lat="48.70483" lon="2.47427">
        <ele>48</ele>
        <time>2018-01-31T14:02:42Z</time>
      </trkpt>
      <trkpt lat="48.70493" lon="2.47432">
        <ele>48</ele>
        <time>2018-01-31T14:02:42Z</time>
      </trkpt>
      <trkpt lat="48.70505" lon="2.47438">
        <ele>48</ele>
        <time>2018-01-31T14:02:42Z</time>
      </trkpt>
      <trkpt lat="48.7051" lon="2.47438">
        <ele>48</ele>
        <time>2018-01-31T14:02:58Z</time>
      </trkpt>
      <trkpt lat="48.70514" lon="2.47441">
        <ele>48</ele>
        <time>2018-01-31T14:02:58Z</time>
      </trkpt>
      <trkpt lat="48.7052" lon="2.47446">
        <ele>48</ele>
        <time>2018-01-31T14:02:58Z</time>
      </trkpt>
      <trkpt lat="48.7052" lon="2.47447">
        <ele>48</ele>
        <time>2018-01-31T14:02:58Z</time>
      </trkpt>
      <trkpt lat="48.70524" lon="2.47451">
        <ele>48</ele>
        <time>2018-01-31T14:03:18Z</time>
      </trkpt>
      <trkpt lat="48.70526" lon="2.47454">
        <ele>48</ele>
        <time>2018-01-31T14:03:18Z</time>
      </trkpt>
      <trkpt lat="48.70528" lon="2.47456">
        <ele>48</ele>
        <time>2018-01-31T14:03:18Z</time>
      </trkpt>
      <trkpt lat="48.7053" lon="2.47459">
        <ele>46</ele>
        <time>2018-01-31T14:03:18Z</time>
      </trkpt>
      <trkpt lat="48.70531" lon="2.47461">
        <ele>46</ele>
        <time>2018-01-31T14:03:18Z</time>
      </trkpt>
      <trkpt lat="48.70545" lon="2.47465">
        <ele>42</ele>
        <time>2018-01-31T14:03:34Z</time>
      </trkpt>
      <trkpt lat="48.70547" lon="2.47471">
        <ele>42</ele>
        <time>2018-01-31T14:03:34Z</time>
      </trkpt>
      <trkpt lat="48.70548" lon="2.47473">
        <ele>42</ele>
        <time>2018-01-31T14:03:34Z</time>
      </trkpt>
      <trkpt lat="48.70552" lon="2.47474">
        <ele>42</ele>
        <time>2018-01-31T14:03:34Z</time>
      </trkpt>
      <trkpt lat="48.70559" lon="2.47474">
        <ele>42</ele>
        <time>2018-01-31T14:04:02Z</time>
      </trkpt>
      <trkpt lat="48.7056" lon="2.47472">
        <ele>42</ele>
        <time>2018-01-31T14:04:02Z</time>
      </trkpt>
      <trkpt lat="48.7056" lon="2.47469">
        <ele>42</ele>
        <time>2018-01-31T14:04:02Z</time>
      </trkpt>
      <trkpt lat="48.7056" lon="2.47468">
        <ele>42</ele>
        <time>2018-01-31T14:04:02Z</time>
      </trkpt>
      <trkpt lat="48.70557" lon="2.47456">
        <ele>42</ele>
        <time>2018-01-31T14:04:02Z</time>
      </trkpt>
      <trkpt lat="48.70573" lon="2.47472">
        <ele>42</ele>
        <time>2018-01-31T14:04:18Z</time>
      </trkpt>
      <trkpt lat="48.70574" lon="2.47463">
        <ele>42</ele>
        <time>2018-01-31T14:04:18Z</time>
      </trkpt>
      <trkpt lat="48.70577" lon="2.47464">
        <ele>42</ele>
        <time>2018-01-31T14:04:18Z</time>
      </trkpt>
      <trkpt lat="48.70583" lon="2.47468">
        <ele>42</ele>
        <time>2018-01-31T14:04:18Z</time>
      </trkpt>
      <trkpt lat="48.70588" lon="2.4747">
        <ele>42</ele>
        <time>2018-01-31T14:05:10Z</time>
      </trkpt>
      <trkpt lat="48.70589" lon="2.47471">
        <ele>42</ele>
        <time>2018-01-31T14:05:10Z</time>
      </trkpt>
      <trkpt lat="48.70591" lon="2.4747">
        <ele>42</ele>
        <time>2018-01-31T14:05:10Z</time>
      </trkpt>
      <trkpt lat="48.70595" lon="2.47465">
        <ele>42</ele>
        <time>2018-01-31T14:05:10Z</time>
      </trkpt>
      <trkpt lat="48.70598" lon="2.47463">
        <ele>42</ele>
        <time>2018-01-31T14:05:10Z</time>
      </trkpt>
      <trkpt lat="48.706" lon="2.47463">
        <ele>42</ele>
        <time>2018-01-31T14:05:30Z</time>
      </trkpt>
      <trkpt lat="48.70603" lon="2.47464">
        <ele>42</ele>
        <time>2018-01-31T14:05:30Z</time>
      </trkpt>
      <trkpt lat="48.70604" lon="2.47467">
        <ele>42</ele>
        <time>2018-01-31T14:05:30Z</time>
      </trkpt>
      <trkpt lat="48.70607" lon="2.47469">
        <ele>42</ele>
        <time>2018-01-31T14:05:30Z</time>
      </trkpt>
      <trkpt lat="48.70611" lon="2.47469">
        <ele>42</ele>
        <time>2018-01-31T14:05:30Z</time>
      </trkpt>
      <trkpt lat="48.70615" lon="2.4747">
        <ele>42</ele>
        <time>2018-01-31T14:05:46Z</time>
      </trkpt>
      <trkpt lat="48.70621" lon="2.47471">
        <ele>42</ele>
        <time>2018-01-31T14:05:46Z</time>
      </trkpt>
      <trkpt lat="48.70626" lon="2.47473">
        <ele>37</ele>
        <time>2018-01-31T14:05:46Z</time>
      </trkpt>
      <trkpt lat="48.70634" lon="2.47476">
        <ele>37</ele>
        <time>2018-01-31T14:05:46Z</time>
      </trkpt>
      <trkpt lat="48.70642" lon="2.47479">
        <ele>37</ele>
        <time>2018-01-31T14:06:02Z</time>
      </trkpt>
      <trkpt lat="48.70649" lon="2.4748">
        <ele>37</ele>
        <time>2018-01-31T14:06:02Z</time>
      </trkpt>
      <trkpt lat="48.70655" lon="2.47482">
        <ele>37</ele>
        <time>2018-01-31T14:06:02Z</time>
      </trkpt>
      <trkpt lat="48.70659" lon="2.47483">
        <ele>37</ele>
        <time>2018-01-31T14:06:02Z</time>
      </trkpt>
      <trkpt lat="48.70663" lon="2.47485">
        <ele>37</ele>
        <time>2018-01-31T14:06:18Z</time>
      </trkpt>
      <trkpt lat="48.70668" lon="2.47487">
        <ele>37</ele>
        <time>2018-01-31T14:06:18Z</time>
      </trkpt>
      <trkpt lat="48.70672" lon="2.47489">
        <ele>37</ele>
        <time>2018-01-31T14:06:18Z</time>
      </trkpt>
      <trkpt lat="48.70677" lon="2.4749">
        <ele>37</ele>
        <time>2018-01-31T14:06:18Z</time>
      </trkpt>
      <trkpt lat="48.7068" lon="2.47492">
        <ele>37</ele>
        <time>2018-01-31T14:06:34Z</time>
      </trkpt>
      <trkpt lat="48.70684" lon="2.47493">
        <ele>37</ele>
        <time>2018-01-31T14:06:34Z</time>
      </trkpt>
      <trkpt lat="48.7069" lon="2.47495">
        <ele>37</ele>
        <time>2018-01-31T14:06:34Z</time>
      </trkpt>
      <trkpt lat="48.70693" lon="2.47496">
        <ele>37</ele>
        <time>2018-01-31T14:06:34Z</time>
      </trkpt>
      <trkpt lat="48.70702" lon="2.47497">
        <ele>37</ele>
        <time>2018-01-31T14:07:02Z</time>
      </trkpt>
      <trkpt lat="48.70702" lon="2.47497">
        <ele>37</ele>
        <time>2018-01-31T14:07:02Z</time>
      </trkpt>
      <trkpt lat="48.70702" lon="2.47497">
        <ele>37</ele>
        <time>2018-01-31T14:07:02Z</time>
      </trkpt>
      <trkpt lat="48.70703" lon="2.47497">
        <ele>37</ele>
        <time>2018-01-31T14:07:02Z</time>
      </trkpt>
      <trkpt lat="48.70709" lon="2.47495">
        <ele>34</ele>
        <time>2018-01-31T14:07:02Z</time>
      </trkpt>
      <trkpt lat="48.70713" lon="2.47491">
        <ele>34</ele>
        <time>2018-01-31T14:07:18Z</time>
      </trkpt>
      <trkpt lat="48.70717" lon="2.47485">
        <ele>34</ele>
        <time>2018-01-31T14:07:18Z</time>
      </trkpt>
      <trkpt lat="48.70719" lon="2.4748">
        <ele>34</ele>
        <time>2018-01-31T14:07:18Z</time>
      </trkpt>
      <trkpt lat="48.70721" lon="2.47475">
        <ele>34</ele>
        <time>2018-01-31T14:07:18Z</time>
      </trkpt>
      <trkpt lat="48.7072" lon="2.47475">
        <ele>34</ele>
        <time>2018-01-31T14:07:38Z</time>
      </trkpt>
      <trkpt lat="48.70721" lon="2.47476">
        <ele>34</ele>
        <time>2018-01-31T14:07:38Z</time>
      </trkpt>
      <trkpt lat="48.70724" lon="2.47475">
        <ele>34</ele>
        <time>2018-01-31T14:07:38Z</time>
      </trkpt>
      <trkpt lat="48.70728" lon="2.47475">
        <ele>34</ele>
        <time>2018-01-31T14:07:38Z</time>
      </trkpt>
      <trkpt lat="48.70734" lon="2.47477">
        <ele>34</ele>
        <time>2018-01-31T14:07:38Z</time>
      </trkpt>
      <trkpt lat="48.7074" lon="2.47478">
        <ele>34</ele>
        <time>2018-01-31T14:07:54Z</time>
      </trkpt>
      <trkpt lat="48.70747" lon="2.47482">
        <ele>34</ele>
        <time>2018-01-31T14:07:54Z</time>
      </trkpt>
      <trkpt lat="48.70752" lon="2.47484">
        <ele>34</ele>
        <time>2018-01-31T14:07:54Z</time>
      </trkpt>
      <trkpt lat="48.70753" lon="2.47486">
        <ele>34</ele>
        <time>2018-01-31T14:07:54Z</time>
      </trkpt>
      <trkpt lat="48.70754" lon="2.47489">
        <ele>34</ele>
        <time>2018-01-31T14:08:10Z</time>
      </trkpt>
      <trkpt lat="48.70762" lon="2.4749">
        <ele>34</ele>
        <time>2018-01-31T14:08:10Z</time>
      </trkpt>
      <trkpt lat="48.70767" lon="2.47492">
        <ele>34</ele>
        <time>2018-01-31T14:08:10Z</time>
      </trkpt>
      <trkpt lat="48.70773" lon="2.47494">
        <ele>34</ele>
        <time>2018-01-31T14:08:10Z</time>
      </trkpt>
      <trkpt lat="48.70775" lon="2.47495">
        <ele>34</ele>
        <time>2018-01-31T14:08:26Z</time>
      </trkpt>
      <trkpt lat="48.70781" lon="2.47499">
        <ele>34</ele>
        <time>2018-01-31T14:08:26Z</time>
      </trkpt>
      <trkpt lat="48.70784" lon="2.475">
        <ele>34</ele>
        <time>2018-01-31T14:08:26Z</time>
      </trkpt>
      <trkpt lat="48.70788" lon="2.47503">
        <ele>34</ele>
        <time>2018-01-31T14:08:26Z</time>
      </trkpt>
      <trkpt lat="48.70793" lon="2.47504">
        <ele>34</ele>
        <time>2018-01-31T14:08:42Z</time>
      </trkpt>
      <trkpt lat="48.70798" lon="2.47506">
        <ele>34</ele>
        <time>2018-01-31T14:08:42Z</time>
      </trkpt>
      <trkpt lat="48.7081" lon="2.47507">
        <ele>34</ele>
        <time>2018-01-31T14:08:42Z</time>
      </trkpt>
      <trkpt lat="48.70814" lon="2.47508">
        <ele>34</ele>
        <time>2018-01-31T14:08:42Z</time>
      </trkpt>
      <trkpt lat="48.70818" lon="2.4751">
        <ele>34</ele>
        <time>2018-01-31T14:08:58Z</time>
      </trkpt>
      <trkpt lat="48.70821" lon="2.47514">
        <ele>34</ele>
        <time>2018-01-31T14:08:58Z</time>
      </trkpt>
      <trkpt lat="48.70824" lon="2.47515">
        <ele>34</ele>
        <time>2018-01-31T14:08:58Z</time>
      </trkpt>
      <trkpt lat="48.70828" lon="2.47517">
        <ele>34</ele>
        <time>2018-01-31T14:08:58Z</time>
      </trkpt>
      <trkpt lat="48.70833" lon="2.47519">
        <ele>34</ele>
        <time>2018-01-31T14:09:14Z</time>
      </trkpt>
      <trkpt lat="48.70839" lon="2.4752">
        <ele>34</ele>
        <time>2018-01-31T14:09:14Z</time>
      </trkpt>
      <trkpt lat="48.70842" lon="2.47523">
        <ele>34</ele>
        <time>2018-01-31T14:09:14Z</time>
      </trkpt>
      <trkpt lat="48.70848" lon="2.47524">
        <ele>34</ele>
        <time>2018-01-31T14:09:14Z</time>
      </trkpt>
      <trkpt lat="48.70851" lon="2.47526">
        <ele>34</ele>
        <time>2018-01-31T14:09:30Z</time>
      </trkpt>
      <trkpt lat="48.70856" lon="2.47528">
        <ele>34</ele>
        <time>2018-01-31T14:09:30Z</time>
      </trkpt>
      <trkpt lat="48.70859" lon="2.47529">
        <ele>34</ele>
        <time>2018-01-31T14:09:30Z</time>
      </trkpt>
      <trkpt lat="48.70869" lon="2.47531">
        <ele>34</ele>
        <time>2018-01-31T14:09:30Z</time>
      </trkpt>
      <trkpt lat="48.7088" lon="2.47533">
        <ele>36</ele>
        <time>2018-01-31T14:09:58Z</time>
      </trkpt>
      <trkpt lat="48.70877" lon="2.47537">
        <ele>36</ele>
        <time>2018-01-31T14:09:58Z</time>
      </trkpt>
      <trkpt lat="48.70882" lon="2.47533">
        <ele>36</ele>
        <time>2018-01-31T14:09:58Z</time>
      </trkpt>
      <trkpt lat="48.70884" lon="2.47532">
        <ele>36</ele>
        <time>2018-01-31T14:09:58Z</time>
      </trkpt>
      <trkpt lat="48.70888" lon="2.47534">
        <ele>36</ele>
        <time>2018-01-31T14:09:58Z</time>
      </trkpt>
      <trkpt lat="48.7089" lon="2.47537">
        <ele>36</ele>
        <time>2018-01-31T14:10:14Z</time>
      </trkpt>
      <trkpt lat="48.70894" lon="2.47538">
        <ele>36</ele>
        <time>2018-01-31T14:10:14Z</time>
      </trkpt>
      <trkpt lat="48.70898" lon="2.47537">
        <ele>36</ele>
        <time>2018-01-31T14:10:14Z</time>
      </trkpt>
      <trkpt lat="48.70902" lon="2.47532">
        <ele>36</ele>
        <time>2018-01-31T14:10:14Z</time>
      </trkpt>
      <trkpt lat="48.70906" lon="2.47531">
        <ele>36</ele>
        <time>2018-01-31T14:10:30Z</time>
      </trkpt>
      <trkpt lat="48.70913" lon="2.47533">
        <ele>36</ele>
        <time>2018-01-31T14:10:30Z</time>
      </trkpt>
      <trkpt lat="48.70921" lon="2.47535">
        <ele>36</ele>
        <time>2018-01-31T14:10:30Z</time>
      </trkpt>
      <trkpt lat="48.70923" lon="2.47537">
        <ele>36</ele>
        <time>2018-01-31T14:10:30Z</time>
      </trkpt>
      <trkpt lat="48.70929" lon="2.4754">
        <ele>36</ele>
        <time>2018-01-31T14:10:46Z</time>
      </trkpt>
      <trkpt lat="48.70935" lon="2.47541">
        <ele>36</ele>
        <time>2018-01-31T14:10:46Z</time>
      </trkpt>
      <trkpt lat="48.70939" lon="2.47543">
        <ele>37</ele>
        <time>2018-01-31T14:10:46Z</time>
      </trkpt>
      <trkpt lat="48.70942" lon="2.47545">
        <ele>37</ele>
        <time>2018-01-31T14:10:46Z</time>
      </trkpt>
      <trkpt lat="48.70944" lon="2.47549">
        <ele>37</ele>
        <time>2018-01-31T14:11:02Z</time>
      </trkpt>
      <trkpt lat="48.70947" lon="2.47551">
        <ele>37</ele>
        <time>2018-01-31T14:11:02Z</time>
      </trkpt>
      <trkpt lat="48.70954" lon="2.47557">
        <ele>37</ele>
        <time>2018-01-31T14:11:02Z</time>
      </trkpt>
      <trkpt lat="48.70959" lon="2.47561">
        <ele>35</ele>
        <time>2018-01-31T14:11:02Z</time>
      </trkpt>
      <trkpt lat="48.70961" lon="2.47566">
        <ele>35</ele>
        <time>2018-01-31T14:11:18Z</time>
      </trkpt>
      <trkpt lat="48.70964" lon="2.47571">
        <ele>35</ele>
        <time>2018-01-31T14:11:18Z</time>
      </trkpt>
      <trkpt lat="48.70963" lon="2.47582">
        <ele>35</ele>
        <time>2018-01-31T14:11:18Z</time>
      </trkpt>
      <trkpt lat="48.70962" lon="2.47592">
        <ele>35</ele>
        <time>2018-01-31T14:11:18Z</time>
      </trkpt>
      <trkpt lat="48.70963" lon="2.47598">
        <ele>35</ele>
        <time>2018-01-31T14:11:34Z</time>
      </trkpt>
      <trkpt lat="48.70966" lon="2.47602">
        <ele>35</ele>
        <time>2018-01-31T14:11:34Z</time>
      </trkpt>
      <trkpt lat="48.70968" lon="2.47607">
        <ele>35</ele>
        <time>2018-01-31T14:11:34Z</time>
      </trkpt>
      <trkpt lat="48.7097" lon="2.47613">
        <ele>35</ele>
        <time>2018-01-31T14:11:34Z</time>
      </trkpt>
      <trkpt lat="48.70973" lon="2.47618">
        <ele>35</ele>
        <time>2018-01-31T14:11:50Z</time>
      </trkpt>
      <trkpt lat="48.70973" lon="2.47623">
        <ele>35</ele>
        <time>2018-01-31T14:11:50Z</time>
      </trkpt>
      <trkpt lat="48.70973" lon="2.47631">
        <ele>34</ele>
        <time>2018-01-31T14:11:50Z</time>
      </trkpt>
      <trkpt lat="48.70974" lon="2.47635">
        <ele>34</ele>
        <time>2018-01-31T14:11:50Z</time>
      </trkpt>
      <trkpt lat="48.70973" lon="2.47643">
        <ele>34</ele>
        <time>2018-01-31T14:12:06Z</time>
      </trkpt>
      <trkpt lat="48.70973" lon="2.47649">
        <ele>34</ele>
        <time>2018-01-31T14:12:06Z</time>
      </trkpt>
      <trkpt lat="48.70974" lon="2.47651">
        <ele>34</ele>
        <time>2018-01-31T14:12:06Z</time>
      </trkpt>
      <trkpt lat="48.70973" lon="2.47657">
        <ele>34</ele>
        <time>2018-01-31T14:12:06Z</time>
      </trkpt>
      <trkpt lat="48.7097" lon="2.47667">
        <ele>34</ele>
        <time>2018-01-31T14:12:22Z</time>
      </trkpt>
      <trkpt lat="48.70968" lon="2.47673">
        <ele>34</ele>
        <time>2018-01-31T14:12:22Z</time>
      </trkpt>
      <trkpt lat="48.70966" lon="2.47675">
        <ele>34</ele>
        <time>2018-01-31T14:12:22Z</time>
      </trkpt>
      <trkpt lat="48.70965" lon="2.47679">
        <ele>34</ele>
        <time>2018-01-31T14:12:22Z</time>
      </trkpt>
      <trkpt lat="48.70966" lon="2.47683">
        <ele>34</ele>
        <time>2018-01-31T14:12:38Z</time>
      </trkpt>
      <trkpt lat="48.70969" lon="2.47688">
        <ele>34</ele>
        <time>2018-01-31T14:12:38Z</time>
      </trkpt>
      <trkpt lat="48.70974" lon="2.4769">
        <ele>34</ele>
        <time>2018-01-31T14:12:38Z</time>
      </trkpt>
      <trkpt lat="48.70978" lon="2.47693">
        <ele>34</ele>
        <time>2018-01-31T14:12:38Z</time>
      </trkpt>
      <trkpt lat="48.7098" lon="2.47696">
        <ele>34</ele>
        <time>2018-01-31T14:12:54Z</time>
      </trkpt>
      <trkpt lat="48.70986" lon="2.47701">
        <ele>34</ele>
        <time>2018-01-31T14:12:54Z</time>
      </trkpt>
      <trkpt lat="48.7099" lon="2.47702">
        <ele>34</ele>
        <time>2018-01-31T14:12:54Z</time>
      </trkpt>
      <trkpt lat="48.70992" lon="2.47709">
        <ele>35</ele>
        <time>2018-01-31T14:12:54Z</time>
      </trkpt>
      <trkpt lat="48.70991" lon="2.47711">
        <ele>35</ele>
        <time>2018-01-31T14:13:10Z</time>
      </trkpt>
      <trkpt lat="48.70993" lon="2.47714">
        <ele>35</ele>
        <time>2018-01-31T14:13:10Z</time>
      </trkpt>
      <trkpt lat="48.70996" lon="2.47717">
        <ele>35</ele>
        <time>2018-01-31T14:13:10Z</time>
      </trkpt>
      <trkpt lat="48.70998" lon="2.47721">
        <ele>35</ele>
        <time>2018-01-31T14:13:10Z</time>
      </trkpt>
      <trkpt lat="48.71001" lon="2.47724">
        <ele>35</ele>
        <time>2018-01-31T14:13:26Z</time>
      </trkpt>
      <trkpt lat="48.71003" lon="2.47726">
        <ele>35</ele>
        <time>2018-01-31T14:13:26Z</time>
      </trkpt>
      <trkpt lat="48.71007" lon="2.4773">
        <ele>35</ele>
        <time>2018-01-31T14:13:26Z</time>
      </trkpt>
      <trkpt lat="48.7101" lon="2.47735">
        <ele>35</ele>
        <time>2018-01-31T14:13:26Z</time>
      </trkpt>
      <trkpt lat="48.71015" lon="2.47739">
        <ele>35</ele>
        <time>2018-01-31T14:13:42Z</time>
      </trkpt>
      <trkpt lat="48.7102" lon="2.47745">
        <ele>35</ele>
        <time>2018-01-31T14:13:42Z</time>
      </trkpt>
      <trkpt lat="48.71023" lon="2.47749">
        <ele>35</ele>
        <time>2018-01-31T14:13:42Z</time>
      </trkpt>
      <trkpt lat="48.71025" lon="2.47752">
        <ele>35</ele>
        <time>2018-01-31T14:13:42Z</time>
      </trkpt>
      <trkpt lat="48.71027" lon="2.47756">
        <ele>35</ele>
        <time>2018-01-31T14:13:58Z</time>
      </trkpt>
      <trkpt lat="48.7103" lon="2.4776">
        <ele>35</ele>
        <time>2018-01-31T14:13:58Z</time>
      </trkpt>
      <trkpt lat="48.71036" lon="2.4777">
        <ele>35</ele>
        <time>2018-01-31T14:13:58Z</time>
      </trkpt>
      <trkpt lat="48.71039" lon="2.47777">
        <ele>35</ele>
        <time>2018-01-31T14:13:58Z</time>
      </trkpt>
      <trkpt lat="48.71042" lon="2.47784">
        <ele>35</ele>
        <time>2018-01-31T14:14:14Z</time>
      </trkpt>
      <trkpt lat="48.71043" lon="2.47787">
        <ele>38</ele>
        <time>2018-01-31T14:14:14Z</time>
      </trkpt>
      <trkpt lat="48.71044" lon="2.47798">
        <ele>36</ele>
        <time>2018-01-31T14:14:14Z</time>
      </trkpt>
      <trkpt lat="48.71046" lon="2.47798">
        <ele>36</ele>
        <time>2018-01-31T14:14:14Z</time>
      </trkpt>
      <trkpt lat="48.71048" lon="2.47796">
        <ele>36</ele>
        <time>2018-01-31T14:14:30Z</time>
      </trkpt>
      <trkpt lat="48.71058" lon="2.47793">
        <ele>36</ele>
        <time>2018-01-31T14:14:30Z</time>
      </trkpt>
      <trkpt lat="48.71066" lon="2.47791">
        <ele>38</ele>
        <time>2018-01-31T14:14:30Z</time>
      </trkpt>
      <trkpt lat="48.7107" lon="2.4779">
        <ele>38</ele>
        <time>2018-01-31T14:14:30Z</time>
      </trkpt>
      <trkpt lat="48.71073" lon="2.47789">
        <ele>38</ele>
        <time>2018-01-31T14:14:46Z</time>
      </trkpt>
      <trkpt lat="48.71077" lon="2.47787">
        <ele>38</ele>
        <time>2018-01-31T14:14:46Z</time>
      </trkpt>
      <trkpt lat="48.71082" lon="2.47786">
        <ele>38</ele>
        <time>2018-01-31T14:14:46Z</time>
      </trkpt>
      <trkpt lat="48.71086" lon="2.4779">
        <ele>38</ele>
        <time>2018-01-31T14:14:46Z</time>
      </trkpt>
      <trkpt lat="48.71088" lon="2.47796">
        <ele>36</ele>
        <time>2018-01-31T14:15:02Z</time>
      </trkpt>
      <trkpt lat="48.7109" lon="2.47804">
        <ele>36</ele>
        <time>2018-01-31T14:15:02Z</time>
      </trkpt>
      <trkpt lat="48.71089" lon="2.47817">
        <ele>36</ele>
        <time>2018-01-31T14:15:02Z</time>
      </trkpt>
      <trkpt lat="48.71088" lon="2.47827">
        <ele>36</ele>
        <time>2018-01-31T14:15:02Z</time>
      </trkpt>
      <trkpt lat="48.71086" lon="2.47841">
        <ele>36</ele>
        <time>2018-01-31T14:15:18Z</time>
      </trkpt>
      <trkpt lat="48.71085" lon="2.47851">
        <ele>36</ele>
        <time>2018-01-31T14:15:18Z</time>
      </trkpt>
      <trkpt lat="48.71085" lon="2.47856">
        <ele>36</ele>
        <time>2018-01-31T14:15:18Z</time>
      </trkpt>
      <trkpt lat="48.7109" lon="2.47855">
        <ele>36</ele>
        <time>2018-01-31T14:15:18Z</time>
      </trkpt>
      <trkpt lat="48.71093" lon="2.47857">
        <ele>36</ele>
        <time>2018-01-31T14:15:34Z</time>
      </trkpt>
      <trkpt lat="48.71095" lon="2.47864">
        <ele>36</ele>
        <time>2018-01-31T14:15:34Z</time>
      </trkpt>
      <trkpt lat="48.71098" lon="2.47868">
        <ele>36</ele>
        <time>2018-01-31T14:15:34Z</time>
      </trkpt>
      <trkpt lat="48.71105" lon="2.47875">
        <ele>36</ele>
        <time>2018-01-31T14:15:34Z</time>
      </trkpt>
      <trkpt lat="48.71106" lon="2.47882">
        <ele>36</ele>
        <time>2018-01-31T14:15:50Z</time>
      </trkpt>
      <trkpt lat="48.71106" lon="2.47888">
        <ele>36</ele>
        <time>2018-01-31T14:15:50Z</time>
      </trkpt>
      <trkpt lat="48.71106" lon="2.47894">
        <ele>36</ele>
        <time>2018-01-31T14:15:50Z</time>
      </trkpt>
      <trkpt lat="48.71107" lon="2.47901">
        <ele>36</ele>
        <time>2018-01-31T14:15:50Z</time>
      </trkpt>
      <trkpt lat="48.71107" lon="2.4791">
        <ele>36</ele>
        <time>2018-01-31T14:16:06Z</time>
      </trkpt>
      <trkpt lat="48.71108" lon="2.47918">
        <ele>36</ele>
        <time>2018-01-31T14:16:06Z</time>
      </trkpt>
      <trkpt lat="48.7111" lon="2.47924">
        <ele>36</ele>
        <time>2018-01-31T14:16:06Z</time>
      </trkpt>
      <trkpt lat="48.71112" lon="2.47931">
        <ele>36</ele>
        <time>2018-01-31T14:16:06Z</time>
      </trkpt>
      <trkpt lat="48.71113" lon="2.4794">
        <ele>36</ele>
        <time>2018-01-31T14:16:26Z</time>
      </trkpt>
      <trkpt lat="48.71115" lon="2.47944">
        <ele>36</ele>
        <time>2018-01-31T14:16:26Z</time>
      </trkpt>
      <trkpt lat="48.71116" lon="2.47947">
        <ele>36</ele>
        <time>2018-01-31T14:16:26Z</time>
      </trkpt>
      <trkpt lat="48.71117" lon="2.47949">
        <ele>36</ele>
        <time>2018-01-31T14:16:26Z</time>
      </trkpt>
      <trkpt lat="48.71119" lon="2.47954">
        <ele>36</ele>
        <time>2018-01-31T14:16:26Z</time>
      </trkpt>
      <trkpt lat="48.71121" lon="2.47961">
        <ele>36</ele>
        <time>2018-01-31T14:16:42Z</time>
      </trkpt>
      <trkpt lat="48.71123" lon="2.47967">
        <ele>36</ele>
        <time>2018-01-31T14:16:42Z</time>
      </trkpt>
      <trkpt lat="48.71126" lon="2.47974">
        <ele>39</ele>
        <time>2018-01-31T14:16:42Z</time>
      </trkpt>
      <trkpt lat="48.7113" lon="2.4798">
        <ele>39</ele>
        <time>2018-01-31T14:16:42Z</time>
      </trkpt>
      <trkpt lat="48.71133" lon="2.4798">
        <ele>39</ele>
        <time>2018-01-31T14:17:06Z</time>
      </trkpt>
      <trkpt lat="48.71133" lon="2.4798">
        <ele>39</ele>
        <time>2018-01-31T14:17:06Z</time>
      </trkpt>
      <trkpt lat="48.71134" lon="2.47979">
        <ele>39</ele>
        <time>2018-01-31T14:17:06Z</time>
      </trkpt>
      <trkpt lat="48.71136" lon="2.47978">
        <ele>39</ele>
        <time>2018-01-31T14:17:06Z</time>
      </trkpt>
      <trkpt lat="48.71141" lon="2.47975">
        <ele>39</ele>
        <time>2018-01-31T14:17:06Z</time>
      </trkpt>
      <trkpt lat="48.71157" lon="2.47973">
        <ele>39</ele>
        <time>2018-01-31T14:17:26Z</time>
      </trkpt>
      <trkpt lat="48.71156" lon="2.47972">
        <ele>39</ele>
        <time>2018-01-31T14:17:26Z</time>
      </trkpt>
      <trkpt lat="48.71158" lon="2.47969">
        <ele>39</ele>
        <time>2018-01-31T14:17:26Z</time>
      </trkpt>
      <trkpt lat="48.71164" lon="2.47965">
        <ele>39</ele>
        <time>2018-01-31T14:17:26Z</time>
      </trkpt>
      <trkpt lat="48.71176" lon="2.47963">
        <ele>39</ele>
        <time>2018-01-31T14:17:26Z</time>
      </trkpt>
      <trkpt lat="48.71178" lon="2.4796">
        <ele>39</ele>
        <time>2018-01-31T14:17:42Z</time>
      </trkpt>
      <trkpt lat="48.71192" lon="2.47957">
        <ele>38</ele>
        <time>2018-01-31T14:17:42Z</time>
      </trkpt>
      <trkpt lat="48.71206" lon="2.47953">
        <ele>38</ele>
        <time>2018-01-31T14:17:42Z</time>
      </trkpt>
      <trkpt lat="48.71209" lon="2.47952">
        <ele>41</ele>
        <time>2018-01-31T14:17:42Z</time>
      </trkpt>
      <trkpt lat="48.71211" lon="2.47951">
        <ele>41</ele>
        <time>2018-01-31T14:17:58Z</time>
      </trkpt>
      <trkpt lat="48.71215" lon="2.47949">
        <ele>41</ele>
        <time>2018-01-31T14:17:58Z</time>
      </trkpt>
      <trkpt lat="48.71219" lon="2.47948">
        <ele>41</ele>
        <time>2018-01-31T14:17:58Z</time>
      </trkpt>
      <trkpt lat="48.7122" lon="2.47947">
        <ele>41</ele>
        <time>2018-01-31T14:17:58Z</time>
      </trkpt>
      <trkpt lat="48.71222" lon="2.47945">
        <ele>41</ele>
        <time>2018-01-31T14:18:14Z</time>
      </trkpt>
      <trkpt lat="48.71225" lon="2.47944">
        <ele>41</ele>
        <time>2018-01-31T14:18:14Z</time>
      </trkpt>
      <trkpt lat="48.71229" lon="2.47942">
        <ele>41</ele>
        <time>2018-01-31T14:18:14Z</time>
      </trkpt>
      <trkpt lat="48.71234" lon="2.4794">
        <ele>41</ele>
        <time>2018-01-31T14:18:14Z</time>
      </trkpt>
      <trkpt lat="48.71239" lon="2.47939">
        <ele>41</ele>
        <time>2018-01-31T14:18:30Z</time>
      </trkpt>
      <trkpt lat="48.71243" lon="2.47938">
        <ele>41</ele>
        <time>2018-01-31T14:18:30Z</time>
      </trkpt>
      <trkpt lat="48.71247" lon="2.47937">
        <ele>41</ele>
        <time>2018-01-31T14:18:30Z</time>
      </trkpt>
      <trkpt lat="48.7126" lon="2.47938">
        <ele>41</ele>
        <time>2018-01-31T14:18:30Z</time>
      </trkpt>
      <trkpt lat="48.71263" lon="2.47939">
        <ele>41</ele>
        <time>2018-01-31T14:18:54Z</time>
      </trkpt>
      <trkpt lat="48.71264" lon="2.47941">
        <ele>41</ele>
        <time>2018-01-31T14:18:54Z</time>
      </trkpt>
      <trkpt lat="48.71266" lon="2.47943">
        <ele>41</ele>
        <time>2018-01-31T14:18:54Z</time>
      </trkpt>
      <trkpt lat="48.71268" lon="2.47943">
        <ele>41</ele>
        <time>2018-01-31T14:18:54Z</time>
      </trkpt>
      <trkpt lat="48.71273" lon="2.47942">
        <ele>41</ele>
        <time>2018-01-31T14:18:54Z</time>
      </trkpt>
      <trkpt lat="48.71277" lon="2.47942">
        <ele>41</ele>
        <time>2018-01-31T14:19:10Z</time>
      </trkpt>
      <trkpt lat="48.71279" lon="2.47941">
        <ele>41</ele>
        <time>2018-01-31T14:19:10Z</time>
      </trkpt>
      <trkpt lat="48.71288" lon="2.47939">
        <ele>41</ele>
        <time>2018-01-31T14:19:10Z</time>
      </trkpt>
      <trkpt lat="48.71298" lon="2.47938">
        <ele>39</ele>
        <time>2018-01-31T14:19:10Z</time>
      </trkpt>
      <trkpt lat="48.71304" lon="2.47937">
        <ele>39</ele>
        <time>2018-01-31T14:19:26Z</time>
      </trkpt>
      <trkpt lat="48.71306" lon="2.47936">
        <ele>39</ele>
        <time>2018-01-31T14:19:26Z</time>
      </trkpt>
      <trkpt lat="48.71309" lon="2.47935">
        <ele>39</ele>
        <time>2018-01-31T14:19:26Z</time>
      </trkpt>
      <trkpt lat="48.71313" lon="2.47933">
        <ele>39</ele>
        <time>2018-01-31T14:19:26Z</time>
      </trkpt>
      <trkpt lat="48.71315" lon="2.47932">
        <ele>39</ele>
        <time>2018-01-31T14:19:42Z</time>
      </trkpt>
      <trkpt lat="48.71323" lon="2.4793">
        <ele>39</ele>
        <time>2018-01-31T14:19:42Z</time>
      </trkpt>
      <trkpt lat="48.71323" lon="2.47929">
        <ele>39</ele>
        <time>2018-01-31T14:19:42Z</time>
      </trkpt>
      <trkpt lat="48.71325" lon="2.47927">
        <ele>39</ele>
        <time>2018-01-31T14:19:42Z</time>
      </trkpt>
      <trkpt lat="48.7133" lon="2.47924">
        <ele>39</ele>
        <time>2018-01-31T14:19:58Z</time>
      </trkpt>
      <trkpt lat="48.71338" lon="2.47921">
        <ele>39</ele>
        <time>2018-01-31T14:19:58Z</time>
      </trkpt>
      <trkpt lat="48.71339" lon="2.4792">
        <ele>39</ele>
        <time>2018-01-31T14:19:58Z</time>
      </trkpt>
      <trkpt lat="48.71345" lon="2.47917">
        <ele>39</ele>
        <time>2018-01-31T14:19:58Z</time>
      </trkpt>
      <trkpt lat="48.71352" lon="2.47914">
        <ele>39</ele>
        <time>2018-01-31T14:20:14Z</time>
      </trkpt>
      <trkpt lat="48.71366" lon="2.47912">
        <ele>39</ele>
        <time>2018-01-31T14:20:14Z</time>
      </trkpt>
      <trkpt lat="48.71378" lon="2.4791">
        <ele>39</ele>
        <time>2018-01-31T14:20:14Z</time>
      </trkpt>
      <trkpt lat="48.7138" lon="2.4791">
        <ele>39</ele>
        <time>2018-01-31T14:20:14Z</time>
      </trkpt>
      <trkpt lat="48.71381" lon="2.4791">
        <ele>39</ele>
        <time>2018-01-31T14:20:30Z</time>
      </trkpt>
      <trkpt lat="48.71385" lon="2.47907">
        <ele>39</ele>
        <time>2018-01-31T14:20:30Z</time>
      </trkpt>
      <trkpt lat="48.71388" lon="2.47907">
        <ele>39</ele>
        <time>2018-01-31T14:20:30Z</time>
      </trkpt>
      <trkpt lat="48.71392" lon="2.47905">
        <ele>39</ele>
        <time>2018-01-31T14:20:30Z</time>
      </trkpt>
      <trkpt lat="48.71397" lon="2.47903">
        <ele>39</ele>
        <time>2018-01-31T14:20:46Z</time>
      </trkpt>
      <trkpt lat="48.71404" lon="2.47901">
        <ele>39</ele>
        <time>2018-01-31T14:20:46Z</time>
      </trkpt>
      <trkpt lat="48.71412" lon="2.479">
        <ele>39</ele>
        <time>2018-01-31T14:20:46Z</time>
      </trkpt>
      <trkpt lat="48.71418" lon="2.47899">
        <ele>39</ele>
        <time>2018-01-31T14:20:46Z</time>
      </trkpt>
      <trkpt lat="48.71422" lon="2.47896">
        <ele>39</ele>
        <time>2018-01-31T14:21:22Z</time>
      </trkpt>
      <trkpt lat="48.71423" lon="2.47896">
        <ele>39</ele>
        <time>2018-01-31T14:21:22Z</time>
      </trkpt>
      <trkpt lat="48.71428" lon="2.47892">
        <ele>39</ele>
        <time>2018-01-31T14:21:22Z</time>
      </trkpt>
      <trkpt lat="48.71432" lon="2.47889">
        <ele>39</ele>
        <time>2018-01-31T14:21:22Z</time>
      </trkpt>
      <trkpt lat="48.71435" lon="2.47888">
        <ele>39</ele>
        <time>2018-01-31T14:21:22Z</time>
      </trkpt>
    </trkseg>
  </trk>
</gpx>